<?xml version="1.0" encoding="UTF-8" standalone="no" ?>
<gpx xmlns="http://www.topografix.com/GPX/1/1" xmlns:xsi="http://www.w3.org/2001/XMLSchema-instance" xsi:schemaLocation="http://www.topografix.com/GPX/1/1 http://www.topografix.com/GPX/1/1/gpx.xsd" version="1.1" creator="VisuGPX - https://www.visugpx.com">
  <metadata>
    <name>291</name>
    <desc><![CDATA[Itinéraire gr A : passage sur le trottoir à Juprelle,  évitement des travaux à Neerrepen et café sur la place de Tongres.]]></desc>
  </metadata>
  <trk>
    <name><![CDATA[CCFM 291]]></name>
    <extensions>
      <line xmlns="http://www.topografix.com/GPX/gpx_style/0/2">
        <color>0000FF</color>
        <width>4</width>
          <extensions>
            <sens>1</sens>
          </extensions>
      </line>
    </extensions>
    <trkseg>
      <trkpt lat="50.60286" lon="5.44911">
        <ele>184.6</ele>
        <time>2022-10-04T06:39:02Z</time>
      </trkpt>
      <trkpt lat="50.60296" lon="5.44907">
        <ele>186.8</ele>
        <time>2022-10-04T06:39:30Z</time>
      </trkpt>
      <trkpt lat="50.60298" lon="5.44907">
        <ele>186.8</ele>
        <time>2022-10-04T06:39:31Z</time>
      </trkpt>
      <trkpt lat="50.603" lon="5.44907">
        <ele>186.8</ele>
        <time>2022-10-04T06:39:32Z</time>
      </trkpt>
      <trkpt lat="50.60318" lon="5.44907">
        <ele>186.6</ele>
        <time>2022-10-04T06:39:39Z</time>
      </trkpt>
      <trkpt lat="50.60328" lon="5.44907">
        <ele>186.8</ele>
        <time>2022-10-04T06:39:44Z</time>
      </trkpt>
      <trkpt lat="50.60328" lon="5.44907">
        <ele>186.8</ele>
        <time>2022-10-04T06:39:45Z</time>
      </trkpt>
      <trkpt lat="50.60333" lon="5.44905">
        <ele>187</ele>
        <time>2022-10-04T06:39:58Z</time>
      </trkpt>
      <trkpt lat="50.60335" lon="5.44904">
        <ele>187</ele>
        <time>2022-10-04T06:39:59Z</time>
      </trkpt>
      <trkpt lat="50.60352" lon="5.44894">
        <ele>187</ele>
        <time>2022-10-04T06:40:04Z</time>
      </trkpt>
      <trkpt lat="50.60356" lon="5.44891">
        <ele>187</ele>
        <time>2022-10-04T06:40:05Z</time>
      </trkpt>
      <trkpt lat="50.60364" lon="5.44882">
        <ele>187</ele>
        <time>2022-10-04T06:40:07Z</time>
      </trkpt>
      <trkpt lat="50.60372" lon="5.44872">
        <ele>187.2</ele>
        <time>2022-10-04T06:40:09Z</time>
      </trkpt>
      <trkpt lat="50.60383" lon="5.44852">
        <ele>187</ele>
        <time>2022-10-04T06:40:12Z</time>
      </trkpt>
      <trkpt lat="50.60389" lon="5.44836">
        <ele>187</ele>
        <time>2022-10-04T06:40:14Z</time>
      </trkpt>
      <trkpt lat="50.60392" lon="5.44828">
        <ele>187</ele>
        <time>2022-10-04T06:40:15Z</time>
      </trkpt>
      <trkpt lat="50.60398" lon="5.44802">
        <ele>187</ele>
        <time>2022-10-04T06:40:18Z</time>
      </trkpt>
      <trkpt lat="50.60399" lon="5.44793">
        <ele>187.2</ele>
        <time>2022-10-04T06:40:19Z</time>
      </trkpt>
      <trkpt lat="50.604" lon="5.44765">
        <ele>187</ele>
        <time>2022-10-04T06:40:22Z</time>
      </trkpt>
      <trkpt lat="50.604" lon="5.44756">
        <ele>187.2</ele>
        <time>2022-10-04T06:40:23Z</time>
      </trkpt>
      <trkpt lat="50.60399" lon="5.4474">
        <ele>187.2</ele>
        <time>2022-10-04T06:40:25Z</time>
      </trkpt>
      <trkpt lat="50.6039" lon="5.44687">
        <ele>187.4</ele>
        <time>2022-10-04T06:40:32Z</time>
      </trkpt>
      <trkpt lat="50.60379" lon="5.44651">
        <ele>187.4</ele>
        <time>2022-10-04T06:40:37Z</time>
      </trkpt>
      <trkpt lat="50.60374" lon="5.44638">
        <ele>187.6</ele>
        <time>2022-10-04T06:40:39Z</time>
      </trkpt>
      <trkpt lat="50.60369" lon="5.44624">
        <ele>187.6</ele>
        <time>2022-10-04T06:40:41Z</time>
      </trkpt>
      <trkpt lat="50.60354" lon="5.44584">
        <ele>187.8</ele>
        <time>2022-10-04T06:40:47Z</time>
      </trkpt>
      <trkpt lat="50.60344" lon="5.44558">
        <ele>188.4</ele>
        <time>2022-10-04T06:40:51Z</time>
      </trkpt>
      <trkpt lat="50.60339" lon="5.44545">
        <ele>188.6</ele>
        <time>2022-10-04T06:40:53Z</time>
      </trkpt>
      <trkpt lat="50.60332" lon="5.44525">
        <ele>188.6</ele>
        <time>2022-10-04T06:40:56Z</time>
      </trkpt>
      <trkpt lat="50.60325" lon="5.44507">
        <ele>189.2</ele>
        <time>2022-10-04T06:40:59Z</time>
      </trkpt>
      <trkpt lat="50.6032" lon="5.44495">
        <ele>189.6</ele>
        <time>2022-10-04T06:41:01Z</time>
      </trkpt>
      <trkpt lat="50.60314" lon="5.44478">
        <ele>189.8</ele>
        <time>2022-10-04T06:41:05Z</time>
      </trkpt>
      <trkpt lat="50.60313" lon="5.44476">
        <ele>190</ele>
        <time>2022-10-04T06:41:06Z</time>
      </trkpt>
      <trkpt lat="50.60313" lon="5.44475">
        <ele>190</ele>
        <time>2022-10-04T06:41:07Z</time>
      </trkpt>
      <trkpt lat="50.60314" lon="5.44481">
        <ele>191</ele>
        <time>2022-10-04T06:41:12Z</time>
      </trkpt>
      <trkpt lat="50.60315" lon="5.44484">
        <ele>190.8</ele>
        <time>2022-10-04T06:41:13Z</time>
      </trkpt>
      <trkpt lat="50.60318" lon="5.44493">
        <ele>191.2</ele>
        <time>2022-10-04T06:41:15Z</time>
      </trkpt>
      <trkpt lat="50.60323" lon="5.44505">
        <ele>191.2</ele>
        <time>2022-10-04T06:41:17Z</time>
      </trkpt>
      <trkpt lat="50.60341" lon="5.4455">
        <ele>191.2</ele>
        <time>2022-10-04T06:41:23Z</time>
      </trkpt>
      <trkpt lat="50.60344" lon="5.44558">
        <ele>191</ele>
        <time>2022-10-04T06:41:24Z</time>
      </trkpt>
      <trkpt lat="50.60356" lon="5.44592">
        <ele>190</ele>
        <time>2022-10-04T06:41:28Z</time>
      </trkpt>
      <trkpt lat="50.60372" lon="5.44636">
        <ele>189.2</ele>
        <time>2022-10-04T06:41:33Z</time>
      </trkpt>
      <trkpt lat="50.60379" lon="5.44655">
        <ele>189</ele>
        <time>2022-10-04T06:41:35Z</time>
      </trkpt>
      <trkpt lat="50.60392" lon="5.44695">
        <ele>188.6</ele>
        <time>2022-10-04T06:41:39Z</time>
      </trkpt>
      <trkpt lat="50.60394" lon="5.44706">
        <ele>188.4</ele>
        <time>2022-10-04T06:41:40Z</time>
      </trkpt>
      <trkpt lat="50.60396" lon="5.44718">
        <ele>188.4</ele>
        <time>2022-10-04T06:41:41Z</time>
      </trkpt>
      <trkpt lat="50.604" lon="5.44787">
        <ele>187.2</ele>
        <time>2022-10-04T06:41:47Z</time>
      </trkpt>
      <trkpt lat="50.60398" lon="5.4481">
        <ele>186.8</ele>
        <time>2022-10-04T06:41:49Z</time>
      </trkpt>
      <trkpt lat="50.60392" lon="5.44831">
        <ele>186.6</ele>
        <time>2022-10-04T06:41:51Z</time>
      </trkpt>
      <trkpt lat="50.60375" lon="5.44868">
        <ele>186</ele>
        <time>2022-10-04T06:41:55Z</time>
      </trkpt>
      <trkpt lat="50.60364" lon="5.44884">
        <ele>185.8</ele>
        <time>2022-10-04T06:41:57Z</time>
      </trkpt>
      <trkpt lat="50.60351" lon="5.44895">
        <ele>185.6</ele>
        <time>2022-10-04T06:41:59Z</time>
      </trkpt>
      <trkpt lat="50.60344" lon="5.44899">
        <ele>185.6</ele>
        <time>2022-10-04T06:42:00Z</time>
      </trkpt>
      <trkpt lat="50.60317" lon="5.44909">
        <ele>185.4</ele>
        <time>2022-10-04T06:42:04Z</time>
      </trkpt>
      <trkpt lat="50.60289" lon="5.44914">
        <ele>185.4</ele>
        <time>2022-10-04T06:42:09Z</time>
      </trkpt>
      <trkpt lat="50.60286" lon="5.44914">
        <ele>185.4</ele>
        <time>2022-10-04T06:42:10Z</time>
      </trkpt>
      <trkpt lat="50.60285" lon="5.44915">
        <ele>185.4</ele>
        <time>2022-10-04T06:42:11Z</time>
      </trkpt>
      <trkpt lat="50.60284" lon="5.44916">
        <ele>185.4</ele>
        <time>2022-10-04T06:42:12Z</time>
      </trkpt>
      <trkpt lat="50.60283" lon="5.44921">
        <ele>185.4</ele>
        <time>2022-10-04T06:42:15Z</time>
      </trkpt>
      <trkpt lat="50.60291" lon="5.4491">
        <ele>186.4</ele>
        <time>2022-10-04T06:46:15Z</time>
      </trkpt>
      <trkpt lat="50.60292" lon="5.44909">
        <ele>186.4</ele>
        <time>2022-10-04T06:46:16Z</time>
      </trkpt>
      <trkpt lat="50.60306" lon="5.4491">
        <ele>186.8</ele>
        <time>2022-10-04T06:46:21Z</time>
      </trkpt>
      <trkpt lat="50.60326" lon="5.44907">
        <ele>186.8</ele>
        <time>2022-10-04T06:46:26Z</time>
      </trkpt>
      <trkpt lat="50.60331" lon="5.44906">
        <ele>186.8</ele>
        <time>2022-10-04T06:46:27Z</time>
      </trkpt>
      <trkpt lat="50.60344" lon="5.449">
        <ele>186.6</ele>
        <time>2022-10-04T06:46:30Z</time>
      </trkpt>
      <trkpt lat="50.60353" lon="5.44893">
        <ele>186.4</ele>
        <time>2022-10-04T06:46:32Z</time>
      </trkpt>
      <trkpt lat="50.60366" lon="5.44881">
        <ele>186.4</ele>
        <time>2022-10-04T06:46:35Z</time>
      </trkpt>
      <trkpt lat="50.60375" lon="5.44869">
        <ele>186.6</ele>
        <time>2022-10-04T06:46:37Z</time>
      </trkpt>
      <trkpt lat="50.60382" lon="5.44856">
        <ele>186.4</ele>
        <time>2022-10-04T06:46:39Z</time>
      </trkpt>
      <trkpt lat="50.60391" lon="5.44835">
        <ele>186.4</ele>
        <time>2022-10-04T06:46:42Z</time>
      </trkpt>
      <trkpt lat="50.60398" lon="5.44804">
        <ele>186.4</ele>
        <time>2022-10-04T06:46:46Z</time>
      </trkpt>
      <trkpt lat="50.604" lon="5.44796">
        <ele>186.6</ele>
        <time>2022-10-04T06:46:47Z</time>
      </trkpt>
      <trkpt lat="50.604" lon="5.44743">
        <ele>187</ele>
        <time>2022-10-04T06:46:53Z</time>
      </trkpt>
      <trkpt lat="50.6039" lon="5.44681">
        <ele>187.2</ele>
        <time>2022-10-04T06:47:00Z</time>
      </trkpt>
      <trkpt lat="50.60373" lon="5.44633">
        <ele>187.6</ele>
        <time>2022-10-04T06:47:06Z</time>
      </trkpt>
      <trkpt lat="50.60367" lon="5.44617">
        <ele>187.6</ele>
        <time>2022-10-04T06:47:08Z</time>
      </trkpt>
      <trkpt lat="50.60364" lon="5.4461">
        <ele>187.4</ele>
        <time>2022-10-04T06:47:09Z</time>
      </trkpt>
      <trkpt lat="50.6035" lon="5.44572">
        <ele>187.6</ele>
        <time>2022-10-04T06:47:14Z</time>
      </trkpt>
      <trkpt lat="50.60344" lon="5.44557">
        <ele>187.6</ele>
        <time>2022-10-04T06:47:16Z</time>
      </trkpt>
      <trkpt lat="50.60337" lon="5.44535">
        <ele>188.4</ele>
        <time>2022-10-04T06:47:19Z</time>
      </trkpt>
      <trkpt lat="50.60331" lon="5.4452">
        <ele>188.4</ele>
        <time>2022-10-04T06:47:21Z</time>
      </trkpt>
      <trkpt lat="50.60329" lon="5.44512">
        <ele>188.6</ele>
        <time>2022-10-04T06:47:22Z</time>
      </trkpt>
      <trkpt lat="50.60308" lon="5.44461">
        <ele>189.4</ele>
        <time>2022-10-04T06:47:29Z</time>
      </trkpt>
      <trkpt lat="50.60283" lon="5.44395">
        <ele>190.4</ele>
        <time>2022-10-04T06:47:38Z</time>
      </trkpt>
      <trkpt lat="50.60281" lon="5.44387">
        <ele>190.6</ele>
        <time>2022-10-04T06:47:39Z</time>
      </trkpt>
      <trkpt lat="50.60279" lon="5.4438">
        <ele>190.6</ele>
        <time>2022-10-04T06:47:40Z</time>
      </trkpt>
      <trkpt lat="50.60281" lon="5.44364">
        <ele>190.8</ele>
        <time>2022-10-04T06:47:42Z</time>
      </trkpt>
      <trkpt lat="50.60293" lon="5.44312">
        <ele>191.8</ele>
        <time>2022-10-04T06:47:48Z</time>
      </trkpt>
      <trkpt lat="50.60295" lon="5.44303">
        <ele>191.8</ele>
        <time>2022-10-04T06:47:49Z</time>
      </trkpt>
      <trkpt lat="50.60298" lon="5.44295">
        <ele>191.8</ele>
        <time>2022-10-04T06:47:50Z</time>
      </trkpt>
      <trkpt lat="50.60309" lon="5.44272">
        <ele>191.6</ele>
        <time>2022-10-04T06:47:53Z</time>
      </trkpt>
      <trkpt lat="50.60337" lon="5.44234">
        <ele>191.6</ele>
        <time>2022-10-04T06:47:59Z</time>
      </trkpt>
      <trkpt lat="50.6036" lon="5.44204">
        <ele>191.6</ele>
        <time>2022-10-04T06:48:04Z</time>
      </trkpt>
      <trkpt lat="50.60376" lon="5.4418">
        <ele>192</ele>
        <time>2022-10-04T06:48:08Z</time>
      </trkpt>
      <trkpt lat="50.6038" lon="5.44174">
        <ele>192</ele>
        <time>2022-10-04T06:48:09Z</time>
      </trkpt>
      <trkpt lat="50.60402" lon="5.44145">
        <ele>193</ele>
        <time>2022-10-04T06:48:14Z</time>
      </trkpt>
      <trkpt lat="50.6042" lon="5.44122">
        <ele>194</ele>
        <time>2022-10-04T06:48:18Z</time>
      </trkpt>
      <trkpt lat="50.60433" lon="5.44105">
        <ele>194.4</ele>
        <time>2022-10-04T06:48:21Z</time>
      </trkpt>
      <trkpt lat="50.60453" lon="5.44087">
        <ele>194.6</ele>
        <time>2022-10-04T06:48:25Z</time>
      </trkpt>
      <trkpt lat="50.60486" lon="5.44058">
        <ele>195.2</ele>
        <time>2022-10-04T06:48:32Z</time>
      </trkpt>
      <trkpt lat="50.60488" lon="5.44053">
        <ele>195.4</ele>
        <time>2022-10-04T06:48:33Z</time>
      </trkpt>
      <trkpt lat="50.60488" lon="5.44046">
        <ele>195.4</ele>
        <time>2022-10-04T06:48:34Z</time>
      </trkpt>
      <trkpt lat="50.60486" lon="5.44032">
        <ele>195.8</ele>
        <time>2022-10-04T06:48:36Z</time>
      </trkpt>
      <trkpt lat="50.6048" lon="5.44012">
        <ele>196</ele>
        <time>2022-10-04T06:48:39Z</time>
      </trkpt>
      <trkpt lat="50.60474" lon="5.43992">
        <ele>196.6</ele>
        <time>2022-10-04T06:48:42Z</time>
      </trkpt>
      <trkpt lat="50.60473" lon="5.43985">
        <ele>197</ele>
        <time>2022-10-04T06:48:43Z</time>
      </trkpt>
      <trkpt lat="50.60475" lon="5.4398">
        <ele>197</ele>
        <time>2022-10-04T06:48:44Z</time>
      </trkpt>
      <trkpt lat="50.60481" lon="5.43972">
        <ele>197.2</ele>
        <time>2022-10-04T06:48:46Z</time>
      </trkpt>
      <trkpt lat="50.6049" lon="5.43968">
        <ele>197.2</ele>
        <time>2022-10-04T06:48:48Z</time>
      </trkpt>
      <trkpt lat="50.60505" lon="5.43961">
        <ele>197.4</ele>
        <time>2022-10-04T06:48:51Z</time>
      </trkpt>
      <trkpt lat="50.60538" lon="5.43943">
        <ele>197.6</ele>
        <time>2022-10-04T06:48:57Z</time>
      </trkpt>
      <trkpt lat="50.60543" lon="5.4394">
        <ele>197.6</ele>
        <time>2022-10-04T06:48:58Z</time>
      </trkpt>
      <trkpt lat="50.60561" lon="5.43927">
        <ele>197.6</ele>
        <time>2022-10-04T06:49:01Z</time>
      </trkpt>
      <trkpt lat="50.60573" lon="5.43917">
        <ele>197.4</ele>
        <time>2022-10-04T06:49:03Z</time>
      </trkpt>
      <trkpt lat="50.60592" lon="5.43903">
        <ele>197.4</ele>
        <time>2022-10-04T06:49:06Z</time>
      </trkpt>
      <trkpt lat="50.60611" lon="5.43888">
        <ele>196.2</ele>
        <time>2022-10-04T06:49:09Z</time>
      </trkpt>
      <trkpt lat="50.60624" lon="5.43879">
        <ele>196</ele>
        <time>2022-10-04T06:49:11Z</time>
      </trkpt>
      <trkpt lat="50.60677" lon="5.43837">
        <ele>195.2</ele>
        <time>2022-10-04T06:49:19Z</time>
      </trkpt>
      <trkpt lat="50.60696" lon="5.43822">
        <ele>194.8</ele>
        <time>2022-10-04T06:49:22Z</time>
      </trkpt>
      <trkpt lat="50.6072" lon="5.43801">
        <ele>194.6</ele>
        <time>2022-10-04T06:49:26Z</time>
      </trkpt>
      <trkpt lat="50.60749" lon="5.43785">
        <ele>194.6</ele>
        <time>2022-10-04T06:49:30Z</time>
      </trkpt>
      <trkpt lat="50.60764" lon="5.43786">
        <ele>194.6</ele>
        <time>2022-10-04T06:49:32Z</time>
      </trkpt>
      <trkpt lat="50.60772" lon="5.43789">
        <ele>194.4</ele>
        <time>2022-10-04T06:49:33Z</time>
      </trkpt>
      <trkpt lat="50.6078" lon="5.43792">
        <ele>194.4</ele>
        <time>2022-10-04T06:49:34Z</time>
      </trkpt>
      <trkpt lat="50.60827" lon="5.43819">
        <ele>193</ele>
        <time>2022-10-04T06:49:40Z</time>
      </trkpt>
      <trkpt lat="50.60864" lon="5.43847">
        <ele>192</ele>
        <time>2022-10-04T06:49:45Z</time>
      </trkpt>
      <trkpt lat="50.60879" lon="5.43859">
        <ele>191.8</ele>
        <time>2022-10-04T06:49:47Z</time>
      </trkpt>
      <trkpt lat="50.60886" lon="5.43864">
        <ele>191.6</ele>
        <time>2022-10-04T06:49:48Z</time>
      </trkpt>
      <trkpt lat="50.60936" lon="5.43903">
        <ele>191.4</ele>
        <time>2022-10-04T06:49:55Z</time>
      </trkpt>
      <trkpt lat="50.6095" lon="5.43913">
        <ele>191.4</ele>
        <time>2022-10-04T06:49:57Z</time>
      </trkpt>
      <trkpt lat="50.60999" lon="5.43951">
        <ele>191.4</ele>
        <time>2022-10-04T06:50:04Z</time>
      </trkpt>
      <trkpt lat="50.61041" lon="5.43984">
        <ele>191.4</ele>
        <time>2022-10-04T06:50:10Z</time>
      </trkpt>
      <trkpt lat="50.6109" lon="5.44022">
        <ele>191.6</ele>
        <time>2022-10-04T06:50:17Z</time>
      </trkpt>
      <trkpt lat="50.61118" lon="5.44044">
        <ele>191.8</ele>
        <time>2022-10-04T06:50:21Z</time>
      </trkpt>
      <trkpt lat="50.61174" lon="5.44085">
        <ele>192</ele>
        <time>2022-10-04T06:50:29Z</time>
      </trkpt>
      <trkpt lat="50.6118" lon="5.4409">
        <ele>192</ele>
        <time>2022-10-04T06:50:30Z</time>
      </trkpt>
      <trkpt lat="50.61234" lon="5.44125">
        <ele>192.6</ele>
        <time>2022-10-04T06:50:38Z</time>
      </trkpt>
      <trkpt lat="50.61241" lon="5.44129">
        <ele>192.4</ele>
        <time>2022-10-04T06:50:39Z</time>
      </trkpt>
      <trkpt lat="50.61247" lon="5.44133">
        <ele>192.4</ele>
        <time>2022-10-04T06:50:40Z</time>
      </trkpt>
      <trkpt lat="50.61279" lon="5.44155">
        <ele>193</ele>
        <time>2022-10-04T06:50:45Z</time>
      </trkpt>
      <trkpt lat="50.61312" lon="5.44177">
        <ele>194.2</ele>
        <time>2022-10-04T06:50:51Z</time>
      </trkpt>
      <trkpt lat="50.61333" lon="5.4419">
        <ele>194.6</ele>
        <time>2022-10-04T06:50:55Z</time>
      </trkpt>
      <trkpt lat="50.61347" lon="5.442">
        <ele>194.8</ele>
        <time>2022-10-04T06:50:58Z</time>
      </trkpt>
      <trkpt lat="50.61382" lon="5.44223">
        <ele>195.6</ele>
        <time>2022-10-04T06:51:05Z</time>
      </trkpt>
      <trkpt lat="50.61392" lon="5.4423">
        <ele>195.8</ele>
        <time>2022-10-04T06:51:07Z</time>
      </trkpt>
      <trkpt lat="50.61413" lon="5.44245">
        <ele>196</ele>
        <time>2022-10-04T06:51:11Z</time>
      </trkpt>
      <trkpt lat="50.61423" lon="5.44258">
        <ele>196</ele>
        <time>2022-10-04T06:51:13Z</time>
      </trkpt>
      <trkpt lat="50.61439" lon="5.44299">
        <ele>196.2</ele>
        <time>2022-10-04T06:51:18Z</time>
      </trkpt>
      <trkpt lat="50.61445" lon="5.44316">
        <ele>196.4</ele>
        <time>2022-10-04T06:51:20Z</time>
      </trkpt>
      <trkpt lat="50.61468" lon="5.44384">
        <ele>196.6</ele>
        <time>2022-10-04T06:51:28Z</time>
      </trkpt>
      <trkpt lat="50.6148" lon="5.44418">
        <ele>196.8</ele>
        <time>2022-10-04T06:51:32Z</time>
      </trkpt>
      <trkpt lat="50.61493" lon="5.44452">
        <ele>196.6</ele>
        <time>2022-10-04T06:51:36Z</time>
      </trkpt>
      <trkpt lat="50.61497" lon="5.4446">
        <ele>196.4</ele>
        <time>2022-10-04T06:51:37Z</time>
      </trkpt>
      <trkpt lat="50.61531" lon="5.4453">
        <ele>196</ele>
        <time>2022-10-04T06:51:46Z</time>
      </trkpt>
      <trkpt lat="50.61535" lon="5.44538">
        <ele>196.2</ele>
        <time>2022-10-04T06:51:47Z</time>
      </trkpt>
      <trkpt lat="50.61567" lon="5.446">
        <ele>195.6</ele>
        <time>2022-10-04T06:51:55Z</time>
      </trkpt>
      <trkpt lat="50.61571" lon="5.44609">
        <ele>195.4</ele>
        <time>2022-10-04T06:51:56Z</time>
      </trkpt>
      <trkpt lat="50.61583" lon="5.44633">
        <ele>195.6</ele>
        <time>2022-10-04T06:51:59Z</time>
      </trkpt>
      <trkpt lat="50.6162" lon="5.44705">
        <ele>195</ele>
        <time>2022-10-04T06:52:08Z</time>
      </trkpt>
      <trkpt lat="50.61628" lon="5.44721">
        <ele>194.8</ele>
        <time>2022-10-04T06:52:10Z</time>
      </trkpt>
      <trkpt lat="50.61642" lon="5.44744">
        <ele>194.6</ele>
        <time>2022-10-04T06:52:13Z</time>
      </trkpt>
      <trkpt lat="50.61672" lon="5.44787">
        <ele>194.2</ele>
        <time>2022-10-04T06:52:19Z</time>
      </trkpt>
      <trkpt lat="50.61688" lon="5.44806">
        <ele>193.6</ele>
        <time>2022-10-04T06:52:22Z</time>
      </trkpt>
      <trkpt lat="50.61715" lon="5.44835">
        <ele>193</ele>
        <time>2022-10-04T06:52:27Z</time>
      </trkpt>
      <trkpt lat="50.61727" lon="5.44845">
        <ele>193</ele>
        <time>2022-10-04T06:52:29Z</time>
      </trkpt>
      <trkpt lat="50.61745" lon="5.44859">
        <ele>192.8</ele>
        <time>2022-10-04T06:52:32Z</time>
      </trkpt>
      <trkpt lat="50.61756" lon="5.4487">
        <ele>192.8</ele>
        <time>2022-10-04T06:52:34Z</time>
      </trkpt>
      <trkpt lat="50.61806" lon="5.44908">
        <ele>191.4</ele>
        <time>2022-10-04T06:52:42Z</time>
      </trkpt>
      <trkpt lat="50.61818" lon="5.44917">
        <ele>191.4</ele>
        <time>2022-10-04T06:52:44Z</time>
      </trkpt>
      <trkpt lat="50.61836" lon="5.44931">
        <ele>191.2</ele>
        <time>2022-10-04T06:52:47Z</time>
      </trkpt>
      <trkpt lat="50.61842" lon="5.44935">
        <ele>191</ele>
        <time>2022-10-04T06:52:48Z</time>
      </trkpt>
      <trkpt lat="50.61864" lon="5.44952">
        <ele>190.8</ele>
        <time>2022-10-04T06:52:52Z</time>
      </trkpt>
      <trkpt lat="50.61876" lon="5.44961">
        <ele>190.6</ele>
        <time>2022-10-04T06:52:54Z</time>
      </trkpt>
      <trkpt lat="50.61907" lon="5.44984">
        <ele>190.2</ele>
        <time>2022-10-04T06:52:59Z</time>
      </trkpt>
      <trkpt lat="50.61958" lon="5.45023">
        <ele>189</ele>
        <time>2022-10-04T06:53:07Z</time>
      </trkpt>
      <trkpt lat="50.6199" lon="5.45047">
        <ele>188.4</ele>
        <time>2022-10-04T06:53:12Z</time>
      </trkpt>
      <trkpt lat="50.62016" lon="5.45069">
        <ele>188</ele>
        <time>2022-10-04T06:53:16Z</time>
      </trkpt>
      <trkpt lat="50.62022" lon="5.45075">
        <ele>188</ele>
        <time>2022-10-04T06:53:17Z</time>
      </trkpt>
      <trkpt lat="50.62047" lon="5.45099">
        <ele>187.6</ele>
        <time>2022-10-04T06:53:21Z</time>
      </trkpt>
      <trkpt lat="50.62058" lon="5.45115">
        <ele>187.2</ele>
        <time>2022-10-04T06:53:23Z</time>
      </trkpt>
      <trkpt lat="50.62063" lon="5.45124">
        <ele>187</ele>
        <time>2022-10-04T06:53:24Z</time>
      </trkpt>
      <trkpt lat="50.62078" lon="5.45149">
        <ele>186.8</ele>
        <time>2022-10-04T06:53:27Z</time>
      </trkpt>
      <trkpt lat="50.62098" lon="5.45183">
        <ele>186.2</ele>
        <time>2022-10-04T06:53:31Z</time>
      </trkpt>
      <trkpt lat="50.62107" lon="5.452">
        <ele>185.6</ele>
        <time>2022-10-04T06:53:33Z</time>
      </trkpt>
      <trkpt lat="50.62117" lon="5.45217">
        <ele>185</ele>
        <time>2022-10-04T06:53:35Z</time>
      </trkpt>
      <trkpt lat="50.62127" lon="5.45234">
        <ele>184.6</ele>
        <time>2022-10-04T06:53:37Z</time>
      </trkpt>
      <trkpt lat="50.62142" lon="5.4526">
        <ele>184.6</ele>
        <time>2022-10-04T06:53:40Z</time>
      </trkpt>
      <trkpt lat="50.62152" lon="5.45278">
        <ele>184</ele>
        <time>2022-10-04T06:53:42Z</time>
      </trkpt>
      <trkpt lat="50.62156" lon="5.45286">
        <ele>184</ele>
        <time>2022-10-04T06:53:43Z</time>
      </trkpt>
      <trkpt lat="50.6217" lon="5.4531">
        <ele>183.6</ele>
        <time>2022-10-04T06:53:46Z</time>
      </trkpt>
      <trkpt lat="50.62174" lon="5.45317">
        <ele>183.4</ele>
        <time>2022-10-04T06:53:47Z</time>
      </trkpt>
      <trkpt lat="50.62187" lon="5.45339">
        <ele>183.2</ele>
        <time>2022-10-04T06:53:50Z</time>
      </trkpt>
      <trkpt lat="50.62199" lon="5.45359">
        <ele>183.2</ele>
        <time>2022-10-04T06:53:53Z</time>
      </trkpt>
      <trkpt lat="50.62212" lon="5.45384">
        <ele>183.2</ele>
        <time>2022-10-04T06:53:57Z</time>
      </trkpt>
      <trkpt lat="50.62216" lon="5.4539">
        <ele>183.2</ele>
        <time>2022-10-04T06:53:58Z</time>
      </trkpt>
      <trkpt lat="50.62235" lon="5.45424">
        <ele>184</ele>
        <time>2022-10-04T06:54:03Z</time>
      </trkpt>
      <trkpt lat="50.6224" lon="5.45431">
        <ele>183.8</ele>
        <time>2022-10-04T06:54:04Z</time>
      </trkpt>
      <trkpt lat="50.62252" lon="5.45452">
        <ele>184</ele>
        <time>2022-10-04T06:54:07Z</time>
      </trkpt>
      <trkpt lat="50.62269" lon="5.4548">
        <ele>184.4</ele>
        <time>2022-10-04T06:54:11Z</time>
      </trkpt>
      <trkpt lat="50.62285" lon="5.45507">
        <ele>184.8</ele>
        <time>2022-10-04T06:54:15Z</time>
      </trkpt>
      <trkpt lat="50.623" lon="5.45532">
        <ele>185.6</ele>
        <time>2022-10-04T06:54:19Z</time>
      </trkpt>
      <trkpt lat="50.62314" lon="5.45553">
        <ele>186.4</ele>
        <time>2022-10-04T06:54:23Z</time>
      </trkpt>
      <trkpt lat="50.62321" lon="5.45564">
        <ele>186.6</ele>
        <time>2022-10-04T06:54:25Z</time>
      </trkpt>
      <trkpt lat="50.62333" lon="5.45578">
        <ele>187.2</ele>
        <time>2022-10-04T06:54:28Z</time>
      </trkpt>
      <trkpt lat="50.62343" lon="5.45579">
        <ele>187.2</ele>
        <time>2022-10-04T06:54:30Z</time>
      </trkpt>
      <trkpt lat="50.62352" lon="5.4557">
        <ele>187.8</ele>
        <time>2022-10-04T06:54:32Z</time>
      </trkpt>
      <trkpt lat="50.62356" lon="5.45563">
        <ele>187.8</ele>
        <time>2022-10-04T06:54:33Z</time>
      </trkpt>
      <trkpt lat="50.62359" lon="5.45555">
        <ele>187.8</ele>
        <time>2022-10-04T06:54:34Z</time>
      </trkpt>
      <trkpt lat="50.62366" lon="5.45542">
        <ele>188.2</ele>
        <time>2022-10-04T06:54:36Z</time>
      </trkpt>
      <trkpt lat="50.62375" lon="5.45521">
        <ele>188.4</ele>
        <time>2022-10-04T06:54:39Z</time>
      </trkpt>
      <trkpt lat="50.62378" lon="5.45515">
        <ele>188.4</ele>
        <time>2022-10-04T06:54:40Z</time>
      </trkpt>
      <trkpt lat="50.62393" lon="5.4548">
        <ele>188.8</ele>
        <time>2022-10-04T06:54:45Z</time>
      </trkpt>
      <trkpt lat="50.624" lon="5.45467">
        <ele>189</ele>
        <time>2022-10-04T06:54:47Z</time>
      </trkpt>
      <trkpt lat="50.62403" lon="5.4546">
        <ele>189.2</ele>
        <time>2022-10-04T06:54:48Z</time>
      </trkpt>
      <trkpt lat="50.62421" lon="5.45425">
        <ele>189.8</ele>
        <time>2022-10-04T06:54:53Z</time>
      </trkpt>
      <trkpt lat="50.62442" lon="5.4538">
        <ele>190.2</ele>
        <time>2022-10-04T06:54:59Z</time>
      </trkpt>
      <trkpt lat="50.62446" lon="5.45373">
        <ele>190.2</ele>
        <time>2022-10-04T06:55:00Z</time>
      </trkpt>
      <trkpt lat="50.62453" lon="5.45359">
        <ele>190.2</ele>
        <time>2022-10-04T06:55:02Z</time>
      </trkpt>
      <trkpt lat="50.62459" lon="5.45344">
        <ele>190.2</ele>
        <time>2022-10-04T06:55:04Z</time>
      </trkpt>
      <trkpt lat="50.62462" lon="5.45328">
        <ele>190.2</ele>
        <time>2022-10-04T06:55:06Z</time>
      </trkpt>
      <trkpt lat="50.62463" lon="5.4532">
        <ele>190.2</ele>
        <time>2022-10-04T06:55:07Z</time>
      </trkpt>
      <trkpt lat="50.62464" lon="5.45287">
        <ele>190.4</ele>
        <time>2022-10-04T06:55:11Z</time>
      </trkpt>
      <trkpt lat="50.62463" lon="5.45247">
        <ele>190.4</ele>
        <time>2022-10-04T06:55:16Z</time>
      </trkpt>
      <trkpt lat="50.62463" lon="5.45231">
        <ele>190.6</ele>
        <time>2022-10-04T06:55:18Z</time>
      </trkpt>
      <trkpt lat="50.62462" lon="5.45192">
        <ele>190.8</ele>
        <time>2022-10-04T06:55:23Z</time>
      </trkpt>
      <trkpt lat="50.62463" lon="5.45161">
        <ele>191.2</ele>
        <time>2022-10-04T06:55:27Z</time>
      </trkpt>
      <trkpt lat="50.62463" lon="5.45104">
        <ele>191.6</ele>
        <time>2022-10-04T06:55:34Z</time>
      </trkpt>
      <trkpt lat="50.62463" lon="5.45096">
        <ele>191.8</ele>
        <time>2022-10-04T06:55:35Z</time>
      </trkpt>
      <trkpt lat="50.62461" lon="5.45052">
        <ele>192.2</ele>
        <time>2022-10-04T06:55:40Z</time>
      </trkpt>
      <trkpt lat="50.6246" lon="5.44988">
        <ele>192.8</ele>
        <time>2022-10-04T06:55:47Z</time>
      </trkpt>
      <trkpt lat="50.62459" lon="5.44932">
        <ele>192.8</ele>
        <time>2022-10-04T06:55:53Z</time>
      </trkpt>
      <trkpt lat="50.62458" lon="5.44879">
        <ele>192.8</ele>
        <time>2022-10-04T06:55:59Z</time>
      </trkpt>
      <trkpt lat="50.62457" lon="5.44861">
        <ele>193</ele>
        <time>2022-10-04T06:56:01Z</time>
      </trkpt>
      <trkpt lat="50.62456" lon="5.44783">
        <ele>193</ele>
        <time>2022-10-04T06:56:10Z</time>
      </trkpt>
      <trkpt lat="50.62455" lon="5.44767">
        <ele>193.2</ele>
        <time>2022-10-04T06:56:12Z</time>
      </trkpt>
      <trkpt lat="50.62454" lon="5.44752">
        <ele>193.2</ele>
        <time>2022-10-04T06:56:14Z</time>
      </trkpt>
      <trkpt lat="50.62455" lon="5.44745">
        <ele>193.2</ele>
        <time>2022-10-04T06:56:15Z</time>
      </trkpt>
      <trkpt lat="50.62456" lon="5.4473">
        <ele>193.4</ele>
        <time>2022-10-04T06:56:17Z</time>
      </trkpt>
      <trkpt lat="50.62456" lon="5.44694">
        <ele>193.6</ele>
        <time>2022-10-04T06:56:22Z</time>
      </trkpt>
      <trkpt lat="50.62457" lon="5.44637">
        <ele>194.2</ele>
        <time>2022-10-04T06:56:30Z</time>
      </trkpt>
      <trkpt lat="50.62457" lon="5.44623">
        <ele>194.2</ele>
        <time>2022-10-04T06:56:32Z</time>
      </trkpt>
      <trkpt lat="50.62458" lon="5.44583">
        <ele>194.6</ele>
        <time>2022-10-04T06:56:38Z</time>
      </trkpt>
      <trkpt lat="50.62458" lon="5.44572">
        <ele>194.6</ele>
        <time>2022-10-04T06:56:42Z</time>
      </trkpt>
      <trkpt lat="50.62456" lon="5.44579">
        <ele>195.2</ele>
        <time>2022-10-04T07:02:30Z</time>
      </trkpt>
      <trkpt lat="50.62456" lon="5.44583">
        <ele>195.4</ele>
        <time>2022-10-04T07:02:31Z</time>
      </trkpt>
      <trkpt lat="50.62456" lon="5.44587">
        <ele>195.2</ele>
        <time>2022-10-04T07:02:32Z</time>
      </trkpt>
      <trkpt lat="50.62455" lon="5.44617">
        <ele>195.2</ele>
        <time>2022-10-04T07:02:37Z</time>
      </trkpt>
      <trkpt lat="50.62454" lon="5.44634">
        <ele>195.2</ele>
        <time>2022-10-04T07:02:39Z</time>
      </trkpt>
      <trkpt lat="50.62455" lon="5.44676">
        <ele>195</ele>
        <time>2022-10-04T07:02:44Z</time>
      </trkpt>
      <trkpt lat="50.62456" lon="5.44703">
        <ele>194.4</ele>
        <time>2022-10-04T07:02:47Z</time>
      </trkpt>
      <trkpt lat="50.62456" lon="5.44739">
        <ele>194</ele>
        <time>2022-10-04T07:02:51Z</time>
      </trkpt>
      <trkpt lat="50.62452" lon="5.44764">
        <ele>193.8</ele>
        <time>2022-10-04T07:02:54Z</time>
      </trkpt>
      <trkpt lat="50.62448" lon="5.44769">
        <ele>194</ele>
        <time>2022-10-04T07:02:55Z</time>
      </trkpt>
      <trkpt lat="50.62443" lon="5.44772">
        <ele>193.6</ele>
        <time>2022-10-04T07:02:56Z</time>
      </trkpt>
      <trkpt lat="50.62432" lon="5.44773">
        <ele>193.8</ele>
        <time>2022-10-04T07:02:58Z</time>
      </trkpt>
      <trkpt lat="50.6242" lon="5.44773">
        <ele>193.4</ele>
        <time>2022-10-04T07:03:00Z</time>
      </trkpt>
      <trkpt lat="50.62397" lon="5.44771">
        <ele>193.4</ele>
        <time>2022-10-04T07:03:04Z</time>
      </trkpt>
      <trkpt lat="50.62364" lon="5.4477">
        <ele>193.4</ele>
        <time>2022-10-04T07:03:10Z</time>
      </trkpt>
      <trkpt lat="50.62354" lon="5.44769">
        <ele>193.6</ele>
        <time>2022-10-04T07:03:12Z</time>
      </trkpt>
      <trkpt lat="50.62349" lon="5.44768">
        <ele>193.6</ele>
        <time>2022-10-04T07:03:13Z</time>
      </trkpt>
      <trkpt lat="50.62342" lon="5.44762">
        <ele>194</ele>
        <time>2022-10-04T07:03:15Z</time>
      </trkpt>
      <trkpt lat="50.62338" lon="5.44746">
        <ele>194.2</ele>
        <time>2022-10-04T07:03:18Z</time>
      </trkpt>
      <trkpt lat="50.62339" lon="5.44739">
        <ele>194.2</ele>
        <time>2022-10-04T07:03:19Z</time>
      </trkpt>
      <trkpt lat="50.62342" lon="5.44718">
        <ele>194.6</ele>
        <time>2022-10-04T07:03:22Z</time>
      </trkpt>
      <trkpt lat="50.62343" lon="5.44704">
        <ele>194.8</ele>
        <time>2022-10-04T07:03:24Z</time>
      </trkpt>
      <trkpt lat="50.62351" lon="5.44635">
        <ele>196</ele>
        <time>2022-10-04T07:03:33Z</time>
      </trkpt>
      <trkpt lat="50.62354" lon="5.44602">
        <ele>196.2</ele>
        <time>2022-10-04T07:03:37Z</time>
      </trkpt>
      <trkpt lat="50.62355" lon="5.44577">
        <ele>196</ele>
        <time>2022-10-04T07:03:40Z</time>
      </trkpt>
      <trkpt lat="50.62354" lon="5.44506">
        <ele>196</ele>
        <time>2022-10-04T07:03:48Z</time>
      </trkpt>
      <trkpt lat="50.6235" lon="5.44433">
        <ele>195.8</ele>
        <time>2022-10-04T07:03:56Z</time>
      </trkpt>
      <trkpt lat="50.62349" lon="5.44423">
        <ele>195.6</ele>
        <time>2022-10-04T07:03:57Z</time>
      </trkpt>
      <trkpt lat="50.62345" lon="5.44386">
        <ele>195.6</ele>
        <time>2022-10-04T07:04:01Z</time>
      </trkpt>
      <trkpt lat="50.62342" lon="5.44367">
        <ele>195.4</ele>
        <time>2022-10-04T07:04:03Z</time>
      </trkpt>
      <trkpt lat="50.62341" lon="5.44357">
        <ele>195</ele>
        <time>2022-10-04T07:04:04Z</time>
      </trkpt>
      <trkpt lat="50.62339" lon="5.44348">
        <ele>195</ele>
        <time>2022-10-04T07:04:05Z</time>
      </trkpt>
      <trkpt lat="50.62336" lon="5.44328">
        <ele>194.8</ele>
        <time>2022-10-04T07:04:07Z</time>
      </trkpt>
      <trkpt lat="50.62329" lon="5.4429">
        <ele>194.2</ele>
        <time>2022-10-04T07:04:11Z</time>
      </trkpt>
      <trkpt lat="50.62323" lon="5.44261">
        <ele>193.6</ele>
        <time>2022-10-04T07:04:14Z</time>
      </trkpt>
      <trkpt lat="50.62309" lon="5.44202">
        <ele>192.6</ele>
        <time>2022-10-04T07:04:20Z</time>
      </trkpt>
      <trkpt lat="50.62305" lon="5.44182">
        <ele>192.4</ele>
        <time>2022-10-04T07:04:22Z</time>
      </trkpt>
      <trkpt lat="50.62304" lon="5.44171">
        <ele>192.4</ele>
        <time>2022-10-04T07:04:23Z</time>
      </trkpt>
      <trkpt lat="50.62305" lon="5.4416">
        <ele>192.2</ele>
        <time>2022-10-04T07:04:24Z</time>
      </trkpt>
      <trkpt lat="50.62307" lon="5.44139">
        <ele>192</ele>
        <time>2022-10-04T07:04:26Z</time>
      </trkpt>
      <trkpt lat="50.62309" lon="5.44129">
        <ele>192</ele>
        <time>2022-10-04T07:04:27Z</time>
      </trkpt>
      <trkpt lat="50.62313" lon="5.44119">
        <ele>191.8</ele>
        <time>2022-10-04T07:04:28Z</time>
      </trkpt>
      <trkpt lat="50.62321" lon="5.441">
        <ele>191.6</ele>
        <time>2022-10-04T07:04:30Z</time>
      </trkpt>
      <trkpt lat="50.62325" lon="5.44091">
        <ele>191.2</ele>
        <time>2022-10-04T07:04:31Z</time>
      </trkpt>
      <trkpt lat="50.62329" lon="5.44081">
        <ele>191.2</ele>
        <time>2022-10-04T07:04:32Z</time>
      </trkpt>
      <trkpt lat="50.62333" lon="5.44072">
        <ele>191</ele>
        <time>2022-10-04T07:04:33Z</time>
      </trkpt>
      <trkpt lat="50.62338" lon="5.44064">
        <ele>191</ele>
        <time>2022-10-04T07:04:34Z</time>
      </trkpt>
      <trkpt lat="50.62342" lon="5.44055">
        <ele>190.8</ele>
        <time>2022-10-04T07:04:35Z</time>
      </trkpt>
      <trkpt lat="50.6235" lon="5.4404">
        <ele>190.4</ele>
        <time>2022-10-04T07:04:37Z</time>
      </trkpt>
      <trkpt lat="50.62363" lon="5.44017">
        <ele>190.2</ele>
        <time>2022-10-04T07:04:40Z</time>
      </trkpt>
      <trkpt lat="50.62368" lon="5.44009">
        <ele>190.2</ele>
        <time>2022-10-04T07:04:41Z</time>
      </trkpt>
      <trkpt lat="50.62372" lon="5.4399">
        <ele>190</ele>
        <time>2022-10-04T07:04:43Z</time>
      </trkpt>
      <trkpt lat="50.62372" lon="5.4398">
        <ele>190</ele>
        <time>2022-10-04T07:04:44Z</time>
      </trkpt>
      <trkpt lat="50.62371" lon="5.4397">
        <ele>190</ele>
        <time>2022-10-04T07:04:45Z</time>
      </trkpt>
      <trkpt lat="50.62368" lon="5.43949">
        <ele>190</ele>
        <time>2022-10-04T07:04:47Z</time>
      </trkpt>
      <trkpt lat="50.62364" lon="5.43928">
        <ele>190</ele>
        <time>2022-10-04T07:04:49Z</time>
      </trkpt>
      <trkpt lat="50.62354" lon="5.43876">
        <ele>189.6</ele>
        <time>2022-10-04T07:04:54Z</time>
      </trkpt>
      <trkpt lat="50.6235" lon="5.43853">
        <ele>189.6</ele>
        <time>2022-10-04T07:04:56Z</time>
      </trkpt>
      <trkpt lat="50.62345" lon="5.43831">
        <ele>189.2</ele>
        <time>2022-10-04T07:04:58Z</time>
      </trkpt>
      <trkpt lat="50.62343" lon="5.43819">
        <ele>189.2</ele>
        <time>2022-10-04T07:04:59Z</time>
      </trkpt>
      <trkpt lat="50.6234" lon="5.43808">
        <ele>189.4</ele>
        <time>2022-10-04T07:05:00Z</time>
      </trkpt>
      <trkpt lat="50.62337" lon="5.43797">
        <ele>189.2</ele>
        <time>2022-10-04T07:05:01Z</time>
      </trkpt>
      <trkpt lat="50.62335" lon="5.43786">
        <ele>189</ele>
        <time>2022-10-04T07:05:02Z</time>
      </trkpt>
      <trkpt lat="50.62332" lon="5.43776">
        <ele>189.2</ele>
        <time>2022-10-04T07:05:03Z</time>
      </trkpt>
      <trkpt lat="50.62322" lon="5.43747">
        <ele>188.4</ele>
        <time>2022-10-04T07:05:06Z</time>
      </trkpt>
      <trkpt lat="50.62313" lon="5.43721">
        <ele>188.2</ele>
        <time>2022-10-04T07:05:09Z</time>
      </trkpt>
      <trkpt lat="50.62303" lon="5.43697">
        <ele>188</ele>
        <time>2022-10-04T07:05:12Z</time>
      </trkpt>
      <trkpt lat="50.62291" lon="5.43665">
        <ele>188.2</ele>
        <time>2022-10-04T07:05:16Z</time>
      </trkpt>
      <trkpt lat="50.62286" lon="5.4365">
        <ele>188.4</ele>
        <time>2022-10-04T07:05:18Z</time>
      </trkpt>
      <trkpt lat="50.62282" lon="5.43642">
        <ele>188.6</ele>
        <time>2022-10-04T07:05:19Z</time>
      </trkpt>
      <trkpt lat="50.62271" lon="5.43613">
        <ele>190</ele>
        <time>2022-10-04T07:05:23Z</time>
      </trkpt>
      <trkpt lat="50.62265" lon="5.43599">
        <ele>190</ele>
        <time>2022-10-04T07:05:25Z</time>
      </trkpt>
      <trkpt lat="50.62257" lon="5.43579">
        <ele>190.6</ele>
        <time>2022-10-04T07:05:28Z</time>
      </trkpt>
      <trkpt lat="50.62247" lon="5.43552">
        <ele>191.6</ele>
        <time>2022-10-04T07:05:32Z</time>
      </trkpt>
      <trkpt lat="50.62245" lon="5.43545">
        <ele>191.8</ele>
        <time>2022-10-04T07:05:33Z</time>
      </trkpt>
      <trkpt lat="50.6224" lon="5.43532">
        <ele>192.2</ele>
        <time>2022-10-04T07:05:35Z</time>
      </trkpt>
      <trkpt lat="50.62237" lon="5.43519">
        <ele>192.8</ele>
        <time>2022-10-04T07:05:37Z</time>
      </trkpt>
      <trkpt lat="50.62234" lon="5.43503">
        <ele>193</ele>
        <time>2022-10-04T07:05:40Z</time>
      </trkpt>
      <trkpt lat="50.62232" lon="5.43488">
        <ele>193.6</ele>
        <time>2022-10-04T07:05:43Z</time>
      </trkpt>
      <trkpt lat="50.62229" lon="5.43478">
        <ele>194</ele>
        <time>2022-10-04T07:05:45Z</time>
      </trkpt>
      <trkpt lat="50.62222" lon="5.4347">
        <ele>194.6</ele>
        <time>2022-10-04T07:05:47Z</time>
      </trkpt>
      <trkpt lat="50.62214" lon="5.43462">
        <ele>194.8</ele>
        <time>2022-10-04T07:05:49Z</time>
      </trkpt>
      <trkpt lat="50.62208" lon="5.4345">
        <ele>195</ele>
        <time>2022-10-04T07:05:51Z</time>
      </trkpt>
      <trkpt lat="50.62202" lon="5.43436">
        <ele>195</ele>
        <time>2022-10-04T07:05:53Z</time>
      </trkpt>
      <trkpt lat="50.62191" lon="5.43406">
        <ele>195.2</ele>
        <time>2022-10-04T07:05:57Z</time>
      </trkpt>
      <trkpt lat="50.62183" lon="5.43384">
        <ele>195.2</ele>
        <time>2022-10-04T07:06:00Z</time>
      </trkpt>
      <trkpt lat="50.62178" lon="5.4337">
        <ele>195.4</ele>
        <time>2022-10-04T07:06:02Z</time>
      </trkpt>
      <trkpt lat="50.62164" lon="5.43334">
        <ele>195.4</ele>
        <time>2022-10-04T07:06:07Z</time>
      </trkpt>
      <trkpt lat="50.62159" lon="5.43321">
        <ele>195.6</ele>
        <time>2022-10-04T07:06:09Z</time>
      </trkpt>
      <trkpt lat="50.62153" lon="5.43309">
        <ele>196</ele>
        <time>2022-10-04T07:06:11Z</time>
      </trkpt>
      <trkpt lat="50.62142" lon="5.43292">
        <ele>196.4</ele>
        <time>2022-10-04T07:06:14Z</time>
      </trkpt>
      <trkpt lat="50.62134" lon="5.43283">
        <ele>197</ele>
        <time>2022-10-04T07:06:16Z</time>
      </trkpt>
      <trkpt lat="50.62121" lon="5.43269">
        <ele>197.6</ele>
        <time>2022-10-04T07:06:19Z</time>
      </trkpt>
      <trkpt lat="50.62107" lon="5.43255">
        <ele>198</ele>
        <time>2022-10-04T07:06:22Z</time>
      </trkpt>
      <trkpt lat="50.62102" lon="5.4325">
        <ele>198.2</ele>
        <time>2022-10-04T07:06:23Z</time>
      </trkpt>
      <trkpt lat="50.62087" lon="5.43234">
        <ele>198</ele>
        <time>2022-10-04T07:06:26Z</time>
      </trkpt>
      <trkpt lat="50.62076" lon="5.43222">
        <ele>198.2</ele>
        <time>2022-10-04T07:06:28Z</time>
      </trkpt>
      <trkpt lat="50.6207" lon="5.43216">
        <ele>198</ele>
        <time>2022-10-04T07:06:29Z</time>
      </trkpt>
      <trkpt lat="50.62064" lon="5.43209">
        <ele>198</ele>
        <time>2022-10-04T07:06:30Z</time>
      </trkpt>
      <trkpt lat="50.62029" lon="5.43176">
        <ele>197</ele>
        <time>2022-10-04T07:06:36Z</time>
      </trkpt>
      <trkpt lat="50.62023" lon="5.43172">
        <ele>196.8</ele>
        <time>2022-10-04T07:06:37Z</time>
      </trkpt>
      <trkpt lat="50.61988" lon="5.43152">
        <ele>196</ele>
        <time>2022-10-04T07:06:43Z</time>
      </trkpt>
      <trkpt lat="50.61983" lon="5.43148">
        <ele>196</ele>
        <time>2022-10-04T07:06:44Z</time>
      </trkpt>
      <trkpt lat="50.61957" lon="5.43121">
        <ele>196.2</ele>
        <time>2022-10-04T07:06:49Z</time>
      </trkpt>
      <trkpt lat="50.61947" lon="5.43107">
        <ele>196.6</ele>
        <time>2022-10-04T07:06:51Z</time>
      </trkpt>
      <trkpt lat="50.61912" lon="5.43058">
        <ele>196.6</ele>
        <time>2022-10-04T07:06:58Z</time>
      </trkpt>
      <trkpt lat="50.61887" lon="5.43024">
        <ele>196</ele>
        <time>2022-10-04T07:07:03Z</time>
      </trkpt>
      <trkpt lat="50.61868" lon="5.42998">
        <ele>195.6</ele>
        <time>2022-10-04T07:07:07Z</time>
      </trkpt>
      <trkpt lat="50.61864" lon="5.42991">
        <ele>195.8</ele>
        <time>2022-10-04T07:07:08Z</time>
      </trkpt>
      <trkpt lat="50.6184" lon="5.4296">
        <ele>195.6</ele>
        <time>2022-10-04T07:07:13Z</time>
      </trkpt>
      <trkpt lat="50.61829" lon="5.42949">
        <ele>195.6</ele>
        <time>2022-10-04T07:07:15Z</time>
      </trkpt>
      <trkpt lat="50.61824" lon="5.42944">
        <ele>195.6</ele>
        <time>2022-10-04T07:07:16Z</time>
      </trkpt>
      <trkpt lat="50.61801" lon="5.42922">
        <ele>195.8</ele>
        <time>2022-10-04T07:07:20Z</time>
      </trkpt>
      <trkpt lat="50.61784" lon="5.42902">
        <ele>195.8</ele>
        <time>2022-10-04T07:07:23Z</time>
      </trkpt>
      <trkpt lat="50.61779" lon="5.42894">
        <ele>195.6</ele>
        <time>2022-10-04T07:07:24Z</time>
      </trkpt>
      <trkpt lat="50.61775" lon="5.42884">
        <ele>195.4</ele>
        <time>2022-10-04T07:07:25Z</time>
      </trkpt>
      <trkpt lat="50.61769" lon="5.42863">
        <ele>195</ele>
        <time>2022-10-04T07:07:27Z</time>
      </trkpt>
      <trkpt lat="50.6177" lon="5.42839">
        <ele>194.6</ele>
        <time>2022-10-04T07:07:29Z</time>
      </trkpt>
      <trkpt lat="50.61772" lon="5.42827">
        <ele>194.2</ele>
        <time>2022-10-04T07:07:30Z</time>
      </trkpt>
      <trkpt lat="50.61776" lon="5.42815">
        <ele>194</ele>
        <time>2022-10-04T07:07:31Z</time>
      </trkpt>
      <trkpt lat="50.61781" lon="5.42804">
        <ele>193.8</ele>
        <time>2022-10-04T07:07:32Z</time>
      </trkpt>
      <trkpt lat="50.61791" lon="5.42781">
        <ele>193</ele>
        <time>2022-10-04T07:07:34Z</time>
      </trkpt>
      <trkpt lat="50.61799" lon="5.42758">
        <ele>192.6</ele>
        <time>2022-10-04T07:07:36Z</time>
      </trkpt>
      <trkpt lat="50.61802" lon="5.42745">
        <ele>192.6</ele>
        <time>2022-10-04T07:07:37Z</time>
      </trkpt>
      <trkpt lat="50.61805" lon="5.42733">
        <ele>192</ele>
        <time>2022-10-04T07:07:38Z</time>
      </trkpt>
      <trkpt lat="50.61811" lon="5.42695">
        <ele>190.6</ele>
        <time>2022-10-04T07:07:41Z</time>
      </trkpt>
      <trkpt lat="50.61815" lon="5.42672">
        <ele>190</ele>
        <time>2022-10-04T07:07:43Z</time>
      </trkpt>
      <trkpt lat="50.61817" lon="5.42662">
        <ele>189.8</ele>
        <time>2022-10-04T07:07:44Z</time>
      </trkpt>
      <trkpt lat="50.61818" lon="5.42641">
        <ele>189.6</ele>
        <time>2022-10-04T07:07:46Z</time>
      </trkpt>
      <trkpt lat="50.61819" lon="5.42632">
        <ele>189.8</ele>
        <time>2022-10-04T07:07:47Z</time>
      </trkpt>
      <trkpt lat="50.61818" lon="5.42622">
        <ele>189.6</ele>
        <time>2022-10-04T07:07:48Z</time>
      </trkpt>
      <trkpt lat="50.61818" lon="5.42612">
        <ele>189.6</ele>
        <time>2022-10-04T07:07:49Z</time>
      </trkpt>
      <trkpt lat="50.61819" lon="5.42604">
        <ele>189.8</ele>
        <time>2022-10-04T07:07:50Z</time>
      </trkpt>
      <trkpt lat="50.61821" lon="5.42596">
        <ele>189.6</ele>
        <time>2022-10-04T07:07:51Z</time>
      </trkpt>
      <trkpt lat="50.61829" lon="5.4259">
        <ele>190.4</ele>
        <time>2022-10-04T07:07:53Z</time>
      </trkpt>
      <trkpt lat="50.61834" lon="5.4259">
        <ele>191</ele>
        <time>2022-10-04T07:07:54Z</time>
      </trkpt>
      <trkpt lat="50.61839" lon="5.42591">
        <ele>191.4</ele>
        <time>2022-10-04T07:07:55Z</time>
      </trkpt>
      <trkpt lat="50.61848" lon="5.42594">
        <ele>192</ele>
        <time>2022-10-04T07:07:57Z</time>
      </trkpt>
      <trkpt lat="50.61862" lon="5.42599">
        <ele>193.4</ele>
        <time>2022-10-04T07:08:00Z</time>
      </trkpt>
      <trkpt lat="50.61867" lon="5.426">
        <ele>194</ele>
        <time>2022-10-04T07:08:01Z</time>
      </trkpt>
      <trkpt lat="50.61877" lon="5.42603">
        <ele>195.2</ele>
        <time>2022-10-04T07:08:03Z</time>
      </trkpt>
      <trkpt lat="50.61892" lon="5.42604">
        <ele>196.6</ele>
        <time>2022-10-04T07:08:06Z</time>
      </trkpt>
      <trkpt lat="50.61903" lon="5.42605">
        <ele>197.4</ele>
        <time>2022-10-04T07:08:08Z</time>
      </trkpt>
      <trkpt lat="50.61908" lon="5.42605">
        <ele>197.8</ele>
        <time>2022-10-04T07:08:09Z</time>
      </trkpt>
      <trkpt lat="50.61919" lon="5.42605">
        <ele>198.2</ele>
        <time>2022-10-04T07:08:11Z</time>
      </trkpt>
      <trkpt lat="50.61924" lon="5.42605">
        <ele>198.2</ele>
        <time>2022-10-04T07:08:12Z</time>
      </trkpt>
      <trkpt lat="50.6197" lon="5.426">
        <ele>199.6</ele>
        <time>2022-10-04T07:08:20Z</time>
      </trkpt>
      <trkpt lat="50.61976" lon="5.426">
        <ele>199.8</ele>
        <time>2022-10-04T07:08:21Z</time>
      </trkpt>
      <trkpt lat="50.61994" lon="5.42602">
        <ele>200</ele>
        <time>2022-10-04T07:08:24Z</time>
      </trkpt>
      <trkpt lat="50.62013" lon="5.42606">
        <ele>199.8</ele>
        <time>2022-10-04T07:08:27Z</time>
      </trkpt>
      <trkpt lat="50.62026" lon="5.42608">
        <ele>199.8</ele>
        <time>2022-10-04T07:08:29Z</time>
      </trkpt>
      <trkpt lat="50.62045" lon="5.42613">
        <ele>200</ele>
        <time>2022-10-04T07:08:32Z</time>
      </trkpt>
      <trkpt lat="50.62072" lon="5.42618">
        <ele>199.4</ele>
        <time>2022-10-04T07:08:36Z</time>
      </trkpt>
      <trkpt lat="50.62092" lon="5.42622">
        <ele>199.2</ele>
        <time>2022-10-04T07:08:39Z</time>
      </trkpt>
      <trkpt lat="50.62117" lon="5.42626">
        <ele>198.8</ele>
        <time>2022-10-04T07:08:43Z</time>
      </trkpt>
      <trkpt lat="50.62139" lon="5.4263">
        <ele>198.2</ele>
        <time>2022-10-04T07:08:46Z</time>
      </trkpt>
      <trkpt lat="50.62154" lon="5.42631">
        <ele>197.8</ele>
        <time>2022-10-04T07:08:48Z</time>
      </trkpt>
      <trkpt lat="50.62162" lon="5.42629">
        <ele>197.6</ele>
        <time>2022-10-04T07:08:49Z</time>
      </trkpt>
      <trkpt lat="50.62177" lon="5.42616">
        <ele>197.2</ele>
        <time>2022-10-04T07:08:51Z</time>
      </trkpt>
      <trkpt lat="50.62183" lon="5.42605">
        <ele>196.8</ele>
        <time>2022-10-04T07:08:52Z</time>
      </trkpt>
      <trkpt lat="50.62194" lon="5.42583">
        <ele>195.8</ele>
        <time>2022-10-04T07:08:54Z</time>
      </trkpt>
      <trkpt lat="50.62206" lon="5.42562">
        <ele>194.4</ele>
        <time>2022-10-04T07:08:56Z</time>
      </trkpt>
      <trkpt lat="50.62222" lon="5.42552">
        <ele>193.4</ele>
        <time>2022-10-04T07:08:58Z</time>
      </trkpt>
      <trkpt lat="50.6224" lon="5.42554">
        <ele>192.8</ele>
        <time>2022-10-04T07:09:00Z</time>
      </trkpt>
      <trkpt lat="50.62248" lon="5.42554">
        <ele>192.2</ele>
        <time>2022-10-04T07:09:01Z</time>
      </trkpt>
      <trkpt lat="50.62257" lon="5.42553">
        <ele>191.6</ele>
        <time>2022-10-04T07:09:02Z</time>
      </trkpt>
      <trkpt lat="50.62275" lon="5.42547">
        <ele>190.6</ele>
        <time>2022-10-04T07:09:04Z</time>
      </trkpt>
      <trkpt lat="50.62284" lon="5.42545">
        <ele>190.4</ele>
        <time>2022-10-04T07:09:05Z</time>
      </trkpt>
      <trkpt lat="50.62302" lon="5.42544">
        <ele>189.2</ele>
        <time>2022-10-04T07:09:07Z</time>
      </trkpt>
      <trkpt lat="50.62315" lon="5.42532">
        <ele>188.4</ele>
        <time>2022-10-04T07:09:09Z</time>
      </trkpt>
      <trkpt lat="50.62319" lon="5.42522">
        <ele>187.4</ele>
        <time>2022-10-04T07:09:10Z</time>
      </trkpt>
      <trkpt lat="50.62322" lon="5.42511">
        <ele>186.6</ele>
        <time>2022-10-04T07:09:11Z</time>
      </trkpt>
      <trkpt lat="50.62327" lon="5.4249">
        <ele>186</ele>
        <time>2022-10-04T07:09:13Z</time>
      </trkpt>
      <trkpt lat="50.62339" lon="5.42458">
        <ele>185.6</ele>
        <time>2022-10-04T07:09:16Z</time>
      </trkpt>
      <trkpt lat="50.62348" lon="5.42436">
        <ele>185.6</ele>
        <time>2022-10-04T07:09:18Z</time>
      </trkpt>
      <trkpt lat="50.6236" lon="5.42419">
        <ele>185.2</ele>
        <time>2022-10-04T07:09:20Z</time>
      </trkpt>
      <trkpt lat="50.62367" lon="5.42413">
        <ele>185</ele>
        <time>2022-10-04T07:09:21Z</time>
      </trkpt>
      <trkpt lat="50.62379" lon="5.42398">
        <ele>184.8</ele>
        <time>2022-10-04T07:09:23Z</time>
      </trkpt>
      <trkpt lat="50.62385" lon="5.42375">
        <ele>184.8</ele>
        <time>2022-10-04T07:09:25Z</time>
      </trkpt>
      <trkpt lat="50.62383" lon="5.42351">
        <ele>184.6</ele>
        <time>2022-10-04T07:09:27Z</time>
      </trkpt>
      <trkpt lat="50.62384" lon="5.42339">
        <ele>184.6</ele>
        <time>2022-10-04T07:09:28Z</time>
      </trkpt>
      <trkpt lat="50.62387" lon="5.42328">
        <ele>184.6</ele>
        <time>2022-10-04T07:09:29Z</time>
      </trkpt>
      <trkpt lat="50.62394" lon="5.42307">
        <ele>184.4</ele>
        <time>2022-10-04T07:09:31Z</time>
      </trkpt>
      <trkpt lat="50.62398" lon="5.42296">
        <ele>184.4</ele>
        <time>2022-10-04T07:09:32Z</time>
      </trkpt>
      <trkpt lat="50.6241" lon="5.42255">
        <ele>184.2</ele>
        <time>2022-10-04T07:09:36Z</time>
      </trkpt>
      <trkpt lat="50.62417" lon="5.42235">
        <ele>183.8</ele>
        <time>2022-10-04T07:09:38Z</time>
      </trkpt>
      <trkpt lat="50.62421" lon="5.42225">
        <ele>183.8</ele>
        <time>2022-10-04T07:09:39Z</time>
      </trkpt>
      <trkpt lat="50.62429" lon="5.42206">
        <ele>183.6</ele>
        <time>2022-10-04T07:09:41Z</time>
      </trkpt>
      <trkpt lat="50.62439" lon="5.4219">
        <ele>183.4</ele>
        <time>2022-10-04T07:09:43Z</time>
      </trkpt>
      <trkpt lat="50.62444" lon="5.42182">
        <ele>183.4</ele>
        <time>2022-10-04T07:09:44Z</time>
      </trkpt>
      <trkpt lat="50.62467" lon="5.42148">
        <ele>183.4</ele>
        <time>2022-10-04T07:09:48Z</time>
      </trkpt>
      <trkpt lat="50.62479" lon="5.4213">
        <ele>183.2</ele>
        <time>2022-10-04T07:09:50Z</time>
      </trkpt>
      <trkpt lat="50.62513" lon="5.42076">
        <ele>182.6</ele>
        <time>2022-10-04T07:09:56Z</time>
      </trkpt>
      <trkpt lat="50.62525" lon="5.42059">
        <ele>182.4</ele>
        <time>2022-10-04T07:09:58Z</time>
      </trkpt>
      <trkpt lat="50.62538" lon="5.42042">
        <ele>182.2</ele>
        <time>2022-10-04T07:10:00Z</time>
      </trkpt>
      <trkpt lat="50.62544" lon="5.42032">
        <ele>182.2</ele>
        <time>2022-10-04T07:10:01Z</time>
      </trkpt>
      <trkpt lat="50.62583" lon="5.41981">
        <ele>181.8</ele>
        <time>2022-10-04T07:10:07Z</time>
      </trkpt>
      <trkpt lat="50.6263" lon="5.41947">
        <ele>181.2</ele>
        <time>2022-10-04T07:10:13Z</time>
      </trkpt>
      <trkpt lat="50.6267" lon="5.41935">
        <ele>181</ele>
        <time>2022-10-04T07:10:18Z</time>
      </trkpt>
      <trkpt lat="50.62693" lon="5.41935">
        <ele>181</ele>
        <time>2022-10-04T07:10:21Z</time>
      </trkpt>
      <trkpt lat="50.62706" lon="5.41942">
        <ele>181</ele>
        <time>2022-10-04T07:10:23Z</time>
      </trkpt>
      <trkpt lat="50.62719" lon="5.41952">
        <ele>181</ele>
        <time>2022-10-04T07:10:25Z</time>
      </trkpt>
      <trkpt lat="50.62733" lon="5.41958">
        <ele>181</ele>
        <time>2022-10-04T07:10:27Z</time>
      </trkpt>
      <trkpt lat="50.62749" lon="5.41963">
        <ele>181</ele>
        <time>2022-10-04T07:10:29Z</time>
      </trkpt>
      <trkpt lat="50.62765" lon="5.41975">
        <ele>181</ele>
        <time>2022-10-04T07:10:31Z</time>
      </trkpt>
      <trkpt lat="50.62815" lon="5.42028">
        <ele>181.2</ele>
        <time>2022-10-04T07:10:38Z</time>
      </trkpt>
      <trkpt lat="50.62835" lon="5.42046">
        <ele>181.2</ele>
        <time>2022-10-04T07:10:41Z</time>
      </trkpt>
      <trkpt lat="50.62856" lon="5.42061">
        <ele>181.4</ele>
        <time>2022-10-04T07:10:44Z</time>
      </trkpt>
      <trkpt lat="50.62879" lon="5.42072">
        <ele>181.6</ele>
        <time>2022-10-04T07:10:47Z</time>
      </trkpt>
      <trkpt lat="50.62903" lon="5.42081">
        <ele>181.6</ele>
        <time>2022-10-04T07:10:50Z</time>
      </trkpt>
      <trkpt lat="50.62911" lon="5.42084">
        <ele>181.6</ele>
        <time>2022-10-04T07:10:51Z</time>
      </trkpt>
      <trkpt lat="50.62943" lon="5.42096">
        <ele>181.6</ele>
        <time>2022-10-04T07:10:55Z</time>
      </trkpt>
      <trkpt lat="50.62978" lon="5.42108">
        <ele>181.4</ele>
        <time>2022-10-04T07:10:59Z</time>
      </trkpt>
      <trkpt lat="50.63027" lon="5.42135">
        <ele>180.4</ele>
        <time>2022-10-04T07:11:05Z</time>
      </trkpt>
      <trkpt lat="50.63068" lon="5.42164">
        <ele>180</ele>
        <time>2022-10-04T07:11:10Z</time>
      </trkpt>
      <trkpt lat="50.63102" lon="5.42186">
        <ele>179.6</ele>
        <time>2022-10-04T07:11:14Z</time>
      </trkpt>
      <trkpt lat="50.6315" lon="5.42215">
        <ele>178.6</ele>
        <time>2022-10-04T07:11:20Z</time>
      </trkpt>
      <trkpt lat="50.63183" lon="5.42233">
        <ele>178.4</ele>
        <time>2022-10-04T07:11:24Z</time>
      </trkpt>
      <trkpt lat="50.63208" lon="5.42246">
        <ele>178.4</ele>
        <time>2022-10-04T07:11:27Z</time>
      </trkpt>
      <trkpt lat="50.63263" lon="5.42275">
        <ele>178.6</ele>
        <time>2022-10-04T07:11:34Z</time>
      </trkpt>
      <trkpt lat="50.63271" lon="5.42279">
        <ele>178.6</ele>
        <time>2022-10-04T07:11:35Z</time>
      </trkpt>
      <trkpt lat="50.63279" lon="5.42283">
        <ele>178.6</ele>
        <time>2022-10-04T07:11:36Z</time>
      </trkpt>
      <trkpt lat="50.633" lon="5.42298">
        <ele>178.6</ele>
        <time>2022-10-04T07:11:39Z</time>
      </trkpt>
      <trkpt lat="50.63314" lon="5.42307">
        <ele>178.8</ele>
        <time>2022-10-04T07:11:41Z</time>
      </trkpt>
      <trkpt lat="50.63329" lon="5.42315">
        <ele>179.2</ele>
        <time>2022-10-04T07:11:43Z</time>
      </trkpt>
      <trkpt lat="50.63349" lon="5.42327">
        <ele>179.6</ele>
        <time>2022-10-04T07:11:46Z</time>
      </trkpt>
      <trkpt lat="50.63356" lon="5.42331">
        <ele>180</ele>
        <time>2022-10-04T07:11:47Z</time>
      </trkpt>
      <trkpt lat="50.63368" lon="5.42338">
        <ele>181</ele>
        <time>2022-10-04T07:11:49Z</time>
      </trkpt>
      <trkpt lat="50.63375" lon="5.42342">
        <ele>181</ele>
        <time>2022-10-04T07:11:50Z</time>
      </trkpt>
      <trkpt lat="50.634" lon="5.42356">
        <ele>182.2</ele>
        <time>2022-10-04T07:11:54Z</time>
      </trkpt>
      <trkpt lat="50.63419" lon="5.42366">
        <ele>183.2</ele>
        <time>2022-10-04T07:11:57Z</time>
      </trkpt>
      <trkpt lat="50.63456" lon="5.42386">
        <ele>185.2</ele>
        <time>2022-10-04T07:12:03Z</time>
      </trkpt>
      <trkpt lat="50.63463" lon="5.42389">
        <ele>185.6</ele>
        <time>2022-10-04T07:12:04Z</time>
      </trkpt>
      <trkpt lat="50.63469" lon="5.42393">
        <ele>185.6</ele>
        <time>2022-10-04T07:12:05Z</time>
      </trkpt>
      <trkpt lat="50.63495" lon="5.42407">
        <ele>187</ele>
        <time>2022-10-04T07:12:09Z</time>
      </trkpt>
      <trkpt lat="50.63521" lon="5.42421">
        <ele>187.4</ele>
        <time>2022-10-04T07:12:13Z</time>
      </trkpt>
      <trkpt lat="50.63573" lon="5.42448">
        <ele>187.8</ele>
        <time>2022-10-04T07:12:21Z</time>
      </trkpt>
      <trkpt lat="50.63592" lon="5.42459">
        <ele>188</ele>
        <time>2022-10-04T07:12:24Z</time>
      </trkpt>
      <trkpt lat="50.63605" lon="5.42465">
        <ele>188</ele>
        <time>2022-10-04T07:12:26Z</time>
      </trkpt>
      <trkpt lat="50.63643" lon="5.42486">
        <ele>188.4</ele>
        <time>2022-10-04T07:12:32Z</time>
      </trkpt>
      <trkpt lat="50.6366" lon="5.42501">
        <ele>188.6</ele>
        <time>2022-10-04T07:12:35Z</time>
      </trkpt>
      <trkpt lat="50.63665" lon="5.42508">
        <ele>188.6</ele>
        <time>2022-10-04T07:12:36Z</time>
      </trkpt>
      <trkpt lat="50.63674" lon="5.42522">
        <ele>188.6</ele>
        <time>2022-10-04T07:12:38Z</time>
      </trkpt>
      <trkpt lat="50.63679" lon="5.42527">
        <ele>188.8</ele>
        <time>2022-10-04T07:12:39Z</time>
      </trkpt>
      <trkpt lat="50.63685" lon="5.42529">
        <ele>188.8</ele>
        <time>2022-10-04T07:12:40Z</time>
      </trkpt>
      <trkpt lat="50.63712" lon="5.42527">
        <ele>189.2</ele>
        <time>2022-10-04T07:12:44Z</time>
      </trkpt>
      <trkpt lat="50.63732" lon="5.42535">
        <ele>189.6</ele>
        <time>2022-10-04T07:12:47Z</time>
      </trkpt>
      <trkpt lat="50.63744" lon="5.42541">
        <ele>190.2</ele>
        <time>2022-10-04T07:12:49Z</time>
      </trkpt>
      <trkpt lat="50.63749" lon="5.42544">
        <ele>190.4</ele>
        <time>2022-10-04T07:12:50Z</time>
      </trkpt>
      <trkpt lat="50.63778" lon="5.42564">
        <ele>191</ele>
        <time>2022-10-04T07:12:55Z</time>
      </trkpt>
      <trkpt lat="50.63812" lon="5.42601">
        <ele>192.4</ele>
        <time>2022-10-04T07:13:01Z</time>
      </trkpt>
      <trkpt lat="50.63832" lon="5.42632">
        <ele>192.8</ele>
        <time>2022-10-04T07:13:05Z</time>
      </trkpt>
      <trkpt lat="50.63857" lon="5.42671">
        <ele>193.4</ele>
        <time>2022-10-04T07:13:10Z</time>
      </trkpt>
      <trkpt lat="50.63882" lon="5.42711">
        <ele>193.4</ele>
        <time>2022-10-04T07:13:15Z</time>
      </trkpt>
      <trkpt lat="50.63898" lon="5.42736">
        <ele>193.4</ele>
        <time>2022-10-04T07:13:18Z</time>
      </trkpt>
      <trkpt lat="50.63915" lon="5.42763">
        <ele>193.2</ele>
        <time>2022-10-04T07:13:21Z</time>
      </trkpt>
      <trkpt lat="50.63932" lon="5.42789">
        <ele>192.8</ele>
        <time>2022-10-04T07:13:24Z</time>
      </trkpt>
      <trkpt lat="50.63953" lon="5.42824">
        <ele>192.2</ele>
        <time>2022-10-04T07:13:28Z</time>
      </trkpt>
      <trkpt lat="50.63958" lon="5.42833">
        <ele>192</ele>
        <time>2022-10-04T07:13:29Z</time>
      </trkpt>
      <trkpt lat="50.63963" lon="5.42844">
        <ele>191.8</ele>
        <time>2022-10-04T07:13:30Z</time>
      </trkpt>
      <trkpt lat="50.63965" lon="5.42855">
        <ele>191.6</ele>
        <time>2022-10-04T07:13:31Z</time>
      </trkpt>
      <trkpt lat="50.6397" lon="5.42877">
        <ele>191.4</ele>
        <time>2022-10-04T07:13:33Z</time>
      </trkpt>
      <trkpt lat="50.63979" lon="5.42893">
        <ele>190.8</ele>
        <time>2022-10-04T07:13:35Z</time>
      </trkpt>
      <trkpt lat="50.63984" lon="5.42896">
        <ele>190.6</ele>
        <time>2022-10-04T07:13:36Z</time>
      </trkpt>
      <trkpt lat="50.6399" lon="5.42896">
        <ele>190.6</ele>
        <time>2022-10-04T07:13:37Z</time>
      </trkpt>
      <trkpt lat="50.63996" lon="5.42896">
        <ele>190.4</ele>
        <time>2022-10-04T07:13:38Z</time>
      </trkpt>
      <trkpt lat="50.64002" lon="5.42897">
        <ele>190.4</ele>
        <time>2022-10-04T07:13:39Z</time>
      </trkpt>
      <trkpt lat="50.64015" lon="5.42902">
        <ele>190.4</ele>
        <time>2022-10-04T07:13:42Z</time>
      </trkpt>
      <trkpt lat="50.64024" lon="5.42908">
        <ele>190.4</ele>
        <time>2022-10-04T07:13:44Z</time>
      </trkpt>
      <trkpt lat="50.64034" lon="5.42915">
        <ele>190.2</ele>
        <time>2022-10-04T07:13:46Z</time>
      </trkpt>
      <trkpt lat="50.6404" lon="5.4292">
        <ele>190.2</ele>
        <time>2022-10-04T07:13:47Z</time>
      </trkpt>
      <trkpt lat="50.64066" lon="5.42942">
        <ele>190</ele>
        <time>2022-10-04T07:13:51Z</time>
      </trkpt>
      <trkpt lat="50.64081" lon="5.4295">
        <ele>190</ele>
        <time>2022-10-04T07:13:53Z</time>
      </trkpt>
      <trkpt lat="50.64098" lon="5.42954">
        <ele>189.6</ele>
        <time>2022-10-04T07:13:55Z</time>
      </trkpt>
      <trkpt lat="50.64106" lon="5.42955">
        <ele>189.4</ele>
        <time>2022-10-04T07:13:56Z</time>
      </trkpt>
      <trkpt lat="50.64133" lon="5.42952">
        <ele>189</ele>
        <time>2022-10-04T07:13:59Z</time>
      </trkpt>
      <trkpt lat="50.64141" lon="5.42949">
        <ele>189</ele>
        <time>2022-10-04T07:14:00Z</time>
      </trkpt>
      <trkpt lat="50.64173" lon="5.42929">
        <ele>188.4</ele>
        <time>2022-10-04T07:14:04Z</time>
      </trkpt>
      <trkpt lat="50.64188" lon="5.42915">
        <ele>188.4</ele>
        <time>2022-10-04T07:14:06Z</time>
      </trkpt>
      <trkpt lat="50.64211" lon="5.42891">
        <ele>188</ele>
        <time>2022-10-04T07:14:09Z</time>
      </trkpt>
      <trkpt lat="50.64219" lon="5.42885">
        <ele>187.4</ele>
        <time>2022-10-04T07:14:10Z</time>
      </trkpt>
      <trkpt lat="50.64245" lon="5.42869">
        <ele>186.8</ele>
        <time>2022-10-04T07:14:13Z</time>
      </trkpt>
      <trkpt lat="50.64271" lon="5.42861">
        <ele>186.2</ele>
        <time>2022-10-04T07:14:16Z</time>
      </trkpt>
      <trkpt lat="50.6428" lon="5.4286">
        <ele>186</ele>
        <time>2022-10-04T07:14:17Z</time>
      </trkpt>
      <trkpt lat="50.64315" lon="5.42868">
        <ele>185.8</ele>
        <time>2022-10-04T07:14:21Z</time>
      </trkpt>
      <trkpt lat="50.64332" lon="5.42878">
        <ele>185.8</ele>
        <time>2022-10-04T07:14:23Z</time>
      </trkpt>
      <trkpt lat="50.64354" lon="5.42897">
        <ele>185.6</ele>
        <time>2022-10-04T07:14:26Z</time>
      </trkpt>
      <trkpt lat="50.64361" lon="5.42905">
        <ele>185.6</ele>
        <time>2022-10-04T07:14:27Z</time>
      </trkpt>
      <trkpt lat="50.64386" lon="5.42941">
        <ele>185.2</ele>
        <time>2022-10-04T07:14:31Z</time>
      </trkpt>
      <trkpt lat="50.64414" lon="5.42988">
        <ele>184.4</ele>
        <time>2022-10-04T07:14:36Z</time>
      </trkpt>
      <trkpt lat="50.64425" lon="5.43007">
        <ele>184.2</ele>
        <time>2022-10-04T07:14:38Z</time>
      </trkpt>
      <trkpt lat="50.64435" lon="5.43027">
        <ele>184</ele>
        <time>2022-10-04T07:14:40Z</time>
      </trkpt>
      <trkpt lat="50.64464" lon="5.43086">
        <ele>184</ele>
        <time>2022-10-04T07:14:46Z</time>
      </trkpt>
      <trkpt lat="50.64478" lon="5.43114">
        <ele>184</ele>
        <time>2022-10-04T07:14:49Z</time>
      </trkpt>
      <trkpt lat="50.6449" lon="5.43144">
        <ele>184</ele>
        <time>2022-10-04T07:14:52Z</time>
      </trkpt>
      <trkpt lat="50.64493" lon="5.43155">
        <ele>184</ele>
        <time>2022-10-04T07:14:53Z</time>
      </trkpt>
      <trkpt lat="50.64495" lon="5.43166">
        <ele>184</ele>
        <time>2022-10-04T07:14:54Z</time>
      </trkpt>
      <trkpt lat="50.64499" lon="5.43187">
        <ele>184</ele>
        <time>2022-10-04T07:14:56Z</time>
      </trkpt>
      <trkpt lat="50.64503" lon="5.43196">
        <ele>183.8</ele>
        <time>2022-10-04T07:14:57Z</time>
      </trkpt>
      <trkpt lat="50.64509" lon="5.43201">
        <ele>184</ele>
        <time>2022-10-04T07:14:58Z</time>
      </trkpt>
      <trkpt lat="50.64522" lon="5.43212">
        <ele>184</ele>
        <time>2022-10-04T07:15:00Z</time>
      </trkpt>
      <trkpt lat="50.64529" lon="5.43218">
        <ele>184</ele>
        <time>2022-10-04T07:15:01Z</time>
      </trkpt>
      <trkpt lat="50.6454" lon="5.43236">
        <ele>183.8</ele>
        <time>2022-10-04T07:15:03Z</time>
      </trkpt>
      <trkpt lat="50.64546" lon="5.43246">
        <ele>183.8</ele>
        <time>2022-10-04T07:15:04Z</time>
      </trkpt>
      <trkpt lat="50.64566" lon="5.43285">
        <ele>183.2</ele>
        <time>2022-10-04T07:15:08Z</time>
      </trkpt>
      <trkpt lat="50.64575" lon="5.43304">
        <ele>183</ele>
        <time>2022-10-04T07:15:10Z</time>
      </trkpt>
      <trkpt lat="50.64595" lon="5.43344">
        <ele>182.2</ele>
        <time>2022-10-04T07:15:14Z</time>
      </trkpt>
      <trkpt lat="50.646" lon="5.43354">
        <ele>182.2</ele>
        <time>2022-10-04T07:15:15Z</time>
      </trkpt>
      <trkpt lat="50.64616" lon="5.43385">
        <ele>181.8</ele>
        <time>2022-10-04T07:15:18Z</time>
      </trkpt>
      <trkpt lat="50.64638" lon="5.43429">
        <ele>181.4</ele>
        <time>2022-10-04T07:15:22Z</time>
      </trkpt>
      <trkpt lat="50.64659" lon="5.4347">
        <ele>181.2</ele>
        <time>2022-10-04T07:15:26Z</time>
      </trkpt>
      <trkpt lat="50.64664" lon="5.4348">
        <ele>181.2</ele>
        <time>2022-10-04T07:15:27Z</time>
      </trkpt>
      <trkpt lat="50.647" lon="5.43551">
        <ele>181.2</ele>
        <time>2022-10-04T07:15:34Z</time>
      </trkpt>
      <trkpt lat="50.64705" lon="5.43562">
        <ele>181.2</ele>
        <time>2022-10-04T07:15:35Z</time>
      </trkpt>
      <trkpt lat="50.64742" lon="5.43634">
        <ele>181.2</ele>
        <time>2022-10-04T07:15:42Z</time>
      </trkpt>
      <trkpt lat="50.64752" lon="5.43654">
        <ele>181.2</ele>
        <time>2022-10-04T07:15:44Z</time>
      </trkpt>
      <trkpt lat="50.64757" lon="5.43664">
        <ele>181.2</ele>
        <time>2022-10-04T07:15:45Z</time>
      </trkpt>
      <trkpt lat="50.64794" lon="5.43735">
        <ele>181</ele>
        <time>2022-10-04T07:15:52Z</time>
      </trkpt>
      <trkpt lat="50.64804" lon="5.43755">
        <ele>180.8</ele>
        <time>2022-10-04T07:15:54Z</time>
      </trkpt>
      <trkpt lat="50.64822" lon="5.43793">
        <ele>180.8</ele>
        <time>2022-10-04T07:15:58Z</time>
      </trkpt>
      <trkpt lat="50.64829" lon="5.43813">
        <ele>180.6</ele>
        <time>2022-10-04T07:16:00Z</time>
      </trkpt>
      <trkpt lat="50.64831" lon="5.43824">
        <ele>180.4</ele>
        <time>2022-10-04T07:16:01Z</time>
      </trkpt>
      <trkpt lat="50.64832" lon="5.43835">
        <ele>180.4</ele>
        <time>2022-10-04T07:16:02Z</time>
      </trkpt>
      <trkpt lat="50.64833" lon="5.43859">
        <ele>180.4</ele>
        <time>2022-10-04T07:16:04Z</time>
      </trkpt>
      <trkpt lat="50.64833" lon="5.43871">
        <ele>180.4</ele>
        <time>2022-10-04T07:16:05Z</time>
      </trkpt>
      <trkpt lat="50.64826" lon="5.43907">
        <ele>179.8</ele>
        <time>2022-10-04T07:16:08Z</time>
      </trkpt>
      <trkpt lat="50.64812" lon="5.43955">
        <ele>179.4</ele>
        <time>2022-10-04T07:16:12Z</time>
      </trkpt>
      <trkpt lat="50.64807" lon="5.4398">
        <ele>179.2</ele>
        <time>2022-10-04T07:16:14Z</time>
      </trkpt>
      <trkpt lat="50.64799" lon="5.44055">
        <ele>179</ele>
        <time>2022-10-04T07:16:20Z</time>
      </trkpt>
      <trkpt lat="50.648" lon="5.44092">
        <ele>179</ele>
        <time>2022-10-04T07:16:23Z</time>
      </trkpt>
      <trkpt lat="50.64803" lon="5.44128">
        <ele>179</ele>
        <time>2022-10-04T07:16:26Z</time>
      </trkpt>
      <trkpt lat="50.64819" lon="5.44193">
        <ele>179.2</ele>
        <time>2022-10-04T07:16:32Z</time>
      </trkpt>
      <trkpt lat="50.64844" lon="5.44253">
        <ele>179.6</ele>
        <time>2022-10-04T07:16:38Z</time>
      </trkpt>
      <trkpt lat="50.64882" lon="5.44315">
        <ele>179.6</ele>
        <time>2022-10-04T07:16:45Z</time>
      </trkpt>
      <trkpt lat="50.64887" lon="5.44324">
        <ele>179.6</ele>
        <time>2022-10-04T07:16:46Z</time>
      </trkpt>
      <trkpt lat="50.64927" lon="5.44385">
        <ele>179.6</ele>
        <time>2022-10-04T07:16:53Z</time>
      </trkpt>
      <trkpt lat="50.64932" lon="5.44394">
        <ele>179.4</ele>
        <time>2022-10-04T07:16:54Z</time>
      </trkpt>
      <trkpt lat="50.64938" lon="5.44403">
        <ele>179.4</ele>
        <time>2022-10-04T07:16:55Z</time>
      </trkpt>
      <trkpt lat="50.64975" lon="5.44467">
        <ele>179.4</ele>
        <time>2022-10-04T07:17:02Z</time>
      </trkpt>
      <trkpt lat="50.64999" lon="5.44534">
        <ele>178.4</ele>
        <time>2022-10-04T07:17:08Z</time>
      </trkpt>
      <trkpt lat="50.65006" lon="5.4457">
        <ele>178.4</ele>
        <time>2022-10-04T07:17:11Z</time>
      </trkpt>
      <trkpt lat="50.6501" lon="5.44607">
        <ele>178.2</ele>
        <time>2022-10-04T07:17:14Z</time>
      </trkpt>
      <trkpt lat="50.6501" lon="5.44667">
        <ele>178</ele>
        <time>2022-10-04T07:17:19Z</time>
      </trkpt>
      <trkpt lat="50.6501" lon="5.44677">
        <ele>178</ele>
        <time>2022-10-04T07:17:20Z</time>
      </trkpt>
      <trkpt lat="50.65008" lon="5.44687">
        <ele>177.8</ele>
        <time>2022-10-04T07:17:21Z</time>
      </trkpt>
      <trkpt lat="50.65003" lon="5.44706">
        <ele>177.6</ele>
        <time>2022-10-04T07:17:23Z</time>
      </trkpt>
      <trkpt lat="50.64999" lon="5.44715">
        <ele>177.6</ele>
        <time>2022-10-04T07:17:24Z</time>
      </trkpt>
      <trkpt lat="50.64996" lon="5.44723">
        <ele>177.4</ele>
        <time>2022-10-04T07:17:25Z</time>
      </trkpt>
      <trkpt lat="50.64995" lon="5.44743">
        <ele>177</ele>
        <time>2022-10-04T07:17:27Z</time>
      </trkpt>
      <trkpt lat="50.65" lon="5.44775">
        <ele>177</ele>
        <time>2022-10-04T07:17:30Z</time>
      </trkpt>
      <trkpt lat="50.65001" lon="5.44787">
        <ele>177</ele>
        <time>2022-10-04T07:17:31Z</time>
      </trkpt>
      <trkpt lat="50.65001" lon="5.44798">
        <ele>177</ele>
        <time>2022-10-04T07:17:32Z</time>
      </trkpt>
      <trkpt lat="50.64999" lon="5.44835">
        <ele>176.6</ele>
        <time>2022-10-04T07:17:35Z</time>
      </trkpt>
      <trkpt lat="50.64997" lon="5.44847">
        <ele>176.6</ele>
        <time>2022-10-04T07:17:36Z</time>
      </trkpt>
      <trkpt lat="50.64996" lon="5.44859">
        <ele>176.6</ele>
        <time>2022-10-04T07:17:37Z</time>
      </trkpt>
      <trkpt lat="50.64987" lon="5.44946">
        <ele>176</ele>
        <time>2022-10-04T07:17:44Z</time>
      </trkpt>
      <trkpt lat="50.64986" lon="5.44971">
        <ele>176</ele>
        <time>2022-10-04T07:17:46Z</time>
      </trkpt>
      <trkpt lat="50.64986" lon="5.44997">
        <ele>176</ele>
        <time>2022-10-04T07:17:48Z</time>
      </trkpt>
      <trkpt lat="50.64989" lon="5.45046">
        <ele>175.8</ele>
        <time>2022-10-04T07:17:52Z</time>
      </trkpt>
      <trkpt lat="50.64993" lon="5.4507">
        <ele>175.8</ele>
        <time>2022-10-04T07:17:54Z</time>
      </trkpt>
      <trkpt lat="50.64995" lon="5.45082">
        <ele>175.8</ele>
        <time>2022-10-04T07:17:55Z</time>
      </trkpt>
      <trkpt lat="50.65005" lon="5.45117">
        <ele>175.2</ele>
        <time>2022-10-04T07:17:58Z</time>
      </trkpt>
      <trkpt lat="50.65025" lon="5.45169">
        <ele>174.6</ele>
        <time>2022-10-04T07:18:03Z</time>
      </trkpt>
      <trkpt lat="50.65034" lon="5.45185">
        <ele>173.8</ele>
        <time>2022-10-04T07:18:05Z</time>
      </trkpt>
      <trkpt lat="50.65046" lon="5.45206">
        <ele>173.4</ele>
        <time>2022-10-04T07:18:08Z</time>
      </trkpt>
      <trkpt lat="50.65052" lon="5.4522">
        <ele>173.2</ele>
        <time>2022-10-04T07:18:10Z</time>
      </trkpt>
      <trkpt lat="50.65054" lon="5.45228">
        <ele>173.2</ele>
        <time>2022-10-04T07:18:11Z</time>
      </trkpt>
      <trkpt lat="50.65056" lon="5.45237">
        <ele>173.2</ele>
        <time>2022-10-04T07:18:12Z</time>
      </trkpt>
      <trkpt lat="50.65057" lon="5.45245">
        <ele>173.2</ele>
        <time>2022-10-04T07:18:13Z</time>
      </trkpt>
      <trkpt lat="50.65059" lon="5.45254">
        <ele>173.2</ele>
        <time>2022-10-04T07:18:14Z</time>
      </trkpt>
      <trkpt lat="50.65066" lon="5.45267">
        <ele>173</ele>
        <time>2022-10-04T07:18:16Z</time>
      </trkpt>
      <trkpt lat="50.65087" lon="5.45285">
        <ele>173</ele>
        <time>2022-10-04T07:18:20Z</time>
      </trkpt>
      <trkpt lat="50.65097" lon="5.453">
        <ele>172.6</ele>
        <time>2022-10-04T07:18:22Z</time>
      </trkpt>
      <trkpt lat="50.65101" lon="5.4531">
        <ele>172.4</ele>
        <time>2022-10-04T07:18:23Z</time>
      </trkpt>
      <trkpt lat="50.65105" lon="5.4532">
        <ele>172.4</ele>
        <time>2022-10-04T07:18:24Z</time>
      </trkpt>
      <trkpt lat="50.65108" lon="5.45331">
        <ele>172.6</ele>
        <time>2022-10-04T07:18:25Z</time>
      </trkpt>
      <trkpt lat="50.65112" lon="5.45355">
        <ele>172.2</ele>
        <time>2022-10-04T07:18:27Z</time>
      </trkpt>
      <trkpt lat="50.65114" lon="5.45393">
        <ele>171.2</ele>
        <time>2022-10-04T07:18:30Z</time>
      </trkpt>
      <trkpt lat="50.65115" lon="5.4543">
        <ele>170.8</ele>
        <time>2022-10-04T07:18:33Z</time>
      </trkpt>
      <trkpt lat="50.65117" lon="5.45475">
        <ele>170.6</ele>
        <time>2022-10-04T07:18:37Z</time>
      </trkpt>
      <trkpt lat="50.65117" lon="5.45485">
        <ele>170.6</ele>
        <time>2022-10-04T07:18:38Z</time>
      </trkpt>
      <trkpt lat="50.65117" lon="5.45495">
        <ele>170.4</ele>
        <time>2022-10-04T07:18:39Z</time>
      </trkpt>
      <trkpt lat="50.6512" lon="5.45547">
        <ele>170.6</ele>
        <time>2022-10-04T07:18:45Z</time>
      </trkpt>
      <trkpt lat="50.6512" lon="5.45555">
        <ele>170.6</ele>
        <time>2022-10-04T07:18:46Z</time>
      </trkpt>
      <trkpt lat="50.6512" lon="5.45563">
        <ele>170.6</ele>
        <time>2022-10-04T07:18:47Z</time>
      </trkpt>
      <trkpt lat="50.65123" lon="5.4561">
        <ele>171.4</ele>
        <time>2022-10-04T07:18:52Z</time>
      </trkpt>
      <trkpt lat="50.65125" lon="5.45666">
        <ele>172</ele>
        <time>2022-10-04T07:18:58Z</time>
      </trkpt>
      <trkpt lat="50.65126" lon="5.45686">
        <ele>172</ele>
        <time>2022-10-04T07:19:00Z</time>
      </trkpt>
      <trkpt lat="50.65128" lon="5.45727">
        <ele>172.2</ele>
        <time>2022-10-04T07:19:04Z</time>
      </trkpt>
      <trkpt lat="50.65127" lon="5.45779">
        <ele>172.4</ele>
        <time>2022-10-04T07:19:09Z</time>
      </trkpt>
      <trkpt lat="50.65124" lon="5.45798">
        <ele>172.4</ele>
        <time>2022-10-04T07:19:11Z</time>
      </trkpt>
      <trkpt lat="50.65122" lon="5.45808">
        <ele>172.6</ele>
        <time>2022-10-04T07:19:12Z</time>
      </trkpt>
      <trkpt lat="50.65124" lon="5.45825">
        <ele>172.4</ele>
        <time>2022-10-04T07:19:14Z</time>
      </trkpt>
      <trkpt lat="50.65132" lon="5.45833">
        <ele>172.6</ele>
        <time>2022-10-04T07:19:16Z</time>
      </trkpt>
      <trkpt lat="50.65142" lon="5.45827">
        <ele>172.8</ele>
        <time>2022-10-04T07:19:18Z</time>
      </trkpt>
      <trkpt lat="50.65151" lon="5.45811">
        <ele>173.2</ele>
        <time>2022-10-04T07:19:20Z</time>
      </trkpt>
      <trkpt lat="50.65161" lon="5.45797">
        <ele>173.6</ele>
        <time>2022-10-04T07:19:22Z</time>
      </trkpt>
      <trkpt lat="50.65179" lon="5.45782">
        <ele>173.6</ele>
        <time>2022-10-04T07:19:25Z</time>
      </trkpt>
      <trkpt lat="50.65192" lon="5.45772">
        <ele>173.8</ele>
        <time>2022-10-04T07:19:27Z</time>
      </trkpt>
      <trkpt lat="50.65199" lon="5.45766">
        <ele>174</ele>
        <time>2022-10-04T07:19:28Z</time>
      </trkpt>
      <trkpt lat="50.65233" lon="5.45741">
        <ele>174.6</ele>
        <time>2022-10-04T07:19:33Z</time>
      </trkpt>
      <trkpt lat="50.65246" lon="5.45731">
        <ele>174.6</ele>
        <time>2022-10-04T07:19:35Z</time>
      </trkpt>
      <trkpt lat="50.65273" lon="5.45711">
        <ele>174.4</ele>
        <time>2022-10-04T07:19:39Z</time>
      </trkpt>
      <trkpt lat="50.65286" lon="5.45701">
        <ele>174.4</ele>
        <time>2022-10-04T07:19:41Z</time>
      </trkpt>
      <trkpt lat="50.65292" lon="5.45696">
        <ele>174.4</ele>
        <time>2022-10-04T07:19:42Z</time>
      </trkpt>
      <trkpt lat="50.65299" lon="5.45691">
        <ele>174.4</ele>
        <time>2022-10-04T07:19:43Z</time>
      </trkpt>
      <trkpt lat="50.65336" lon="5.45665">
        <ele>174</ele>
        <time>2022-10-04T07:19:48Z</time>
      </trkpt>
      <trkpt lat="50.65344" lon="5.45659">
        <ele>173.8</ele>
        <time>2022-10-04T07:19:49Z</time>
      </trkpt>
      <trkpt lat="50.65376" lon="5.45639">
        <ele>172.8</ele>
        <time>2022-10-04T07:19:53Z</time>
      </trkpt>
      <trkpt lat="50.65393" lon="5.45631">
        <ele>172.6</ele>
        <time>2022-10-04T07:19:55Z</time>
      </trkpt>
      <trkpt lat="50.65402" lon="5.45628">
        <ele>172.2</ele>
        <time>2022-10-04T07:19:56Z</time>
      </trkpt>
      <trkpt lat="50.65437" lon="5.45614">
        <ele>170</ele>
        <time>2022-10-04T07:20:00Z</time>
      </trkpt>
      <trkpt lat="50.65446" lon="5.4561">
        <ele>169.6</ele>
        <time>2022-10-04T07:20:01Z</time>
      </trkpt>
      <trkpt lat="50.65454" lon="5.45606">
        <ele>169.2</ele>
        <time>2022-10-04T07:20:02Z</time>
      </trkpt>
      <trkpt lat="50.65507" lon="5.45582">
        <ele>167.4</ele>
        <time>2022-10-04T07:20:08Z</time>
      </trkpt>
      <trkpt lat="50.65522" lon="5.45571">
        <ele>167.2</ele>
        <time>2022-10-04T07:20:10Z</time>
      </trkpt>
      <trkpt lat="50.65537" lon="5.45556">
        <ele>167</ele>
        <time>2022-10-04T07:20:12Z</time>
      </trkpt>
      <trkpt lat="50.65557" lon="5.4553">
        <ele>166.6</ele>
        <time>2022-10-04T07:20:15Z</time>
      </trkpt>
      <trkpt lat="50.65569" lon="5.45514">
        <ele>166.4</ele>
        <time>2022-10-04T07:20:17Z</time>
      </trkpt>
      <trkpt lat="50.65606" lon="5.45465">
        <ele>165.8</ele>
        <time>2022-10-04T07:20:23Z</time>
      </trkpt>
      <trkpt lat="50.65634" lon="5.4543">
        <ele>165.4</ele>
        <time>2022-10-04T07:20:28Z</time>
      </trkpt>
      <trkpt lat="50.6564" lon="5.45424">
        <ele>165.4</ele>
        <time>2022-10-04T07:20:29Z</time>
      </trkpt>
      <trkpt lat="50.65646" lon="5.45421">
        <ele>165.6</ele>
        <time>2022-10-04T07:20:30Z</time>
      </trkpt>
      <trkpt lat="50.65666" lon="5.45413">
        <ele>165.4</ele>
        <time>2022-10-04T07:20:33Z</time>
      </trkpt>
      <trkpt lat="50.65673" lon="5.45412">
        <ele>165.6</ele>
        <time>2022-10-04T07:20:34Z</time>
      </trkpt>
      <trkpt lat="50.65696" lon="5.45416">
        <ele>165.4</ele>
        <time>2022-10-04T07:20:37Z</time>
      </trkpt>
      <trkpt lat="50.65741" lon="5.45429">
        <ele>164.8</ele>
        <time>2022-10-04T07:20:43Z</time>
      </trkpt>
      <trkpt lat="50.65771" lon="5.45441">
        <ele>164</ele>
        <time>2022-10-04T07:20:47Z</time>
      </trkpt>
      <trkpt lat="50.65778" lon="5.45444">
        <ele>163.8</ele>
        <time>2022-10-04T07:20:48Z</time>
      </trkpt>
      <trkpt lat="50.6582" lon="5.45474">
        <ele>163.6</ele>
        <time>2022-10-04T07:20:54Z</time>
      </trkpt>
      <trkpt lat="50.65853" lon="5.45501">
        <ele>163.6</ele>
        <time>2022-10-04T07:20:59Z</time>
      </trkpt>
      <trkpt lat="50.65858" lon="5.45509">
        <ele>163.6</ele>
        <time>2022-10-04T07:21:00Z</time>
      </trkpt>
      <trkpt lat="50.65864" lon="5.45529">
        <ele>163.4</ele>
        <time>2022-10-04T07:21:02Z</time>
      </trkpt>
      <trkpt lat="50.65864" lon="5.4554">
        <ele>163.2</ele>
        <time>2022-10-04T07:21:03Z</time>
      </trkpt>
      <trkpt lat="50.65862" lon="5.45596">
        <ele>163.6</ele>
        <time>2022-10-04T07:21:08Z</time>
      </trkpt>
      <trkpt lat="50.65859" lon="5.45657">
        <ele>163.4</ele>
        <time>2022-10-04T07:21:14Z</time>
      </trkpt>
      <trkpt lat="50.65859" lon="5.45666">
        <ele>163.6</ele>
        <time>2022-10-04T07:21:15Z</time>
      </trkpt>
      <trkpt lat="50.65856" lon="5.45721">
        <ele>164.6</ele>
        <time>2022-10-04T07:21:21Z</time>
      </trkpt>
      <trkpt lat="50.65857" lon="5.45739">
        <ele>165.2</ele>
        <time>2022-10-04T07:21:23Z</time>
      </trkpt>
      <trkpt lat="50.65858" lon="5.45766">
        <ele>165.8</ele>
        <time>2022-10-04T07:21:26Z</time>
      </trkpt>
      <trkpt lat="50.65859" lon="5.45784">
        <ele>166</ele>
        <time>2022-10-04T07:21:28Z</time>
      </trkpt>
      <trkpt lat="50.6586" lon="5.45821">
        <ele>167.2</ele>
        <time>2022-10-04T07:21:32Z</time>
      </trkpt>
      <trkpt lat="50.65861" lon="5.4583">
        <ele>167.6</ele>
        <time>2022-10-04T07:21:33Z</time>
      </trkpt>
      <trkpt lat="50.65864" lon="5.45892">
        <ele>168.6</ele>
        <time>2022-10-04T07:21:40Z</time>
      </trkpt>
      <trkpt lat="50.65865" lon="5.459">
        <ele>168.8</ele>
        <time>2022-10-04T07:21:41Z</time>
      </trkpt>
      <trkpt lat="50.6587" lon="5.45913">
        <ele>169.2</ele>
        <time>2022-10-04T07:21:43Z</time>
      </trkpt>
      <trkpt lat="50.65874" lon="5.45918">
        <ele>169.4</ele>
        <time>2022-10-04T07:21:44Z</time>
      </trkpt>
      <trkpt lat="50.65879" lon="5.45921">
        <ele>169.4</ele>
        <time>2022-10-04T07:21:45Z</time>
      </trkpt>
      <trkpt lat="50.65891" lon="5.45923">
        <ele>169.6</ele>
        <time>2022-10-04T07:21:47Z</time>
      </trkpt>
      <trkpt lat="50.65898" lon="5.45922">
        <ele>169.6</ele>
        <time>2022-10-04T07:21:48Z</time>
      </trkpt>
      <trkpt lat="50.65923" lon="5.45919">
        <ele>169.6</ele>
        <time>2022-10-04T07:21:52Z</time>
      </trkpt>
      <trkpt lat="50.65964" lon="5.45917">
        <ele>169</ele>
        <time>2022-10-04T07:21:58Z</time>
      </trkpt>
      <trkpt lat="50.65983" lon="5.45914">
        <ele>168.8</ele>
        <time>2022-10-04T07:22:01Z</time>
      </trkpt>
      <trkpt lat="50.66003" lon="5.45914">
        <ele>168.6</ele>
        <time>2022-10-04T07:22:04Z</time>
      </trkpt>
      <trkpt lat="50.66009" lon="5.45915">
        <ele>168.6</ele>
        <time>2022-10-04T07:22:05Z</time>
      </trkpt>
      <trkpt lat="50.66015" lon="5.45918">
        <ele>168.6</ele>
        <time>2022-10-04T07:22:06Z</time>
      </trkpt>
      <trkpt lat="50.66021" lon="5.45923">
        <ele>168.6</ele>
        <time>2022-10-04T07:22:07Z</time>
      </trkpt>
      <trkpt lat="50.6605" lon="5.45956">
        <ele>168.4</ele>
        <time>2022-10-04T07:22:12Z</time>
      </trkpt>
      <trkpt lat="50.66067" lon="5.45978">
        <ele>168</ele>
        <time>2022-10-04T07:22:15Z</time>
      </trkpt>
      <trkpt lat="50.66089" lon="5.46007">
        <ele>168</ele>
        <time>2022-10-04T07:22:19Z</time>
      </trkpt>
      <trkpt lat="50.66095" lon="5.46014">
        <ele>168</ele>
        <time>2022-10-04T07:22:20Z</time>
      </trkpt>
      <trkpt lat="50.66125" lon="5.46053">
        <ele>167.6</ele>
        <time>2022-10-04T07:22:25Z</time>
      </trkpt>
      <trkpt lat="50.66131" lon="5.4606">
        <ele>167.6</ele>
        <time>2022-10-04T07:22:26Z</time>
      </trkpt>
      <trkpt lat="50.66155" lon="5.4609">
        <ele>166.8</ele>
        <time>2022-10-04T07:22:30Z</time>
      </trkpt>
      <trkpt lat="50.66161" lon="5.46098">
        <ele>166.8</ele>
        <time>2022-10-04T07:22:31Z</time>
      </trkpt>
      <trkpt lat="50.66167" lon="5.46106">
        <ele>166.8</ele>
        <time>2022-10-04T07:22:32Z</time>
      </trkpt>
      <trkpt lat="50.66203" lon="5.46151">
        <ele>166.2</ele>
        <time>2022-10-04T07:22:38Z</time>
      </trkpt>
      <trkpt lat="50.66208" lon="5.46158">
        <ele>166.2</ele>
        <time>2022-10-04T07:22:39Z</time>
      </trkpt>
      <trkpt lat="50.66243" lon="5.46207">
        <ele>165.4</ele>
        <time>2022-10-04T07:22:45Z</time>
      </trkpt>
      <trkpt lat="50.66285" lon="5.46259">
        <ele>164.8</ele>
        <time>2022-10-04T07:22:52Z</time>
      </trkpt>
      <trkpt lat="50.66306" lon="5.46287">
        <ele>164.6</ele>
        <time>2022-10-04T07:22:56Z</time>
      </trkpt>
      <trkpt lat="50.66311" lon="5.46294">
        <ele>164.6</ele>
        <time>2022-10-04T07:22:57Z</time>
      </trkpt>
      <trkpt lat="50.66316" lon="5.46299">
        <ele>164.4</ele>
        <time>2022-10-04T07:22:58Z</time>
      </trkpt>
      <trkpt lat="50.66327" lon="5.46299">
        <ele>164.2</ele>
        <time>2022-10-04T07:23:00Z</time>
      </trkpt>
      <trkpt lat="50.66338" lon="5.46285">
        <ele>163.8</ele>
        <time>2022-10-04T07:23:02Z</time>
      </trkpt>
      <trkpt lat="50.66343" lon="5.46276">
        <ele>163.8</ele>
        <time>2022-10-04T07:23:03Z</time>
      </trkpt>
      <trkpt lat="50.66371" lon="5.46227">
        <ele>163.4</ele>
        <time>2022-10-04T07:23:08Z</time>
      </trkpt>
      <trkpt lat="50.66376" lon="5.46216">
        <ele>163.2</ele>
        <time>2022-10-04T07:23:09Z</time>
      </trkpt>
      <trkpt lat="50.66387" lon="5.46196">
        <ele>162.2</ele>
        <time>2022-10-04T07:23:11Z</time>
      </trkpt>
      <trkpt lat="50.66393" lon="5.46186">
        <ele>162.2</ele>
        <time>2022-10-04T07:23:12Z</time>
      </trkpt>
      <trkpt lat="50.66409" lon="5.46157">
        <ele>161.6</ele>
        <time>2022-10-04T07:23:15Z</time>
      </trkpt>
      <trkpt lat="50.66419" lon="5.46139">
        <ele>161.2</ele>
        <time>2022-10-04T07:23:17Z</time>
      </trkpt>
      <trkpt lat="50.66429" lon="5.46121">
        <ele>160.8</ele>
        <time>2022-10-04T07:23:19Z</time>
      </trkpt>
      <trkpt lat="50.66434" lon="5.46113">
        <ele>160.8</ele>
        <time>2022-10-04T07:23:20Z</time>
      </trkpt>
      <trkpt lat="50.66447" lon="5.46105">
        <ele>160.6</ele>
        <time>2022-10-04T07:23:22Z</time>
      </trkpt>
      <trkpt lat="50.66458" lon="5.46113">
        <ele>160.4</ele>
        <time>2022-10-04T07:23:24Z</time>
      </trkpt>
      <trkpt lat="50.66489" lon="5.46162">
        <ele>160</ele>
        <time>2022-10-04T07:23:30Z</time>
      </trkpt>
      <trkpt lat="50.6652" lon="5.46199">
        <ele>159.6</ele>
        <time>2022-10-04T07:23:35Z</time>
      </trkpt>
      <trkpt lat="50.66534" lon="5.4621">
        <ele>159.4</ele>
        <time>2022-10-04T07:23:37Z</time>
      </trkpt>
      <trkpt lat="50.66547" lon="5.46217">
        <ele>159.2</ele>
        <time>2022-10-04T07:23:39Z</time>
      </trkpt>
      <trkpt lat="50.66554" lon="5.46221">
        <ele>159</ele>
        <time>2022-10-04T07:23:40Z</time>
      </trkpt>
      <trkpt lat="50.66561" lon="5.46225">
        <ele>159.2</ele>
        <time>2022-10-04T07:23:41Z</time>
      </trkpt>
      <trkpt lat="50.66611" lon="5.46251">
        <ele>158.6</ele>
        <time>2022-10-04T07:23:48Z</time>
      </trkpt>
      <trkpt lat="50.66619" lon="5.46254">
        <ele>158.4</ele>
        <time>2022-10-04T07:23:49Z</time>
      </trkpt>
      <trkpt lat="50.66641" lon="5.46268">
        <ele>158</ele>
        <time>2022-10-04T07:23:52Z</time>
      </trkpt>
      <trkpt lat="50.66662" lon="5.4628">
        <ele>158</ele>
        <time>2022-10-04T07:23:55Z</time>
      </trkpt>
      <trkpt lat="50.66675" lon="5.46288">
        <ele>158</ele>
        <time>2022-10-04T07:23:57Z</time>
      </trkpt>
      <trkpt lat="50.66692" lon="5.463">
        <ele>158</ele>
        <time>2022-10-04T07:24:00Z</time>
      </trkpt>
      <trkpt lat="50.66721" lon="5.46331">
        <ele>157.8</ele>
        <time>2022-10-04T07:24:05Z</time>
      </trkpt>
      <trkpt lat="50.66737" lon="5.46351">
        <ele>157.8</ele>
        <time>2022-10-04T07:24:08Z</time>
      </trkpt>
      <trkpt lat="50.66742" lon="5.46357">
        <ele>157.8</ele>
        <time>2022-10-04T07:24:09Z</time>
      </trkpt>
      <trkpt lat="50.66762" lon="5.46385">
        <ele>157.8</ele>
        <time>2022-10-04T07:24:13Z</time>
      </trkpt>
      <trkpt lat="50.66803" lon="5.4645">
        <ele>157.6</ele>
        <time>2022-10-04T07:24:21Z</time>
      </trkpt>
      <trkpt lat="50.6684" lon="5.46517">
        <ele>157.8</ele>
        <time>2022-10-04T07:24:29Z</time>
      </trkpt>
      <trkpt lat="50.66845" lon="5.46525">
        <ele>157.8</ele>
        <time>2022-10-04T07:24:30Z</time>
      </trkpt>
      <trkpt lat="50.66876" lon="5.46584">
        <ele>157.8</ele>
        <time>2022-10-04T07:24:37Z</time>
      </trkpt>
      <trkpt lat="50.66895" lon="5.46617">
        <ele>158</ele>
        <time>2022-10-04T07:24:41Z</time>
      </trkpt>
      <trkpt lat="50.66931" lon="5.46687">
        <ele>158.2</ele>
        <time>2022-10-04T07:24:49Z</time>
      </trkpt>
      <trkpt lat="50.6694" lon="5.46704">
        <ele>158.4</ele>
        <time>2022-10-04T07:24:51Z</time>
      </trkpt>
      <trkpt lat="50.66968" lon="5.46756">
        <ele>158.8</ele>
        <time>2022-10-04T07:24:57Z</time>
      </trkpt>
      <trkpt lat="50.66982" lon="5.46781">
        <ele>158.8</ele>
        <time>2022-10-04T07:25:00Z</time>
      </trkpt>
      <trkpt lat="50.67018" lon="5.4685">
        <ele>159</ele>
        <time>2022-10-04T07:25:08Z</time>
      </trkpt>
      <trkpt lat="50.67051" lon="5.46914">
        <ele>159</ele>
        <time>2022-10-04T07:25:15Z</time>
      </trkpt>
      <trkpt lat="50.67075" lon="5.46961">
        <ele>158.8</ele>
        <time>2022-10-04T07:25:20Z</time>
      </trkpt>
      <trkpt lat="50.67085" lon="5.46978">
        <ele>158.6</ele>
        <time>2022-10-04T07:25:22Z</time>
      </trkpt>
      <trkpt lat="50.67089" lon="5.46987">
        <ele>158.6</ele>
        <time>2022-10-04T07:25:23Z</time>
      </trkpt>
      <trkpt lat="50.67124" lon="5.4705">
        <ele>158.6</ele>
        <time>2022-10-04T07:25:30Z</time>
      </trkpt>
      <trkpt lat="50.67142" lon="5.47085">
        <ele>159.2</ele>
        <time>2022-10-04T07:25:34Z</time>
      </trkpt>
      <trkpt lat="50.67155" lon="5.4711">
        <ele>159.2</ele>
        <time>2022-10-04T07:25:37Z</time>
      </trkpt>
      <trkpt lat="50.67169" lon="5.47134">
        <ele>159.6</ele>
        <time>2022-10-04T07:25:40Z</time>
      </trkpt>
      <trkpt lat="50.67185" lon="5.47165">
        <ele>160.4</ele>
        <time>2022-10-04T07:25:44Z</time>
      </trkpt>
      <trkpt lat="50.67193" lon="5.4718">
        <ele>160.4</ele>
        <time>2022-10-04T07:25:46Z</time>
      </trkpt>
      <trkpt lat="50.67201" lon="5.47196">
        <ele>161</ele>
        <time>2022-10-04T07:25:48Z</time>
      </trkpt>
      <trkpt lat="50.67209" lon="5.47211">
        <ele>161.6</ele>
        <time>2022-10-04T07:25:50Z</time>
      </trkpt>
      <trkpt lat="50.67213" lon="5.47218">
        <ele>161.8</ele>
        <time>2022-10-04T07:25:51Z</time>
      </trkpt>
      <trkpt lat="50.67238" lon="5.47263">
        <ele>163.6</ele>
        <time>2022-10-04T07:25:58Z</time>
      </trkpt>
      <trkpt lat="50.67241" lon="5.4727">
        <ele>163.6</ele>
        <time>2022-10-04T07:25:59Z</time>
      </trkpt>
      <trkpt lat="50.67248" lon="5.47282">
        <ele>164.2</ele>
        <time>2022-10-04T07:26:01Z</time>
      </trkpt>
      <trkpt lat="50.67263" lon="5.47309">
        <ele>165.2</ele>
        <time>2022-10-04T07:26:05Z</time>
      </trkpt>
      <trkpt lat="50.67268" lon="5.47316">
        <ele>165.2</ele>
        <time>2022-10-04T07:26:06Z</time>
      </trkpt>
      <trkpt lat="50.67279" lon="5.47336">
        <ele>166.2</ele>
        <time>2022-10-04T07:26:09Z</time>
      </trkpt>
      <trkpt lat="50.67294" lon="5.47366">
        <ele>166.8</ele>
        <time>2022-10-04T07:26:13Z</time>
      </trkpt>
      <trkpt lat="50.67305" lon="5.47388">
        <ele>167.2</ele>
        <time>2022-10-04T07:26:16Z</time>
      </trkpt>
      <trkpt lat="50.67317" lon="5.47411">
        <ele>167.6</ele>
        <time>2022-10-04T07:26:19Z</time>
      </trkpt>
      <trkpt lat="50.67348" lon="5.4747">
        <ele>168.2</ele>
        <time>2022-10-04T07:26:27Z</time>
      </trkpt>
      <trkpt lat="50.67372" lon="5.47514">
        <ele>168.2</ele>
        <time>2022-10-04T07:26:33Z</time>
      </trkpt>
      <trkpt lat="50.6738" lon="5.4753">
        <ele>168.4</ele>
        <time>2022-10-04T07:26:35Z</time>
      </trkpt>
      <trkpt lat="50.67388" lon="5.47545">
        <ele>168.4</ele>
        <time>2022-10-04T07:26:37Z</time>
      </trkpt>
      <trkpt lat="50.67406" lon="5.47576">
        <ele>168</ele>
        <time>2022-10-04T07:26:41Z</time>
      </trkpt>
      <trkpt lat="50.6744" lon="5.47635">
        <ele>167.4</ele>
        <time>2022-10-04T07:26:48Z</time>
      </trkpt>
      <trkpt lat="50.67451" lon="5.47652">
        <ele>167.2</ele>
        <time>2022-10-04T07:26:50Z</time>
      </trkpt>
      <trkpt lat="50.67481" lon="5.4769">
        <ele>167</ele>
        <time>2022-10-04T07:26:55Z</time>
      </trkpt>
      <trkpt lat="50.67511" lon="5.47723">
        <ele>166</ele>
        <time>2022-10-04T07:27:00Z</time>
      </trkpt>
      <trkpt lat="50.67542" lon="5.47756">
        <ele>165.4</ele>
        <time>2022-10-04T07:27:05Z</time>
      </trkpt>
      <trkpt lat="50.67548" lon="5.47762">
        <ele>165.4</ele>
        <time>2022-10-04T07:27:06Z</time>
      </trkpt>
      <trkpt lat="50.67552" lon="5.4777">
        <ele>165.4</ele>
        <time>2022-10-04T07:27:07Z</time>
      </trkpt>
      <trkpt lat="50.67562" lon="5.47784">
        <ele>165.2</ele>
        <time>2022-10-04T07:27:09Z</time>
      </trkpt>
      <trkpt lat="50.67575" lon="5.47792">
        <ele>165</ele>
        <time>2022-10-04T07:27:11Z</time>
      </trkpt>
      <trkpt lat="50.67582" lon="5.47796">
        <ele>164.8</ele>
        <time>2022-10-04T07:27:12Z</time>
      </trkpt>
      <trkpt lat="50.67588" lon="5.478">
        <ele>164.8</ele>
        <time>2022-10-04T07:27:13Z</time>
      </trkpt>
      <trkpt lat="50.67606" lon="5.47816">
        <ele>164.6</ele>
        <time>2022-10-04T07:27:16Z</time>
      </trkpt>
      <trkpt lat="50.6763" lon="5.47839">
        <ele>164.2</ele>
        <time>2022-10-04T07:27:20Z</time>
      </trkpt>
      <trkpt lat="50.67635" lon="5.47844">
        <ele>164.2</ele>
        <time>2022-10-04T07:27:21Z</time>
      </trkpt>
      <trkpt lat="50.67646" lon="5.47855">
        <ele>163.8</ele>
        <time>2022-10-04T07:27:23Z</time>
      </trkpt>
      <trkpt lat="50.67664" lon="5.47874">
        <ele>163.6</ele>
        <time>2022-10-04T07:27:27Z</time>
      </trkpt>
      <trkpt lat="50.67667" lon="5.4788">
        <ele>163.2</ele>
        <time>2022-10-04T07:27:28Z</time>
      </trkpt>
      <trkpt lat="50.67669" lon="5.47886">
        <ele>163</ele>
        <time>2022-10-04T07:27:29Z</time>
      </trkpt>
      <trkpt lat="50.67669" lon="5.47899">
        <ele>163</ele>
        <time>2022-10-04T07:27:31Z</time>
      </trkpt>
      <trkpt lat="50.67665" lon="5.47911">
        <ele>162.8</ele>
        <time>2022-10-04T07:27:33Z</time>
      </trkpt>
      <trkpt lat="50.67656" lon="5.47932">
        <ele>162.8</ele>
        <time>2022-10-04T07:27:36Z</time>
      </trkpt>
      <trkpt lat="50.67633" lon="5.47986">
        <ele>162.2</ele>
        <time>2022-10-04T07:27:43Z</time>
      </trkpt>
      <trkpt lat="50.67618" lon="5.48024">
        <ele>161.8</ele>
        <time>2022-10-04T07:27:47Z</time>
      </trkpt>
      <trkpt lat="50.6761" lon="5.48045">
        <ele>161.6</ele>
        <time>2022-10-04T07:27:49Z</time>
      </trkpt>
      <trkpt lat="50.67602" lon="5.48065">
        <ele>161.4</ele>
        <time>2022-10-04T07:27:51Z</time>
      </trkpt>
      <trkpt lat="50.6757" lon="5.48142">
        <ele>160.4</ele>
        <time>2022-10-04T07:27:59Z</time>
      </trkpt>
      <trkpt lat="50.67562" lon="5.48162">
        <ele>160.4</ele>
        <time>2022-10-04T07:28:01Z</time>
      </trkpt>
      <trkpt lat="50.67558" lon="5.48172">
        <ele>160.2</ele>
        <time>2022-10-04T07:28:02Z</time>
      </trkpt>
      <trkpt lat="50.67547" lon="5.482">
        <ele>160.4</ele>
        <time>2022-10-04T07:28:05Z</time>
      </trkpt>
      <trkpt lat="50.67525" lon="5.48255">
        <ele>160.2</ele>
        <time>2022-10-04T07:28:11Z</time>
      </trkpt>
      <trkpt lat="50.67503" lon="5.48311">
        <ele>160.4</ele>
        <time>2022-10-04T07:28:18Z</time>
      </trkpt>
      <trkpt lat="50.67491" lon="5.48347">
        <ele>160.2</ele>
        <time>2022-10-04T07:28:22Z</time>
      </trkpt>
      <trkpt lat="50.67488" lon="5.48356">
        <ele>160.2</ele>
        <time>2022-10-04T07:28:23Z</time>
      </trkpt>
      <trkpt lat="50.67481" lon="5.48374">
        <ele>160.2</ele>
        <time>2022-10-04T07:28:25Z</time>
      </trkpt>
      <trkpt lat="50.67471" lon="5.48399">
        <ele>160.2</ele>
        <time>2022-10-04T07:28:28Z</time>
      </trkpt>
      <trkpt lat="50.67465" lon="5.48414">
        <ele>160.2</ele>
        <time>2022-10-04T07:28:30Z</time>
      </trkpt>
      <trkpt lat="50.67462" lon="5.48422">
        <ele>160.2</ele>
        <time>2022-10-04T07:28:31Z</time>
      </trkpt>
      <trkpt lat="50.67458" lon="5.48438">
        <ele>160.2</ele>
        <time>2022-10-04T07:28:33Z</time>
      </trkpt>
      <trkpt lat="50.67459" lon="5.48455">
        <ele>160.2</ele>
        <time>2022-10-04T07:28:35Z</time>
      </trkpt>
      <trkpt lat="50.67463" lon="5.48462">
        <ele>160.2</ele>
        <time>2022-10-04T07:28:36Z</time>
      </trkpt>
      <trkpt lat="50.67467" lon="5.48467">
        <ele>160.2</ele>
        <time>2022-10-04T07:28:37Z</time>
      </trkpt>
      <trkpt lat="50.67473" lon="5.4847">
        <ele>160.2</ele>
        <time>2022-10-04T07:28:38Z</time>
      </trkpt>
      <trkpt lat="50.67479" lon="5.48472">
        <ele>160.2</ele>
        <time>2022-10-04T07:28:39Z</time>
      </trkpt>
      <trkpt lat="50.67505" lon="5.48472">
        <ele>160.6</ele>
        <time>2022-10-04T07:28:43Z</time>
      </trkpt>
      <trkpt lat="50.67552" lon="5.48481">
        <ele>160.8</ele>
        <time>2022-10-04T07:28:50Z</time>
      </trkpt>
      <trkpt lat="50.67587" lon="5.48488">
        <ele>161.2</ele>
        <time>2022-10-04T07:28:55Z</time>
      </trkpt>
      <trkpt lat="50.67608" lon="5.48492">
        <ele>161</ele>
        <time>2022-10-04T07:28:58Z</time>
      </trkpt>
      <trkpt lat="50.67615" lon="5.48493">
        <ele>161.2</ele>
        <time>2022-10-04T07:28:59Z</time>
      </trkpt>
      <trkpt lat="50.67644" lon="5.485">
        <ele>161</ele>
        <time>2022-10-04T07:29:03Z</time>
      </trkpt>
      <trkpt lat="50.67651" lon="5.48502">
        <ele>161</ele>
        <time>2022-10-04T07:29:04Z</time>
      </trkpt>
      <trkpt lat="50.67678" lon="5.48509">
        <ele>160.4</ele>
        <time>2022-10-04T07:29:08Z</time>
      </trkpt>
      <trkpt lat="50.67691" lon="5.48516">
        <ele>160.4</ele>
        <time>2022-10-04T07:29:10Z</time>
      </trkpt>
      <trkpt lat="50.67701" lon="5.48529">
        <ele>160.6</ele>
        <time>2022-10-04T07:29:12Z</time>
      </trkpt>
      <trkpt lat="50.67709" lon="5.48547">
        <ele>160.4</ele>
        <time>2022-10-04T07:29:14Z</time>
      </trkpt>
      <trkpt lat="50.67714" lon="5.48567">
        <ele>160.4</ele>
        <time>2022-10-04T07:29:16Z</time>
      </trkpt>
      <trkpt lat="50.67719" lon="5.48586">
        <ele>160.4</ele>
        <time>2022-10-04T07:29:18Z</time>
      </trkpt>
      <trkpt lat="50.67726" lon="5.48612">
        <ele>160.6</ele>
        <time>2022-10-04T07:29:21Z</time>
      </trkpt>
      <trkpt lat="50.67728" lon="5.4862">
        <ele>160.6</ele>
        <time>2022-10-04T07:29:22Z</time>
      </trkpt>
      <trkpt lat="50.67733" lon="5.48647">
        <ele>161</ele>
        <time>2022-10-04T07:29:25Z</time>
      </trkpt>
      <trkpt lat="50.67734" lon="5.48656">
        <ele>161</ele>
        <time>2022-10-04T07:29:26Z</time>
      </trkpt>
      <trkpt lat="50.67737" lon="5.48685">
        <ele>161.6</ele>
        <time>2022-10-04T07:29:29Z</time>
      </trkpt>
      <trkpt lat="50.67737" lon="5.48714">
        <ele>163</ele>
        <time>2022-10-04T07:29:32Z</time>
      </trkpt>
      <trkpt lat="50.67736" lon="5.48741">
        <ele>163.6</ele>
        <time>2022-10-04T07:29:35Z</time>
      </trkpt>
      <trkpt lat="50.67735" lon="5.48749">
        <ele>163.8</ele>
        <time>2022-10-04T07:29:36Z</time>
      </trkpt>
      <trkpt lat="50.67734" lon="5.48757">
        <ele>164</ele>
        <time>2022-10-04T07:29:37Z</time>
      </trkpt>
      <trkpt lat="50.67733" lon="5.48764">
        <ele>164.2</ele>
        <time>2022-10-04T07:29:38Z</time>
      </trkpt>
      <trkpt lat="50.6773" lon="5.48788">
        <ele>164.6</ele>
        <time>2022-10-04T07:29:41Z</time>
      </trkpt>
      <trkpt lat="50.67729" lon="5.48804">
        <ele>165</ele>
        <time>2022-10-04T07:29:43Z</time>
      </trkpt>
      <trkpt lat="50.67727" lon="5.48821">
        <ele>165.8</ele>
        <time>2022-10-04T07:29:45Z</time>
      </trkpt>
      <trkpt lat="50.67725" lon="5.48837">
        <ele>166.4</ele>
        <time>2022-10-04T07:29:47Z</time>
      </trkpt>
      <trkpt lat="50.67723" lon="5.48877">
        <ele>167.6</ele>
        <time>2022-10-04T07:29:52Z</time>
      </trkpt>
      <trkpt lat="50.67725" lon="5.48901">
        <ele>168</ele>
        <time>2022-10-04T07:29:55Z</time>
      </trkpt>
      <trkpt lat="50.67728" lon="5.48917">
        <ele>168.4</ele>
        <time>2022-10-04T07:29:57Z</time>
      </trkpt>
      <trkpt lat="50.67731" lon="5.48925">
        <ele>168.4</ele>
        <time>2022-10-04T07:29:58Z</time>
      </trkpt>
      <trkpt lat="50.67733" lon="5.48933">
        <ele>168.4</ele>
        <time>2022-10-04T07:29:59Z</time>
      </trkpt>
      <trkpt lat="50.67743" lon="5.48956">
        <ele>168.4</ele>
        <time>2022-10-04T07:30:02Z</time>
      </trkpt>
      <trkpt lat="50.67746" lon="5.48963">
        <ele>168.6</ele>
        <time>2022-10-04T07:30:03Z</time>
      </trkpt>
      <trkpt lat="50.67755" lon="5.48977">
        <ele>168.8</ele>
        <time>2022-10-04T07:30:05Z</time>
      </trkpt>
      <trkpt lat="50.67777" lon="5.49007">
        <ele>169</ele>
        <time>2022-10-04T07:30:10Z</time>
      </trkpt>
      <trkpt lat="50.67795" lon="5.49029">
        <ele>169.4</ele>
        <time>2022-10-04T07:30:14Z</time>
      </trkpt>
      <trkpt lat="50.67816" lon="5.49058">
        <ele>169.8</ele>
        <time>2022-10-04T07:30:19Z</time>
      </trkpt>
      <trkpt lat="50.67845" lon="5.49097">
        <ele>170.2</ele>
        <time>2022-10-04T07:30:25Z</time>
      </trkpt>
      <trkpt lat="50.67883" lon="5.49149">
        <ele>170</ele>
        <time>2022-10-04T07:30:32Z</time>
      </trkpt>
      <trkpt lat="50.67923" lon="5.49203">
        <ele>170.2</ele>
        <time>2022-10-04T07:30:39Z</time>
      </trkpt>
      <trkpt lat="50.67963" lon="5.49253">
        <ele>170.4</ele>
        <time>2022-10-04T07:30:46Z</time>
      </trkpt>
      <trkpt lat="50.67968" lon="5.49259">
        <ele>170.6</ele>
        <time>2022-10-04T07:30:47Z</time>
      </trkpt>
      <trkpt lat="50.67999" lon="5.49299">
        <ele>171</ele>
        <time>2022-10-04T07:30:53Z</time>
      </trkpt>
      <trkpt lat="50.68033" lon="5.4934">
        <ele>171.2</ele>
        <time>2022-10-04T07:30:59Z</time>
      </trkpt>
      <trkpt lat="50.68045" lon="5.49355">
        <ele>171.4</ele>
        <time>2022-10-04T07:31:01Z</time>
      </trkpt>
      <trkpt lat="50.68078" lon="5.49402">
        <ele>171</ele>
        <time>2022-10-04T07:31:07Z</time>
      </trkpt>
      <trkpt lat="50.6809" lon="5.49417">
        <ele>170.4</ele>
        <time>2022-10-04T07:31:09Z</time>
      </trkpt>
      <trkpt lat="50.68118" lon="5.49455">
        <ele>169.6</ele>
        <time>2022-10-04T07:31:14Z</time>
      </trkpt>
      <trkpt lat="50.68136" lon="5.49479">
        <ele>169.2</ele>
        <time>2022-10-04T07:31:17Z</time>
      </trkpt>
      <trkpt lat="50.68142" lon="5.49487">
        <ele>169.2</ele>
        <time>2022-10-04T07:31:18Z</time>
      </trkpt>
      <trkpt lat="50.68149" lon="5.49495">
        <ele>168.8</ele>
        <time>2022-10-04T07:31:19Z</time>
      </trkpt>
      <trkpt lat="50.68154" lon="5.49504">
        <ele>168.8</ele>
        <time>2022-10-04T07:31:20Z</time>
      </trkpt>
      <trkpt lat="50.68166" lon="5.49519">
        <ele>168.4</ele>
        <time>2022-10-04T07:31:22Z</time>
      </trkpt>
      <trkpt lat="50.68172" lon="5.49528">
        <ele>168.2</ele>
        <time>2022-10-04T07:31:23Z</time>
      </trkpt>
      <trkpt lat="50.68178" lon="5.49536">
        <ele>168.2</ele>
        <time>2022-10-04T07:31:24Z</time>
      </trkpt>
      <trkpt lat="50.68201" lon="5.49567">
        <ele>167.6</ele>
        <time>2022-10-04T07:31:28Z</time>
      </trkpt>
      <trkpt lat="50.68227" lon="5.49603">
        <ele>167.4</ele>
        <time>2022-10-04T07:31:33Z</time>
      </trkpt>
      <trkpt lat="50.68242" lon="5.49622">
        <ele>167</ele>
        <time>2022-10-04T07:31:36Z</time>
      </trkpt>
      <trkpt lat="50.68255" lon="5.49641">
        <ele>167</ele>
        <time>2022-10-04T07:31:39Z</time>
      </trkpt>
      <trkpt lat="50.68255" lon="5.49657">
        <ele>167</ele>
        <time>2022-10-04T07:31:41Z</time>
      </trkpt>
      <trkpt lat="50.68253" lon="5.49664">
        <ele>167</ele>
        <time>2022-10-04T07:31:42Z</time>
      </trkpt>
      <trkpt lat="50.68249" lon="5.49671">
        <ele>166.8</ele>
        <time>2022-10-04T07:31:43Z</time>
      </trkpt>
      <trkpt lat="50.68239" lon="5.49695">
        <ele>166.8</ele>
        <time>2022-10-04T07:31:46Z</time>
      </trkpt>
      <trkpt lat="50.68232" lon="5.49712">
        <ele>166.8</ele>
        <time>2022-10-04T07:31:48Z</time>
      </trkpt>
      <trkpt lat="50.68221" lon="5.49738">
        <ele>166.8</ele>
        <time>2022-10-04T07:31:51Z</time>
      </trkpt>
      <trkpt lat="50.68214" lon="5.49755">
        <ele>166.8</ele>
        <time>2022-10-04T07:31:53Z</time>
      </trkpt>
      <trkpt lat="50.68206" lon="5.49771">
        <ele>167.2</ele>
        <time>2022-10-04T07:31:55Z</time>
      </trkpt>
      <trkpt lat="50.68203" lon="5.4978">
        <ele>167.4</ele>
        <time>2022-10-04T07:31:56Z</time>
      </trkpt>
      <trkpt lat="50.68192" lon="5.49805">
        <ele>167.8</ele>
        <time>2022-10-04T07:31:59Z</time>
      </trkpt>
      <trkpt lat="50.68184" lon="5.49822">
        <ele>168</ele>
        <time>2022-10-04T07:32:01Z</time>
      </trkpt>
      <trkpt lat="50.68168" lon="5.49858">
        <ele>168.2</ele>
        <time>2022-10-04T07:32:05Z</time>
      </trkpt>
      <trkpt lat="50.68134" lon="5.49936">
        <ele>167.8</ele>
        <time>2022-10-04T07:32:13Z</time>
      </trkpt>
      <trkpt lat="50.68123" lon="5.49967">
        <ele>167.6</ele>
        <time>2022-10-04T07:32:16Z</time>
      </trkpt>
      <trkpt lat="50.68117" lon="5.49988">
        <ele>167.4</ele>
        <time>2022-10-04T07:32:18Z</time>
      </trkpt>
      <trkpt lat="50.68108" lon="5.50021">
        <ele>167.2</ele>
        <time>2022-10-04T07:32:21Z</time>
      </trkpt>
      <trkpt lat="50.68102" lon="5.50043">
        <ele>167.4</ele>
        <time>2022-10-04T07:32:23Z</time>
      </trkpt>
      <trkpt lat="50.68089" lon="5.50095">
        <ele>167.2</ele>
        <time>2022-10-04T07:32:28Z</time>
      </trkpt>
      <trkpt lat="50.6808" lon="5.50125">
        <ele>167.4</ele>
        <time>2022-10-04T07:32:31Z</time>
      </trkpt>
      <trkpt lat="50.68075" lon="5.50145">
        <ele>167.4</ele>
        <time>2022-10-04T07:32:33Z</time>
      </trkpt>
      <trkpt lat="50.68072" lon="5.50154">
        <ele>167.6</ele>
        <time>2022-10-04T07:32:34Z</time>
      </trkpt>
      <trkpt lat="50.68062" lon="5.50194">
        <ele>167.4</ele>
        <time>2022-10-04T07:32:38Z</time>
      </trkpt>
      <trkpt lat="50.68057" lon="5.50213">
        <ele>167.4</ele>
        <time>2022-10-04T07:32:40Z</time>
      </trkpt>
      <trkpt lat="50.68054" lon="5.50223">
        <ele>167.6</ele>
        <time>2022-10-04T07:32:41Z</time>
      </trkpt>
      <trkpt lat="50.68034" lon="5.50307">
        <ele>168.4</ele>
        <time>2022-10-04T07:32:50Z</time>
      </trkpt>
      <trkpt lat="50.68031" lon="5.50317">
        <ele>168.4</ele>
        <time>2022-10-04T07:32:51Z</time>
      </trkpt>
      <trkpt lat="50.68023" lon="5.50347">
        <ele>168.6</ele>
        <time>2022-10-04T07:32:54Z</time>
      </trkpt>
      <trkpt lat="50.68009" lon="5.50401">
        <ele>168.4</ele>
        <time>2022-10-04T07:32:59Z</time>
      </trkpt>
      <trkpt lat="50.68006" lon="5.50412">
        <ele>168.4</ele>
        <time>2022-10-04T07:33:00Z</time>
      </trkpt>
      <trkpt lat="50.67987" lon="5.50487">
        <ele>167.8</ele>
        <time>2022-10-04T07:33:07Z</time>
      </trkpt>
      <trkpt lat="50.67974" lon="5.50539">
        <ele>167.6</ele>
        <time>2022-10-04T07:33:12Z</time>
      </trkpt>
      <trkpt lat="50.67966" lon="5.5057">
        <ele>167.6</ele>
        <time>2022-10-04T07:33:15Z</time>
      </trkpt>
      <trkpt lat="50.6795" lon="5.5062">
        <ele>167.6</ele>
        <time>2022-10-04T07:33:20Z</time>
      </trkpt>
      <trkpt lat="50.67936" lon="5.50647">
        <ele>167.6</ele>
        <time>2022-10-04T07:33:23Z</time>
      </trkpt>
      <trkpt lat="50.67927" lon="5.50661">
        <ele>167.4</ele>
        <time>2022-10-04T07:33:25Z</time>
      </trkpt>
      <trkpt lat="50.67909" lon="5.50686">
        <ele>166.8</ele>
        <time>2022-10-04T07:33:29Z</time>
      </trkpt>
      <trkpt lat="50.67908" lon="5.50693">
        <ele>166.6</ele>
        <time>2022-10-04T07:33:30Z</time>
      </trkpt>
      <trkpt lat="50.67909" lon="5.50701">
        <ele>166.6</ele>
        <time>2022-10-04T07:33:31Z</time>
      </trkpt>
      <trkpt lat="50.67912" lon="5.50708">
        <ele>166.6</ele>
        <time>2022-10-04T07:33:32Z</time>
      </trkpt>
      <trkpt lat="50.67922" lon="5.5073">
        <ele>166.4</ele>
        <time>2022-10-04T07:33:35Z</time>
      </trkpt>
      <trkpt lat="50.67927" lon="5.50747">
        <ele>166.2</ele>
        <time>2022-10-04T07:33:37Z</time>
      </trkpt>
      <trkpt lat="50.67934" lon="5.50763">
        <ele>166.2</ele>
        <time>2022-10-04T07:33:39Z</time>
      </trkpt>
      <trkpt lat="50.6794" lon="5.50769">
        <ele>166.2</ele>
        <time>2022-10-04T07:33:40Z</time>
      </trkpt>
      <trkpt lat="50.6795" lon="5.50783">
        <ele>166</ele>
        <time>2022-10-04T07:33:42Z</time>
      </trkpt>
      <trkpt lat="50.67957" lon="5.50802">
        <ele>166</ele>
        <time>2022-10-04T07:33:44Z</time>
      </trkpt>
      <trkpt lat="50.67978" lon="5.5087">
        <ele>165.4</ele>
        <time>2022-10-04T07:33:50Z</time>
      </trkpt>
      <trkpt lat="50.67981" lon="5.50882">
        <ele>165.2</ele>
        <time>2022-10-04T07:33:51Z</time>
      </trkpt>
      <trkpt lat="50.67987" lon="5.50905">
        <ele>164.6</ele>
        <time>2022-10-04T07:33:53Z</time>
      </trkpt>
      <trkpt lat="50.6799" lon="5.50917">
        <ele>164.6</ele>
        <time>2022-10-04T07:33:54Z</time>
      </trkpt>
      <trkpt lat="50.67993" lon="5.50929">
        <ele>164.6</ele>
        <time>2022-10-04T07:33:55Z</time>
      </trkpt>
      <trkpt lat="50.67999" lon="5.50952">
        <ele>164.4</ele>
        <time>2022-10-04T07:33:57Z</time>
      </trkpt>
      <trkpt lat="50.68008" lon="5.50986">
        <ele>164.4</ele>
        <time>2022-10-04T07:34:00Z</time>
      </trkpt>
      <trkpt lat="50.68031" lon="5.51076">
        <ele>164.2</ele>
        <time>2022-10-04T07:34:08Z</time>
      </trkpt>
      <trkpt lat="50.68036" lon="5.51098">
        <ele>164.2</ele>
        <time>2022-10-04T07:34:10Z</time>
      </trkpt>
      <trkpt lat="50.68039" lon="5.51109">
        <ele>164.2</ele>
        <time>2022-10-04T07:34:11Z</time>
      </trkpt>
      <trkpt lat="50.68054" lon="5.51159">
        <ele>163.8</ele>
        <time>2022-10-04T07:34:16Z</time>
      </trkpt>
      <trkpt lat="50.68061" lon="5.51177">
        <ele>163.8</ele>
        <time>2022-10-04T07:34:18Z</time>
      </trkpt>
      <trkpt lat="50.68075" lon="5.51201">
        <ele>163.2</ele>
        <time>2022-10-04T07:34:21Z</time>
      </trkpt>
      <trkpt lat="50.68096" lon="5.5123">
        <ele>163</ele>
        <time>2022-10-04T07:34:25Z</time>
      </trkpt>
      <trkpt lat="50.68108" lon="5.51244">
        <ele>162.8</ele>
        <time>2022-10-04T07:34:27Z</time>
      </trkpt>
      <trkpt lat="50.68133" lon="5.5127">
        <ele>162.8</ele>
        <time>2022-10-04T07:34:31Z</time>
      </trkpt>
      <trkpt lat="50.68175" lon="5.51317">
        <ele>163</ele>
        <time>2022-10-04T07:34:38Z</time>
      </trkpt>
      <trkpt lat="50.68219" lon="5.51364">
        <ele>163.2</ele>
        <time>2022-10-04T07:34:45Z</time>
      </trkpt>
      <trkpt lat="50.68225" lon="5.51371">
        <ele>163</ele>
        <time>2022-10-04T07:34:46Z</time>
      </trkpt>
      <trkpt lat="50.6825" lon="5.51399">
        <ele>163.4</ele>
        <time>2022-10-04T07:34:50Z</time>
      </trkpt>
      <trkpt lat="50.68269" lon="5.5142">
        <ele>163.4</ele>
        <time>2022-10-04T07:34:53Z</time>
      </trkpt>
      <trkpt lat="50.68307" lon="5.51462">
        <ele>163.6</ele>
        <time>2022-10-04T07:34:59Z</time>
      </trkpt>
      <trkpt lat="50.68349" lon="5.51509">
        <ele>163.6</ele>
        <time>2022-10-04T07:35:06Z</time>
      </trkpt>
      <trkpt lat="50.68361" lon="5.51522">
        <ele>163.6</ele>
        <time>2022-10-04T07:35:08Z</time>
      </trkpt>
      <trkpt lat="50.68411" lon="5.51568">
        <ele>164</ele>
        <time>2022-10-04T07:35:16Z</time>
      </trkpt>
      <trkpt lat="50.68457" lon="5.51607">
        <ele>164.2</ele>
        <time>2022-10-04T07:35:23Z</time>
      </trkpt>
      <trkpt lat="50.68476" lon="5.51624">
        <ele>164.2</ele>
        <time>2022-10-04T07:35:26Z</time>
      </trkpt>
      <trkpt lat="50.68482" lon="5.5163">
        <ele>164.2</ele>
        <time>2022-10-04T07:35:27Z</time>
      </trkpt>
      <trkpt lat="50.68534" lon="5.51674">
        <ele>164.2</ele>
        <time>2022-10-04T07:35:35Z</time>
      </trkpt>
      <trkpt lat="50.68541" lon="5.51678">
        <ele>164.4</ele>
        <time>2022-10-04T07:35:36Z</time>
      </trkpt>
      <trkpt lat="50.68585" lon="5.51692">
        <ele>164.6</ele>
        <time>2022-10-04T07:35:42Z</time>
      </trkpt>
      <trkpt lat="50.68638" lon="5.51709">
        <ele>165.2</ele>
        <time>2022-10-04T07:35:49Z</time>
      </trkpt>
      <trkpt lat="50.68645" lon="5.51713">
        <ele>165.4</ele>
        <time>2022-10-04T07:35:50Z</time>
      </trkpt>
      <trkpt lat="50.68652" lon="5.51718">
        <ele>165.4</ele>
        <time>2022-10-04T07:35:51Z</time>
      </trkpt>
      <trkpt lat="50.68684" lon="5.51748">
        <ele>165.4</ele>
        <time>2022-10-04T07:35:56Z</time>
      </trkpt>
      <trkpt lat="50.68719" lon="5.51781">
        <ele>166</ele>
        <time>2022-10-04T07:36:02Z</time>
      </trkpt>
      <trkpt lat="50.68734" lon="5.51792">
        <ele>166.4</ele>
        <time>2022-10-04T07:36:05Z</time>
      </trkpt>
      <trkpt lat="50.68746" lon="5.51796">
        <ele>166.6</ele>
        <time>2022-10-04T07:36:07Z</time>
      </trkpt>
      <trkpt lat="50.68786" lon="5.51803">
        <ele>167.2</ele>
        <time>2022-10-04T07:36:13Z</time>
      </trkpt>
      <trkpt lat="50.6882" lon="5.51805">
        <ele>167.2</ele>
        <time>2022-10-04T07:36:18Z</time>
      </trkpt>
      <trkpt lat="50.68833" lon="5.51807">
        <ele>167.4</ele>
        <time>2022-10-04T07:36:20Z</time>
      </trkpt>
      <trkpt lat="50.6888" lon="5.5181">
        <ele>167.6</ele>
        <time>2022-10-04T07:36:27Z</time>
      </trkpt>
      <trkpt lat="50.68894" lon="5.51812">
        <ele>167.8</ele>
        <time>2022-10-04T07:36:29Z</time>
      </trkpt>
      <trkpt lat="50.68908" lon="5.51813">
        <ele>167.6</ele>
        <time>2022-10-04T07:36:31Z</time>
      </trkpt>
      <trkpt lat="50.68945" lon="5.51815">
        <ele>167.6</ele>
        <time>2022-10-04T07:36:36Z</time>
      </trkpt>
      <trkpt lat="50.68959" lon="5.51816">
        <ele>167.6</ele>
        <time>2022-10-04T07:36:38Z</time>
      </trkpt>
      <trkpt lat="50.68987" lon="5.51825">
        <ele>167.8</ele>
        <time>2022-10-04T07:36:42Z</time>
      </trkpt>
      <trkpt lat="50.69019" lon="5.51848">
        <ele>167.6</ele>
        <time>2022-10-04T07:36:47Z</time>
      </trkpt>
      <trkpt lat="50.69043" lon="5.5187">
        <ele>167.8</ele>
        <time>2022-10-04T07:36:51Z</time>
      </trkpt>
      <trkpt lat="50.69067" lon="5.51892">
        <ele>167.8</ele>
        <time>2022-10-04T07:36:55Z</time>
      </trkpt>
      <trkpt lat="50.691" lon="5.51924">
        <ele>168.2</ele>
        <time>2022-10-04T07:37:01Z</time>
      </trkpt>
      <trkpt lat="50.69123" lon="5.51945">
        <ele>168.4</ele>
        <time>2022-10-04T07:37:05Z</time>
      </trkpt>
      <trkpt lat="50.69153" lon="5.51973">
        <ele>168.4</ele>
        <time>2022-10-04T07:37:10Z</time>
      </trkpt>
      <trkpt lat="50.6917" lon="5.51989">
        <ele>168.4</ele>
        <time>2022-10-04T07:37:13Z</time>
      </trkpt>
      <trkpt lat="50.6918" lon="5.51998">
        <ele>168.2</ele>
        <time>2022-10-04T07:37:15Z</time>
      </trkpt>
      <trkpt lat="50.69185" lon="5.52002">
        <ele>168.2</ele>
        <time>2022-10-04T07:37:16Z</time>
      </trkpt>
      <trkpt lat="50.69189" lon="5.52005">
        <ele>168</ele>
        <time>2022-10-04T07:37:17Z</time>
      </trkpt>
      <trkpt lat="50.69196" lon="5.52005">
        <ele>167.8</ele>
        <time>2022-10-04T07:37:19Z</time>
      </trkpt>
      <trkpt lat="50.69199" lon="5.52002">
        <ele>167.8</ele>
        <time>2022-10-04T07:37:20Z</time>
      </trkpt>
      <trkpt lat="50.69202" lon="5.51997">
        <ele>167.8</ele>
        <time>2022-10-04T07:37:21Z</time>
      </trkpt>
      <trkpt lat="50.69208" lon="5.51985">
        <ele>168</ele>
        <time>2022-10-04T07:37:23Z</time>
      </trkpt>
      <trkpt lat="50.69215" lon="5.5197">
        <ele>167.8</ele>
        <time>2022-10-04T07:37:25Z</time>
      </trkpt>
      <trkpt lat="50.69226" lon="5.51942">
        <ele>167.6</ele>
        <time>2022-10-04T07:37:28Z</time>
      </trkpt>
      <trkpt lat="50.69235" lon="5.51921">
        <ele>167.4</ele>
        <time>2022-10-04T07:37:30Z</time>
      </trkpt>
      <trkpt lat="50.6924" lon="5.51911">
        <ele>167.4</ele>
        <time>2022-10-04T07:37:31Z</time>
      </trkpt>
      <trkpt lat="50.69255" lon="5.51877">
        <ele>166.8</ele>
        <time>2022-10-04T07:37:34Z</time>
      </trkpt>
      <trkpt lat="50.6926" lon="5.51865">
        <ele>166.4</ele>
        <time>2022-10-04T07:37:35Z</time>
      </trkpt>
      <trkpt lat="50.69265" lon="5.51854">
        <ele>166.2</ele>
        <time>2022-10-04T07:37:36Z</time>
      </trkpt>
      <trkpt lat="50.69299" lon="5.51774">
        <ele>163</ele>
        <time>2022-10-04T07:37:43Z</time>
      </trkpt>
      <trkpt lat="50.69308" lon="5.51751">
        <ele>162.6</ele>
        <time>2022-10-04T07:37:45Z</time>
      </trkpt>
      <trkpt lat="50.69325" lon="5.51707">
        <ele>162.2</ele>
        <time>2022-10-04T07:37:49Z</time>
      </trkpt>
      <trkpt lat="50.69352" lon="5.51641">
        <ele>162</ele>
        <time>2022-10-04T07:37:55Z</time>
      </trkpt>
      <trkpt lat="50.69364" lon="5.51611">
        <ele>162</ele>
        <time>2022-10-04T07:37:58Z</time>
      </trkpt>
      <trkpt lat="50.69387" lon="5.51551">
        <ele>162.2</ele>
        <time>2022-10-04T07:38:04Z</time>
      </trkpt>
      <trkpt lat="50.69405" lon="5.51502">
        <ele>163.4</ele>
        <time>2022-10-04T07:38:09Z</time>
      </trkpt>
      <trkpt lat="50.69416" lon="5.51476">
        <ele>164</ele>
        <time>2022-10-04T07:38:12Z</time>
      </trkpt>
      <trkpt lat="50.69421" lon="5.51468">
        <ele>164.4</ele>
        <time>2022-10-04T07:38:13Z</time>
      </trkpt>
      <trkpt lat="50.69431" lon="5.51455">
        <ele>164.6</ele>
        <time>2022-10-04T07:38:15Z</time>
      </trkpt>
      <trkpt lat="50.69437" lon="5.51449">
        <ele>164.6</ele>
        <time>2022-10-04T07:38:16Z</time>
      </trkpt>
      <trkpt lat="50.6947" lon="5.51424">
        <ele>164.8</ele>
        <time>2022-10-04T07:38:21Z</time>
      </trkpt>
      <trkpt lat="50.69477" lon="5.5142">
        <ele>164.8</ele>
        <time>2022-10-04T07:38:22Z</time>
      </trkpt>
      <trkpt lat="50.69491" lon="5.5141">
        <ele>164.6</ele>
        <time>2022-10-04T07:38:24Z</time>
      </trkpt>
      <trkpt lat="50.69513" lon="5.51394">
        <ele>164.6</ele>
        <time>2022-10-04T07:38:27Z</time>
      </trkpt>
      <trkpt lat="50.6955" lon="5.51368">
        <ele>163.8</ele>
        <time>2022-10-04T07:38:32Z</time>
      </trkpt>
      <trkpt lat="50.69582" lon="5.51345">
        <ele>163</ele>
        <time>2022-10-04T07:38:36Z</time>
      </trkpt>
      <trkpt lat="50.69607" lon="5.51327">
        <ele>162.4</ele>
        <time>2022-10-04T07:38:39Z</time>
      </trkpt>
      <trkpt lat="50.69633" lon="5.51309">
        <ele>161.2</ele>
        <time>2022-10-04T07:38:42Z</time>
      </trkpt>
      <trkpt lat="50.69684" lon="5.51273">
        <ele>159.6</ele>
        <time>2022-10-04T07:38:48Z</time>
      </trkpt>
      <trkpt lat="50.69701" lon="5.51261">
        <ele>159.4</ele>
        <time>2022-10-04T07:38:50Z</time>
      </trkpt>
      <trkpt lat="50.69733" lon="5.51238">
        <ele>159.2</ele>
        <time>2022-10-04T07:38:54Z</time>
      </trkpt>
      <trkpt lat="50.69754" lon="5.51223">
        <ele>159.2</ele>
        <time>2022-10-04T07:38:57Z</time>
      </trkpt>
      <trkpt lat="50.69766" lon="5.51214">
        <ele>159.4</ele>
        <time>2022-10-04T07:38:59Z</time>
      </trkpt>
      <trkpt lat="50.69784" lon="5.51201">
        <ele>160</ele>
        <time>2022-10-04T07:39:02Z</time>
      </trkpt>
      <trkpt lat="50.69796" lon="5.51193">
        <ele>161.4</ele>
        <time>2022-10-04T07:39:04Z</time>
      </trkpt>
      <trkpt lat="50.69841" lon="5.51161">
        <ele>164.4</ele>
        <time>2022-10-04T07:39:11Z</time>
      </trkpt>
      <trkpt lat="50.69848" lon="5.51156">
        <ele>164.6</ele>
        <time>2022-10-04T07:39:12Z</time>
      </trkpt>
      <trkpt lat="50.69883" lon="5.51131">
        <ele>164.6</ele>
        <time>2022-10-04T07:39:17Z</time>
      </trkpt>
      <trkpt lat="50.69907" lon="5.51114">
        <ele>164.2</ele>
        <time>2022-10-04T07:39:20Z</time>
      </trkpt>
      <trkpt lat="50.69915" lon="5.51108">
        <ele>164</ele>
        <time>2022-10-04T07:39:21Z</time>
      </trkpt>
      <trkpt lat="50.69942" lon="5.5109">
        <ele>163.2</ele>
        <time>2022-10-04T07:39:24Z</time>
      </trkpt>
      <trkpt lat="50.69969" lon="5.5107">
        <ele>162.8</ele>
        <time>2022-10-04T07:39:27Z</time>
      </trkpt>
      <trkpt lat="50.69978" lon="5.51064">
        <ele>162.4</ele>
        <time>2022-10-04T07:39:28Z</time>
      </trkpt>
      <trkpt lat="50.7003" lon="5.51026">
        <ele>160</ele>
        <time>2022-10-04T07:39:34Z</time>
      </trkpt>
      <trkpt lat="50.70038" lon="5.51021">
        <ele>159.6</ele>
        <time>2022-10-04T07:39:35Z</time>
      </trkpt>
      <trkpt lat="50.70064" lon="5.51002">
        <ele>158.8</ele>
        <time>2022-10-04T07:39:38Z</time>
      </trkpt>
      <trkpt lat="50.70116" lon="5.50965">
        <ele>158.4</ele>
        <time>2022-10-04T07:39:44Z</time>
      </trkpt>
      <trkpt lat="50.70133" lon="5.50953">
        <ele>158.4</ele>
        <time>2022-10-04T07:39:46Z</time>
      </trkpt>
      <trkpt lat="50.70183" lon="5.50917">
        <ele>158.6</ele>
        <time>2022-10-04T07:39:52Z</time>
      </trkpt>
      <trkpt lat="50.70206" lon="5.509">
        <ele>158.6</ele>
        <time>2022-10-04T07:39:55Z</time>
      </trkpt>
      <trkpt lat="50.70231" lon="5.50883">
        <ele>158.6</ele>
        <time>2022-10-04T07:39:58Z</time>
      </trkpt>
      <trkpt lat="50.70263" lon="5.5086">
        <ele>158.6</ele>
        <time>2022-10-04T07:40:02Z</time>
      </trkpt>
      <trkpt lat="50.70288" lon="5.50843">
        <ele>158.6</ele>
        <time>2022-10-04T07:40:05Z</time>
      </trkpt>
      <trkpt lat="50.70343" lon="5.50803">
        <ele>158.8</ele>
        <time>2022-10-04T07:40:12Z</time>
      </trkpt>
      <trkpt lat="50.70366" lon="5.50787">
        <ele>158.6</ele>
        <time>2022-10-04T07:40:15Z</time>
      </trkpt>
      <trkpt lat="50.70382" lon="5.50775">
        <ele>158.8</ele>
        <time>2022-10-04T07:40:17Z</time>
      </trkpt>
      <trkpt lat="50.70436" lon="5.50737">
        <ele>159</ele>
        <time>2022-10-04T07:40:24Z</time>
      </trkpt>
      <trkpt lat="50.70467" lon="5.50715">
        <ele>158.8</ele>
        <time>2022-10-04T07:40:28Z</time>
      </trkpt>
      <trkpt lat="50.70475" lon="5.50709">
        <ele>158.8</ele>
        <time>2022-10-04T07:40:29Z</time>
      </trkpt>
      <trkpt lat="50.705" lon="5.50691">
        <ele>158.8</ele>
        <time>2022-10-04T07:40:32Z</time>
      </trkpt>
      <trkpt lat="50.70509" lon="5.50685">
        <ele>158.6</ele>
        <time>2022-10-04T07:40:33Z</time>
      </trkpt>
      <trkpt lat="50.70535" lon="5.50666">
        <ele>158.2</ele>
        <time>2022-10-04T07:40:36Z</time>
      </trkpt>
      <trkpt lat="50.70544" lon="5.5066">
        <ele>157.6</ele>
        <time>2022-10-04T07:40:37Z</time>
      </trkpt>
      <trkpt lat="50.70552" lon="5.50654">
        <ele>157.4</ele>
        <time>2022-10-04T07:40:38Z</time>
      </trkpt>
      <trkpt lat="50.70569" lon="5.50642">
        <ele>156.4</ele>
        <time>2022-10-04T07:40:40Z</time>
      </trkpt>
      <trkpt lat="50.70593" lon="5.50625">
        <ele>154.6</ele>
        <time>2022-10-04T07:40:43Z</time>
      </trkpt>
      <trkpt lat="50.70634" lon="5.50596">
        <ele>153.4</ele>
        <time>2022-10-04T07:40:49Z</time>
      </trkpt>
      <trkpt lat="50.70646" lon="5.50588">
        <ele>152.8</ele>
        <time>2022-10-04T07:40:51Z</time>
      </trkpt>
      <trkpt lat="50.70651" lon="5.50588">
        <ele>152.8</ele>
        <time>2022-10-04T07:40:52Z</time>
      </trkpt>
      <trkpt lat="50.70655" lon="5.5059">
        <ele>152.8</ele>
        <time>2022-10-04T07:40:53Z</time>
      </trkpt>
      <trkpt lat="50.70663" lon="5.506">
        <ele>152.6</ele>
        <time>2022-10-04T07:40:55Z</time>
      </trkpt>
      <trkpt lat="50.70679" lon="5.50633">
        <ele>152.2</ele>
        <time>2022-10-04T07:40:59Z</time>
      </trkpt>
      <trkpt lat="50.70695" lon="5.50662">
        <ele>152.2</ele>
        <time>2022-10-04T07:41:02Z</time>
      </trkpt>
      <trkpt lat="50.70705" lon="5.5068">
        <ele>152.2</ele>
        <time>2022-10-04T07:41:04Z</time>
      </trkpt>
      <trkpt lat="50.7071" lon="5.50689">
        <ele>152.2</ele>
        <time>2022-10-04T07:41:05Z</time>
      </trkpt>
      <trkpt lat="50.70724" lon="5.50716">
        <ele>152</ele>
        <time>2022-10-04T07:41:08Z</time>
      </trkpt>
      <trkpt lat="50.70729" lon="5.50724">
        <ele>152</ele>
        <time>2022-10-04T07:41:09Z</time>
      </trkpt>
      <trkpt lat="50.70733" lon="5.50733">
        <ele>152.2</ele>
        <time>2022-10-04T07:41:10Z</time>
      </trkpt>
      <trkpt lat="50.70737" lon="5.50741">
        <ele>152.2</ele>
        <time>2022-10-04T07:41:11Z</time>
      </trkpt>
      <trkpt lat="50.70745" lon="5.50758">
        <ele>152.2</ele>
        <time>2022-10-04T07:41:13Z</time>
      </trkpt>
      <trkpt lat="50.7076" lon="5.50792">
        <ele>153.6</ele>
        <time>2022-10-04T07:41:17Z</time>
      </trkpt>
      <trkpt lat="50.70775" lon="5.50824">
        <ele>154.2</ele>
        <time>2022-10-04T07:41:21Z</time>
      </trkpt>
      <trkpt lat="50.70794" lon="5.50866">
        <ele>154.8</ele>
        <time>2022-10-04T07:41:26Z</time>
      </trkpt>
      <trkpt lat="50.70801" lon="5.50882">
        <ele>155.4</ele>
        <time>2022-10-04T07:41:28Z</time>
      </trkpt>
      <trkpt lat="50.70804" lon="5.50891">
        <ele>155.6</ele>
        <time>2022-10-04T07:41:29Z</time>
      </trkpt>
      <trkpt lat="50.70815" lon="5.50916">
        <ele>155.8</ele>
        <time>2022-10-04T07:41:32Z</time>
      </trkpt>
      <trkpt lat="50.70823" lon="5.50942">
        <ele>156.2</ele>
        <time>2022-10-04T07:41:35Z</time>
      </trkpt>
      <trkpt lat="50.70829" lon="5.5097">
        <ele>156.8</ele>
        <time>2022-10-04T07:41:38Z</time>
      </trkpt>
      <trkpt lat="50.70832" lon="5.5099">
        <ele>157.2</ele>
        <time>2022-10-04T07:41:40Z</time>
      </trkpt>
      <trkpt lat="50.70833" lon="5.51001">
        <ele>157.2</ele>
        <time>2022-10-04T07:41:41Z</time>
      </trkpt>
      <trkpt lat="50.70834" lon="5.51011">
        <ele>157.4</ele>
        <time>2022-10-04T07:41:42Z</time>
      </trkpt>
      <trkpt lat="50.70834" lon="5.51033">
        <ele>157.4</ele>
        <time>2022-10-04T07:41:44Z</time>
      </trkpt>
      <trkpt lat="50.70835" lon="5.51055">
        <ele>157.4</ele>
        <time>2022-10-04T07:41:46Z</time>
      </trkpt>
      <trkpt lat="50.70835" lon="5.51066">
        <ele>157.6</ele>
        <time>2022-10-04T07:41:47Z</time>
      </trkpt>
      <trkpt lat="50.70835" lon="5.51077">
        <ele>157.6</ele>
        <time>2022-10-04T07:41:48Z</time>
      </trkpt>
      <trkpt lat="50.70835" lon="5.5111">
        <ele>157.4</ele>
        <time>2022-10-04T07:41:51Z</time>
      </trkpt>
      <trkpt lat="50.70834" lon="5.51145">
        <ele>157.2</ele>
        <time>2022-10-04T07:41:54Z</time>
      </trkpt>
      <trkpt lat="50.70834" lon="5.51169">
        <ele>156.6</ele>
        <time>2022-10-04T07:41:56Z</time>
      </trkpt>
      <trkpt lat="50.70834" lon="5.51181">
        <ele>156.6</ele>
        <time>2022-10-04T07:41:57Z</time>
      </trkpt>
      <trkpt lat="50.70833" lon="5.51244">
        <ele>155.4</ele>
        <time>2022-10-04T07:42:02Z</time>
      </trkpt>
      <trkpt lat="50.70833" lon="5.51323">
        <ele>153.6</ele>
        <time>2022-10-04T07:42:08Z</time>
      </trkpt>
      <trkpt lat="50.70833" lon="5.5135">
        <ele>153</ele>
        <time>2022-10-04T07:42:10Z</time>
      </trkpt>
      <trkpt lat="50.70833" lon="5.51376">
        <ele>152.4</ele>
        <time>2022-10-04T07:42:12Z</time>
      </trkpt>
      <trkpt lat="50.70833" lon="5.51417">
        <ele>152</ele>
        <time>2022-10-04T07:42:15Z</time>
      </trkpt>
      <trkpt lat="50.70832" lon="5.5143">
        <ele>152</ele>
        <time>2022-10-04T07:42:16Z</time>
      </trkpt>
      <trkpt lat="50.70833" lon="5.51484">
        <ele>151.2</ele>
        <time>2022-10-04T07:42:20Z</time>
      </trkpt>
      <trkpt lat="50.70835" lon="5.51537">
        <ele>150.6</ele>
        <time>2022-10-04T07:42:24Z</time>
      </trkpt>
      <trkpt lat="50.70837" lon="5.51549">
        <ele>150.6</ele>
        <time>2022-10-04T07:42:25Z</time>
      </trkpt>
      <trkpt lat="50.70845" lon="5.51597">
        <ele>150.4</ele>
        <time>2022-10-04T07:42:29Z</time>
      </trkpt>
      <trkpt lat="50.70856" lon="5.51646">
        <ele>150.2</ele>
        <time>2022-10-04T07:42:33Z</time>
      </trkpt>
      <trkpt lat="50.70861" lon="5.5167">
        <ele>150</ele>
        <time>2022-10-04T07:42:35Z</time>
      </trkpt>
      <trkpt lat="50.70865" lon="5.51695">
        <ele>150</ele>
        <time>2022-10-04T07:42:37Z</time>
      </trkpt>
      <trkpt lat="50.70867" lon="5.51707">
        <ele>149.8</ele>
        <time>2022-10-04T07:42:38Z</time>
      </trkpt>
      <trkpt lat="50.70875" lon="5.51778">
        <ele>149.2</ele>
        <time>2022-10-04T07:42:44Z</time>
      </trkpt>
      <trkpt lat="50.70877" lon="5.51801">
        <ele>149</ele>
        <time>2022-10-04T07:42:46Z</time>
      </trkpt>
      <trkpt lat="50.7088" lon="5.51849">
        <ele>148.6</ele>
        <time>2022-10-04T07:42:50Z</time>
      </trkpt>
      <trkpt lat="50.70881" lon="5.51885">
        <ele>148.6</ele>
        <time>2022-10-04T07:42:53Z</time>
      </trkpt>
      <trkpt lat="50.7088" lon="5.5193">
        <ele>148.4</ele>
        <time>2022-10-04T07:42:57Z</time>
      </trkpt>
      <trkpt lat="50.70878" lon="5.51975">
        <ele>148.4</ele>
        <time>2022-10-04T07:43:01Z</time>
      </trkpt>
      <trkpt lat="50.70878" lon="5.51987">
        <ele>148.4</ele>
        <time>2022-10-04T07:43:02Z</time>
      </trkpt>
      <trkpt lat="50.70878" lon="5.51998">
        <ele>148.4</ele>
        <time>2022-10-04T07:43:03Z</time>
      </trkpt>
      <trkpt lat="50.70878" lon="5.5201">
        <ele>148.4</ele>
        <time>2022-10-04T07:43:04Z</time>
      </trkpt>
      <trkpt lat="50.70878" lon="5.52065">
        <ele>149.2</ele>
        <time>2022-10-04T07:43:09Z</time>
      </trkpt>
      <trkpt lat="50.70879" lon="5.52086">
        <ele>149.8</ele>
        <time>2022-10-04T07:43:11Z</time>
      </trkpt>
      <trkpt lat="50.70881" lon="5.52119">
        <ele>150</ele>
        <time>2022-10-04T07:43:14Z</time>
      </trkpt>
      <trkpt lat="50.70882" lon="5.52142">
        <ele>150.2</ele>
        <time>2022-10-04T07:43:16Z</time>
      </trkpt>
      <trkpt lat="50.70886" lon="5.52199">
        <ele>150.2</ele>
        <time>2022-10-04T07:43:21Z</time>
      </trkpt>
      <trkpt lat="50.70887" lon="5.52231">
        <ele>150.4</ele>
        <time>2022-10-04T07:43:24Z</time>
      </trkpt>
      <trkpt lat="50.70886" lon="5.52242">
        <ele>150.4</ele>
        <time>2022-10-04T07:43:25Z</time>
      </trkpt>
      <trkpt lat="50.70886" lon="5.52272">
        <ele>150.6</ele>
        <time>2022-10-04T07:43:28Z</time>
      </trkpt>
      <trkpt lat="50.70885" lon="5.52318">
        <ele>151.6</ele>
        <time>2022-10-04T07:43:33Z</time>
      </trkpt>
      <trkpt lat="50.70885" lon="5.52334">
        <ele>152.2</ele>
        <time>2022-10-04T07:43:35Z</time>
      </trkpt>
      <trkpt lat="50.70883" lon="5.52375">
        <ele>153</ele>
        <time>2022-10-04T07:43:41Z</time>
      </trkpt>
      <trkpt lat="50.70882" lon="5.52381">
        <ele>153.4</ele>
        <time>2022-10-04T07:43:42Z</time>
      </trkpt>
      <trkpt lat="50.70882" lon="5.52419">
        <ele>154.2</ele>
        <time>2022-10-04T07:43:48Z</time>
      </trkpt>
      <trkpt lat="50.70882" lon="5.52424">
        <ele>154.2</ele>
        <time>2022-10-04T07:43:49Z</time>
      </trkpt>
      <trkpt lat="50.70882" lon="5.52439">
        <ele>155.2</ele>
        <time>2022-10-04T07:43:54Z</time>
      </trkpt>
      <trkpt lat="50.70882" lon="5.5244">
        <ele>155.4</ele>
        <time>2022-10-04T07:43:55Z</time>
      </trkpt>
      <trkpt lat="50.70882" lon="5.52444">
        <ele>156</ele>
        <time>2022-10-04T07:44:00Z</time>
      </trkpt>
      <trkpt lat="50.70881" lon="5.52451">
        <ele>156.4</ele>
        <time>2022-10-04T07:44:02Z</time>
      </trkpt>
      <trkpt lat="50.70882" lon="5.52469">
        <ele>156.4</ele>
        <time>2022-10-04T07:44:06Z</time>
      </trkpt>
      <trkpt lat="50.70883" lon="5.52477">
        <ele>156.6</ele>
        <time>2022-10-04T07:44:08Z</time>
      </trkpt>
      <trkpt lat="50.70884" lon="5.52483">
        <ele>156.4</ele>
        <time>2022-10-04T07:44:10Z</time>
      </trkpt>
      <trkpt lat="50.70885" lon="5.5249">
        <ele>156.4</ele>
        <time>2022-10-04T07:44:13Z</time>
      </trkpt>
      <trkpt lat="50.70886" lon="5.52499">
        <ele>156.6</ele>
        <time>2022-10-04T07:44:16Z</time>
      </trkpt>
      <trkpt lat="50.70886" lon="5.52506">
        <ele>157</ele>
        <time>2022-10-04T07:44:18Z</time>
      </trkpt>
      <trkpt lat="50.70888" lon="5.52518">
        <ele>157.2</ele>
        <time>2022-10-04T07:44:22Z</time>
      </trkpt>
      <trkpt lat="50.70888" lon="5.52522">
        <ele>157.2</ele>
        <time>2022-10-04T07:44:23Z</time>
      </trkpt>
      <trkpt lat="50.70888" lon="5.52532">
        <ele>157.2</ele>
        <time>2022-10-04T07:44:25Z</time>
      </trkpt>
      <trkpt lat="50.70887" lon="5.52549">
        <ele>157.2</ele>
        <time>2022-10-04T07:44:28Z</time>
      </trkpt>
      <trkpt lat="50.70887" lon="5.52567">
        <ele>157.2</ele>
        <time>2022-10-04T07:44:32Z</time>
      </trkpt>
      <trkpt lat="50.70887" lon="5.52571">
        <ele>157.2</ele>
        <time>2022-10-04T07:44:33Z</time>
      </trkpt>
      <trkpt lat="50.70888" lon="5.5258">
        <ele>157.2</ele>
        <time>2022-10-04T07:44:35Z</time>
      </trkpt>
      <trkpt lat="50.70889" lon="5.526">
        <ele>157</ele>
        <time>2022-10-04T07:44:40Z</time>
      </trkpt>
      <trkpt lat="50.7089" lon="5.52614">
        <ele>157</ele>
        <time>2022-10-04T07:44:43Z</time>
      </trkpt>
      <trkpt lat="50.7089" lon="5.52625">
        <ele>157</ele>
        <time>2022-10-04T07:44:45Z</time>
      </trkpt>
      <trkpt lat="50.7089" lon="5.52636">
        <ele>157</ele>
        <time>2022-10-04T07:44:47Z</time>
      </trkpt>
      <trkpt lat="50.7089" lon="5.5264">
        <ele>157</ele>
        <time>2022-10-04T07:44:48Z</time>
      </trkpt>
      <trkpt lat="50.70891" lon="5.52649">
        <ele>156.8</ele>
        <time>2022-10-04T07:44:50Z</time>
      </trkpt>
      <trkpt lat="50.70892" lon="5.52677">
        <ele>156.4</ele>
        <time>2022-10-04T07:44:55Z</time>
      </trkpt>
      <trkpt lat="50.70892" lon="5.52683">
        <ele>156.4</ele>
        <time>2022-10-04T07:44:56Z</time>
      </trkpt>
      <trkpt lat="50.70892" lon="5.52689">
        <ele>156.6</ele>
        <time>2022-10-04T07:44:57Z</time>
      </trkpt>
      <trkpt lat="50.70893" lon="5.52705">
        <ele>156.4</ele>
        <time>2022-10-04T07:45:00Z</time>
      </trkpt>
      <trkpt lat="50.70895" lon="5.52732">
        <ele>156.4</ele>
        <time>2022-10-04T07:45:06Z</time>
      </trkpt>
      <trkpt lat="50.70896" lon="5.52741">
        <ele>156.4</ele>
        <time>2022-10-04T07:45:08Z</time>
      </trkpt>
      <trkpt lat="50.70902" lon="5.52753">
        <ele>156.4</ele>
        <time>2022-10-04T07:45:11Z</time>
      </trkpt>
      <trkpt lat="50.70913" lon="5.52757">
        <ele>156.2</ele>
        <time>2022-10-04T07:45:15Z</time>
      </trkpt>
      <trkpt lat="50.70918" lon="5.52764">
        <ele>155.8</ele>
        <time>2022-10-04T07:45:20Z</time>
      </trkpt>
      <trkpt lat="50.70918" lon="5.52767">
        <ele>155.6</ele>
        <time>2022-10-04T07:45:22Z</time>
      </trkpt>
      <trkpt lat="50.70911" lon="5.52771">
        <ele>155.4</ele>
        <time>2022-10-04T07:45:29Z</time>
      </trkpt>
      <trkpt lat="50.70909" lon="5.52771">
        <ele>155.6</ele>
        <time>2022-10-04T07:45:30Z</time>
      </trkpt>
      <trkpt lat="50.70898" lon="5.52773">
        <ele>155.4</ele>
        <time>2022-10-04T07:45:34Z</time>
      </trkpt>
      <trkpt lat="50.70896" lon="5.52776">
        <ele>155.6</ele>
        <time>2022-10-04T07:45:35Z</time>
      </trkpt>
      <trkpt lat="50.70895" lon="5.5278">
        <ele>155.6</ele>
        <time>2022-10-04T07:45:36Z</time>
      </trkpt>
      <trkpt lat="50.70894" lon="5.5279">
        <ele>155.6</ele>
        <time>2022-10-04T07:45:38Z</time>
      </trkpt>
      <trkpt lat="50.70895" lon="5.52833">
        <ele>155.4</ele>
        <time>2022-10-04T07:45:45Z</time>
      </trkpt>
      <trkpt lat="50.70896" lon="5.52845">
        <ele>155.2</ele>
        <time>2022-10-04T07:45:47Z</time>
      </trkpt>
      <trkpt lat="50.70898" lon="5.52858">
        <ele>155.2</ele>
        <time>2022-10-04T07:45:49Z</time>
      </trkpt>
      <trkpt lat="50.70899" lon="5.52863">
        <ele>155</ele>
        <time>2022-10-04T07:45:50Z</time>
      </trkpt>
      <trkpt lat="50.70901" lon="5.52875">
        <ele>155</ele>
        <time>2022-10-04T07:45:52Z</time>
      </trkpt>
      <trkpt lat="50.70904" lon="5.52886">
        <ele>154.8</ele>
        <time>2022-10-04T07:45:54Z</time>
      </trkpt>
      <trkpt lat="50.70909" lon="5.52916">
        <ele>154.2</ele>
        <time>2022-10-04T07:45:59Z</time>
      </trkpt>
      <trkpt lat="50.7091" lon="5.5293">
        <ele>153.8</ele>
        <time>2022-10-04T07:46:02Z</time>
      </trkpt>
      <trkpt lat="50.70913" lon="5.5294">
        <ele>153.6</ele>
        <time>2022-10-04T07:46:04Z</time>
      </trkpt>
      <trkpt lat="50.70917" lon="5.52971">
        <ele>153.6</ele>
        <time>2022-10-04T07:46:09Z</time>
      </trkpt>
      <trkpt lat="50.70917" lon="5.52978">
        <ele>153.4</ele>
        <time>2022-10-04T07:46:10Z</time>
      </trkpt>
      <trkpt lat="50.70923" lon="5.53">
        <ele>153.2</ele>
        <time>2022-10-04T07:46:13Z</time>
      </trkpt>
      <trkpt lat="50.70924" lon="5.53007">
        <ele>153.4</ele>
        <time>2022-10-04T07:46:14Z</time>
      </trkpt>
      <trkpt lat="50.70926" lon="5.53025">
        <ele>152.8</ele>
        <time>2022-10-04T07:46:16Z</time>
      </trkpt>
      <trkpt lat="50.7093" lon="5.53044">
        <ele>152.8</ele>
        <time>2022-10-04T07:46:18Z</time>
      </trkpt>
      <trkpt lat="50.70932" lon="5.53055">
        <ele>152.6</ele>
        <time>2022-10-04T07:46:19Z</time>
      </trkpt>
      <trkpt lat="50.70935" lon="5.53076">
        <ele>152.4</ele>
        <time>2022-10-04T07:46:21Z</time>
      </trkpt>
      <trkpt lat="50.7094" lon="5.53109">
        <ele>152</ele>
        <time>2022-10-04T07:46:24Z</time>
      </trkpt>
      <trkpt lat="50.70942" lon="5.53131">
        <ele>151.8</ele>
        <time>2022-10-04T07:46:26Z</time>
      </trkpt>
      <trkpt lat="50.70944" lon="5.53142">
        <ele>151.6</ele>
        <time>2022-10-04T07:46:27Z</time>
      </trkpt>
      <trkpt lat="50.70949" lon="5.53187">
        <ele>151.2</ele>
        <time>2022-10-04T07:46:31Z</time>
      </trkpt>
      <trkpt lat="50.70952" lon="5.53209">
        <ele>150.8</ele>
        <time>2022-10-04T07:46:33Z</time>
      </trkpt>
      <trkpt lat="50.70952" lon="5.53219">
        <ele>150.8</ele>
        <time>2022-10-04T07:46:34Z</time>
      </trkpt>
      <trkpt lat="50.70955" lon="5.53239">
        <ele>151</ele>
        <time>2022-10-04T07:46:36Z</time>
      </trkpt>
      <trkpt lat="50.70961" lon="5.53268">
        <ele>151</ele>
        <time>2022-10-04T07:46:39Z</time>
      </trkpt>
      <trkpt lat="50.70967" lon="5.53288">
        <ele>151</ele>
        <time>2022-10-04T07:46:41Z</time>
      </trkpt>
      <trkpt lat="50.70975" lon="5.53319">
        <ele>150.8</ele>
        <time>2022-10-04T07:46:44Z</time>
      </trkpt>
      <trkpt lat="50.7099" lon="5.53367">
        <ele>150.8</ele>
        <time>2022-10-04T07:46:49Z</time>
      </trkpt>
      <trkpt lat="50.70999" lon="5.53397">
        <ele>151</ele>
        <time>2022-10-04T07:46:52Z</time>
      </trkpt>
      <trkpt lat="50.71002" lon="5.53406">
        <ele>151.2</ele>
        <time>2022-10-04T07:46:53Z</time>
      </trkpt>
      <trkpt lat="50.71008" lon="5.53423">
        <ele>151</ele>
        <time>2022-10-04T07:46:55Z</time>
      </trkpt>
      <trkpt lat="50.71018" lon="5.53448">
        <ele>151.2</ele>
        <time>2022-10-04T07:46:58Z</time>
      </trkpt>
      <trkpt lat="50.71022" lon="5.53456">
        <ele>151.2</ele>
        <time>2022-10-04T07:46:59Z</time>
      </trkpt>
      <trkpt lat="50.71037" lon="5.53499">
        <ele>151.8</ele>
        <time>2022-10-04T07:47:04Z</time>
      </trkpt>
      <trkpt lat="50.71043" lon="5.53517">
        <ele>152.2</ele>
        <time>2022-10-04T07:47:06Z</time>
      </trkpt>
      <trkpt lat="50.71051" lon="5.53545">
        <ele>152.4</ele>
        <time>2022-10-04T07:47:09Z</time>
      </trkpt>
      <trkpt lat="50.71073" lon="5.53619">
        <ele>153.4</ele>
        <time>2022-10-04T07:47:17Z</time>
      </trkpt>
      <trkpt lat="50.71079" lon="5.53648">
        <ele>153.6</ele>
        <time>2022-10-04T07:47:20Z</time>
      </trkpt>
      <trkpt lat="50.71086" lon="5.53676">
        <ele>153.8</ele>
        <time>2022-10-04T07:47:23Z</time>
      </trkpt>
      <trkpt lat="50.71096" lon="5.53713">
        <ele>154.2</ele>
        <time>2022-10-04T07:47:27Z</time>
      </trkpt>
      <trkpt lat="50.71108" lon="5.53759">
        <ele>154.8</ele>
        <time>2022-10-04T07:47:32Z</time>
      </trkpt>
      <trkpt lat="50.71115" lon="5.53785">
        <ele>154.8</ele>
        <time>2022-10-04T07:47:35Z</time>
      </trkpt>
      <trkpt lat="50.71123" lon="5.53829">
        <ele>155.4</ele>
        <time>2022-10-04T07:47:40Z</time>
      </trkpt>
      <trkpt lat="50.71125" lon="5.53885">
        <ele>156</ele>
        <time>2022-10-04T07:47:46Z</time>
      </trkpt>
      <trkpt lat="50.71126" lon="5.53946">
        <ele>156.6</ele>
        <time>2022-10-04T07:47:52Z</time>
      </trkpt>
      <trkpt lat="50.71126" lon="5.53957">
        <ele>156.6</ele>
        <time>2022-10-04T07:47:53Z</time>
      </trkpt>
      <trkpt lat="50.71128" lon="5.53989">
        <ele>156.6</ele>
        <time>2022-10-04T07:47:56Z</time>
      </trkpt>
      <trkpt lat="50.71129" lon="5.54">
        <ele>156.8</ele>
        <time>2022-10-04T07:47:57Z</time>
      </trkpt>
      <trkpt lat="50.71133" lon="5.54023">
        <ele>156.8</ele>
        <time>2022-10-04T07:47:59Z</time>
      </trkpt>
      <trkpt lat="50.71139" lon="5.54058">
        <ele>156.6</ele>
        <time>2022-10-04T07:48:02Z</time>
      </trkpt>
      <trkpt lat="50.71146" lon="5.54106">
        <ele>155.6</ele>
        <time>2022-10-04T07:48:06Z</time>
      </trkpt>
      <trkpt lat="50.71153" lon="5.54156">
        <ele>154.6</ele>
        <time>2022-10-04T07:48:10Z</time>
      </trkpt>
      <trkpt lat="50.7116" lon="5.54193">
        <ele>153.8</ele>
        <time>2022-10-04T07:48:13Z</time>
      </trkpt>
      <trkpt lat="50.7118" lon="5.54278">
        <ele>152.8</ele>
        <time>2022-10-04T07:48:20Z</time>
      </trkpt>
      <trkpt lat="50.71197" lon="5.54363">
        <ele>151.6</ele>
        <time>2022-10-04T07:48:27Z</time>
      </trkpt>
      <trkpt lat="50.712" lon="5.54375">
        <ele>151.4</ele>
        <time>2022-10-04T07:48:28Z</time>
      </trkpt>
      <trkpt lat="50.71216" lon="5.54445">
        <ele>151</ele>
        <time>2022-10-04T07:48:34Z</time>
      </trkpt>
      <trkpt lat="50.71221" lon="5.54467">
        <ele>150.8</ele>
        <time>2022-10-04T07:48:36Z</time>
      </trkpt>
      <trkpt lat="50.71241" lon="5.54521">
        <ele>150.8</ele>
        <time>2022-10-04T07:48:41Z</time>
      </trkpt>
      <trkpt lat="50.7125" lon="5.54542">
        <ele>150.8</ele>
        <time>2022-10-04T07:48:43Z</time>
      </trkpt>
      <trkpt lat="50.71272" lon="5.54582">
        <ele>150.2</ele>
        <time>2022-10-04T07:48:47Z</time>
      </trkpt>
      <trkpt lat="50.71283" lon="5.54602">
        <ele>150</ele>
        <time>2022-10-04T07:48:49Z</time>
      </trkpt>
      <trkpt lat="50.71289" lon="5.54613">
        <ele>150</ele>
        <time>2022-10-04T07:48:50Z</time>
      </trkpt>
      <trkpt lat="50.71312" lon="5.54657">
        <ele>149.2</ele>
        <time>2022-10-04T07:48:54Z</time>
      </trkpt>
      <trkpt lat="50.71323" lon="5.54681">
        <ele>148.8</ele>
        <time>2022-10-04T07:48:56Z</time>
      </trkpt>
      <trkpt lat="50.71328" lon="5.54694">
        <ele>148.8</ele>
        <time>2022-10-04T07:48:57Z</time>
      </trkpt>
      <trkpt lat="50.71333" lon="5.54707">
        <ele>148.6</ele>
        <time>2022-10-04T07:48:58Z</time>
      </trkpt>
      <trkpt lat="50.71345" lon="5.54748">
        <ele>148</ele>
        <time>2022-10-04T07:49:01Z</time>
      </trkpt>
      <trkpt lat="50.71348" lon="5.54762">
        <ele>147.4</ele>
        <time>2022-10-04T07:49:02Z</time>
      </trkpt>
      <trkpt lat="50.71351" lon="5.54777">
        <ele>147.2</ele>
        <time>2022-10-04T07:49:03Z</time>
      </trkpt>
      <trkpt lat="50.71358" lon="5.54821">
        <ele>146</ele>
        <time>2022-10-04T07:49:06Z</time>
      </trkpt>
      <trkpt lat="50.71363" lon="5.5485">
        <ele>144.8</ele>
        <time>2022-10-04T07:49:08Z</time>
      </trkpt>
      <trkpt lat="50.71365" lon="5.54865">
        <ele>144.4</ele>
        <time>2022-10-04T07:49:09Z</time>
      </trkpt>
      <trkpt lat="50.71369" lon="5.54894">
        <ele>143.6</ele>
        <time>2022-10-04T07:49:11Z</time>
      </trkpt>
      <trkpt lat="50.71379" lon="5.54965">
        <ele>141.2</ele>
        <time>2022-10-04T07:49:16Z</time>
      </trkpt>
      <trkpt lat="50.71381" lon="5.54978">
        <ele>141</ele>
        <time>2022-10-04T07:49:17Z</time>
      </trkpt>
      <trkpt lat="50.71386" lon="5.55016">
        <ele>140.2</ele>
        <time>2022-10-04T07:49:20Z</time>
      </trkpt>
      <trkpt lat="50.71391" lon="5.55054">
        <ele>140</ele>
        <time>2022-10-04T07:49:23Z</time>
      </trkpt>
      <trkpt lat="50.71395" lon="5.55079">
        <ele>139.8</ele>
        <time>2022-10-04T07:49:25Z</time>
      </trkpt>
      <trkpt lat="50.714" lon="5.55101">
        <ele>140</ele>
        <time>2022-10-04T07:49:27Z</time>
      </trkpt>
      <trkpt lat="50.71403" lon="5.55112">
        <ele>139.8</ele>
        <time>2022-10-04T07:49:28Z</time>
      </trkpt>
      <trkpt lat="50.71409" lon="5.55132">
        <ele>140</ele>
        <time>2022-10-04T07:49:30Z</time>
      </trkpt>
      <trkpt lat="50.71421" lon="5.55161">
        <ele>140</ele>
        <time>2022-10-04T07:49:33Z</time>
      </trkpt>
      <trkpt lat="50.71425" lon="5.55169">
        <ele>140.2</ele>
        <time>2022-10-04T07:49:34Z</time>
      </trkpt>
      <trkpt lat="50.7143" lon="5.55177">
        <ele>140.6</ele>
        <time>2022-10-04T07:49:35Z</time>
      </trkpt>
      <trkpt lat="50.71454" lon="5.55217">
        <ele>143.6</ele>
        <time>2022-10-04T07:49:40Z</time>
      </trkpt>
      <trkpt lat="50.71464" lon="5.55233">
        <ele>144.2</ele>
        <time>2022-10-04T07:49:42Z</time>
      </trkpt>
      <trkpt lat="50.71469" lon="5.55241">
        <ele>144.4</ele>
        <time>2022-10-04T07:49:43Z</time>
      </trkpt>
      <trkpt lat="50.71479" lon="5.55256">
        <ele>145</ele>
        <time>2022-10-04T07:49:45Z</time>
      </trkpt>
      <trkpt lat="50.71484" lon="5.55264">
        <ele>145.2</ele>
        <time>2022-10-04T07:49:46Z</time>
      </trkpt>
      <trkpt lat="50.71503" lon="5.55295">
        <ele>146</ele>
        <time>2022-10-04T07:49:50Z</time>
      </trkpt>
      <trkpt lat="50.71522" lon="5.55326">
        <ele>147.2</ele>
        <time>2022-10-04T07:49:54Z</time>
      </trkpt>
      <trkpt lat="50.71547" lon="5.55363">
        <ele>148</ele>
        <time>2022-10-04T07:49:59Z</time>
      </trkpt>
      <trkpt lat="50.71551" lon="5.5537">
        <ele>148.2</ele>
        <time>2022-10-04T07:50:00Z</time>
      </trkpt>
      <trkpt lat="50.7157" lon="5.55401">
        <ele>149.4</ele>
        <time>2022-10-04T07:50:04Z</time>
      </trkpt>
      <trkpt lat="50.71574" lon="5.55408">
        <ele>149.6</ele>
        <time>2022-10-04T07:50:05Z</time>
      </trkpt>
      <trkpt lat="50.71588" lon="5.5543">
        <ele>150</ele>
        <time>2022-10-04T07:50:08Z</time>
      </trkpt>
      <trkpt lat="50.71598" lon="5.55445">
        <ele>150</ele>
        <time>2022-10-04T07:50:10Z</time>
      </trkpt>
      <trkpt lat="50.71607" lon="5.55459">
        <ele>150</ele>
        <time>2022-10-04T07:50:12Z</time>
      </trkpt>
      <trkpt lat="50.71617" lon="5.55472">
        <ele>150.6</ele>
        <time>2022-10-04T07:50:14Z</time>
      </trkpt>
      <trkpt lat="50.71622" lon="5.55478">
        <ele>150.6</ele>
        <time>2022-10-04T07:50:15Z</time>
      </trkpt>
      <trkpt lat="50.7166" lon="5.55518">
        <ele>152</ele>
        <time>2022-10-04T07:50:22Z</time>
      </trkpt>
      <trkpt lat="50.71666" lon="5.55523">
        <ele>152.2</ele>
        <time>2022-10-04T07:50:23Z</time>
      </trkpt>
      <trkpt lat="50.71712" lon="5.55568">
        <ele>153.6</ele>
        <time>2022-10-04T07:50:31Z</time>
      </trkpt>
      <trkpt lat="50.71718" lon="5.55574">
        <ele>153.6</ele>
        <time>2022-10-04T07:50:32Z</time>
      </trkpt>
      <trkpt lat="50.71766" lon="5.55622">
        <ele>153.8</ele>
        <time>2022-10-04T07:50:40Z</time>
      </trkpt>
      <trkpt lat="50.71785" lon="5.55641">
        <ele>153.8</ele>
        <time>2022-10-04T07:50:43Z</time>
      </trkpt>
      <trkpt lat="50.71798" lon="5.55653">
        <ele>153.8</ele>
        <time>2022-10-04T07:50:45Z</time>
      </trkpt>
      <trkpt lat="50.71832" lon="5.55687">
        <ele>153.8</ele>
        <time>2022-10-04T07:50:50Z</time>
      </trkpt>
      <trkpt lat="50.71839" lon="5.55693">
        <ele>153.6</ele>
        <time>2022-10-04T07:50:51Z</time>
      </trkpt>
      <trkpt lat="50.71854" lon="5.55707">
        <ele>153.6</ele>
        <time>2022-10-04T07:50:53Z</time>
      </trkpt>
      <trkpt lat="50.71869" lon="5.55719">
        <ele>153</ele>
        <time>2022-10-04T07:50:55Z</time>
      </trkpt>
      <trkpt lat="50.71901" lon="5.55743">
        <ele>152.6</ele>
        <time>2022-10-04T07:50:59Z</time>
      </trkpt>
      <trkpt lat="50.71918" lon="5.55754">
        <ele>151.8</ele>
        <time>2022-10-04T07:51:01Z</time>
      </trkpt>
      <trkpt lat="50.71952" lon="5.55775">
        <ele>149.8</ele>
        <time>2022-10-04T07:51:05Z</time>
      </trkpt>
      <trkpt lat="50.71961" lon="5.5578">
        <ele>149.6</ele>
        <time>2022-10-04T07:51:06Z</time>
      </trkpt>
      <trkpt lat="50.7197" lon="5.55785">
        <ele>149.2</ele>
        <time>2022-10-04T07:51:07Z</time>
      </trkpt>
      <trkpt lat="50.71989" lon="5.55795">
        <ele>148.6</ele>
        <time>2022-10-04T07:51:09Z</time>
      </trkpt>
      <trkpt lat="50.72016" lon="5.55812">
        <ele>148</ele>
        <time>2022-10-04T07:51:12Z</time>
      </trkpt>
      <trkpt lat="50.72034" lon="5.55826">
        <ele>147.2</ele>
        <time>2022-10-04T07:51:14Z</time>
      </trkpt>
      <trkpt lat="50.72043" lon="5.55834">
        <ele>146.6</ele>
        <time>2022-10-04T07:51:15Z</time>
      </trkpt>
      <trkpt lat="50.72067" lon="5.55861">
        <ele>144.6</ele>
        <time>2022-10-04T07:51:18Z</time>
      </trkpt>
      <trkpt lat="50.72074" lon="5.55872">
        <ele>144</ele>
        <time>2022-10-04T07:51:19Z</time>
      </trkpt>
      <trkpt lat="50.72081" lon="5.55883">
        <ele>143.8</ele>
        <time>2022-10-04T07:51:20Z</time>
      </trkpt>
      <trkpt lat="50.72093" lon="5.55907">
        <ele>142.8</ele>
        <time>2022-10-04T07:51:22Z</time>
      </trkpt>
      <trkpt lat="50.72103" lon="5.55931">
        <ele>142</ele>
        <time>2022-10-04T07:51:24Z</time>
      </trkpt>
      <trkpt lat="50.72113" lon="5.55956">
        <ele>141.4</ele>
        <time>2022-10-04T07:51:26Z</time>
      </trkpt>
      <trkpt lat="50.72123" lon="5.5598">
        <ele>141</ele>
        <time>2022-10-04T07:51:28Z</time>
      </trkpt>
      <trkpt lat="50.72132" lon="5.56003">
        <ele>140.6</ele>
        <time>2022-10-04T07:51:30Z</time>
      </trkpt>
      <trkpt lat="50.72146" lon="5.56036">
        <ele>140.6</ele>
        <time>2022-10-04T07:51:33Z</time>
      </trkpt>
      <trkpt lat="50.72164" lon="5.5608">
        <ele>140.6</ele>
        <time>2022-10-04T07:51:37Z</time>
      </trkpt>
      <trkpt lat="50.72172" lon="5.56101">
        <ele>140.6</ele>
        <time>2022-10-04T07:51:39Z</time>
      </trkpt>
      <trkpt lat="50.72198" lon="5.56164">
        <ele>140.8</ele>
        <time>2022-10-04T07:51:45Z</time>
      </trkpt>
      <trkpt lat="50.72211" lon="5.56195">
        <ele>140.8</ele>
        <time>2022-10-04T07:51:48Z</time>
      </trkpt>
      <trkpt lat="50.72219" lon="5.56216">
        <ele>141</ele>
        <time>2022-10-04T07:51:50Z</time>
      </trkpt>
      <trkpt lat="50.72242" lon="5.56264">
        <ele>141.2</ele>
        <time>2022-10-04T07:51:55Z</time>
      </trkpt>
      <trkpt lat="50.72273" lon="5.56314">
        <ele>142.4</ele>
        <time>2022-10-04T07:52:01Z</time>
      </trkpt>
      <trkpt lat="50.72284" lon="5.56329">
        <ele>142.8</ele>
        <time>2022-10-04T07:52:03Z</time>
      </trkpt>
      <trkpt lat="50.723" lon="5.56349">
        <ele>143.8</ele>
        <time>2022-10-04T07:52:06Z</time>
      </trkpt>
      <trkpt lat="50.72323" lon="5.56372">
        <ele>144.6</ele>
        <time>2022-10-04T07:52:10Z</time>
      </trkpt>
      <trkpt lat="50.72329" lon="5.56378">
        <ele>144.8</ele>
        <time>2022-10-04T07:52:11Z</time>
      </trkpt>
      <trkpt lat="50.72346" lon="5.56395">
        <ele>145.4</ele>
        <time>2022-10-04T07:52:14Z</time>
      </trkpt>
      <trkpt lat="50.72352" lon="5.56401">
        <ele>145.8</ele>
        <time>2022-10-04T07:52:15Z</time>
      </trkpt>
      <trkpt lat="50.72373" lon="5.56427">
        <ele>147</ele>
        <time>2022-10-04T07:52:19Z</time>
      </trkpt>
      <trkpt lat="50.72378" lon="5.56434">
        <ele>147.6</ele>
        <time>2022-10-04T07:52:20Z</time>
      </trkpt>
      <trkpt lat="50.72391" lon="5.56459">
        <ele>148.4</ele>
        <time>2022-10-04T07:52:23Z</time>
      </trkpt>
      <trkpt lat="50.72401" lon="5.56486">
        <ele>148.6</ele>
        <time>2022-10-04T07:52:26Z</time>
      </trkpt>
      <trkpt lat="50.72406" lon="5.56505">
        <ele>148.8</ele>
        <time>2022-10-04T07:52:28Z</time>
      </trkpt>
      <trkpt lat="50.72412" lon="5.56523">
        <ele>149.4</ele>
        <time>2022-10-04T07:52:30Z</time>
      </trkpt>
      <trkpt lat="50.72419" lon="5.56551">
        <ele>149.6</ele>
        <time>2022-10-04T07:52:33Z</time>
      </trkpt>
      <trkpt lat="50.7243" lon="5.56588">
        <ele>150.4</ele>
        <time>2022-10-04T07:52:37Z</time>
      </trkpt>
      <trkpt lat="50.72443" lon="5.56634">
        <ele>151</ele>
        <time>2022-10-04T07:52:42Z</time>
      </trkpt>
      <trkpt lat="50.72464" lon="5.56709">
        <ele>152.2</ele>
        <time>2022-10-04T07:52:50Z</time>
      </trkpt>
      <trkpt lat="50.72472" lon="5.56736">
        <ele>152.4</ele>
        <time>2022-10-04T07:52:53Z</time>
      </trkpt>
      <trkpt lat="50.72484" lon="5.56781">
        <ele>153</ele>
        <time>2022-10-04T07:52:58Z</time>
      </trkpt>
      <trkpt lat="50.725" lon="5.56836">
        <ele>154.2</ele>
        <time>2022-10-04T07:53:04Z</time>
      </trkpt>
      <trkpt lat="50.72506" lon="5.56854">
        <ele>154.4</ele>
        <time>2022-10-04T07:53:06Z</time>
      </trkpt>
      <trkpt lat="50.72525" lon="5.56896">
        <ele>155.2</ele>
        <time>2022-10-04T07:53:11Z</time>
      </trkpt>
      <trkpt lat="50.7255" lon="5.56941">
        <ele>156</ele>
        <time>2022-10-04T07:53:17Z</time>
      </trkpt>
      <trkpt lat="50.72554" lon="5.56949">
        <ele>156.2</ele>
        <time>2022-10-04T07:53:18Z</time>
      </trkpt>
      <trkpt lat="50.72571" lon="5.56977">
        <ele>156.6</ele>
        <time>2022-10-04T07:53:22Z</time>
      </trkpt>
      <trkpt lat="50.72577" lon="5.56988">
        <ele>156.6</ele>
        <time>2022-10-04T07:53:24Z</time>
      </trkpt>
      <trkpt lat="50.72583" lon="5.57001">
        <ele>157.2</ele>
        <time>2022-10-04T07:53:28Z</time>
      </trkpt>
      <trkpt lat="50.72585" lon="5.57003">
        <ele>157.2</ele>
        <time>2022-10-04T07:53:29Z</time>
      </trkpt>
      <trkpt lat="50.72594" lon="5.57007">
        <ele>157.8</ele>
        <time>2022-10-04T07:53:32Z</time>
      </trkpt>
      <trkpt lat="50.72599" lon="5.57008">
        <ele>158</ele>
        <time>2022-10-04T07:53:33Z</time>
      </trkpt>
      <trkpt lat="50.7262" lon="5.57014">
        <ele>158.6</ele>
        <time>2022-10-04T07:53:37Z</time>
      </trkpt>
      <trkpt lat="50.7263" lon="5.57025">
        <ele>158.8</ele>
        <time>2022-10-04T07:53:39Z</time>
      </trkpt>
      <trkpt lat="50.72635" lon="5.57032">
        <ele>158.8</ele>
        <time>2022-10-04T07:53:40Z</time>
      </trkpt>
      <trkpt lat="50.72639" lon="5.57042">
        <ele>158.8</ele>
        <time>2022-10-04T07:53:41Z</time>
      </trkpt>
      <trkpt lat="50.72643" lon="5.57052">
        <ele>158.8</ele>
        <time>2022-10-04T07:53:42Z</time>
      </trkpt>
      <trkpt lat="50.72655" lon="5.57082">
        <ele>158.6</ele>
        <time>2022-10-04T07:53:45Z</time>
      </trkpt>
      <trkpt lat="50.72682" lon="5.57123">
        <ele>157.8</ele>
        <time>2022-10-04T07:53:50Z</time>
      </trkpt>
      <trkpt lat="50.72701" lon="5.57143">
        <ele>157.4</ele>
        <time>2022-10-04T07:53:53Z</time>
      </trkpt>
      <trkpt lat="50.72727" lon="5.5717">
        <ele>157.4</ele>
        <time>2022-10-04T07:53:57Z</time>
      </trkpt>
      <trkpt lat="50.72773" lon="5.57219">
        <ele>156.6</ele>
        <time>2022-10-04T07:54:04Z</time>
      </trkpt>
      <trkpt lat="50.72792" lon="5.5724">
        <ele>156.2</ele>
        <time>2022-10-04T07:54:07Z</time>
      </trkpt>
      <trkpt lat="50.72818" lon="5.5727">
        <ele>155.8</ele>
        <time>2022-10-04T07:54:11Z</time>
      </trkpt>
      <trkpt lat="50.72829" lon="5.57288">
        <ele>155.8</ele>
        <time>2022-10-04T07:54:13Z</time>
      </trkpt>
      <trkpt lat="50.72867" lon="5.57353">
        <ele>155.2</ele>
        <time>2022-10-04T07:54:20Z</time>
      </trkpt>
      <trkpt lat="50.72877" lon="5.57372">
        <ele>155</ele>
        <time>2022-10-04T07:54:22Z</time>
      </trkpt>
      <trkpt lat="50.729" lon="5.57423">
        <ele>154.8</ele>
        <time>2022-10-04T07:54:27Z</time>
      </trkpt>
      <trkpt lat="50.72909" lon="5.57445">
        <ele>154.8</ele>
        <time>2022-10-04T07:54:29Z</time>
      </trkpt>
      <trkpt lat="50.72924" lon="5.57489">
        <ele>154.6</ele>
        <time>2022-10-04T07:54:33Z</time>
      </trkpt>
      <trkpt lat="50.72937" lon="5.57535">
        <ele>154.6</ele>
        <time>2022-10-04T07:54:37Z</time>
      </trkpt>
      <trkpt lat="50.72958" lon="5.57616">
        <ele>154.2</ele>
        <time>2022-10-04T07:54:44Z</time>
      </trkpt>
      <trkpt lat="50.7296" lon="5.57628">
        <ele>154.2</ele>
        <time>2022-10-04T07:54:45Z</time>
      </trkpt>
      <trkpt lat="50.72976" lon="5.57695">
        <ele>154</ele>
        <time>2022-10-04T07:54:51Z</time>
      </trkpt>
      <trkpt lat="50.72988" lon="5.5774">
        <ele>154.2</ele>
        <time>2022-10-04T07:54:55Z</time>
      </trkpt>
      <trkpt lat="50.7301" lon="5.57827">
        <ele>154.8</ele>
        <time>2022-10-04T07:55:03Z</time>
      </trkpt>
      <trkpt lat="50.73026" lon="5.5789">
        <ele>155.2</ele>
        <time>2022-10-04T07:55:09Z</time>
      </trkpt>
      <trkpt lat="50.73033" lon="5.57921">
        <ele>155.4</ele>
        <time>2022-10-04T07:55:12Z</time>
      </trkpt>
      <trkpt lat="50.73041" lon="5.57952">
        <ele>155.6</ele>
        <time>2022-10-04T07:55:15Z</time>
      </trkpt>
      <trkpt lat="50.73046" lon="5.57972">
        <ele>155.6</ele>
        <time>2022-10-04T07:55:17Z</time>
      </trkpt>
      <trkpt lat="50.73059" lon="5.58024">
        <ele>156.2</ele>
        <time>2022-10-04T07:55:22Z</time>
      </trkpt>
      <trkpt lat="50.73071" lon="5.58073">
        <ele>156.8</ele>
        <time>2022-10-04T07:55:27Z</time>
      </trkpt>
      <trkpt lat="50.73073" lon="5.58081">
        <ele>156.8</ele>
        <time>2022-10-04T07:55:28Z</time>
      </trkpt>
      <trkpt lat="50.73079" lon="5.58101">
        <ele>157.4</ele>
        <time>2022-10-04T07:55:31Z</time>
      </trkpt>
      <trkpt lat="50.73081" lon="5.58113">
        <ele>157.4</ele>
        <time>2022-10-04T07:55:33Z</time>
      </trkpt>
      <trkpt lat="50.73083" lon="5.58119">
        <ele>157.4</ele>
        <time>2022-10-04T07:55:34Z</time>
      </trkpt>
      <trkpt lat="50.73089" lon="5.58149">
        <ele>158</ele>
        <time>2022-10-04T07:55:40Z</time>
      </trkpt>
      <trkpt lat="50.7309" lon="5.58155">
        <ele>158</ele>
        <time>2022-10-04T07:55:43Z</time>
      </trkpt>
      <trkpt lat="50.73094" lon="5.58165">
        <ele>159</ele>
        <time>2022-10-04T07:57:44Z</time>
      </trkpt>
      <trkpt lat="50.73095" lon="5.58169">
        <ele>159</ele>
        <time>2022-10-04T07:57:45Z</time>
      </trkpt>
      <trkpt lat="50.73096" lon="5.58173">
        <ele>159</ele>
        <time>2022-10-04T07:57:46Z</time>
      </trkpt>
      <trkpt lat="50.73098" lon="5.58184">
        <ele>159</ele>
        <time>2022-10-04T07:57:48Z</time>
      </trkpt>
      <trkpt lat="50.73104" lon="5.58206">
        <ele>158.8</ele>
        <time>2022-10-04T07:57:51Z</time>
      </trkpt>
      <trkpt lat="50.73108" lon="5.58223">
        <ele>158.6</ele>
        <time>2022-10-04T07:57:53Z</time>
      </trkpt>
      <trkpt lat="50.73113" lon="5.58242">
        <ele>158</ele>
        <time>2022-10-04T07:57:55Z</time>
      </trkpt>
      <trkpt lat="50.73118" lon="5.58262">
        <ele>157.6</ele>
        <time>2022-10-04T07:57:57Z</time>
      </trkpt>
      <trkpt lat="50.73123" lon="5.58283">
        <ele>157</ele>
        <time>2022-10-04T07:57:59Z</time>
      </trkpt>
      <trkpt lat="50.73126" lon="5.58294">
        <ele>156.4</ele>
        <time>2022-10-04T07:58:00Z</time>
      </trkpt>
      <trkpt lat="50.73132" lon="5.58318">
        <ele>155.8</ele>
        <time>2022-10-04T07:58:02Z</time>
      </trkpt>
      <trkpt lat="50.73141" lon="5.58355">
        <ele>155.2</ele>
        <time>2022-10-04T07:58:05Z</time>
      </trkpt>
      <trkpt lat="50.73144" lon="5.58368">
        <ele>154.4</ele>
        <time>2022-10-04T07:58:06Z</time>
      </trkpt>
      <trkpt lat="50.73148" lon="5.58382">
        <ele>153.8</ele>
        <time>2022-10-04T07:58:07Z</time>
      </trkpt>
      <trkpt lat="50.73151" lon="5.58395">
        <ele>153.4</ele>
        <time>2022-10-04T07:58:08Z</time>
      </trkpt>
      <trkpt lat="50.73161" lon="5.58435">
        <ele>152.2</ele>
        <time>2022-10-04T07:58:11Z</time>
      </trkpt>
      <trkpt lat="50.73164" lon="5.58449">
        <ele>152.2</ele>
        <time>2022-10-04T07:58:12Z</time>
      </trkpt>
      <trkpt lat="50.73171" lon="5.58476">
        <ele>151.8</ele>
        <time>2022-10-04T07:58:14Z</time>
      </trkpt>
      <trkpt lat="50.73174" lon="5.58489">
        <ele>151.2</ele>
        <time>2022-10-04T07:58:15Z</time>
      </trkpt>
      <trkpt lat="50.73188" lon="5.58544">
        <ele>149</ele>
        <time>2022-10-04T07:58:19Z</time>
      </trkpt>
      <trkpt lat="50.73191" lon="5.58558">
        <ele>148.8</ele>
        <time>2022-10-04T07:58:20Z</time>
      </trkpt>
      <trkpt lat="50.73195" lon="5.58571">
        <ele>148.6</ele>
        <time>2022-10-04T07:58:21Z</time>
      </trkpt>
      <trkpt lat="50.73208" lon="5.58625">
        <ele>148.2</ele>
        <time>2022-10-04T07:58:25Z</time>
      </trkpt>
      <trkpt lat="50.73218" lon="5.58664">
        <ele>148</ele>
        <time>2022-10-04T07:58:28Z</time>
      </trkpt>
      <trkpt lat="50.73224" lon="5.5869">
        <ele>147.8</ele>
        <time>2022-10-04T07:58:30Z</time>
      </trkpt>
      <trkpt lat="50.73231" lon="5.58716">
        <ele>147.6</ele>
        <time>2022-10-04T07:58:32Z</time>
      </trkpt>
      <trkpt lat="50.73241" lon="5.58756">
        <ele>147.4</ele>
        <time>2022-10-04T07:58:35Z</time>
      </trkpt>
      <trkpt lat="50.73248" lon="5.58783">
        <ele>147.4</ele>
        <time>2022-10-04T07:58:37Z</time>
      </trkpt>
      <trkpt lat="50.73258" lon="5.58821">
        <ele>147.2</ele>
        <time>2022-10-04T07:58:40Z</time>
      </trkpt>
      <trkpt lat="50.73261" lon="5.58833">
        <ele>146.6</ele>
        <time>2022-10-04T07:58:41Z</time>
      </trkpt>
      <trkpt lat="50.73264" lon="5.58845">
        <ele>146.2</ele>
        <time>2022-10-04T07:58:42Z</time>
      </trkpt>
      <trkpt lat="50.73267" lon="5.58857">
        <ele>146.2</ele>
        <time>2022-10-04T07:58:43Z</time>
      </trkpt>
      <trkpt lat="50.73269" lon="5.58869">
        <ele>145.8</ele>
        <time>2022-10-04T07:58:44Z</time>
      </trkpt>
      <trkpt lat="50.7329" lon="5.58953">
        <ele>144.8</ele>
        <time>2022-10-04T07:58:51Z</time>
      </trkpt>
      <trkpt lat="50.73301" lon="5.59">
        <ele>144.2</ele>
        <time>2022-10-04T07:58:55Z</time>
      </trkpt>
      <trkpt lat="50.73307" lon="5.59023">
        <ele>144.2</ele>
        <time>2022-10-04T07:58:57Z</time>
      </trkpt>
      <trkpt lat="50.7331" lon="5.59034">
        <ele>144.2</ele>
        <time>2022-10-04T07:58:58Z</time>
      </trkpt>
      <trkpt lat="50.73324" lon="5.59091">
        <ele>144.2</ele>
        <time>2022-10-04T07:59:03Z</time>
      </trkpt>
      <trkpt lat="50.73335" lon="5.59135">
        <ele>145.8</ele>
        <time>2022-10-04T07:59:07Z</time>
      </trkpt>
      <trkpt lat="50.73351" lon="5.592">
        <ele>147.2</ele>
        <time>2022-10-04T07:59:13Z</time>
      </trkpt>
      <trkpt lat="50.73357" lon="5.59222">
        <ele>147.4</ele>
        <time>2022-10-04T07:59:15Z</time>
      </trkpt>
      <trkpt lat="50.73365" lon="5.59254">
        <ele>147.6</ele>
        <time>2022-10-04T07:59:18Z</time>
      </trkpt>
      <trkpt lat="50.73371" lon="5.59276">
        <ele>147.8</ele>
        <time>2022-10-04T07:59:20Z</time>
      </trkpt>
      <trkpt lat="50.73377" lon="5.59298">
        <ele>147.8</ele>
        <time>2022-10-04T07:59:22Z</time>
      </trkpt>
      <trkpt lat="50.73393" lon="5.59364">
        <ele>148.8</ele>
        <time>2022-10-04T07:59:28Z</time>
      </trkpt>
      <trkpt lat="50.73414" lon="5.59446">
        <ele>149.6</ele>
        <time>2022-10-04T07:59:36Z</time>
      </trkpt>
      <trkpt lat="50.73417" lon="5.59456">
        <ele>149.6</ele>
        <time>2022-10-04T07:59:37Z</time>
      </trkpt>
      <trkpt lat="50.73434" lon="5.59528">
        <ele>150.2</ele>
        <time>2022-10-04T07:59:44Z</time>
      </trkpt>
      <trkpt lat="50.73436" lon="5.59539">
        <ele>150.2</ele>
        <time>2022-10-04T07:59:45Z</time>
      </trkpt>
      <trkpt lat="50.73454" lon="5.5961">
        <ele>151.4</ele>
        <time>2022-10-04T07:59:52Z</time>
      </trkpt>
      <trkpt lat="50.73457" lon="5.5962">
        <ele>151.4</ele>
        <time>2022-10-04T07:59:53Z</time>
      </trkpt>
      <trkpt lat="50.73478" lon="5.59709">
        <ele>152.8</ele>
        <time>2022-10-04T08:00:02Z</time>
      </trkpt>
      <trkpt lat="50.7348" lon="5.59719">
        <ele>153.2</ele>
        <time>2022-10-04T08:00:03Z</time>
      </trkpt>
      <trkpt lat="50.735" lon="5.59801">
        <ele>154.4</ele>
        <time>2022-10-04T08:00:11Z</time>
      </trkpt>
      <trkpt lat="50.73503" lon="5.59811">
        <ele>154.6</ele>
        <time>2022-10-04T08:00:12Z</time>
      </trkpt>
      <trkpt lat="50.73519" lon="5.59883">
        <ele>155.8</ele>
        <time>2022-10-04T08:00:19Z</time>
      </trkpt>
      <trkpt lat="50.73522" lon="5.59893">
        <ele>155.8</ele>
        <time>2022-10-04T08:00:20Z</time>
      </trkpt>
      <trkpt lat="50.73538" lon="5.59977">
        <ele>156.6</ele>
        <time>2022-10-04T08:00:28Z</time>
      </trkpt>
      <trkpt lat="50.7354" lon="5.59987">
        <ele>156.6</ele>
        <time>2022-10-04T08:00:29Z</time>
      </trkpt>
      <trkpt lat="50.73544" lon="5.60009">
        <ele>157</ele>
        <time>2022-10-04T08:00:31Z</time>
      </trkpt>
      <trkpt lat="50.73552" lon="5.60066">
        <ele>157.6</ele>
        <time>2022-10-04T08:00:36Z</time>
      </trkpt>
      <trkpt lat="50.73561" lon="5.60152">
        <ele>158</ele>
        <time>2022-10-04T08:00:43Z</time>
      </trkpt>
      <trkpt lat="50.73563" lon="5.60164">
        <ele>158</ele>
        <time>2022-10-04T08:00:44Z</time>
      </trkpt>
      <trkpt lat="50.73568" lon="5.60202">
        <ele>158</ele>
        <time>2022-10-04T08:00:47Z</time>
      </trkpt>
      <trkpt lat="50.73579" lon="5.60289">
        <ele>157.8</ele>
        <time>2022-10-04T08:00:54Z</time>
      </trkpt>
      <trkpt lat="50.73581" lon="5.60302">
        <ele>157.8</ele>
        <time>2022-10-04T08:00:55Z</time>
      </trkpt>
      <trkpt lat="50.73584" lon="5.60328">
        <ele>157.6</ele>
        <time>2022-10-04T08:00:57Z</time>
      </trkpt>
      <trkpt lat="50.73587" lon="5.60354">
        <ele>157.2</ele>
        <time>2022-10-04T08:00:59Z</time>
      </trkpt>
      <trkpt lat="50.73591" lon="5.60379">
        <ele>157</ele>
        <time>2022-10-04T08:01:01Z</time>
      </trkpt>
      <trkpt lat="50.73594" lon="5.60404">
        <ele>156.8</ele>
        <time>2022-10-04T08:01:03Z</time>
      </trkpt>
      <trkpt lat="50.73605" lon="5.60466">
        <ele>156.2</ele>
        <time>2022-10-04T08:01:08Z</time>
      </trkpt>
      <trkpt lat="50.73612" lon="5.60503">
        <ele>155.6</ele>
        <time>2022-10-04T08:01:11Z</time>
      </trkpt>
      <trkpt lat="50.73622" lon="5.60554">
        <ele>155.2</ele>
        <time>2022-10-04T08:01:15Z</time>
      </trkpt>
      <trkpt lat="50.73629" lon="5.60592">
        <ele>154.8</ele>
        <time>2022-10-04T08:01:18Z</time>
      </trkpt>
      <trkpt lat="50.73643" lon="5.60666">
        <ele>154.2</ele>
        <time>2022-10-04T08:01:24Z</time>
      </trkpt>
      <trkpt lat="50.73652" lon="5.60699">
        <ele>153.8</ele>
        <time>2022-10-04T08:01:27Z</time>
      </trkpt>
      <trkpt lat="50.73658" lon="5.60708">
        <ele>154</ele>
        <time>2022-10-04T08:01:28Z</time>
      </trkpt>
      <trkpt lat="50.73668" lon="5.60724">
        <ele>154</ele>
        <time>2022-10-04T08:01:30Z</time>
      </trkpt>
      <trkpt lat="50.73673" lon="5.60732">
        <ele>153.8</ele>
        <time>2022-10-04T08:01:31Z</time>
      </trkpt>
      <trkpt lat="50.73684" lon="5.60748">
        <ele>153.8</ele>
        <time>2022-10-04T08:01:33Z</time>
      </trkpt>
      <trkpt lat="50.7369" lon="5.60757">
        <ele>153.8</ele>
        <time>2022-10-04T08:01:34Z</time>
      </trkpt>
      <trkpt lat="50.73695" lon="5.60765">
        <ele>154</ele>
        <time>2022-10-04T08:01:35Z</time>
      </trkpt>
      <trkpt lat="50.73715" lon="5.608">
        <ele>153.6</ele>
        <time>2022-10-04T08:01:39Z</time>
      </trkpt>
      <trkpt lat="50.7372" lon="5.6081">
        <ele>153.6</ele>
        <time>2022-10-04T08:01:40Z</time>
      </trkpt>
      <trkpt lat="50.73729" lon="5.60831">
        <ele>153.6</ele>
        <time>2022-10-04T08:01:42Z</time>
      </trkpt>
      <trkpt lat="50.73733" lon="5.60841">
        <ele>153.6</ele>
        <time>2022-10-04T08:01:43Z</time>
      </trkpt>
      <trkpt lat="50.73741" lon="5.60862">
        <ele>153.4</ele>
        <time>2022-10-04T08:01:45Z</time>
      </trkpt>
      <trkpt lat="50.73758" lon="5.60904">
        <ele>153.2</ele>
        <time>2022-10-04T08:01:49Z</time>
      </trkpt>
      <trkpt lat="50.73782" lon="5.60967">
        <ele>152.6</ele>
        <time>2022-10-04T08:01:55Z</time>
      </trkpt>
      <trkpt lat="50.73795" lon="5.60997">
        <ele>152.2</ele>
        <time>2022-10-04T08:01:58Z</time>
      </trkpt>
      <trkpt lat="50.7381" lon="5.61035">
        <ele>151.8</ele>
        <time>2022-10-04T08:02:02Z</time>
      </trkpt>
      <trkpt lat="50.73823" lon="5.61064">
        <ele>151.4</ele>
        <time>2022-10-04T08:02:05Z</time>
      </trkpt>
      <trkpt lat="50.73827" lon="5.61074">
        <ele>151.4</ele>
        <time>2022-10-04T08:02:06Z</time>
      </trkpt>
      <trkpt lat="50.73842" lon="5.61102">
        <ele>151.2</ele>
        <time>2022-10-04T08:02:09Z</time>
      </trkpt>
      <trkpt lat="50.73862" lon="5.61121">
        <ele>151</ele>
        <time>2022-10-04T08:02:12Z</time>
      </trkpt>
      <trkpt lat="50.73869" lon="5.61126">
        <ele>150.6</ele>
        <time>2022-10-04T08:02:13Z</time>
      </trkpt>
      <trkpt lat="50.73876" lon="5.6113">
        <ele>150.6</ele>
        <time>2022-10-04T08:02:14Z</time>
      </trkpt>
      <trkpt lat="50.73884" lon="5.61133">
        <ele>150.4</ele>
        <time>2022-10-04T08:02:15Z</time>
      </trkpt>
      <trkpt lat="50.73891" lon="5.61135">
        <ele>150.2</ele>
        <time>2022-10-04T08:02:16Z</time>
      </trkpt>
      <trkpt lat="50.73906" lon="5.6114">
        <ele>150.4</ele>
        <time>2022-10-04T08:02:18Z</time>
      </trkpt>
      <trkpt lat="50.73921" lon="5.61146">
        <ele>150</ele>
        <time>2022-10-04T08:02:20Z</time>
      </trkpt>
      <trkpt lat="50.73943" lon="5.61153">
        <ele>149.8</ele>
        <time>2022-10-04T08:02:23Z</time>
      </trkpt>
      <trkpt lat="50.73958" lon="5.6116">
        <ele>149.4</ele>
        <time>2022-10-04T08:02:25Z</time>
      </trkpt>
      <trkpt lat="50.73964" lon="5.61165">
        <ele>149.4</ele>
        <time>2022-10-04T08:02:26Z</time>
      </trkpt>
      <trkpt lat="50.73971" lon="5.6117">
        <ele>149.4</ele>
        <time>2022-10-04T08:02:27Z</time>
      </trkpt>
      <trkpt lat="50.73977" lon="5.61176">
        <ele>149.2</ele>
        <time>2022-10-04T08:02:28Z</time>
      </trkpt>
      <trkpt lat="50.73995" lon="5.61199">
        <ele>148.4</ele>
        <time>2022-10-04T08:02:31Z</time>
      </trkpt>
      <trkpt lat="50.74019" lon="5.61233">
        <ele>147.6</ele>
        <time>2022-10-04T08:02:35Z</time>
      </trkpt>
      <trkpt lat="50.74038" lon="5.61258">
        <ele>147</ele>
        <time>2022-10-04T08:02:38Z</time>
      </trkpt>
      <trkpt lat="50.74086" lon="5.6131">
        <ele>146.2</ele>
        <time>2022-10-04T08:02:45Z</time>
      </trkpt>
      <trkpt lat="50.74107" lon="5.6133">
        <ele>146</ele>
        <time>2022-10-04T08:02:48Z</time>
      </trkpt>
      <trkpt lat="50.74133" lon="5.61353">
        <ele>146</ele>
        <time>2022-10-04T08:02:52Z</time>
      </trkpt>
      <trkpt lat="50.74183" lon="5.61387">
        <ele>144.6</ele>
        <time>2022-10-04T08:02:59Z</time>
      </trkpt>
      <trkpt lat="50.7422" lon="5.61412">
        <ele>144</ele>
        <time>2022-10-04T08:03:05Z</time>
      </trkpt>
      <trkpt lat="50.74234" lon="5.61423">
        <ele>143.8</ele>
        <time>2022-10-04T08:03:09Z</time>
      </trkpt>
      <trkpt lat="50.74245" lon="5.61423">
        <ele>144.2</ele>
        <time>2022-10-04T08:03:14Z</time>
      </trkpt>
      <trkpt lat="50.74251" lon="5.61419">
        <ele>144.2</ele>
        <time>2022-10-04T08:03:16Z</time>
      </trkpt>
      <trkpt lat="50.74254" lon="5.61416">
        <ele>144.2</ele>
        <time>2022-10-04T08:03:17Z</time>
      </trkpt>
      <trkpt lat="50.74258" lon="5.61411">
        <ele>144.2</ele>
        <time>2022-10-04T08:03:18Z</time>
      </trkpt>
      <trkpt lat="50.74267" lon="5.614">
        <ele>144.2</ele>
        <time>2022-10-04T08:03:20Z</time>
      </trkpt>
      <trkpt lat="50.74278" lon="5.61386">
        <ele>144.2</ele>
        <time>2022-10-04T08:03:22Z</time>
      </trkpt>
      <trkpt lat="50.7429" lon="5.6137">
        <ele>144</ele>
        <time>2022-10-04T08:03:24Z</time>
      </trkpt>
      <trkpt lat="50.7431" lon="5.61347">
        <ele>143.6</ele>
        <time>2022-10-04T08:03:27Z</time>
      </trkpt>
      <trkpt lat="50.74316" lon="5.6134">
        <ele>143.2</ele>
        <time>2022-10-04T08:03:28Z</time>
      </trkpt>
      <trkpt lat="50.74338" lon="5.61321">
        <ele>142.4</ele>
        <time>2022-10-04T08:03:31Z</time>
      </trkpt>
      <trkpt lat="50.74346" lon="5.61315">
        <ele>142</ele>
        <time>2022-10-04T08:03:32Z</time>
      </trkpt>
      <trkpt lat="50.74355" lon="5.61309">
        <ele>141.6</ele>
        <time>2022-10-04T08:03:33Z</time>
      </trkpt>
      <trkpt lat="50.74372" lon="5.61296">
        <ele>140.8</ele>
        <time>2022-10-04T08:03:35Z</time>
      </trkpt>
      <trkpt lat="50.74392" lon="5.61285">
        <ele>140</ele>
        <time>2022-10-04T08:03:37Z</time>
      </trkpt>
      <trkpt lat="50.74402" lon="5.6128">
        <ele>139.8</ele>
        <time>2022-10-04T08:03:38Z</time>
      </trkpt>
      <trkpt lat="50.74412" lon="5.61274">
        <ele>139.4</ele>
        <time>2022-10-04T08:03:39Z</time>
      </trkpt>
      <trkpt lat="50.74444" lon="5.61261">
        <ele>137.4</ele>
        <time>2022-10-04T08:03:42Z</time>
      </trkpt>
      <trkpt lat="50.74465" lon="5.61252">
        <ele>136.2</ele>
        <time>2022-10-04T08:03:44Z</time>
      </trkpt>
      <trkpt lat="50.74475" lon="5.61248">
        <ele>135.6</ele>
        <time>2022-10-04T08:03:45Z</time>
      </trkpt>
      <trkpt lat="50.74486" lon="5.61244">
        <ele>134.8</ele>
        <time>2022-10-04T08:03:46Z</time>
      </trkpt>
      <trkpt lat="50.7454" lon="5.61223">
        <ele>131.6</ele>
        <time>2022-10-04T08:03:51Z</time>
      </trkpt>
      <trkpt lat="50.74562" lon="5.61214">
        <ele>130.4</ele>
        <time>2022-10-04T08:03:53Z</time>
      </trkpt>
      <trkpt lat="50.74573" lon="5.61209">
        <ele>129.6</ele>
        <time>2022-10-04T08:03:54Z</time>
      </trkpt>
      <trkpt lat="50.74608" lon="5.61197">
        <ele>128.2</ele>
        <time>2022-10-04T08:03:57Z</time>
      </trkpt>
      <trkpt lat="50.74632" lon="5.61194">
        <ele>128</ele>
        <time>2022-10-04T08:03:59Z</time>
      </trkpt>
      <trkpt lat="50.74657" lon="5.61195">
        <ele>127.2</ele>
        <time>2022-10-04T08:04:01Z</time>
      </trkpt>
      <trkpt lat="50.74682" lon="5.61197">
        <ele>126</ele>
        <time>2022-10-04T08:04:03Z</time>
      </trkpt>
      <trkpt lat="50.74694" lon="5.61198">
        <ele>125</ele>
        <time>2022-10-04T08:04:04Z</time>
      </trkpt>
      <trkpt lat="50.74707" lon="5.61199">
        <ele>124.2</ele>
        <time>2022-10-04T08:04:05Z</time>
      </trkpt>
      <trkpt lat="50.74745" lon="5.61204">
        <ele>122.8</ele>
        <time>2022-10-04T08:04:08Z</time>
      </trkpt>
      <trkpt lat="50.74771" lon="5.61207">
        <ele>121.6</ele>
        <time>2022-10-04T08:04:10Z</time>
      </trkpt>
      <trkpt lat="50.74784" lon="5.61208">
        <ele>120.8</ele>
        <time>2022-10-04T08:04:11Z</time>
      </trkpt>
      <trkpt lat="50.74823" lon="5.61211">
        <ele>118.8</ele>
        <time>2022-10-04T08:04:14Z</time>
      </trkpt>
      <trkpt lat="50.74848" lon="5.61214">
        <ele>117.4</ele>
        <time>2022-10-04T08:04:16Z</time>
      </trkpt>
      <trkpt lat="50.74874" lon="5.61216">
        <ele>116</ele>
        <time>2022-10-04T08:04:18Z</time>
      </trkpt>
      <trkpt lat="50.74886" lon="5.61217">
        <ele>114.8</ele>
        <time>2022-10-04T08:04:19Z</time>
      </trkpt>
      <trkpt lat="50.74912" lon="5.61219">
        <ele>113.2</ele>
        <time>2022-10-04T08:04:21Z</time>
      </trkpt>
      <trkpt lat="50.74924" lon="5.6122">
        <ele>112.2</ele>
        <time>2022-10-04T08:04:22Z</time>
      </trkpt>
      <trkpt lat="50.74937" lon="5.61221">
        <ele>111.4</ele>
        <time>2022-10-04T08:04:23Z</time>
      </trkpt>
      <trkpt lat="50.74949" lon="5.61223">
        <ele>110.8</ele>
        <time>2022-10-04T08:04:24Z</time>
      </trkpt>
      <trkpt lat="50.74961" lon="5.61224">
        <ele>110</ele>
        <time>2022-10-04T08:04:25Z</time>
      </trkpt>
      <trkpt lat="50.74973" lon="5.61226">
        <ele>109.2</ele>
        <time>2022-10-04T08:04:26Z</time>
      </trkpt>
      <trkpt lat="50.74997" lon="5.61227">
        <ele>108.2</ele>
        <time>2022-10-04T08:04:28Z</time>
      </trkpt>
      <trkpt lat="50.7502" lon="5.61229">
        <ele>107</ele>
        <time>2022-10-04T08:04:30Z</time>
      </trkpt>
      <trkpt lat="50.75055" lon="5.61233">
        <ele>105.2</ele>
        <time>2022-10-04T08:04:33Z</time>
      </trkpt>
      <trkpt lat="50.75078" lon="5.61232">
        <ele>104</ele>
        <time>2022-10-04T08:04:35Z</time>
      </trkpt>
      <trkpt lat="50.75102" lon="5.61228">
        <ele>102.6</ele>
        <time>2022-10-04T08:04:37Z</time>
      </trkpt>
      <trkpt lat="50.75114" lon="5.61224">
        <ele>102.2</ele>
        <time>2022-10-04T08:04:38Z</time>
      </trkpt>
      <trkpt lat="50.75126" lon="5.61219">
        <ele>101.8</ele>
        <time>2022-10-04T08:04:39Z</time>
      </trkpt>
      <trkpt lat="50.75138" lon="5.61213">
        <ele>101.4</ele>
        <time>2022-10-04T08:04:40Z</time>
      </trkpt>
      <trkpt lat="50.75162" lon="5.61202">
        <ele>100.6</ele>
        <time>2022-10-04T08:04:42Z</time>
      </trkpt>
      <trkpt lat="50.75174" lon="5.61197">
        <ele>100.4</ele>
        <time>2022-10-04T08:04:43Z</time>
      </trkpt>
      <trkpt lat="50.75186" lon="5.61192">
        <ele>99.4</ele>
        <time>2022-10-04T08:04:44Z</time>
      </trkpt>
      <trkpt lat="50.75198" lon="5.61187">
        <ele>98.8</ele>
        <time>2022-10-04T08:04:45Z</time>
      </trkpt>
      <trkpt lat="50.7521" lon="5.61183">
        <ele>97.8</ele>
        <time>2022-10-04T08:04:46Z</time>
      </trkpt>
      <trkpt lat="50.75235" lon="5.61178">
        <ele>96.4</ele>
        <time>2022-10-04T08:04:48Z</time>
      </trkpt>
      <trkpt lat="50.75247" lon="5.61176">
        <ele>95.2</ele>
        <time>2022-10-04T08:04:49Z</time>
      </trkpt>
      <trkpt lat="50.75259" lon="5.61175">
        <ele>94.6</ele>
        <time>2022-10-04T08:04:50Z</time>
      </trkpt>
      <trkpt lat="50.75271" lon="5.61175">
        <ele>93.6</ele>
        <time>2022-10-04T08:04:51Z</time>
      </trkpt>
      <trkpt lat="50.75283" lon="5.61176">
        <ele>92.8</ele>
        <time>2022-10-04T08:04:52Z</time>
      </trkpt>
      <trkpt lat="50.75295" lon="5.61178">
        <ele>92.8</ele>
        <time>2022-10-04T08:04:53Z</time>
      </trkpt>
      <trkpt lat="50.75318" lon="5.6118">
        <ele>91</ele>
        <time>2022-10-04T08:04:55Z</time>
      </trkpt>
      <trkpt lat="50.75339" lon="5.61183">
        <ele>90.2</ele>
        <time>2022-10-04T08:04:57Z</time>
      </trkpt>
      <trkpt lat="50.75359" lon="5.61185">
        <ele>89.2</ele>
        <time>2022-10-04T08:04:59Z</time>
      </trkpt>
      <trkpt lat="50.75376" lon="5.61188">
        <ele>88</ele>
        <time>2022-10-04T08:05:01Z</time>
      </trkpt>
      <trkpt lat="50.75397" lon="5.6119">
        <ele>87</ele>
        <time>2022-10-04T08:05:04Z</time>
      </trkpt>
      <trkpt lat="50.75412" lon="5.6119">
        <ele>86.2</ele>
        <time>2022-10-04T08:05:06Z</time>
      </trkpt>
      <trkpt lat="50.75437" lon="5.61193">
        <ele>85.8</ele>
        <time>2022-10-04T08:05:09Z</time>
      </trkpt>
      <trkpt lat="50.75446" lon="5.61195">
        <ele>85.8</ele>
        <time>2022-10-04T08:05:10Z</time>
      </trkpt>
      <trkpt lat="50.75455" lon="5.61196">
        <ele>85.6</ele>
        <time>2022-10-04T08:05:11Z</time>
      </trkpt>
      <trkpt lat="50.75464" lon="5.61197">
        <ele>85.4</ele>
        <time>2022-10-04T08:05:12Z</time>
      </trkpt>
      <trkpt lat="50.75473" lon="5.61198">
        <ele>85.2</ele>
        <time>2022-10-04T08:05:13Z</time>
      </trkpt>
      <trkpt lat="50.75483" lon="5.612">
        <ele>85</ele>
        <time>2022-10-04T08:05:14Z</time>
      </trkpt>
      <trkpt lat="50.75519" lon="5.61205">
        <ele>84.4</ele>
        <time>2022-10-04T08:05:18Z</time>
      </trkpt>
      <trkpt lat="50.7558" lon="5.61209">
        <ele>82.2</ele>
        <time>2022-10-04T08:05:25Z</time>
      </trkpt>
      <trkpt lat="50.75589" lon="5.61208">
        <ele>82</ele>
        <time>2022-10-04T08:05:26Z</time>
      </trkpt>
      <trkpt lat="50.75632" lon="5.61204">
        <ele>81.6</ele>
        <time>2022-10-04T08:05:31Z</time>
      </trkpt>
      <trkpt lat="50.75649" lon="5.612">
        <ele>81.4</ele>
        <time>2022-10-04T08:05:33Z</time>
      </trkpt>
      <trkpt lat="50.75664" lon="5.61193">
        <ele>81.2</ele>
        <time>2022-10-04T08:05:35Z</time>
      </trkpt>
      <trkpt lat="50.75671" lon="5.61187">
        <ele>80.6</ele>
        <time>2022-10-04T08:05:36Z</time>
      </trkpt>
      <trkpt lat="50.75684" lon="5.61173">
        <ele>80.6</ele>
        <time>2022-10-04T08:05:38Z</time>
      </trkpt>
      <trkpt lat="50.7569" lon="5.61166">
        <ele>80.4</ele>
        <time>2022-10-04T08:05:39Z</time>
      </trkpt>
      <trkpt lat="50.75702" lon="5.61153">
        <ele>80.2</ele>
        <time>2022-10-04T08:05:41Z</time>
      </trkpt>
      <trkpt lat="50.7572" lon="5.61136">
        <ele>80</ele>
        <time>2022-10-04T08:05:44Z</time>
      </trkpt>
      <trkpt lat="50.75726" lon="5.61131">
        <ele>79.6</ele>
        <time>2022-10-04T08:05:45Z</time>
      </trkpt>
      <trkpt lat="50.75766" lon="5.611">
        <ele>78.6</ele>
        <time>2022-10-04T08:05:51Z</time>
      </trkpt>
      <trkpt lat="50.75773" lon="5.61094">
        <ele>78.4</ele>
        <time>2022-10-04T08:05:52Z</time>
      </trkpt>
      <trkpt lat="50.75822" lon="5.61058">
        <ele>77.4</ele>
        <time>2022-10-04T08:05:59Z</time>
      </trkpt>
      <trkpt lat="50.75856" lon="5.6104">
        <ele>77.4</ele>
        <time>2022-10-04T08:06:04Z</time>
      </trkpt>
      <trkpt lat="50.75868" lon="5.61033">
        <ele>77.2</ele>
        <time>2022-10-04T08:06:06Z</time>
      </trkpt>
      <trkpt lat="50.7588" lon="5.61026">
        <ele>77.2</ele>
        <time>2022-10-04T08:06:08Z</time>
      </trkpt>
      <trkpt lat="50.75886" lon="5.61022">
        <ele>77.2</ele>
        <time>2022-10-04T08:06:09Z</time>
      </trkpt>
      <trkpt lat="50.75891" lon="5.61017">
        <ele>77.2</ele>
        <time>2022-10-04T08:06:10Z</time>
      </trkpt>
      <trkpt lat="50.75896" lon="5.61012">
        <ele>77.2</ele>
        <time>2022-10-04T08:06:11Z</time>
      </trkpt>
      <trkpt lat="50.75905" lon="5.61003">
        <ele>77.6</ele>
        <time>2022-10-04T08:06:13Z</time>
      </trkpt>
      <trkpt lat="50.7591" lon="5.61001">
        <ele>77.6</ele>
        <time>2022-10-04T08:06:14Z</time>
      </trkpt>
      <trkpt lat="50.75916" lon="5.61002">
        <ele>77.6</ele>
        <time>2022-10-04T08:06:15Z</time>
      </trkpt>
      <trkpt lat="50.75922" lon="5.61003">
        <ele>77.8</ele>
        <time>2022-10-04T08:06:16Z</time>
      </trkpt>
      <trkpt lat="50.75935" lon="5.61004">
        <ele>77.8</ele>
        <time>2022-10-04T08:06:18Z</time>
      </trkpt>
      <trkpt lat="50.75948" lon="5.61002">
        <ele>77.8</ele>
        <time>2022-10-04T08:06:20Z</time>
      </trkpt>
      <trkpt lat="50.75974" lon="5.60992">
        <ele>77.8</ele>
        <time>2022-10-04T08:06:24Z</time>
      </trkpt>
      <trkpt lat="50.7598" lon="5.60987">
        <ele>77.6</ele>
        <time>2022-10-04T08:06:25Z</time>
      </trkpt>
      <trkpt lat="50.76008" lon="5.60967">
        <ele>77.8</ele>
        <time>2022-10-04T08:06:30Z</time>
      </trkpt>
      <trkpt lat="50.76024" lon="5.60957">
        <ele>77.8</ele>
        <time>2022-10-04T08:06:34Z</time>
      </trkpt>
      <trkpt lat="50.76028" lon="5.60955">
        <ele>78</ele>
        <time>2022-10-04T08:06:36Z</time>
      </trkpt>
      <trkpt lat="50.76028" lon="5.60951">
        <ele>78.2</ele>
        <time>2022-10-04T08:06:38Z</time>
      </trkpt>
      <trkpt lat="50.76022" lon="5.60933">
        <ele>79</ele>
        <time>2022-10-04T08:06:43Z</time>
      </trkpt>
      <trkpt lat="50.76017" lon="5.60918">
        <ele>79.4</ele>
        <time>2022-10-04T08:06:46Z</time>
      </trkpt>
      <trkpt lat="50.76015" lon="5.60912">
        <ele>79.4</ele>
        <time>2022-10-04T08:06:47Z</time>
      </trkpt>
      <trkpt lat="50.76012" lon="5.60906">
        <ele>79.4</ele>
        <time>2022-10-04T08:06:48Z</time>
      </trkpt>
      <trkpt lat="50.76001" lon="5.60881">
        <ele>79.8</ele>
        <time>2022-10-04T08:06:52Z</time>
      </trkpt>
      <trkpt lat="50.75992" lon="5.6086">
        <ele>79.8</ele>
        <time>2022-10-04T08:06:55Z</time>
      </trkpt>
      <trkpt lat="50.7599" lon="5.60853">
        <ele>79.8</ele>
        <time>2022-10-04T08:06:56Z</time>
      </trkpt>
      <trkpt lat="50.75979" lon="5.60823">
        <ele>80</ele>
        <time>2022-10-04T08:07:00Z</time>
      </trkpt>
      <trkpt lat="50.75975" lon="5.60807">
        <ele>80.2</ele>
        <time>2022-10-04T08:07:02Z</time>
      </trkpt>
      <trkpt lat="50.75975" lon="5.608">
        <ele>80.4</ele>
        <time>2022-10-04T08:07:03Z</time>
      </trkpt>
      <trkpt lat="50.75971" lon="5.60768">
        <ele>80.6</ele>
        <time>2022-10-04T08:07:07Z</time>
      </trkpt>
      <trkpt lat="50.75971" lon="5.6076">
        <ele>80.8</ele>
        <time>2022-10-04T08:07:08Z</time>
      </trkpt>
      <trkpt lat="50.75967" lon="5.6072">
        <ele>82.2</ele>
        <time>2022-10-04T08:07:13Z</time>
      </trkpt>
      <trkpt lat="50.75967" lon="5.60706">
        <ele>82.8</ele>
        <time>2022-10-04T08:07:15Z</time>
      </trkpt>
      <trkpt lat="50.75968" lon="5.60699">
        <ele>83.2</ele>
        <time>2022-10-04T08:07:16Z</time>
      </trkpt>
      <trkpt lat="50.7597" lon="5.60685">
        <ele>83.4</ele>
        <time>2022-10-04T08:07:18Z</time>
      </trkpt>
      <trkpt lat="50.75972" lon="5.6067">
        <ele>83.6</ele>
        <time>2022-10-04T08:07:20Z</time>
      </trkpt>
      <trkpt lat="50.75974" lon="5.60663">
        <ele>83.8</ele>
        <time>2022-10-04T08:07:21Z</time>
      </trkpt>
      <trkpt lat="50.75976" lon="5.60648">
        <ele>84.2</ele>
        <time>2022-10-04T08:07:23Z</time>
      </trkpt>
      <trkpt lat="50.75981" lon="5.60626">
        <ele>84.8</ele>
        <time>2022-10-04T08:07:26Z</time>
      </trkpt>
      <trkpt lat="50.75982" lon="5.6062">
        <ele>84.8</ele>
        <time>2022-10-04T08:07:27Z</time>
      </trkpt>
      <trkpt lat="50.75987" lon="5.60605">
        <ele>85.2</ele>
        <time>2022-10-04T08:07:29Z</time>
      </trkpt>
      <trkpt lat="50.75996" lon="5.60573">
        <ele>86.2</ele>
        <time>2022-10-04T08:07:33Z</time>
      </trkpt>
      <trkpt lat="50.75998" lon="5.60565">
        <ele>86.4</ele>
        <time>2022-10-04T08:07:34Z</time>
      </trkpt>
      <trkpt lat="50.76005" lon="5.60542">
        <ele>87.2</ele>
        <time>2022-10-04T08:07:37Z</time>
      </trkpt>
      <trkpt lat="50.7601" lon="5.6052">
        <ele>88</ele>
        <time>2022-10-04T08:07:40Z</time>
      </trkpt>
      <trkpt lat="50.76012" lon="5.60512">
        <ele>87.8</ele>
        <time>2022-10-04T08:07:41Z</time>
      </trkpt>
      <trkpt lat="50.76018" lon="5.6049">
        <ele>88.6</ele>
        <time>2022-10-04T08:07:44Z</time>
      </trkpt>
      <trkpt lat="50.76029" lon="5.60466">
        <ele>89.6</ele>
        <time>2022-10-04T08:07:48Z</time>
      </trkpt>
      <trkpt lat="50.76045" lon="5.60437">
        <ele>90.2</ele>
        <time>2022-10-04T08:07:53Z</time>
      </trkpt>
      <trkpt lat="50.76061" lon="5.60408">
        <ele>91.8</ele>
        <time>2022-10-04T08:07:58Z</time>
      </trkpt>
      <trkpt lat="50.76064" lon="5.60401">
        <ele>92</ele>
        <time>2022-10-04T08:07:59Z</time>
      </trkpt>
      <trkpt lat="50.7609" lon="5.60352">
        <ele>93.4</ele>
        <time>2022-10-04T08:08:07Z</time>
      </trkpt>
      <trkpt lat="50.76093" lon="5.60346">
        <ele>93.6</ele>
        <time>2022-10-04T08:08:08Z</time>
      </trkpt>
      <trkpt lat="50.76126" lon="5.60291">
        <ele>94.8</ele>
        <time>2022-10-04T08:08:17Z</time>
      </trkpt>
      <trkpt lat="50.7613" lon="5.60285">
        <ele>94.6</ele>
        <time>2022-10-04T08:08:18Z</time>
      </trkpt>
      <trkpt lat="50.76157" lon="5.60242">
        <ele>95.8</ele>
        <time>2022-10-04T08:08:25Z</time>
      </trkpt>
      <trkpt lat="50.76169" lon="5.60223">
        <ele>96.4</ele>
        <time>2022-10-04T08:08:28Z</time>
      </trkpt>
      <trkpt lat="50.76188" lon="5.60193">
        <ele>97.2</ele>
        <time>2022-10-04T08:08:33Z</time>
      </trkpt>
      <trkpt lat="50.76196" lon="5.60181">
        <ele>97.6</ele>
        <time>2022-10-04T08:08:35Z</time>
      </trkpt>
      <trkpt lat="50.76216" lon="5.6015">
        <ele>98.2</ele>
        <time>2022-10-04T08:08:40Z</time>
      </trkpt>
      <trkpt lat="50.76232" lon="5.60126">
        <ele>98.6</ele>
        <time>2022-10-04T08:08:44Z</time>
      </trkpt>
      <trkpt lat="50.76244" lon="5.60107">
        <ele>99</ele>
        <time>2022-10-04T08:08:47Z</time>
      </trkpt>
      <trkpt lat="50.76267" lon="5.6007">
        <ele>99.6</ele>
        <time>2022-10-04T08:08:53Z</time>
      </trkpt>
      <trkpt lat="50.76275" lon="5.60057">
        <ele>99.6</ele>
        <time>2022-10-04T08:08:55Z</time>
      </trkpt>
      <trkpt lat="50.76294" lon="5.60026">
        <ele>100.8</ele>
        <time>2022-10-04T08:09:00Z</time>
      </trkpt>
      <trkpt lat="50.76306" lon="5.60009">
        <ele>101.4</ele>
        <time>2022-10-04T08:09:03Z</time>
      </trkpt>
      <trkpt lat="50.76327" lon="5.59982">
        <ele>102.2</ele>
        <time>2022-10-04T08:09:08Z</time>
      </trkpt>
      <trkpt lat="50.76332" lon="5.59978">
        <ele>102.2</ele>
        <time>2022-10-04T08:09:09Z</time>
      </trkpt>
      <trkpt lat="50.76342" lon="5.59971">
        <ele>102.6</ele>
        <time>2022-10-04T08:09:11Z</time>
      </trkpt>
      <trkpt lat="50.76369" lon="5.59954">
        <ele>103.2</ele>
        <time>2022-10-04T08:09:16Z</time>
      </trkpt>
      <trkpt lat="50.7638" lon="5.59947">
        <ele>103.6</ele>
        <time>2022-10-04T08:09:18Z</time>
      </trkpt>
      <trkpt lat="50.76406" lon="5.5993">
        <ele>104.2</ele>
        <time>2022-10-04T08:09:23Z</time>
      </trkpt>
      <trkpt lat="50.76436" lon="5.59909">
        <ele>105.4</ele>
        <time>2022-10-04T08:09:29Z</time>
      </trkpt>
      <trkpt lat="50.76441" lon="5.59905">
        <ele>105.8</ele>
        <time>2022-10-04T08:09:30Z</time>
      </trkpt>
      <trkpt lat="50.76486" lon="5.59869">
        <ele>107.4</ele>
        <time>2022-10-04T08:09:39Z</time>
      </trkpt>
      <trkpt lat="50.76496" lon="5.5986">
        <ele>107.8</ele>
        <time>2022-10-04T08:09:41Z</time>
      </trkpt>
      <trkpt lat="50.76522" lon="5.5983">
        <ele>108.4</ele>
        <time>2022-10-04T08:09:47Z</time>
      </trkpt>
      <trkpt lat="50.76526" lon="5.59825">
        <ele>108.6</ele>
        <time>2022-10-04T08:09:48Z</time>
      </trkpt>
      <trkpt lat="50.76558" lon="5.59787">
        <ele>110</ele>
        <time>2022-10-04T08:09:56Z</time>
      </trkpt>
      <trkpt lat="50.76567" lon="5.59777">
        <ele>110.6</ele>
        <time>2022-10-04T08:09:59Z</time>
      </trkpt>
      <trkpt lat="50.76571" lon="5.59771">
        <ele>110.8</ele>
        <time>2022-10-04T08:10:01Z</time>
      </trkpt>
      <trkpt lat="50.76579" lon="5.59762">
        <ele>111.4</ele>
        <time>2022-10-04T08:10:06Z</time>
      </trkpt>
      <trkpt lat="50.7658" lon="5.59762">
        <ele>111.6</ele>
        <time>2022-10-04T08:10:07Z</time>
      </trkpt>
      <trkpt lat="50.76584" lon="5.59756">
        <ele>112.2</ele>
        <time>2022-10-04T08:10:32Z</time>
      </trkpt>
      <trkpt lat="50.76585" lon="5.59754">
        <ele>112.2</ele>
        <time>2022-10-04T08:10:33Z</time>
      </trkpt>
      <trkpt lat="50.76587" lon="5.59753">
        <ele>112.4</ele>
        <time>2022-10-04T08:10:34Z</time>
      </trkpt>
      <trkpt lat="50.76589" lon="5.59751">
        <ele>112.2</ele>
        <time>2022-10-04T08:10:35Z</time>
      </trkpt>
      <trkpt lat="50.76598" lon="5.59739">
        <ele>112.4</ele>
        <time>2022-10-04T08:10:39Z</time>
      </trkpt>
      <trkpt lat="50.76601" lon="5.59736">
        <ele>112.4</ele>
        <time>2022-10-04T08:10:40Z</time>
      </trkpt>
      <trkpt lat="50.76604" lon="5.59733">
        <ele>112.2</ele>
        <time>2022-10-04T08:10:41Z</time>
      </trkpt>
      <trkpt lat="50.76619" lon="5.59715">
        <ele>112.8</ele>
        <time>2022-10-04T08:10:46Z</time>
      </trkpt>
      <trkpt lat="50.76636" lon="5.59696">
        <ele>113</ele>
        <time>2022-10-04T08:10:51Z</time>
      </trkpt>
      <trkpt lat="50.7664" lon="5.59691">
        <ele>113</ele>
        <time>2022-10-04T08:10:52Z</time>
      </trkpt>
      <trkpt lat="50.76662" lon="5.59666">
        <ele>113.4</ele>
        <time>2022-10-04T08:10:58Z</time>
      </trkpt>
      <trkpt lat="50.7667" lon="5.59658">
        <ele>113.4</ele>
        <time>2022-10-04T08:11:00Z</time>
      </trkpt>
      <trkpt lat="50.76674" lon="5.59654">
        <ele>113.4</ele>
        <time>2022-10-04T08:11:01Z</time>
      </trkpt>
      <trkpt lat="50.76705" lon="5.59634">
        <ele>114.4</ele>
        <time>2022-10-04T08:11:08Z</time>
      </trkpt>
      <trkpt lat="50.76709" lon="5.59632">
        <ele>114.4</ele>
        <time>2022-10-04T08:11:09Z</time>
      </trkpt>
      <trkpt lat="50.76732" lon="5.59624">
        <ele>115.2</ele>
        <time>2022-10-04T08:11:14Z</time>
      </trkpt>
      <trkpt lat="50.76741" lon="5.59623">
        <ele>115.4</ele>
        <time>2022-10-04T08:11:16Z</time>
      </trkpt>
      <trkpt lat="50.76754" lon="5.59621">
        <ele>116.2</ele>
        <time>2022-10-04T08:11:19Z</time>
      </trkpt>
      <trkpt lat="50.76772" lon="5.59622">
        <ele>117</ele>
        <time>2022-10-04T08:11:23Z</time>
      </trkpt>
      <trkpt lat="50.76781" lon="5.59624">
        <ele>117.6</ele>
        <time>2022-10-04T08:11:25Z</time>
      </trkpt>
      <trkpt lat="50.76804" lon="5.59631">
        <ele>118.8</ele>
        <time>2022-10-04T08:11:30Z</time>
      </trkpt>
      <trkpt lat="50.76813" lon="5.59636">
        <ele>119</ele>
        <time>2022-10-04T08:11:32Z</time>
      </trkpt>
      <trkpt lat="50.76831" lon="5.59644">
        <ele>120.2</ele>
        <time>2022-10-04T08:11:36Z</time>
      </trkpt>
      <trkpt lat="50.7685" lon="5.5965">
        <ele>121</ele>
        <time>2022-10-04T08:11:40Z</time>
      </trkpt>
      <trkpt lat="50.76864" lon="5.59653">
        <ele>121.6</ele>
        <time>2022-10-04T08:11:43Z</time>
      </trkpt>
      <trkpt lat="50.76884" lon="5.59655">
        <ele>122.4</ele>
        <time>2022-10-04T08:11:47Z</time>
      </trkpt>
      <trkpt lat="50.76894" lon="5.59656">
        <ele>122.6</ele>
        <time>2022-10-04T08:11:49Z</time>
      </trkpt>
      <trkpt lat="50.76919" lon="5.5966">
        <ele>124</ele>
        <time>2022-10-04T08:11:54Z</time>
      </trkpt>
      <trkpt lat="50.76939" lon="5.59662">
        <ele>124.8</ele>
        <time>2022-10-04T08:11:58Z</time>
      </trkpt>
      <trkpt lat="50.76944" lon="5.59662">
        <ele>124.8</ele>
        <time>2022-10-04T08:11:59Z</time>
      </trkpt>
      <trkpt lat="50.76972" lon="5.59664">
        <ele>126.4</ele>
        <time>2022-10-04T08:12:05Z</time>
      </trkpt>
      <trkpt lat="50.76981" lon="5.59665">
        <ele>127</ele>
        <time>2022-10-04T08:12:07Z</time>
      </trkpt>
      <trkpt lat="50.76986" lon="5.59666">
        <ele>127.2</ele>
        <time>2022-10-04T08:12:08Z</time>
      </trkpt>
      <trkpt lat="50.77017" lon="5.59669">
        <ele>129.2</ele>
        <time>2022-10-04T08:12:15Z</time>
      </trkpt>
      <trkpt lat="50.77022" lon="5.59669">
        <ele>129.6</ele>
        <time>2022-10-04T08:12:16Z</time>
      </trkpt>
      <trkpt lat="50.77039" lon="5.59671">
        <ele>130.4</ele>
        <time>2022-10-04T08:12:20Z</time>
      </trkpt>
      <trkpt lat="50.77052" lon="5.59672">
        <ele>130.8</ele>
        <time>2022-10-04T08:12:23Z</time>
      </trkpt>
      <trkpt lat="50.77062" lon="5.59671">
        <ele>131.6</ele>
        <time>2022-10-04T08:12:25Z</time>
      </trkpt>
      <trkpt lat="50.77095" lon="5.59665">
        <ele>133</ele>
        <time>2022-10-04T08:12:32Z</time>
      </trkpt>
      <trkpt lat="50.771" lon="5.59664">
        <ele>133.4</ele>
        <time>2022-10-04T08:12:33Z</time>
      </trkpt>
      <trkpt lat="50.77121" lon="5.59658">
        <ele>134.2</ele>
        <time>2022-10-04T08:12:37Z</time>
      </trkpt>
      <trkpt lat="50.77133" lon="5.59655">
        <ele>134.6</ele>
        <time>2022-10-04T08:12:39Z</time>
      </trkpt>
      <trkpt lat="50.77154" lon="5.59651">
        <ele>134.4</ele>
        <time>2022-10-04T08:12:42Z</time>
      </trkpt>
      <trkpt lat="50.77168" lon="5.59647">
        <ele>134.4</ele>
        <time>2022-10-04T08:12:44Z</time>
      </trkpt>
      <trkpt lat="50.77176" lon="5.59646">
        <ele>134.4</ele>
        <time>2022-10-04T08:12:45Z</time>
      </trkpt>
      <trkpt lat="50.77192" lon="5.59642">
        <ele>134.2</ele>
        <time>2022-10-04T08:12:47Z</time>
      </trkpt>
      <trkpt lat="50.77228" lon="5.59638">
        <ele>132.6</ele>
        <time>2022-10-04T08:12:51Z</time>
      </trkpt>
      <trkpt lat="50.77275" lon="5.59645">
        <ele>130.2</ele>
        <time>2022-10-04T08:12:56Z</time>
      </trkpt>
      <trkpt lat="50.77294" lon="5.59652">
        <ele>129.6</ele>
        <time>2022-10-04T08:12:58Z</time>
      </trkpt>
      <trkpt lat="50.77323" lon="5.59663">
        <ele>127.8</ele>
        <time>2022-10-04T08:13:01Z</time>
      </trkpt>
      <trkpt lat="50.77332" lon="5.59666">
        <ele>127.4</ele>
        <time>2022-10-04T08:13:02Z</time>
      </trkpt>
      <trkpt lat="50.77351" lon="5.59673">
        <ele>127</ele>
        <time>2022-10-04T08:13:04Z</time>
      </trkpt>
      <trkpt lat="50.7736" lon="5.59677">
        <ele>126.8</ele>
        <time>2022-10-04T08:13:05Z</time>
      </trkpt>
      <trkpt lat="50.7737" lon="5.5968">
        <ele>126.4</ele>
        <time>2022-10-04T08:13:06Z</time>
      </trkpt>
      <trkpt lat="50.77415" lon="5.59697">
        <ele>125.2</ele>
        <time>2022-10-04T08:13:11Z</time>
      </trkpt>
      <trkpt lat="50.77433" lon="5.59703">
        <ele>124.8</ele>
        <time>2022-10-04T08:13:13Z</time>
      </trkpt>
      <trkpt lat="50.77458" lon="5.59712">
        <ele>124.4</ele>
        <time>2022-10-04T08:13:16Z</time>
      </trkpt>
      <trkpt lat="50.77467" lon="5.59715">
        <ele>124</ele>
        <time>2022-10-04T08:13:17Z</time>
      </trkpt>
      <trkpt lat="50.77484" lon="5.59722">
        <ele>123.8</ele>
        <time>2022-10-04T08:13:19Z</time>
      </trkpt>
      <trkpt lat="50.77502" lon="5.59727">
        <ele>123.6</ele>
        <time>2022-10-04T08:13:21Z</time>
      </trkpt>
      <trkpt lat="50.77546" lon="5.59742">
        <ele>122.8</ele>
        <time>2022-10-04T08:13:26Z</time>
      </trkpt>
      <trkpt lat="50.77574" lon="5.59754">
        <ele>122.4</ele>
        <time>2022-10-04T08:13:29Z</time>
      </trkpt>
      <trkpt lat="50.77592" lon="5.59762">
        <ele>122.4</ele>
        <time>2022-10-04T08:13:31Z</time>
      </trkpt>
      <trkpt lat="50.77619" lon="5.59773">
        <ele>122</ele>
        <time>2022-10-04T08:13:34Z</time>
      </trkpt>
      <trkpt lat="50.77629" lon="5.59776">
        <ele>121.6</ele>
        <time>2022-10-04T08:13:35Z</time>
      </trkpt>
      <trkpt lat="50.77647" lon="5.59782">
        <ele>121.2</ele>
        <time>2022-10-04T08:13:37Z</time>
      </trkpt>
      <trkpt lat="50.77665" lon="5.59787">
        <ele>121</ele>
        <time>2022-10-04T08:13:39Z</time>
      </trkpt>
      <trkpt lat="50.77681" lon="5.59792">
        <ele>120.8</ele>
        <time>2022-10-04T08:13:41Z</time>
      </trkpt>
      <trkpt lat="50.77697" lon="5.59797">
        <ele>120.6</ele>
        <time>2022-10-04T08:13:43Z</time>
      </trkpt>
      <trkpt lat="50.77729" lon="5.59813">
        <ele>120</ele>
        <time>2022-10-04T08:13:47Z</time>
      </trkpt>
      <trkpt lat="50.77772" lon="5.59827">
        <ele>119.2</ele>
        <time>2022-10-04T08:13:52Z</time>
      </trkpt>
      <trkpt lat="50.77822" lon="5.59849">
        <ele>118.6</ele>
        <time>2022-10-04T08:13:58Z</time>
      </trkpt>
      <trkpt lat="50.7783" lon="5.59852">
        <ele>118.8</ele>
        <time>2022-10-04T08:13:59Z</time>
      </trkpt>
      <trkpt lat="50.77885" lon="5.59876">
        <ele>118.8</ele>
        <time>2022-10-04T08:14:06Z</time>
      </trkpt>
      <trkpt lat="50.77915" lon="5.59892">
        <ele>118.8</ele>
        <time>2022-10-04T08:14:10Z</time>
      </trkpt>
      <trkpt lat="50.77929" lon="5.59902">
        <ele>119</ele>
        <time>2022-10-04T08:14:12Z</time>
      </trkpt>
      <trkpt lat="50.77936" lon="5.59905">
        <ele>119</ele>
        <time>2022-10-04T08:14:13Z</time>
      </trkpt>
      <trkpt lat="50.7795" lon="5.59907">
        <ele>119.2</ele>
        <time>2022-10-04T08:14:15Z</time>
      </trkpt>
      <trkpt lat="50.77958" lon="5.59905">
        <ele>119</ele>
        <time>2022-10-04T08:14:16Z</time>
      </trkpt>
      <trkpt lat="50.77965" lon="5.59901">
        <ele>119.2</ele>
        <time>2022-10-04T08:14:17Z</time>
      </trkpt>
      <trkpt lat="50.77971" lon="5.59895">
        <ele>119</ele>
        <time>2022-10-04T08:14:18Z</time>
      </trkpt>
      <trkpt lat="50.77985" lon="5.59882">
        <ele>118.8</ele>
        <time>2022-10-04T08:14:20Z</time>
      </trkpt>
      <trkpt lat="50.78014" lon="5.59855">
        <ele>118.2</ele>
        <time>2022-10-04T08:14:24Z</time>
      </trkpt>
      <trkpt lat="50.78021" lon="5.59848">
        <ele>118</ele>
        <time>2022-10-04T08:14:25Z</time>
      </trkpt>
      <trkpt lat="50.78051" lon="5.5982">
        <ele>117.2</ele>
        <time>2022-10-04T08:14:29Z</time>
      </trkpt>
      <trkpt lat="50.78059" lon="5.59814">
        <ele>116.8</ele>
        <time>2022-10-04T08:14:30Z</time>
      </trkpt>
      <trkpt lat="50.78075" lon="5.59802">
        <ele>116.4</ele>
        <time>2022-10-04T08:14:32Z</time>
      </trkpt>
      <trkpt lat="50.78083" lon="5.59795">
        <ele>116</ele>
        <time>2022-10-04T08:14:33Z</time>
      </trkpt>
      <trkpt lat="50.78129" lon="5.59756">
        <ele>114.4</ele>
        <time>2022-10-04T08:14:39Z</time>
      </trkpt>
      <trkpt lat="50.7816" lon="5.59732">
        <ele>113</ele>
        <time>2022-10-04T08:14:43Z</time>
      </trkpt>
      <trkpt lat="50.78184" lon="5.59715">
        <ele>112.6</ele>
        <time>2022-10-04T08:14:46Z</time>
      </trkpt>
      <trkpt lat="50.78211" lon="5.59693">
        <ele>112.4</ele>
        <time>2022-10-04T08:14:50Z</time>
      </trkpt>
      <trkpt lat="50.78216" lon="5.59688">
        <ele>112.4</ele>
        <time>2022-10-04T08:14:51Z</time>
      </trkpt>
      <trkpt lat="50.78221" lon="5.59685">
        <ele>112.4</ele>
        <time>2022-10-04T08:14:52Z</time>
      </trkpt>
      <trkpt lat="50.78227" lon="5.59678">
        <ele>112.4</ele>
        <time>2022-10-04T08:14:54Z</time>
      </trkpt>
      <trkpt lat="50.7823" lon="5.59676">
        <ele>112.4</ele>
        <time>2022-10-04T08:14:55Z</time>
      </trkpt>
      <trkpt lat="50.78246" lon="5.59658">
        <ele>112</ele>
        <time>2022-10-04T08:15:00Z</time>
      </trkpt>
      <trkpt lat="50.7825" lon="5.59654">
        <ele>112</ele>
        <time>2022-10-04T08:15:01Z</time>
      </trkpt>
      <trkpt lat="50.78269" lon="5.59634">
        <ele>111.8</ele>
        <time>2022-10-04T08:15:05Z</time>
      </trkpt>
      <trkpt lat="50.78285" lon="5.59617">
        <ele>111.8</ele>
        <time>2022-10-04T08:15:08Z</time>
      </trkpt>
      <trkpt lat="50.78298" lon="5.59609">
        <ele>111.4</ele>
        <time>2022-10-04T08:15:10Z</time>
      </trkpt>
      <trkpt lat="50.78305" lon="5.59606">
        <ele>111.2</ele>
        <time>2022-10-04T08:15:11Z</time>
      </trkpt>
      <trkpt lat="50.78319" lon="5.59604">
        <ele>111</ele>
        <time>2022-10-04T08:15:13Z</time>
      </trkpt>
      <trkpt lat="50.78326" lon="5.59605">
        <ele>111</ele>
        <time>2022-10-04T08:15:14Z</time>
      </trkpt>
      <trkpt lat="50.78341" lon="5.59608">
        <ele>110.8</ele>
        <time>2022-10-04T08:15:16Z</time>
      </trkpt>
      <trkpt lat="50.78356" lon="5.59614">
        <ele>110.2</ele>
        <time>2022-10-04T08:15:18Z</time>
      </trkpt>
      <trkpt lat="50.78363" lon="5.59617">
        <ele>110</ele>
        <time>2022-10-04T08:15:19Z</time>
      </trkpt>
      <trkpt lat="50.78371" lon="5.59619">
        <ele>110</ele>
        <time>2022-10-04T08:15:20Z</time>
      </trkpt>
      <trkpt lat="50.78403" lon="5.59633">
        <ele>109.6</ele>
        <time>2022-10-04T08:15:24Z</time>
      </trkpt>
      <trkpt lat="50.78427" lon="5.59649">
        <ele>109.4</ele>
        <time>2022-10-04T08:15:27Z</time>
      </trkpt>
      <trkpt lat="50.78443" lon="5.5966">
        <ele>109.2</ele>
        <time>2022-10-04T08:15:29Z</time>
      </trkpt>
      <trkpt lat="50.78459" lon="5.59659">
        <ele>109</ele>
        <time>2022-10-04T08:15:31Z</time>
      </trkpt>
      <trkpt lat="50.78468" lon="5.59654">
        <ele>109</ele>
        <time>2022-10-04T08:15:32Z</time>
      </trkpt>
      <trkpt lat="50.78475" lon="5.59647">
        <ele>108.6</ele>
        <time>2022-10-04T08:15:33Z</time>
      </trkpt>
      <trkpt lat="50.78494" lon="5.59625">
        <ele>108.6</ele>
        <time>2022-10-04T08:15:36Z</time>
      </trkpt>
      <trkpt lat="50.785" lon="5.59618">
        <ele>108.4</ele>
        <time>2022-10-04T08:15:37Z</time>
      </trkpt>
      <trkpt lat="50.78521" lon="5.59599">
        <ele>108.4</ele>
        <time>2022-10-04T08:15:40Z</time>
      </trkpt>
      <trkpt lat="50.78528" lon="5.59594">
        <ele>108.2</ele>
        <time>2022-10-04T08:15:41Z</time>
      </trkpt>
      <trkpt lat="50.78535" lon="5.5959">
        <ele>108</ele>
        <time>2022-10-04T08:15:42Z</time>
      </trkpt>
      <trkpt lat="50.78543" lon="5.59587">
        <ele>107.8</ele>
        <time>2022-10-04T08:15:43Z</time>
      </trkpt>
      <trkpt lat="50.78557" lon="5.59584">
        <ele>107.6</ele>
        <time>2022-10-04T08:15:45Z</time>
      </trkpt>
      <trkpt lat="50.7858" lon="5.59586">
        <ele>107.4</ele>
        <time>2022-10-04T08:15:48Z</time>
      </trkpt>
      <trkpt lat="50.78587" lon="5.59589">
        <ele>107.2</ele>
        <time>2022-10-04T08:15:49Z</time>
      </trkpt>
      <trkpt lat="50.78594" lon="5.59593">
        <ele>107.2</ele>
        <time>2022-10-04T08:15:50Z</time>
      </trkpt>
      <trkpt lat="50.78607" lon="5.59602">
        <ele>107</ele>
        <time>2022-10-04T08:15:52Z</time>
      </trkpt>
      <trkpt lat="50.78626" lon="5.59614">
        <ele>106.8</ele>
        <time>2022-10-04T08:15:55Z</time>
      </trkpt>
      <trkpt lat="50.78636" lon="5.59608">
        <ele>106.6</ele>
        <time>2022-10-04T08:15:57Z</time>
      </trkpt>
      <trkpt lat="50.78645" lon="5.59595">
        <ele>106.8</ele>
        <time>2022-10-04T08:15:59Z</time>
      </trkpt>
      <trkpt lat="50.7865" lon="5.59589">
        <ele>106.6</ele>
        <time>2022-10-04T08:16:00Z</time>
      </trkpt>
      <trkpt lat="50.78658" lon="5.59574">
        <ele>106.6</ele>
        <time>2022-10-04T08:16:02Z</time>
      </trkpt>
      <trkpt lat="50.78662" lon="5.59566">
        <ele>106.6</ele>
        <time>2022-10-04T08:16:03Z</time>
      </trkpt>
      <trkpt lat="50.7867" lon="5.59548">
        <ele>106.6</ele>
        <time>2022-10-04T08:16:05Z</time>
      </trkpt>
      <trkpt lat="50.78678" lon="5.59528">
        <ele>106.4</ele>
        <time>2022-10-04T08:16:07Z</time>
      </trkpt>
      <trkpt lat="50.78685" lon="5.59507">
        <ele>106.2</ele>
        <time>2022-10-04T08:16:09Z</time>
      </trkpt>
      <trkpt lat="50.78692" lon="5.59485">
        <ele>105.8</ele>
        <time>2022-10-04T08:16:11Z</time>
      </trkpt>
      <trkpt lat="50.78695" lon="5.59473">
        <ele>105.6</ele>
        <time>2022-10-04T08:16:12Z</time>
      </trkpt>
      <trkpt lat="50.78704" lon="5.59427">
        <ele>104.8</ele>
        <time>2022-10-04T08:16:16Z</time>
      </trkpt>
      <trkpt lat="50.78709" lon="5.59405">
        <ele>104.2</ele>
        <time>2022-10-04T08:16:18Z</time>
      </trkpt>
      <trkpt lat="50.78712" lon="5.59393">
        <ele>103.8</ele>
        <time>2022-10-04T08:16:19Z</time>
      </trkpt>
      <trkpt lat="50.78725" lon="5.59349">
        <ele>102.8</ele>
        <time>2022-10-04T08:16:23Z</time>
      </trkpt>
      <trkpt lat="50.78732" lon="5.5933">
        <ele>102.4</ele>
        <time>2022-10-04T08:16:25Z</time>
      </trkpt>
      <trkpt lat="50.78739" lon="5.59312">
        <ele>102.4</ele>
        <time>2022-10-04T08:16:27Z</time>
      </trkpt>
      <trkpt lat="50.78749" lon="5.59292">
        <ele>102.4</ele>
        <time>2022-10-04T08:16:30Z</time>
      </trkpt>
      <trkpt lat="50.78758" lon="5.59288">
        <ele>102.4</ele>
        <time>2022-10-04T08:16:32Z</time>
      </trkpt>
      <trkpt lat="50.78763" lon="5.59289">
        <ele>102</ele>
        <time>2022-10-04T08:16:33Z</time>
      </trkpt>
      <trkpt lat="50.78767" lon="5.59293">
        <ele>102.2</ele>
        <time>2022-10-04T08:16:34Z</time>
      </trkpt>
      <trkpt lat="50.78774" lon="5.59307">
        <ele>102</ele>
        <time>2022-10-04T08:16:36Z</time>
      </trkpt>
      <trkpt lat="50.7879" lon="5.59342">
        <ele>102</ele>
        <time>2022-10-04T08:16:40Z</time>
      </trkpt>
      <trkpt lat="50.78797" lon="5.59359">
        <ele>101.8</ele>
        <time>2022-10-04T08:16:42Z</time>
      </trkpt>
      <trkpt lat="50.788" lon="5.59366">
        <ele>101.8</ele>
        <time>2022-10-04T08:16:43Z</time>
      </trkpt>
      <trkpt lat="50.78805" lon="5.59368">
        <ele>102</ele>
        <time>2022-10-04T08:16:44Z</time>
      </trkpt>
      <trkpt lat="50.7881" lon="5.59368">
        <ele>102</ele>
        <time>2022-10-04T08:16:45Z</time>
      </trkpt>
      <trkpt lat="50.78815" lon="5.59366">
        <ele>102</ele>
        <time>2022-10-04T08:16:46Z</time>
      </trkpt>
      <trkpt lat="50.78824" lon="5.59358">
        <ele>102</ele>
        <time>2022-10-04T08:16:48Z</time>
      </trkpt>
      <trkpt lat="50.78828" lon="5.59353">
        <ele>102</ele>
        <time>2022-10-04T08:16:49Z</time>
      </trkpt>
      <trkpt lat="50.78846" lon="5.59334">
        <ele>102.2</ele>
        <time>2022-10-04T08:16:53Z</time>
      </trkpt>
      <trkpt lat="50.78853" lon="5.59325">
        <ele>102.2</ele>
        <time>2022-10-04T08:16:55Z</time>
      </trkpt>
      <trkpt lat="50.78858" lon="5.59318">
        <ele>102.4</ele>
        <time>2022-10-04T08:16:57Z</time>
      </trkpt>
      <trkpt lat="50.78866" lon="5.59311">
        <ele>102.4</ele>
        <time>2022-10-04T08:17:00Z</time>
      </trkpt>
      <trkpt lat="50.78878" lon="5.59298">
        <ele>103.4</ele>
        <time>2022-10-04T08:17:05Z</time>
      </trkpt>
      <trkpt lat="50.78881" lon="5.59295">
        <ele>103.4</ele>
        <time>2022-10-04T08:17:06Z</time>
      </trkpt>
      <trkpt lat="50.78904" lon="5.59271">
        <ele>104.2</ele>
        <time>2022-10-04T08:17:12Z</time>
      </trkpt>
      <trkpt lat="50.78918" lon="5.59258">
        <ele>104.2</ele>
        <time>2022-10-04T08:17:15Z</time>
      </trkpt>
      <trkpt lat="50.78932" lon="5.59245">
        <ele>104.4</ele>
        <time>2022-10-04T08:17:18Z</time>
      </trkpt>
      <trkpt lat="50.78937" lon="5.59239">
        <ele>104.4</ele>
        <time>2022-10-04T08:17:19Z</time>
      </trkpt>
      <trkpt lat="50.78941" lon="5.59233">
        <ele>104.6</ele>
        <time>2022-10-04T08:17:20Z</time>
      </trkpt>
      <trkpt lat="50.78948" lon="5.59219">
        <ele>104.8</ele>
        <time>2022-10-04T08:17:22Z</time>
      </trkpt>
      <trkpt lat="50.78952" lon="5.59212">
        <ele>105</ele>
        <time>2022-10-04T08:17:23Z</time>
      </trkpt>
      <trkpt lat="50.78966" lon="5.59187">
        <ele>105.6</ele>
        <time>2022-10-04T08:17:27Z</time>
      </trkpt>
      <trkpt lat="50.78973" lon="5.59175">
        <ele>106.6</ele>
        <time>2022-10-04T08:17:29Z</time>
      </trkpt>
      <trkpt lat="50.78982" lon="5.59157">
        <ele>107.4</ele>
        <time>2022-10-04T08:17:32Z</time>
      </trkpt>
      <trkpt lat="50.78984" lon="5.59151">
        <ele>107.4</ele>
        <time>2022-10-04T08:17:33Z</time>
      </trkpt>
      <trkpt lat="50.78987" lon="5.59146">
        <ele>108.2</ele>
        <time>2022-10-04T08:17:34Z</time>
      </trkpt>
      <trkpt lat="50.7899" lon="5.5914">
        <ele>108.4</ele>
        <time>2022-10-04T08:17:35Z</time>
      </trkpt>
      <trkpt lat="50.78999" lon="5.59124">
        <ele>109.2</ele>
        <time>2022-10-04T08:17:38Z</time>
      </trkpt>
      <trkpt lat="50.79009" lon="5.59108">
        <ele>110</ele>
        <time>2022-10-04T08:17:41Z</time>
      </trkpt>
      <trkpt lat="50.79012" lon="5.59104">
        <ele>110.2</ele>
        <time>2022-10-04T08:17:42Z</time>
      </trkpt>
      <trkpt lat="50.7903" lon="5.59074">
        <ele>110.8</ele>
        <time>2022-10-04T08:17:47Z</time>
      </trkpt>
      <trkpt lat="50.79035" lon="5.59067">
        <ele>111.2</ele>
        <time>2022-10-04T08:17:48Z</time>
      </trkpt>
      <trkpt lat="50.79043" lon="5.59052">
        <ele>111.4</ele>
        <time>2022-10-04T08:17:50Z</time>
      </trkpt>
      <trkpt lat="50.79053" lon="5.59037">
        <ele>111.4</ele>
        <time>2022-10-04T08:17:52Z</time>
      </trkpt>
      <trkpt lat="50.79064" lon="5.59021">
        <ele>111.4</ele>
        <time>2022-10-04T08:17:54Z</time>
      </trkpt>
      <trkpt lat="50.79075" lon="5.59004">
        <ele>111.4</ele>
        <time>2022-10-04T08:17:56Z</time>
      </trkpt>
      <trkpt lat="50.79086" lon="5.58986">
        <ele>111</ele>
        <time>2022-10-04T08:17:58Z</time>
      </trkpt>
      <trkpt lat="50.79109" lon="5.58946">
        <ele>109.8</ele>
        <time>2022-10-04T08:18:02Z</time>
      </trkpt>
      <trkpt lat="50.79122" lon="5.58925">
        <ele>109.2</ele>
        <time>2022-10-04T08:18:04Z</time>
      </trkpt>
      <trkpt lat="50.79128" lon="5.58914">
        <ele>108.8</ele>
        <time>2022-10-04T08:18:05Z</time>
      </trkpt>
      <trkpt lat="50.79134" lon="5.58903">
        <ele>108.6</ele>
        <time>2022-10-04T08:18:06Z</time>
      </trkpt>
      <trkpt lat="50.7914" lon="5.58893">
        <ele>108</ele>
        <time>2022-10-04T08:18:07Z</time>
      </trkpt>
      <trkpt lat="50.79168" lon="5.58855">
        <ele>106.4</ele>
        <time>2022-10-04T08:18:11Z</time>
      </trkpt>
      <trkpt lat="50.79183" lon="5.58836">
        <ele>105</ele>
        <time>2022-10-04T08:18:13Z</time>
      </trkpt>
      <trkpt lat="50.79199" lon="5.58821">
        <ele>103.8</ele>
        <time>2022-10-04T08:18:15Z</time>
      </trkpt>
      <trkpt lat="50.79207" lon="5.58813">
        <ele>103.4</ele>
        <time>2022-10-04T08:18:16Z</time>
      </trkpt>
      <trkpt lat="50.79223" lon="5.58799">
        <ele>102.8</ele>
        <time>2022-10-04T08:18:18Z</time>
      </trkpt>
      <trkpt lat="50.79231" lon="5.58791">
        <ele>102.8</ele>
        <time>2022-10-04T08:18:19Z</time>
      </trkpt>
      <trkpt lat="50.79247" lon="5.58775">
        <ele>102.4</ele>
        <time>2022-10-04T08:18:21Z</time>
      </trkpt>
      <trkpt lat="50.79291" lon="5.58723">
        <ele>100.6</ele>
        <time>2022-10-04T08:18:27Z</time>
      </trkpt>
      <trkpt lat="50.79297" lon="5.58714">
        <ele>100.6</ele>
        <time>2022-10-04T08:18:28Z</time>
      </trkpt>
      <trkpt lat="50.79317" lon="5.58686">
        <ele>100.4</ele>
        <time>2022-10-04T08:18:31Z</time>
      </trkpt>
      <trkpt lat="50.79343" lon="5.5865">
        <ele>100.4</ele>
        <time>2022-10-04T08:18:35Z</time>
      </trkpt>
      <trkpt lat="50.79348" lon="5.58642">
        <ele>100.4</ele>
        <time>2022-10-04T08:18:36Z</time>
      </trkpt>
      <trkpt lat="50.79371" lon="5.5861">
        <ele>100.4</ele>
        <time>2022-10-04T08:18:41Z</time>
      </trkpt>
      <trkpt lat="50.79375" lon="5.58604">
        <ele>100.4</ele>
        <time>2022-10-04T08:18:42Z</time>
      </trkpt>
      <trkpt lat="50.79377" lon="5.58589">
        <ele>100.4</ele>
        <time>2022-10-04T08:18:44Z</time>
      </trkpt>
      <trkpt lat="50.7937" lon="5.58555">
        <ele>100.8</ele>
        <time>2022-10-04T08:18:48Z</time>
      </trkpt>
      <trkpt lat="50.79358" lon="5.58483">
        <ele>100.8</ele>
        <time>2022-10-04T08:18:55Z</time>
      </trkpt>
      <trkpt lat="50.79356" lon="5.58472">
        <ele>101</ele>
        <time>2022-10-04T08:18:56Z</time>
      </trkpt>
      <trkpt lat="50.79352" lon="5.58426">
        <ele>100.8</ele>
        <time>2022-10-04T08:19:00Z</time>
      </trkpt>
      <trkpt lat="50.7935" lon="5.58402">
        <ele>100.6</ele>
        <time>2022-10-04T08:19:02Z</time>
      </trkpt>
      <trkpt lat="50.79345" lon="5.5835">
        <ele>100.4</ele>
        <time>2022-10-04T08:19:07Z</time>
      </trkpt>
      <trkpt lat="50.79344" lon="5.58344">
        <ele>100.4</ele>
        <time>2022-10-04T08:19:08Z</time>
      </trkpt>
      <trkpt lat="50.79342" lon="5.58331">
        <ele>100.6</ele>
        <time>2022-10-04T08:19:11Z</time>
      </trkpt>
      <trkpt lat="50.7934" lon="5.58327">
        <ele>100.4</ele>
        <time>2022-10-04T08:19:12Z</time>
      </trkpt>
      <trkpt lat="50.79335" lon="5.58319">
        <ele>100.6</ele>
        <time>2022-10-04T08:19:14Z</time>
      </trkpt>
      <trkpt lat="50.79334" lon="5.58314">
        <ele>101</ele>
        <time>2022-10-04T08:19:15Z</time>
      </trkpt>
      <trkpt lat="50.79329" lon="5.58279">
        <ele>101.2</ele>
        <time>2022-10-04T08:19:19Z</time>
      </trkpt>
      <trkpt lat="50.79327" lon="5.58268">
        <ele>101.4</ele>
        <time>2022-10-04T08:19:20Z</time>
      </trkpt>
      <trkpt lat="50.79322" lon="5.58246">
        <ele>101.4</ele>
        <time>2022-10-04T08:19:22Z</time>
      </trkpt>
      <trkpt lat="50.79319" lon="5.58234">
        <ele>101.4</ele>
        <time>2022-10-04T08:19:23Z</time>
      </trkpt>
      <trkpt lat="50.79292" lon="5.58152">
        <ele>100.8</ele>
        <time>2022-10-04T08:19:30Z</time>
      </trkpt>
      <trkpt lat="50.79282" lon="5.5813">
        <ele>100.8</ele>
        <time>2022-10-04T08:19:32Z</time>
      </trkpt>
      <trkpt lat="50.7927" lon="5.58113">
        <ele>100.6</ele>
        <time>2022-10-04T08:19:34Z</time>
      </trkpt>
      <trkpt lat="50.79263" lon="5.58106">
        <ele>100.6</ele>
        <time>2022-10-04T08:19:35Z</time>
      </trkpt>
      <trkpt lat="50.7925" lon="5.58094">
        <ele>100.6</ele>
        <time>2022-10-04T08:19:37Z</time>
      </trkpt>
      <trkpt lat="50.79242" lon="5.58088">
        <ele>100.4</ele>
        <time>2022-10-04T08:19:38Z</time>
      </trkpt>
      <trkpt lat="50.79214" lon="5.58066">
        <ele>100.2</ele>
        <time>2022-10-04T08:19:42Z</time>
      </trkpt>
      <trkpt lat="50.79202" lon="5.58056">
        <ele>100.4</ele>
        <time>2022-10-04T08:19:44Z</time>
      </trkpt>
      <trkpt lat="50.79196" lon="5.58051">
        <ele>100.4</ele>
        <time>2022-10-04T08:19:45Z</time>
      </trkpt>
      <trkpt lat="50.79173" lon="5.58026">
        <ele>100.2</ele>
        <time>2022-10-04T08:19:49Z</time>
      </trkpt>
      <trkpt lat="50.79156" lon="5.58005">
        <ele>100.4</ele>
        <time>2022-10-04T08:19:52Z</time>
      </trkpt>
      <trkpt lat="50.79151" lon="5.57998">
        <ele>100.4</ele>
        <time>2022-10-04T08:19:53Z</time>
      </trkpt>
      <trkpt lat="50.79139" lon="5.57982">
        <ele>100.6</ele>
        <time>2022-10-04T08:19:55Z</time>
      </trkpt>
      <trkpt lat="50.79124" lon="5.57957">
        <ele>100.8</ele>
        <time>2022-10-04T08:19:58Z</time>
      </trkpt>
      <trkpt lat="50.79114" lon="5.57941">
        <ele>101</ele>
        <time>2022-10-04T08:20:00Z</time>
      </trkpt>
      <trkpt lat="50.79083" lon="5.57882">
        <ele>101.6</ele>
        <time>2022-10-04T08:20:07Z</time>
      </trkpt>
      <trkpt lat="50.79073" lon="5.57865">
        <ele>102</ele>
        <time>2022-10-04T08:20:09Z</time>
      </trkpt>
      <trkpt lat="50.79059" lon="5.57838">
        <ele>102.2</ele>
        <time>2022-10-04T08:20:12Z</time>
      </trkpt>
      <trkpt lat="50.79034" lon="5.57793">
        <ele>102.2</ele>
        <time>2022-10-04T08:20:17Z</time>
      </trkpt>
      <trkpt lat="50.78997" lon="5.57724">
        <ele>102.4</ele>
        <time>2022-10-04T08:20:25Z</time>
      </trkpt>
      <trkpt lat="50.78993" lon="5.57716">
        <ele>102.4</ele>
        <time>2022-10-04T08:20:26Z</time>
      </trkpt>
      <trkpt lat="50.78979" lon="5.5769">
        <ele>102.6</ele>
        <time>2022-10-04T08:20:29Z</time>
      </trkpt>
      <trkpt lat="50.78955" lon="5.57645">
        <ele>102.6</ele>
        <time>2022-10-04T08:20:34Z</time>
      </trkpt>
      <trkpt lat="50.78917" lon="5.57575">
        <ele>102.8</ele>
        <time>2022-10-04T08:20:42Z</time>
      </trkpt>
      <trkpt lat="50.78913" lon="5.57566">
        <ele>103</ele>
        <time>2022-10-04T08:20:43Z</time>
      </trkpt>
      <trkpt lat="50.78894" lon="5.5753">
        <ele>103.2</ele>
        <time>2022-10-04T08:20:47Z</time>
      </trkpt>
      <trkpt lat="50.7887" lon="5.57484">
        <ele>103.4</ele>
        <time>2022-10-04T08:20:52Z</time>
      </trkpt>
      <trkpt lat="50.78833" lon="5.57411">
        <ele>103.6</ele>
        <time>2022-10-04T08:21:00Z</time>
      </trkpt>
      <trkpt lat="50.78806" lon="5.57356">
        <ele>104</ele>
        <time>2022-10-04T08:21:06Z</time>
      </trkpt>
      <trkpt lat="50.78789" lon="5.5732">
        <ele>104.2</ele>
        <time>2022-10-04T08:21:10Z</time>
      </trkpt>
      <trkpt lat="50.78763" lon="5.57265">
        <ele>104.6</ele>
        <time>2022-10-04T08:21:16Z</time>
      </trkpt>
      <trkpt lat="50.78746" lon="5.57227">
        <ele>104.8</ele>
        <time>2022-10-04T08:21:20Z</time>
      </trkpt>
      <trkpt lat="50.78713" lon="5.57148">
        <ele>105</ele>
        <time>2022-10-04T08:21:28Z</time>
      </trkpt>
      <trkpt lat="50.78685" lon="5.57066">
        <ele>105.2</ele>
        <time>2022-10-04T08:21:36Z</time>
      </trkpt>
      <trkpt lat="50.78681" lon="5.57056">
        <ele>105.2</ele>
        <time>2022-10-04T08:21:37Z</time>
      </trkpt>
      <trkpt lat="50.78675" lon="5.57037">
        <ele>105.2</ele>
        <time>2022-10-04T08:21:39Z</time>
      </trkpt>
      <trkpt lat="50.78665" lon="5.57004">
        <ele>105.2</ele>
        <time>2022-10-04T08:21:43Z</time>
      </trkpt>
      <trkpt lat="50.78662" lon="5.56989">
        <ele>105.4</ele>
        <time>2022-10-04T08:21:45Z</time>
      </trkpt>
      <trkpt lat="50.78661" lon="5.56974">
        <ele>105.4</ele>
        <time>2022-10-04T08:21:47Z</time>
      </trkpt>
      <trkpt lat="50.78651" lon="5.56928">
        <ele>105.6</ele>
        <time>2022-10-04T08:21:52Z</time>
      </trkpt>
      <trkpt lat="50.7864" lon="5.56886">
        <ele>105.6</ele>
        <time>2022-10-04T08:21:56Z</time>
      </trkpt>
      <trkpt lat="50.78636" lon="5.56875">
        <ele>105.8</ele>
        <time>2022-10-04T08:21:57Z</time>
      </trkpt>
      <trkpt lat="50.78614" lon="5.56792">
        <ele>105.8</ele>
        <time>2022-10-04T08:22:05Z</time>
      </trkpt>
      <trkpt lat="50.78587" lon="5.5671">
        <ele>106.4</ele>
        <time>2022-10-04T08:22:13Z</time>
      </trkpt>
      <trkpt lat="50.78563" lon="5.56644">
        <ele>106.8</ele>
        <time>2022-10-04T08:22:20Z</time>
      </trkpt>
      <trkpt lat="50.78537" lon="5.56597">
        <ele>107.2</ele>
        <time>2022-10-04T08:22:26Z</time>
      </trkpt>
      <trkpt lat="50.78532" lon="5.5659">
        <ele>107.4</ele>
        <time>2022-10-04T08:22:27Z</time>
      </trkpt>
      <trkpt lat="50.78527" lon="5.56583">
        <ele>107.6</ele>
        <time>2022-10-04T08:22:28Z</time>
      </trkpt>
      <trkpt lat="50.78508" lon="5.56553">
        <ele>107.8</ele>
        <time>2022-10-04T08:22:32Z</time>
      </trkpt>
      <trkpt lat="50.78498" lon="5.56538">
        <ele>107.8</ele>
        <time>2022-10-04T08:22:34Z</time>
      </trkpt>
      <trkpt lat="50.78494" lon="5.56529">
        <ele>107.8</ele>
        <time>2022-10-04T08:22:35Z</time>
      </trkpt>
      <trkpt lat="50.78468" lon="5.56479">
        <ele>108.6</ele>
        <time>2022-10-04T08:22:41Z</time>
      </trkpt>
      <trkpt lat="50.78438" lon="5.56418">
        <ele>109.2</ele>
        <time>2022-10-04T08:22:48Z</time>
      </trkpt>
      <trkpt lat="50.78416" lon="5.56374">
        <ele>109.4</ele>
        <time>2022-10-04T08:22:53Z</time>
      </trkpt>
      <trkpt lat="50.78391" lon="5.56322">
        <ele>109.4</ele>
        <time>2022-10-04T08:22:59Z</time>
      </trkpt>
      <trkpt lat="50.78367" lon="5.5627">
        <ele>109.8</ele>
        <time>2022-10-04T08:23:05Z</time>
      </trkpt>
      <trkpt lat="50.78359" lon="5.56253">
        <ele>110</ele>
        <time>2022-10-04T08:23:07Z</time>
      </trkpt>
      <trkpt lat="50.78343" lon="5.5622">
        <ele>110</ele>
        <time>2022-10-04T08:23:11Z</time>
      </trkpt>
      <trkpt lat="50.7834" lon="5.56212">
        <ele>110.2</ele>
        <time>2022-10-04T08:23:12Z</time>
      </trkpt>
      <trkpt lat="50.78336" lon="5.56194">
        <ele>110.4</ele>
        <time>2022-10-04T08:23:14Z</time>
      </trkpt>
      <trkpt lat="50.78333" lon="5.56185">
        <ele>110.6</ele>
        <time>2022-10-04T08:23:15Z</time>
      </trkpt>
      <trkpt lat="50.78329" lon="5.56177">
        <ele>110.6</ele>
        <time>2022-10-04T08:23:16Z</time>
      </trkpt>
      <trkpt lat="50.78325" lon="5.5617">
        <ele>110.6</ele>
        <time>2022-10-04T08:23:17Z</time>
      </trkpt>
      <trkpt lat="50.7832" lon="5.56163">
        <ele>110.6</ele>
        <time>2022-10-04T08:23:18Z</time>
      </trkpt>
      <trkpt lat="50.78312" lon="5.56149">
        <ele>111.2</ele>
        <time>2022-10-04T08:23:20Z</time>
      </trkpt>
      <trkpt lat="50.7828" lon="5.56099">
        <ele>111.6</ele>
        <time>2022-10-04T08:23:27Z</time>
      </trkpt>
      <trkpt lat="50.78271" lon="5.56086">
        <ele>111.8</ele>
        <time>2022-10-04T08:23:29Z</time>
      </trkpt>
      <trkpt lat="50.78252" lon="5.5605">
        <ele>112.2</ele>
        <time>2022-10-04T08:23:34Z</time>
      </trkpt>
      <trkpt lat="50.78241" lon="5.56027">
        <ele>112</ele>
        <time>2022-10-04T08:23:37Z</time>
      </trkpt>
      <trkpt lat="50.78237" lon="5.56019">
        <ele>112.2</ele>
        <time>2022-10-04T08:23:38Z</time>
      </trkpt>
      <trkpt lat="50.78233" lon="5.5601">
        <ele>112.2</ele>
        <time>2022-10-04T08:23:39Z</time>
      </trkpt>
      <trkpt lat="50.78226" lon="5.55995">
        <ele>112.6</ele>
        <time>2022-10-04T08:23:41Z</time>
      </trkpt>
      <trkpt lat="50.78212" lon="5.55963">
        <ele>113.2</ele>
        <time>2022-10-04T08:23:45Z</time>
      </trkpt>
      <trkpt lat="50.78198" lon="5.55934">
        <ele>113.4</ele>
        <time>2022-10-04T08:23:49Z</time>
      </trkpt>
      <trkpt lat="50.78195" lon="5.55927">
        <ele>113.4</ele>
        <time>2022-10-04T08:23:50Z</time>
      </trkpt>
      <trkpt lat="50.78193" lon="5.5592">
        <ele>113.4</ele>
        <time>2022-10-04T08:23:51Z</time>
      </trkpt>
      <trkpt lat="50.78189" lon="5.55904">
        <ele>113.6</ele>
        <time>2022-10-04T08:23:53Z</time>
      </trkpt>
      <trkpt lat="50.78189" lon="5.55895">
        <ele>113.6</ele>
        <time>2022-10-04T08:23:54Z</time>
      </trkpt>
      <trkpt lat="50.78191" lon="5.55886">
        <ele>113.8</ele>
        <time>2022-10-04T08:23:55Z</time>
      </trkpt>
      <trkpt lat="50.78198" lon="5.55868">
        <ele>113.8</ele>
        <time>2022-10-04T08:23:57Z</time>
      </trkpt>
      <trkpt lat="50.78221" lon="5.55808">
        <ele>114.4</ele>
        <time>2022-10-04T08:24:03Z</time>
      </trkpt>
      <trkpt lat="50.78225" lon="5.55798">
        <ele>114.4</ele>
        <time>2022-10-04T08:24:04Z</time>
      </trkpt>
      <trkpt lat="50.78255" lon="5.55725">
        <ele>115.2</ele>
        <time>2022-10-04T08:24:11Z</time>
      </trkpt>
      <trkpt lat="50.78288" lon="5.55677">
        <ele>115.4</ele>
        <time>2022-10-04T08:24:17Z</time>
      </trkpt>
      <trkpt lat="50.78322" lon="5.55648">
        <ele>115.6</ele>
        <time>2022-10-04T08:24:22Z</time>
      </trkpt>
      <trkpt lat="50.78336" lon="5.55637">
        <ele>115.6</ele>
        <time>2022-10-04T08:24:24Z</time>
      </trkpt>
      <trkpt lat="50.78371" lon="5.55611">
        <ele>115.4</ele>
        <time>2022-10-04T08:24:29Z</time>
      </trkpt>
      <trkpt lat="50.78384" lon="5.55602">
        <ele>115.2</ele>
        <time>2022-10-04T08:24:31Z</time>
      </trkpt>
      <trkpt lat="50.78398" lon="5.55595">
        <ele>115.2</ele>
        <time>2022-10-04T08:24:33Z</time>
      </trkpt>
      <trkpt lat="50.78413" lon="5.55591">
        <ele>115.2</ele>
        <time>2022-10-04T08:24:35Z</time>
      </trkpt>
      <trkpt lat="50.78446" lon="5.55589">
        <ele>115.2</ele>
        <time>2022-10-04T08:24:39Z</time>
      </trkpt>
      <trkpt lat="50.78454" lon="5.5559">
        <ele>115</ele>
        <time>2022-10-04T08:24:40Z</time>
      </trkpt>
      <trkpt lat="50.78462" lon="5.55592">
        <ele>115</ele>
        <time>2022-10-04T08:24:41Z</time>
      </trkpt>
      <trkpt lat="50.78493" lon="5.55607">
        <ele>114.8</ele>
        <time>2022-10-04T08:24:45Z</time>
      </trkpt>
      <trkpt lat="50.78509" lon="5.55614">
        <ele>114.8</ele>
        <time>2022-10-04T08:24:47Z</time>
      </trkpt>
      <trkpt lat="50.78525" lon="5.55615">
        <ele>114.2</ele>
        <time>2022-10-04T08:24:49Z</time>
      </trkpt>
      <trkpt lat="50.78549" lon="5.55609">
        <ele>113.2</ele>
        <time>2022-10-04T08:24:52Z</time>
      </trkpt>
      <trkpt lat="50.78565" lon="5.55603">
        <ele>113</ele>
        <time>2022-10-04T08:24:54Z</time>
      </trkpt>
      <trkpt lat="50.7858" lon="5.55597">
        <ele>112.8</ele>
        <time>2022-10-04T08:24:56Z</time>
      </trkpt>
      <trkpt lat="50.78611" lon="5.55584">
        <ele>112.4</ele>
        <time>2022-10-04T08:25:00Z</time>
      </trkpt>
      <trkpt lat="50.78659" lon="5.55565">
        <ele>112</ele>
        <time>2022-10-04T08:25:06Z</time>
      </trkpt>
      <trkpt lat="50.78708" lon="5.55547">
        <ele>112</ele>
        <time>2022-10-04T08:25:12Z</time>
      </trkpt>
      <trkpt lat="50.78715" lon="5.55544">
        <ele>112</ele>
        <time>2022-10-04T08:25:13Z</time>
      </trkpt>
      <trkpt lat="50.78723" lon="5.55542">
        <ele>112</ele>
        <time>2022-10-04T08:25:14Z</time>
      </trkpt>
      <trkpt lat="50.78747" lon="5.5554">
        <ele>112</ele>
        <time>2022-10-04T08:25:17Z</time>
      </trkpt>
      <trkpt lat="50.78754" lon="5.5554">
        <ele>112.2</ele>
        <time>2022-10-04T08:25:18Z</time>
      </trkpt>
      <trkpt lat="50.78799" lon="5.55548">
        <ele>112.4</ele>
        <time>2022-10-04T08:25:24Z</time>
      </trkpt>
      <trkpt lat="50.78827" lon="5.55554">
        <ele>113.2</ele>
        <time>2022-10-04T08:25:28Z</time>
      </trkpt>
      <trkpt lat="50.78833" lon="5.55555">
        <ele>113.6</ele>
        <time>2022-10-04T08:25:29Z</time>
      </trkpt>
      <trkpt lat="50.78847" lon="5.55558">
        <ele>114</ele>
        <time>2022-10-04T08:25:31Z</time>
      </trkpt>
      <trkpt lat="50.78867" lon="5.55565">
        <ele>114.2</ele>
        <time>2022-10-04T08:25:34Z</time>
      </trkpt>
      <trkpt lat="50.78885" lon="5.55573">
        <ele>114.8</ele>
        <time>2022-10-04T08:25:37Z</time>
      </trkpt>
      <trkpt lat="50.78891" lon="5.55577">
        <ele>115.4</ele>
        <time>2022-10-04T08:25:38Z</time>
      </trkpt>
      <trkpt lat="50.78903" lon="5.55584">
        <ele>116.2</ele>
        <time>2022-10-04T08:25:40Z</time>
      </trkpt>
      <trkpt lat="50.78916" lon="5.5559">
        <ele>116.6</ele>
        <time>2022-10-04T08:25:42Z</time>
      </trkpt>
      <trkpt lat="50.78935" lon="5.55598">
        <ele>116.8</ele>
        <time>2022-10-04T08:25:45Z</time>
      </trkpt>
      <trkpt lat="50.78954" lon="5.55607">
        <ele>117.4</ele>
        <time>2022-10-04T08:25:48Z</time>
      </trkpt>
      <trkpt lat="50.78992" lon="5.55621">
        <ele>118.8</ele>
        <time>2022-10-04T08:25:54Z</time>
      </trkpt>
      <trkpt lat="50.79041" lon="5.55627">
        <ele>119.8</ele>
        <time>2022-10-04T08:26:01Z</time>
      </trkpt>
      <trkpt lat="50.79072" lon="5.55626">
        <ele>119.8</ele>
        <time>2022-10-04T08:26:05Z</time>
      </trkpt>
      <trkpt lat="50.7908" lon="5.55623">
        <ele>120.2</ele>
        <time>2022-10-04T08:26:06Z</time>
      </trkpt>
      <trkpt lat="50.79087" lon="5.55618">
        <ele>120</ele>
        <time>2022-10-04T08:26:07Z</time>
      </trkpt>
      <trkpt lat="50.7911" lon="5.55596">
        <ele>119.6</ele>
        <time>2022-10-04T08:26:10Z</time>
      </trkpt>
      <trkpt lat="50.79155" lon="5.55544">
        <ele>117.8</ele>
        <time>2022-10-04T08:26:16Z</time>
      </trkpt>
      <trkpt lat="50.7917" lon="5.55525">
        <ele>117.6</ele>
        <time>2022-10-04T08:26:18Z</time>
      </trkpt>
      <trkpt lat="50.79209" lon="5.55478">
        <ele>116.4</ele>
        <time>2022-10-04T08:26:23Z</time>
      </trkpt>
      <trkpt lat="50.79226" lon="5.55462">
        <ele>116</ele>
        <time>2022-10-04T08:26:25Z</time>
      </trkpt>
      <trkpt lat="50.79242" lon="5.55443">
        <ele>115.8</ele>
        <time>2022-10-04T08:26:27Z</time>
      </trkpt>
      <trkpt lat="50.7925" lon="5.55433">
        <ele>115.6</ele>
        <time>2022-10-04T08:26:28Z</time>
      </trkpt>
      <trkpt lat="50.79266" lon="5.55413">
        <ele>115.2</ele>
        <time>2022-10-04T08:26:30Z</time>
      </trkpt>
      <trkpt lat="50.79274" lon="5.55404">
        <ele>115.2</ele>
        <time>2022-10-04T08:26:31Z</time>
      </trkpt>
      <trkpt lat="50.79289" lon="5.55384">
        <ele>114.4</ele>
        <time>2022-10-04T08:26:33Z</time>
      </trkpt>
      <trkpt lat="50.79325" lon="5.5533">
        <ele>112.8</ele>
        <time>2022-10-04T08:26:38Z</time>
      </trkpt>
      <trkpt lat="50.79353" lon="5.55286">
        <ele>112</ele>
        <time>2022-10-04T08:26:42Z</time>
      </trkpt>
      <trkpt lat="50.79366" lon="5.55265">
        <ele>111.8</ele>
        <time>2022-10-04T08:26:44Z</time>
      </trkpt>
      <trkpt lat="50.79373" lon="5.55255">
        <ele>111.8</ele>
        <time>2022-10-04T08:26:45Z</time>
      </trkpt>
      <trkpt lat="50.79386" lon="5.55233">
        <ele>111.6</ele>
        <time>2022-10-04T08:26:47Z</time>
      </trkpt>
      <trkpt lat="50.79399" lon="5.55212">
        <ele>111.4</ele>
        <time>2022-10-04T08:26:49Z</time>
      </trkpt>
      <trkpt lat="50.79439" lon="5.55152">
        <ele>111.6</ele>
        <time>2022-10-04T08:26:55Z</time>
      </trkpt>
      <trkpt lat="50.79452" lon="5.55133">
        <ele>111.8</ele>
        <time>2022-10-04T08:26:57Z</time>
      </trkpt>
      <trkpt lat="50.79497" lon="5.55089">
        <ele>111.8</ele>
        <time>2022-10-04T08:27:03Z</time>
      </trkpt>
      <trkpt lat="50.79531" lon="5.55068">
        <ele>112</ele>
        <time>2022-10-04T08:27:07Z</time>
      </trkpt>
      <trkpt lat="50.79549" lon="5.5506">
        <ele>112.2</ele>
        <time>2022-10-04T08:27:09Z</time>
      </trkpt>
      <trkpt lat="50.79604" lon="5.55036">
        <ele>112.2</ele>
        <time>2022-10-04T08:27:15Z</time>
      </trkpt>
      <trkpt lat="50.7963" lon="5.55023">
        <ele>112</ele>
        <time>2022-10-04T08:27:18Z</time>
      </trkpt>
      <trkpt lat="50.79671" lon="5.55004">
        <ele>111.6</ele>
        <time>2022-10-04T08:27:23Z</time>
      </trkpt>
      <trkpt lat="50.79685" lon="5.54998">
        <ele>111.2</ele>
        <time>2022-10-04T08:27:25Z</time>
      </trkpt>
      <trkpt lat="50.79705" lon="5.54988">
        <ele>110</ele>
        <time>2022-10-04T08:27:29Z</time>
      </trkpt>
      <trkpt lat="50.79715" lon="5.54983">
        <ele>110</ele>
        <time>2022-10-04T08:27:33Z</time>
      </trkpt>
      <trkpt lat="50.79717" lon="5.54983">
        <ele>110</ele>
        <time>2022-10-04T08:27:34Z</time>
      </trkpt>
      <trkpt lat="50.7972" lon="5.54983">
        <ele>109.8</ele>
        <time>2022-10-04T08:27:37Z</time>
      </trkpt>
      <trkpt lat="50.7972" lon="5.54983">
        <ele>109.8</ele>
        <time>2022-10-04T08:27:38Z</time>
      </trkpt>
      <trkpt lat="50.79728" lon="5.54977">
        <ele>109.4</ele>
        <time>2022-10-04T08:28:05Z</time>
      </trkpt>
      <trkpt lat="50.7973" lon="5.54975">
        <ele>109.4</ele>
        <time>2022-10-04T08:28:06Z</time>
      </trkpt>
      <trkpt lat="50.79732" lon="5.54973">
        <ele>109.4</ele>
        <time>2022-10-04T08:28:07Z</time>
      </trkpt>
      <trkpt lat="50.79745" lon="5.54967">
        <ele>109.4</ele>
        <time>2022-10-04T08:28:11Z</time>
      </trkpt>
      <trkpt lat="50.79748" lon="5.54966">
        <ele>109.4</ele>
        <time>2022-10-04T08:28:12Z</time>
      </trkpt>
      <trkpt lat="50.79772" lon="5.54958">
        <ele>109.4</ele>
        <time>2022-10-04T08:28:17Z</time>
      </trkpt>
      <trkpt lat="50.79786" lon="5.54952">
        <ele>109.6</ele>
        <time>2022-10-04T08:28:20Z</time>
      </trkpt>
      <trkpt lat="50.79796" lon="5.54948">
        <ele>109.4</ele>
        <time>2022-10-04T08:28:22Z</time>
      </trkpt>
      <trkpt lat="50.79826" lon="5.54935">
        <ele>109.6</ele>
        <time>2022-10-04T08:28:27Z</time>
      </trkpt>
      <trkpt lat="50.79865" lon="5.54912">
        <ele>110.2</ele>
        <time>2022-10-04T08:28:33Z</time>
      </trkpt>
      <trkpt lat="50.79901" lon="5.54884">
        <ele>110.6</ele>
        <time>2022-10-04T08:28:39Z</time>
      </trkpt>
      <trkpt lat="50.79906" lon="5.54879">
        <ele>110.4</ele>
        <time>2022-10-04T08:28:40Z</time>
      </trkpt>
      <trkpt lat="50.79931" lon="5.54854">
        <ele>111</ele>
        <time>2022-10-04T08:28:45Z</time>
      </trkpt>
      <trkpt lat="50.79936" lon="5.54849">
        <ele>111</ele>
        <time>2022-10-04T08:28:46Z</time>
      </trkpt>
      <trkpt lat="50.7994" lon="5.54844">
        <ele>111</ele>
        <time>2022-10-04T08:28:47Z</time>
      </trkpt>
      <trkpt lat="50.79953" lon="5.54829">
        <ele>111.6</ele>
        <time>2022-10-04T08:28:50Z</time>
      </trkpt>
      <trkpt lat="50.79966" lon="5.54813">
        <ele>112.2</ele>
        <time>2022-10-04T08:28:54Z</time>
      </trkpt>
      <trkpt lat="50.79981" lon="5.54795">
        <ele>113.4</ele>
        <time>2022-10-04T08:29:00Z</time>
      </trkpt>
      <trkpt lat="50.79999" lon="5.54775">
        <ele>114</ele>
        <time>2022-10-04T08:29:07Z</time>
      </trkpt>
      <trkpt lat="50.80024" lon="5.54745">
        <ele>114</ele>
        <time>2022-10-04T08:29:14Z</time>
      </trkpt>
      <trkpt lat="50.80028" lon="5.5474">
        <ele>114.2</ele>
        <time>2022-10-04T08:29:15Z</time>
      </trkpt>
      <trkpt lat="50.80039" lon="5.54723">
        <ele>114</ele>
        <time>2022-10-04T08:29:18Z</time>
      </trkpt>
      <trkpt lat="50.80046" lon="5.54709">
        <ele>113.8</ele>
        <time>2022-10-04T08:29:20Z</time>
      </trkpt>
      <trkpt lat="50.8005" lon="5.54702">
        <ele>113.8</ele>
        <time>2022-10-04T08:29:21Z</time>
      </trkpt>
      <trkpt lat="50.80063" lon="5.5467">
        <ele>113.2</ele>
        <time>2022-10-04T08:29:25Z</time>
      </trkpt>
      <trkpt lat="50.80065" lon="5.54661">
        <ele>113.2</ele>
        <time>2022-10-04T08:29:26Z</time>
      </trkpt>
      <trkpt lat="50.80068" lon="5.54652">
        <ele>113</ele>
        <time>2022-10-04T08:29:27Z</time>
      </trkpt>
      <trkpt lat="50.80074" lon="5.54622">
        <ele>112.2</ele>
        <time>2022-10-04T08:29:30Z</time>
      </trkpt>
      <trkpt lat="50.80079" lon="5.54603">
        <ele>112.2</ele>
        <time>2022-10-04T08:29:32Z</time>
      </trkpt>
      <trkpt lat="50.80081" lon="5.54594">
        <ele>112</ele>
        <time>2022-10-04T08:29:33Z</time>
      </trkpt>
      <trkpt lat="50.80084" lon="5.54584">
        <ele>111.4</ele>
        <time>2022-10-04T08:29:34Z</time>
      </trkpt>
      <trkpt lat="50.80092" lon="5.54545">
        <ele>110.6</ele>
        <time>2022-10-04T08:29:38Z</time>
      </trkpt>
      <trkpt lat="50.80095" lon="5.54534">
        <ele>110.6</ele>
        <time>2022-10-04T08:29:39Z</time>
      </trkpt>
      <trkpt lat="50.80097" lon="5.54523">
        <ele>110.4</ele>
        <time>2022-10-04T08:29:40Z</time>
      </trkpt>
      <trkpt lat="50.80104" lon="5.54489">
        <ele>110</ele>
        <time>2022-10-04T08:29:43Z</time>
      </trkpt>
      <trkpt lat="50.80107" lon="5.54477">
        <ele>109.6</ele>
        <time>2022-10-04T08:29:44Z</time>
      </trkpt>
      <trkpt lat="50.80112" lon="5.54453">
        <ele>109.2</ele>
        <time>2022-10-04T08:29:46Z</time>
      </trkpt>
      <trkpt lat="50.80122" lon="5.54407">
        <ele>108.4</ele>
        <time>2022-10-04T08:29:50Z</time>
      </trkpt>
      <trkpt lat="50.80127" lon="5.54384">
        <ele>107.8</ele>
        <time>2022-10-04T08:29:52Z</time>
      </trkpt>
      <trkpt lat="50.80131" lon="5.54362">
        <ele>107.4</ele>
        <time>2022-10-04T08:29:54Z</time>
      </trkpt>
      <trkpt lat="50.80137" lon="5.5434">
        <ele>107</ele>
        <time>2022-10-04T08:29:56Z</time>
      </trkpt>
      <trkpt lat="50.8015" lon="5.54282">
        <ele>106.6</ele>
        <time>2022-10-04T08:30:01Z</time>
      </trkpt>
      <trkpt lat="50.80153" lon="5.54271">
        <ele>106.6</ele>
        <time>2022-10-04T08:30:02Z</time>
      </trkpt>
      <trkpt lat="50.80164" lon="5.54222">
        <ele>105.6</ele>
        <time>2022-10-04T08:30:06Z</time>
      </trkpt>
      <trkpt lat="50.80172" lon="5.54184">
        <ele>104.6</ele>
        <time>2022-10-04T08:30:09Z</time>
      </trkpt>
      <trkpt lat="50.80175" lon="5.54171">
        <ele>104.4</ele>
        <time>2022-10-04T08:30:10Z</time>
      </trkpt>
      <trkpt lat="50.80178" lon="5.54158">
        <ele>104.2</ele>
        <time>2022-10-04T08:30:11Z</time>
      </trkpt>
      <trkpt lat="50.80191" lon="5.54095">
        <ele>103</ele>
        <time>2022-10-04T08:30:16Z</time>
      </trkpt>
      <trkpt lat="50.80195" lon="5.54083">
        <ele>102.6</ele>
        <time>2022-10-04T08:30:17Z</time>
      </trkpt>
      <trkpt lat="50.80206" lon="5.54045">
        <ele>101.2</ele>
        <time>2022-10-04T08:30:20Z</time>
      </trkpt>
      <trkpt lat="50.80218" lon="5.54021">
        <ele>100.8</ele>
        <time>2022-10-04T08:30:22Z</time>
      </trkpt>
      <trkpt lat="50.80242" lon="5.53993">
        <ele>100.2</ele>
        <time>2022-10-04T08:30:25Z</time>
      </trkpt>
      <trkpt lat="50.80251" lon="5.53985">
        <ele>99.6</ele>
        <time>2022-10-04T08:30:26Z</time>
      </trkpt>
      <trkpt lat="50.80269" lon="5.53973">
        <ele>98.6</ele>
        <time>2022-10-04T08:30:28Z</time>
      </trkpt>
      <trkpt lat="50.80279" lon="5.53967">
        <ele>97.8</ele>
        <time>2022-10-04T08:30:29Z</time>
      </trkpt>
      <trkpt lat="50.80287" lon="5.53958">
        <ele>97</ele>
        <time>2022-10-04T08:30:30Z</time>
      </trkpt>
      <trkpt lat="50.803" lon="5.53937">
        <ele>96.2</ele>
        <time>2022-10-04T08:30:32Z</time>
      </trkpt>
      <trkpt lat="50.80308" lon="5.53914">
        <ele>95.2</ele>
        <time>2022-10-04T08:30:34Z</time>
      </trkpt>
      <trkpt lat="50.8031" lon="5.53902">
        <ele>95</ele>
        <time>2022-10-04T08:30:35Z</time>
      </trkpt>
      <trkpt lat="50.80312" lon="5.5389">
        <ele>94.8</ele>
        <time>2022-10-04T08:30:36Z</time>
      </trkpt>
      <trkpt lat="50.80312" lon="5.53878">
        <ele>94.2</ele>
        <time>2022-10-04T08:30:37Z</time>
      </trkpt>
      <trkpt lat="50.80313" lon="5.53867">
        <ele>94</ele>
        <time>2022-10-04T08:30:38Z</time>
      </trkpt>
      <trkpt lat="50.80315" lon="5.53858">
        <ele>93.6</ele>
        <time>2022-10-04T08:30:39Z</time>
      </trkpt>
      <trkpt lat="50.80319" lon="5.53851">
        <ele>93.4</ele>
        <time>2022-10-04T08:30:40Z</time>
      </trkpt>
      <trkpt lat="50.80333" lon="5.53844">
        <ele>93.2</ele>
        <time>2022-10-04T08:30:42Z</time>
      </trkpt>
      <trkpt lat="50.80347" lon="5.53839">
        <ele>92.6</ele>
        <time>2022-10-04T08:30:44Z</time>
      </trkpt>
      <trkpt lat="50.80378" lon="5.53831">
        <ele>91.8</ele>
        <time>2022-10-04T08:30:48Z</time>
      </trkpt>
      <trkpt lat="50.80402" lon="5.53831">
        <ele>91.4</ele>
        <time>2022-10-04T08:30:51Z</time>
      </trkpt>
      <trkpt lat="50.80417" lon="5.53834">
        <ele>91.2</ele>
        <time>2022-10-04T08:30:53Z</time>
      </trkpt>
      <trkpt lat="50.80463" lon="5.53841">
        <ele>90.8</ele>
        <time>2022-10-04T08:30:59Z</time>
      </trkpt>
      <trkpt lat="50.80471" lon="5.53841">
        <ele>90.8</ele>
        <time>2022-10-04T08:31:00Z</time>
      </trkpt>
      <trkpt lat="50.80479" lon="5.53842">
        <ele>90.6</ele>
        <time>2022-10-04T08:31:01Z</time>
      </trkpt>
      <trkpt lat="50.80511" lon="5.5384">
        <ele>90.6</ele>
        <time>2022-10-04T08:31:05Z</time>
      </trkpt>
      <trkpt lat="50.80527" lon="5.53835">
        <ele>90.4</ele>
        <time>2022-10-04T08:31:07Z</time>
      </trkpt>
      <trkpt lat="50.80559" lon="5.53822">
        <ele>90</ele>
        <time>2022-10-04T08:31:11Z</time>
      </trkpt>
      <trkpt lat="50.80568" lon="5.53819">
        <ele>89.8</ele>
        <time>2022-10-04T08:31:12Z</time>
      </trkpt>
      <trkpt lat="50.80608" lon="5.53799">
        <ele>89.4</ele>
        <time>2022-10-04T08:31:17Z</time>
      </trkpt>
      <trkpt lat="50.80624" lon="5.53792">
        <ele>89.4</ele>
        <time>2022-10-04T08:31:19Z</time>
      </trkpt>
      <trkpt lat="50.80679" lon="5.5377">
        <ele>88.8</ele>
        <time>2022-10-04T08:31:26Z</time>
      </trkpt>
      <trkpt lat="50.80687" lon="5.53767">
        <ele>88.6</ele>
        <time>2022-10-04T08:31:27Z</time>
      </trkpt>
      <trkpt lat="50.80695" lon="5.53763">
        <ele>88.6</ele>
        <time>2022-10-04T08:31:28Z</time>
      </trkpt>
      <trkpt lat="50.8071" lon="5.53756">
        <ele>88.4</ele>
        <time>2022-10-04T08:31:30Z</time>
      </trkpt>
      <trkpt lat="50.80741" lon="5.53742">
        <ele>88.2</ele>
        <time>2022-10-04T08:31:34Z</time>
      </trkpt>
      <trkpt lat="50.80748" lon="5.53738">
        <ele>88.2</ele>
        <time>2022-10-04T08:31:35Z</time>
      </trkpt>
      <trkpt lat="50.80804" lon="5.53713">
        <ele>87.8</ele>
        <time>2022-10-04T08:31:42Z</time>
      </trkpt>
      <trkpt lat="50.80812" lon="5.5371">
        <ele>87.8</ele>
        <time>2022-10-04T08:31:43Z</time>
      </trkpt>
      <trkpt lat="50.80836" lon="5.53699">
        <ele>87.8</ele>
        <time>2022-10-04T08:31:46Z</time>
      </trkpt>
      <trkpt lat="50.80869" lon="5.53684">
        <ele>87.4</ele>
        <time>2022-10-04T08:31:50Z</time>
      </trkpt>
      <trkpt lat="50.80925" lon="5.53657">
        <ele>87.4</ele>
        <time>2022-10-04T08:31:57Z</time>
      </trkpt>
      <trkpt lat="50.80941" lon="5.53648">
        <ele>87.4</ele>
        <time>2022-10-04T08:31:59Z</time>
      </trkpt>
      <trkpt lat="50.80973" lon="5.53634">
        <ele>87.2</ele>
        <time>2022-10-04T08:32:03Z</time>
      </trkpt>
      <trkpt lat="50.80981" lon="5.53633">
        <ele>87</ele>
        <time>2022-10-04T08:32:04Z</time>
      </trkpt>
      <trkpt lat="50.81022" lon="5.53641">
        <ele>86.4</ele>
        <time>2022-10-04T08:32:09Z</time>
      </trkpt>
      <trkpt lat="50.81068" lon="5.53663">
        <ele>86.2</ele>
        <time>2022-10-04T08:32:15Z</time>
      </trkpt>
      <trkpt lat="50.8109" lon="5.53673">
        <ele>85.8</ele>
        <time>2022-10-04T08:32:18Z</time>
      </trkpt>
      <trkpt lat="50.81103" lon="5.53681">
        <ele>85.8</ele>
        <time>2022-10-04T08:32:20Z</time>
      </trkpt>
      <trkpt lat="50.81113" lon="5.53689">
        <ele>86</ele>
        <time>2022-10-04T08:32:22Z</time>
      </trkpt>
      <trkpt lat="50.81118" lon="5.53691">
        <ele>86</ele>
        <time>2022-10-04T08:32:23Z</time>
      </trkpt>
      <trkpt lat="50.81122" lon="5.5369">
        <ele>86</ele>
        <time>2022-10-04T08:32:24Z</time>
      </trkpt>
      <trkpt lat="50.81127" lon="5.53686">
        <ele>85.8</ele>
        <time>2022-10-04T08:32:25Z</time>
      </trkpt>
      <trkpt lat="50.81132" lon="5.5367">
        <ele>86</ele>
        <time>2022-10-04T08:32:27Z</time>
      </trkpt>
      <trkpt lat="50.81134" lon="5.5366">
        <ele>86.2</ele>
        <time>2022-10-04T08:32:28Z</time>
      </trkpt>
      <trkpt lat="50.81135" lon="5.5365">
        <ele>86</ele>
        <time>2022-10-04T08:32:29Z</time>
      </trkpt>
      <trkpt lat="50.81141" lon="5.53608">
        <ele>86.4</ele>
        <time>2022-10-04T08:32:33Z</time>
      </trkpt>
      <trkpt lat="50.81157" lon="5.53517">
        <ele>86.8</ele>
        <time>2022-10-04T08:32:41Z</time>
      </trkpt>
      <trkpt lat="50.81166" lon="5.53472">
        <ele>87</ele>
        <time>2022-10-04T08:32:45Z</time>
      </trkpt>
      <trkpt lat="50.81175" lon="5.53455">
        <ele>87.2</ele>
        <time>2022-10-04T08:32:47Z</time>
      </trkpt>
      <trkpt lat="50.81189" lon="5.5345">
        <ele>87.2</ele>
        <time>2022-10-04T08:32:49Z</time>
      </trkpt>
      <trkpt lat="50.81203" lon="5.53453">
        <ele>87.4</ele>
        <time>2022-10-04T08:32:51Z</time>
      </trkpt>
      <trkpt lat="50.81209" lon="5.53457">
        <ele>87.6</ele>
        <time>2022-10-04T08:32:52Z</time>
      </trkpt>
      <trkpt lat="50.81229" lon="5.53471">
        <ele>87.8</ele>
        <time>2022-10-04T08:32:55Z</time>
      </trkpt>
      <trkpt lat="50.8125" lon="5.53486">
        <ele>88.2</ele>
        <time>2022-10-04T08:32:58Z</time>
      </trkpt>
      <trkpt lat="50.81256" lon="5.53491">
        <ele>88.2</ele>
        <time>2022-10-04T08:32:59Z</time>
      </trkpt>
      <trkpt lat="50.81263" lon="5.53495">
        <ele>88.2</ele>
        <time>2022-10-04T08:33:00Z</time>
      </trkpt>
      <trkpt lat="50.81283" lon="5.53504">
        <ele>88.8</ele>
        <time>2022-10-04T08:33:03Z</time>
      </trkpt>
      <trkpt lat="50.81291" lon="5.53505">
        <ele>88.6</ele>
        <time>2022-10-04T08:33:04Z</time>
      </trkpt>
      <trkpt lat="50.81312" lon="5.53501">
        <ele>89.2</ele>
        <time>2022-10-04T08:33:07Z</time>
      </trkpt>
      <trkpt lat="50.81332" lon="5.53488">
        <ele>89.8</ele>
        <time>2022-10-04T08:33:10Z</time>
      </trkpt>
      <trkpt lat="50.81339" lon="5.53482">
        <ele>90</ele>
        <time>2022-10-04T08:33:11Z</time>
      </trkpt>
      <trkpt lat="50.81387" lon="5.53443">
        <ele>90.2</ele>
        <time>2022-10-04T08:33:18Z</time>
      </trkpt>
      <trkpt lat="50.81427" lon="5.53427">
        <ele>90</ele>
        <time>2022-10-04T08:33:23Z</time>
      </trkpt>
      <trkpt lat="50.81435" lon="5.53423">
        <ele>90</ele>
        <time>2022-10-04T08:33:24Z</time>
      </trkpt>
      <trkpt lat="50.81485" lon="5.53402">
        <ele>89</ele>
        <time>2022-10-04T08:33:30Z</time>
      </trkpt>
      <trkpt lat="50.81494" lon="5.53398">
        <ele>88.8</ele>
        <time>2022-10-04T08:33:31Z</time>
      </trkpt>
      <trkpt lat="50.81518" lon="5.53383">
        <ele>88.2</ele>
        <time>2022-10-04T08:33:34Z</time>
      </trkpt>
      <trkpt lat="50.81525" lon="5.53376">
        <ele>88</ele>
        <time>2022-10-04T08:33:35Z</time>
      </trkpt>
      <trkpt lat="50.81554" lon="5.53343">
        <ele>87.8</ele>
        <time>2022-10-04T08:33:39Z</time>
      </trkpt>
      <trkpt lat="50.81575" lon="5.53319">
        <ele>87.2</ele>
        <time>2022-10-04T08:33:42Z</time>
      </trkpt>
      <trkpt lat="50.81596" lon="5.53299">
        <ele>86.8</ele>
        <time>2022-10-04T08:33:45Z</time>
      </trkpt>
      <trkpt lat="50.81611" lon="5.53289">
        <ele>86.8</ele>
        <time>2022-10-04T08:33:47Z</time>
      </trkpt>
      <trkpt lat="50.81632" lon="5.53273">
        <ele>86.8</ele>
        <time>2022-10-04T08:33:50Z</time>
      </trkpt>
      <trkpt lat="50.81645" lon="5.53258">
        <ele>86.6</ele>
        <time>2022-10-04T08:33:52Z</time>
      </trkpt>
      <trkpt lat="50.81661" lon="5.53232">
        <ele>86.6</ele>
        <time>2022-10-04T08:33:55Z</time>
      </trkpt>
      <trkpt lat="50.8167" lon="5.53212">
        <ele>86.8</ele>
        <time>2022-10-04T08:33:57Z</time>
      </trkpt>
      <trkpt lat="50.81683" lon="5.53182">
        <ele>86.6</ele>
        <time>2022-10-04T08:34:00Z</time>
      </trkpt>
      <trkpt lat="50.81709" lon="5.53119">
        <ele>86.8</ele>
        <time>2022-10-04T08:34:06Z</time>
      </trkpt>
      <trkpt lat="50.81714" lon="5.53109">
        <ele>86.8</ele>
        <time>2022-10-04T08:34:07Z</time>
      </trkpt>
      <trkpt lat="50.81731" lon="5.53064">
        <ele>86.4</ele>
        <time>2022-10-04T08:34:11Z</time>
      </trkpt>
      <trkpt lat="50.81734" lon="5.53053">
        <ele>86.2</ele>
        <time>2022-10-04T08:34:12Z</time>
      </trkpt>
      <trkpt lat="50.81738" lon="5.53042">
        <ele>86</ele>
        <time>2022-10-04T08:34:13Z</time>
      </trkpt>
      <trkpt lat="50.8175" lon="5.5301">
        <ele>85.8</ele>
        <time>2022-10-04T08:34:16Z</time>
      </trkpt>
      <trkpt lat="50.81761" lon="5.52976">
        <ele>85.6</ele>
        <time>2022-10-04T08:34:19Z</time>
      </trkpt>
      <trkpt lat="50.81771" lon="5.5294">
        <ele>85.2</ele>
        <time>2022-10-04T08:34:22Z</time>
      </trkpt>
      <trkpt lat="50.81793" lon="5.52868">
        <ele>84.2</ele>
        <time>2022-10-04T08:34:28Z</time>
      </trkpt>
      <trkpt lat="50.81796" lon="5.52857">
        <ele>84</ele>
        <time>2022-10-04T08:34:29Z</time>
      </trkpt>
      <trkpt lat="50.81824" lon="5.52775">
        <ele>82.2</ele>
        <time>2022-10-04T08:34:36Z</time>
      </trkpt>
      <trkpt lat="50.81848" lon="5.52705">
        <ele>81.8</ele>
        <time>2022-10-04T08:34:42Z</time>
      </trkpt>
      <trkpt lat="50.81856" lon="5.52683">
        <ele>81.8</ele>
        <time>2022-10-04T08:34:44Z</time>
      </trkpt>
      <trkpt lat="50.81867" lon="5.52648">
        <ele>81.6</ele>
        <time>2022-10-04T08:34:47Z</time>
      </trkpt>
      <trkpt lat="50.81874" lon="5.52625">
        <ele>81.4</ele>
        <time>2022-10-04T08:34:49Z</time>
      </trkpt>
      <trkpt lat="50.81902" lon="5.52546">
        <ele>81.4</ele>
        <time>2022-10-04T08:34:56Z</time>
      </trkpt>
      <trkpt lat="50.81925" lon="5.52465">
        <ele>81.4</ele>
        <time>2022-10-04T08:35:03Z</time>
      </trkpt>
      <trkpt lat="50.81934" lon="5.5243">
        <ele>81.4</ele>
        <time>2022-10-04T08:35:06Z</time>
      </trkpt>
      <trkpt lat="50.8194" lon="5.52406">
        <ele>81.4</ele>
        <time>2022-10-04T08:35:08Z</time>
      </trkpt>
      <trkpt lat="50.81946" lon="5.52382">
        <ele>81.4</ele>
        <time>2022-10-04T08:35:10Z</time>
      </trkpt>
      <trkpt lat="50.81971" lon="5.52298">
        <ele>81.6</ele>
        <time>2022-10-04T08:35:17Z</time>
      </trkpt>
      <trkpt lat="50.81995" lon="5.52215">
        <ele>81.8</ele>
        <time>2022-10-04T08:35:24Z</time>
      </trkpt>
      <trkpt lat="50.82018" lon="5.5213">
        <ele>81.6</ele>
        <time>2022-10-04T08:35:31Z</time>
      </trkpt>
      <trkpt lat="50.82021" lon="5.52118">
        <ele>81.6</ele>
        <time>2022-10-04T08:35:32Z</time>
      </trkpt>
      <trkpt lat="50.82031" lon="5.52081">
        <ele>81.6</ele>
        <time>2022-10-04T08:35:35Z</time>
      </trkpt>
      <trkpt lat="50.82046" lon="5.52034">
        <ele>81.4</ele>
        <time>2022-10-04T08:35:39Z</time>
      </trkpt>
      <trkpt lat="50.82053" lon="5.5201">
        <ele>81.2</ele>
        <time>2022-10-04T08:35:41Z</time>
      </trkpt>
      <trkpt lat="50.82057" lon="5.51998">
        <ele>81.4</ele>
        <time>2022-10-04T08:35:42Z</time>
      </trkpt>
      <trkpt lat="50.82061" lon="5.51986">
        <ele>81</ele>
        <time>2022-10-04T08:35:43Z</time>
      </trkpt>
      <trkpt lat="50.82071" lon="5.51964">
        <ele>80.6</ele>
        <time>2022-10-04T08:35:45Z</time>
      </trkpt>
      <trkpt lat="50.82079" lon="5.51941">
        <ele>80.2</ele>
        <time>2022-10-04T08:35:47Z</time>
      </trkpt>
      <trkpt lat="50.82084" lon="5.5193">
        <ele>80.2</ele>
        <time>2022-10-04T08:35:48Z</time>
      </trkpt>
      <trkpt lat="50.82099" lon="5.51896">
        <ele>79.4</ele>
        <time>2022-10-04T08:35:51Z</time>
      </trkpt>
      <trkpt lat="50.82111" lon="5.51864">
        <ele>78.2</ele>
        <time>2022-10-04T08:35:54Z</time>
      </trkpt>
      <trkpt lat="50.82117" lon="5.51847">
        <ele>77.2</ele>
        <time>2022-10-04T08:35:56Z</time>
      </trkpt>
      <trkpt lat="50.82123" lon="5.51832">
        <ele>76.8</ele>
        <time>2022-10-04T08:35:58Z</time>
      </trkpt>
      <trkpt lat="50.82127" lon="5.51821">
        <ele>76.6</ele>
        <time>2022-10-04T08:36:00Z</time>
      </trkpt>
      <trkpt lat="50.8213" lon="5.51808">
        <ele>76.2</ele>
        <time>2022-10-04T08:36:03Z</time>
      </trkpt>
      <trkpt lat="50.82129" lon="5.51804">
        <ele>76.2</ele>
        <time>2022-10-04T08:36:04Z</time>
      </trkpt>
      <trkpt lat="50.82127" lon="5.518">
        <ele>76.2</ele>
        <time>2022-10-04T08:36:05Z</time>
      </trkpt>
      <trkpt lat="50.82125" lon="5.51796">
        <ele>76</ele>
        <time>2022-10-04T08:36:06Z</time>
      </trkpt>
      <trkpt lat="50.82121" lon="5.51792">
        <ele>75.8</ele>
        <time>2022-10-04T08:36:07Z</time>
      </trkpt>
      <trkpt lat="50.82112" lon="5.51786">
        <ele>75.8</ele>
        <time>2022-10-04T08:36:09Z</time>
      </trkpt>
      <trkpt lat="50.82102" lon="5.51779">
        <ele>75.6</ele>
        <time>2022-10-04T08:36:11Z</time>
      </trkpt>
      <trkpt lat="50.82097" lon="5.51776">
        <ele>75.6</ele>
        <time>2022-10-04T08:36:12Z</time>
      </trkpt>
      <trkpt lat="50.82081" lon="5.51764">
        <ele>75.2</ele>
        <time>2022-10-04T08:36:15Z</time>
      </trkpt>
      <trkpt lat="50.82066" lon="5.51748">
        <ele>74.8</ele>
        <time>2022-10-04T08:36:18Z</time>
      </trkpt>
      <trkpt lat="50.8204" lon="5.51716">
        <ele>74.4</ele>
        <time>2022-10-04T08:36:23Z</time>
      </trkpt>
      <trkpt lat="50.82007" lon="5.51666">
        <ele>74.4</ele>
        <time>2022-10-04T08:36:30Z</time>
      </trkpt>
      <trkpt lat="50.81982" lon="5.51627">
        <ele>74.4</ele>
        <time>2022-10-04T08:36:35Z</time>
      </trkpt>
      <trkpt lat="50.81972" lon="5.51612">
        <ele>74.4</ele>
        <time>2022-10-04T08:36:37Z</time>
      </trkpt>
      <trkpt lat="50.81957" lon="5.5159">
        <ele>74.6</ele>
        <time>2022-10-04T08:36:40Z</time>
      </trkpt>
      <trkpt lat="50.81942" lon="5.51567">
        <ele>74.6</ele>
        <time>2022-10-04T08:36:43Z</time>
      </trkpt>
      <trkpt lat="50.81931" lon="5.51551">
        <ele>74.8</ele>
        <time>2022-10-04T08:36:45Z</time>
      </trkpt>
      <trkpt lat="50.81891" lon="5.51487">
        <ele>75.6</ele>
        <time>2022-10-04T08:36:53Z</time>
      </trkpt>
      <trkpt lat="50.81886" lon="5.51479">
        <ele>75.6</ele>
        <time>2022-10-04T08:36:54Z</time>
      </trkpt>
      <trkpt lat="50.81876" lon="5.51463">
        <ele>75.6</ele>
        <time>2022-10-04T08:36:56Z</time>
      </trkpt>
      <trkpt lat="50.81861" lon="5.51442">
        <ele>75.6</ele>
        <time>2022-10-04T08:36:59Z</time>
      </trkpt>
      <trkpt lat="50.81846" lon="5.51419">
        <ele>75.8</ele>
        <time>2022-10-04T08:37:02Z</time>
      </trkpt>
      <trkpt lat="50.81821" lon="5.5138">
        <ele>76.4</ele>
        <time>2022-10-04T08:37:07Z</time>
      </trkpt>
      <trkpt lat="50.81803" lon="5.51349">
        <ele>77</ele>
        <time>2022-10-04T08:37:11Z</time>
      </trkpt>
      <trkpt lat="50.81799" lon="5.51341">
        <ele>77.2</ele>
        <time>2022-10-04T08:37:12Z</time>
      </trkpt>
      <trkpt lat="50.8179" lon="5.51326">
        <ele>77.2</ele>
        <time>2022-10-04T08:37:14Z</time>
      </trkpt>
      <trkpt lat="50.81778" lon="5.51305">
        <ele>77.8</ele>
        <time>2022-10-04T08:37:17Z</time>
      </trkpt>
      <trkpt lat="50.81774" lon="5.51299">
        <ele>78</ele>
        <time>2022-10-04T08:37:18Z</time>
      </trkpt>
      <trkpt lat="50.81766" lon="5.51285">
        <ele>78.4</ele>
        <time>2022-10-04T08:37:20Z</time>
      </trkpt>
      <trkpt lat="50.81762" lon="5.51279">
        <ele>78.8</ele>
        <time>2022-10-04T08:37:21Z</time>
      </trkpt>
      <trkpt lat="50.81745" lon="5.51251">
        <ele>80</ele>
        <time>2022-10-04T08:37:25Z</time>
      </trkpt>
      <trkpt lat="50.81736" lon="5.51237">
        <ele>80.8</ele>
        <time>2022-10-04T08:37:27Z</time>
      </trkpt>
      <trkpt lat="50.81718" lon="5.5121">
        <ele>81.8</ele>
        <time>2022-10-04T08:37:31Z</time>
      </trkpt>
      <trkpt lat="50.81702" lon="5.51184">
        <ele>83.2</ele>
        <time>2022-10-04T08:37:35Z</time>
      </trkpt>
      <trkpt lat="50.81689" lon="5.51165">
        <ele>83.8</ele>
        <time>2022-10-04T08:37:38Z</time>
      </trkpt>
      <trkpt lat="50.81676" lon="5.51146">
        <ele>84.6</ele>
        <time>2022-10-04T08:37:41Z</time>
      </trkpt>
      <trkpt lat="50.81662" lon="5.51125">
        <ele>85</ele>
        <time>2022-10-04T08:37:44Z</time>
      </trkpt>
      <trkpt lat="50.81627" lon="5.5108">
        <ele>86.8</ele>
        <time>2022-10-04T08:37:51Z</time>
      </trkpt>
      <trkpt lat="50.81585" lon="5.51027">
        <ele>87.4</ele>
        <time>2022-10-04T08:37:59Z</time>
      </trkpt>
      <trkpt lat="50.81574" lon="5.51013">
        <ele>87.6</ele>
        <time>2022-10-04T08:38:01Z</time>
      </trkpt>
      <trkpt lat="50.81539" lon="5.50969">
        <ele>87.4</ele>
        <time>2022-10-04T08:38:07Z</time>
      </trkpt>
      <trkpt lat="50.81521" lon="5.50947">
        <ele>87.2</ele>
        <time>2022-10-04T08:38:10Z</time>
      </trkpt>
      <trkpt lat="50.81474" lon="5.50887">
        <ele>86.2</ele>
        <time>2022-10-04T08:38:18Z</time>
      </trkpt>
      <trkpt lat="50.81434" lon="5.50836">
        <ele>86</ele>
        <time>2022-10-04T08:38:25Z</time>
      </trkpt>
      <trkpt lat="50.81429" lon="5.50829">
        <ele>86</ele>
        <time>2022-10-04T08:38:26Z</time>
      </trkpt>
      <trkpt lat="50.81384" lon="5.50772">
        <ele>86</ele>
        <time>2022-10-04T08:38:34Z</time>
      </trkpt>
      <trkpt lat="50.81378" lon="5.50765">
        <ele>86.2</ele>
        <time>2022-10-04T08:38:35Z</time>
      </trkpt>
      <trkpt lat="50.81347" lon="5.50725">
        <ele>86.6</ele>
        <time>2022-10-04T08:38:41Z</time>
      </trkpt>
      <trkpt lat="50.81308" lon="5.50675">
        <ele>87.6</ele>
        <time>2022-10-04T08:38:48Z</time>
      </trkpt>
      <trkpt lat="50.81263" lon="5.50619">
        <ele>87.6</ele>
        <time>2022-10-04T08:38:56Z</time>
      </trkpt>
      <trkpt lat="50.81257" lon="5.50612">
        <ele>87.6</ele>
        <time>2022-10-04T08:38:57Z</time>
      </trkpt>
      <trkpt lat="50.81251" lon="5.50605">
        <ele>87.8</ele>
        <time>2022-10-04T08:38:58Z</time>
      </trkpt>
      <trkpt lat="50.81222" lon="5.50562">
        <ele>87.4</ele>
        <time>2022-10-04T08:39:03Z</time>
      </trkpt>
      <trkpt lat="50.81209" lon="5.50546">
        <ele>87.2</ele>
        <time>2022-10-04T08:39:05Z</time>
      </trkpt>
      <trkpt lat="50.81188" lon="5.50521">
        <ele>85.2</ele>
        <time>2022-10-04T08:39:08Z</time>
      </trkpt>
      <trkpt lat="50.81181" lon="5.50512">
        <ele>84.6</ele>
        <time>2022-10-04T08:39:09Z</time>
      </trkpt>
      <trkpt lat="50.81167" lon="5.50495">
        <ele>84.2</ele>
        <time>2022-10-04T08:39:11Z</time>
      </trkpt>
      <trkpt lat="50.81153" lon="5.50478">
        <ele>84</ele>
        <time>2022-10-04T08:39:13Z</time>
      </trkpt>
      <trkpt lat="50.81146" lon="5.50471">
        <ele>83.4</ele>
        <time>2022-10-04T08:39:14Z</time>
      </trkpt>
      <trkpt lat="50.81138" lon="5.50464">
        <ele>83</ele>
        <time>2022-10-04T08:39:15Z</time>
      </trkpt>
      <trkpt lat="50.81121" lon="5.50453">
        <ele>82.4</ele>
        <time>2022-10-04T08:39:17Z</time>
      </trkpt>
      <trkpt lat="50.81105" lon="5.50442">
        <ele>81.6</ele>
        <time>2022-10-04T08:39:19Z</time>
      </trkpt>
      <trkpt lat="50.81089" lon="5.50435">
        <ele>81</ele>
        <time>2022-10-04T08:39:21Z</time>
      </trkpt>
      <trkpt lat="50.81081" lon="5.50433">
        <ele>80.8</ele>
        <time>2022-10-04T08:39:22Z</time>
      </trkpt>
      <trkpt lat="50.81073" lon="5.50431">
        <ele>80.4</ele>
        <time>2022-10-04T08:39:23Z</time>
      </trkpt>
      <trkpt lat="50.81035" lon="5.50412">
        <ele>79.4</ele>
        <time>2022-10-04T08:39:28Z</time>
      </trkpt>
      <trkpt lat="50.81006" lon="5.50395">
        <ele>79.6</ele>
        <time>2022-10-04T08:39:32Z</time>
      </trkpt>
      <trkpt lat="50.80979" lon="5.50379">
        <ele>79.6</ele>
        <time>2022-10-04T08:39:36Z</time>
      </trkpt>
      <trkpt lat="50.80973" lon="5.50375">
        <ele>79.6</ele>
        <time>2022-10-04T08:39:37Z</time>
      </trkpt>
      <trkpt lat="50.80947" lon="5.50359">
        <ele>80.2</ele>
        <time>2022-10-04T08:39:41Z</time>
      </trkpt>
      <trkpt lat="50.80935" lon="5.50352">
        <ele>80.8</ele>
        <time>2022-10-04T08:39:43Z</time>
      </trkpt>
      <trkpt lat="50.80924" lon="5.50346">
        <ele>81.4</ele>
        <time>2022-10-04T08:39:45Z</time>
      </trkpt>
      <trkpt lat="50.80909" lon="5.50339">
        <ele>82</ele>
        <time>2022-10-04T08:39:48Z</time>
      </trkpt>
      <trkpt lat="50.80905" lon="5.50337">
        <ele>82.4</ele>
        <time>2022-10-04T08:39:49Z</time>
      </trkpt>
      <trkpt lat="50.80901" lon="5.50329">
        <ele>83</ele>
        <time>2022-10-04T08:39:51Z</time>
      </trkpt>
      <trkpt lat="50.80901" lon="5.50317">
        <ele>83.6</ele>
        <time>2022-10-04T08:39:53Z</time>
      </trkpt>
      <trkpt lat="50.80903" lon="5.5031">
        <ele>83.8</ele>
        <time>2022-10-04T08:39:54Z</time>
      </trkpt>
      <trkpt lat="50.80912" lon="5.50266">
        <ele>84.8</ele>
        <time>2022-10-04T08:39:59Z</time>
      </trkpt>
      <trkpt lat="50.80914" lon="5.50255">
        <ele>84.8</ele>
        <time>2022-10-04T08:40:00Z</time>
      </trkpt>
      <trkpt lat="50.80923" lon="5.5022">
        <ele>84.6</ele>
        <time>2022-10-04T08:40:03Z</time>
      </trkpt>
      <trkpt lat="50.80926" lon="5.50208">
        <ele>84.8</ele>
        <time>2022-10-04T08:40:04Z</time>
      </trkpt>
      <trkpt lat="50.80942" lon="5.50157">
        <ele>84.6</ele>
        <time>2022-10-04T08:40:08Z</time>
      </trkpt>
      <trkpt lat="50.80946" lon="5.50143">
        <ele>84</ele>
        <time>2022-10-04T08:40:09Z</time>
      </trkpt>
      <trkpt lat="50.80951" lon="5.50129">
        <ele>83.8</ele>
        <time>2022-10-04T08:40:10Z</time>
      </trkpt>
      <trkpt lat="50.80955" lon="5.50114">
        <ele>83.2</ele>
        <time>2022-10-04T08:40:11Z</time>
      </trkpt>
      <trkpt lat="50.8097" lon="5.50072">
        <ele>81.6</ele>
        <time>2022-10-04T08:40:14Z</time>
      </trkpt>
      <trkpt lat="50.80977" lon="5.50059">
        <ele>81.6</ele>
        <time>2022-10-04T08:40:15Z</time>
      </trkpt>
      <trkpt lat="50.80984" lon="5.50046">
        <ele>81.4</ele>
        <time>2022-10-04T08:40:16Z</time>
      </trkpt>
      <trkpt lat="50.81001" lon="5.50025">
        <ele>80.4</ele>
        <time>2022-10-04T08:40:18Z</time>
      </trkpt>
      <trkpt lat="50.81038" lon="5.49994">
        <ele>78.2</ele>
        <time>2022-10-04T08:40:22Z</time>
      </trkpt>
      <trkpt lat="50.81047" lon="5.49985">
        <ele>78.2</ele>
        <time>2022-10-04T08:40:23Z</time>
      </trkpt>
      <trkpt lat="50.81055" lon="5.49975">
        <ele>77.6</ele>
        <time>2022-10-04T08:40:24Z</time>
      </trkpt>
      <trkpt lat="50.81062" lon="5.49964">
        <ele>76.6</ele>
        <time>2022-10-04T08:40:25Z</time>
      </trkpt>
      <trkpt lat="50.81068" lon="5.49953">
        <ele>76.4</ele>
        <time>2022-10-04T08:40:26Z</time>
      </trkpt>
      <trkpt lat="50.81084" lon="5.49917">
        <ele>76</ele>
        <time>2022-10-04T08:40:29Z</time>
      </trkpt>
      <trkpt lat="50.81088" lon="5.49905">
        <ele>76</ele>
        <time>2022-10-04T08:40:30Z</time>
      </trkpt>
      <trkpt lat="50.8109" lon="5.49891">
        <ele>76</ele>
        <time>2022-10-04T08:40:31Z</time>
      </trkpt>
      <trkpt lat="50.81091" lon="5.49877">
        <ele>76</ele>
        <time>2022-10-04T08:40:32Z</time>
      </trkpt>
      <trkpt lat="50.81086" lon="5.49852">
        <ele>76</ele>
        <time>2022-10-04T08:40:34Z</time>
      </trkpt>
      <trkpt lat="50.81077" lon="5.49833">
        <ele>76</ele>
        <time>2022-10-04T08:40:36Z</time>
      </trkpt>
      <trkpt lat="50.81072" lon="5.49825">
        <ele>76.4</ele>
        <time>2022-10-04T08:40:37Z</time>
      </trkpt>
      <trkpt lat="50.81066" lon="5.49817">
        <ele>76.8</ele>
        <time>2022-10-04T08:40:38Z</time>
      </trkpt>
      <trkpt lat="50.81055" lon="5.49803">
        <ele>77.2</ele>
        <time>2022-10-04T08:40:40Z</time>
      </trkpt>
      <trkpt lat="50.81049" lon="5.49796">
        <ele>77.4</ele>
        <time>2022-10-04T08:40:41Z</time>
      </trkpt>
      <trkpt lat="50.81043" lon="5.49789">
        <ele>77.6</ele>
        <time>2022-10-04T08:40:42Z</time>
      </trkpt>
      <trkpt lat="50.81016" lon="5.4975">
        <ele>78.6</ele>
        <time>2022-10-04T08:40:47Z</time>
      </trkpt>
      <trkpt lat="50.80973" lon="5.4969">
        <ele>79</ele>
        <time>2022-10-04T08:40:55Z</time>
      </trkpt>
      <trkpt lat="50.80968" lon="5.49683">
        <ele>79</ele>
        <time>2022-10-04T08:40:56Z</time>
      </trkpt>
      <trkpt lat="50.80963" lon="5.49675">
        <ele>79</ele>
        <time>2022-10-04T08:40:57Z</time>
      </trkpt>
      <trkpt lat="50.80942" lon="5.49644">
        <ele>79.6</ele>
        <time>2022-10-04T08:41:01Z</time>
      </trkpt>
      <trkpt lat="50.80936" lon="5.49636">
        <ele>79.6</ele>
        <time>2022-10-04T08:41:02Z</time>
      </trkpt>
      <trkpt lat="50.80906" lon="5.49596">
        <ele>80</ele>
        <time>2022-10-04T08:41:08Z</time>
      </trkpt>
      <trkpt lat="50.80902" lon="5.49589">
        <ele>80</ele>
        <time>2022-10-04T08:41:09Z</time>
      </trkpt>
      <trkpt lat="50.80899" lon="5.49572">
        <ele>80.8</ele>
        <time>2022-10-04T08:41:11Z</time>
      </trkpt>
      <trkpt lat="50.809" lon="5.49564">
        <ele>81</ele>
        <time>2022-10-04T08:41:12Z</time>
      </trkpt>
      <trkpt lat="50.80902" lon="5.49554">
        <ele>81.2</ele>
        <time>2022-10-04T08:41:13Z</time>
      </trkpt>
      <trkpt lat="50.80904" lon="5.49545">
        <ele>81</ele>
        <time>2022-10-04T08:41:14Z</time>
      </trkpt>
      <trkpt lat="50.80913" lon="5.49512">
        <ele>81.4</ele>
        <time>2022-10-04T08:41:18Z</time>
      </trkpt>
      <trkpt lat="50.80916" lon="5.49503">
        <ele>81.6</ele>
        <time>2022-10-04T08:41:19Z</time>
      </trkpt>
      <trkpt lat="50.80925" lon="5.49471">
        <ele>82.6</ele>
        <time>2022-10-04T08:41:23Z</time>
      </trkpt>
      <trkpt lat="50.80929" lon="5.49455">
        <ele>83.2</ele>
        <time>2022-10-04T08:41:25Z</time>
      </trkpt>
      <trkpt lat="50.80933" lon="5.4944">
        <ele>83.6</ele>
        <time>2022-10-04T08:41:27Z</time>
      </trkpt>
      <trkpt lat="50.80935" lon="5.49432">
        <ele>83.8</ele>
        <time>2022-10-04T08:41:28Z</time>
      </trkpt>
      <trkpt lat="50.8094" lon="5.49417">
        <ele>84.4</ele>
        <time>2022-10-04T08:41:30Z</time>
      </trkpt>
      <trkpt lat="50.80946" lon="5.49391">
        <ele>85.4</ele>
        <time>2022-10-04T08:41:33Z</time>
      </trkpt>
      <trkpt lat="50.80951" lon="5.49374">
        <ele>86.4</ele>
        <time>2022-10-04T08:41:35Z</time>
      </trkpt>
      <trkpt lat="50.80963" lon="5.49327">
        <ele>87</ele>
        <time>2022-10-04T08:41:40Z</time>
      </trkpt>
      <trkpt lat="50.80968" lon="5.49307">
        <ele>87</ele>
        <time>2022-10-04T08:41:42Z</time>
      </trkpt>
      <trkpt lat="50.8097" lon="5.49297">
        <ele>87</ele>
        <time>2022-10-04T08:41:43Z</time>
      </trkpt>
      <trkpt lat="50.8098" lon="5.49256">
        <ele>86.8</ele>
        <time>2022-10-04T08:41:47Z</time>
      </trkpt>
      <trkpt lat="50.80988" lon="5.49225">
        <ele>86.8</ele>
        <time>2022-10-04T08:41:50Z</time>
      </trkpt>
      <trkpt lat="50.80996" lon="5.49192">
        <ele>86.6</ele>
        <time>2022-10-04T08:41:53Z</time>
      </trkpt>
      <trkpt lat="50.81003" lon="5.49158">
        <ele>86.2</ele>
        <time>2022-10-04T08:41:56Z</time>
      </trkpt>
      <trkpt lat="50.81006" lon="5.49146">
        <ele>86.2</ele>
        <time>2022-10-04T08:41:57Z</time>
      </trkpt>
      <trkpt lat="50.81015" lon="5.49108">
        <ele>85.8</ele>
        <time>2022-10-04T08:42:00Z</time>
      </trkpt>
      <trkpt lat="50.81024" lon="5.49068">
        <ele>85.2</ele>
        <time>2022-10-04T08:42:03Z</time>
      </trkpt>
      <trkpt lat="50.81027" lon="5.49054">
        <ele>85.2</ele>
        <time>2022-10-04T08:42:04Z</time>
      </trkpt>
      <trkpt lat="50.8103" lon="5.49041">
        <ele>85</ele>
        <time>2022-10-04T08:42:05Z</time>
      </trkpt>
      <trkpt lat="50.81036" lon="5.49012">
        <ele>84.2</ele>
        <time>2022-10-04T08:42:07Z</time>
      </trkpt>
      <trkpt lat="50.81045" lon="5.48972">
        <ele>83</ele>
        <time>2022-10-04T08:42:10Z</time>
      </trkpt>
      <trkpt lat="50.81052" lon="5.48922">
        <ele>81</ele>
        <time>2022-10-04T08:42:14Z</time>
      </trkpt>
      <trkpt lat="50.81053" lon="5.48909">
        <ele>80.4</ele>
        <time>2022-10-04T08:42:15Z</time>
      </trkpt>
      <trkpt lat="50.81051" lon="5.4886">
        <ele>80</ele>
        <time>2022-10-04T08:42:19Z</time>
      </trkpt>
      <trkpt lat="50.8105" lon="5.48848">
        <ele>80</ele>
        <time>2022-10-04T08:42:20Z</time>
      </trkpt>
      <trkpt lat="50.81046" lon="5.48825">
        <ele>80</ele>
        <time>2022-10-04T08:42:22Z</time>
      </trkpt>
      <trkpt lat="50.81044" lon="5.48813">
        <ele>80</ele>
        <time>2022-10-04T08:42:23Z</time>
      </trkpt>
      <trkpt lat="50.81035" lon="5.48747">
        <ele>80.6</ele>
        <time>2022-10-04T08:42:29Z</time>
      </trkpt>
      <trkpt lat="50.81032" lon="5.48726">
        <ele>81</ele>
        <time>2022-10-04T08:42:31Z</time>
      </trkpt>
      <trkpt lat="50.81022" lon="5.48665">
        <ele>81.8</ele>
        <time>2022-10-04T08:42:37Z</time>
      </trkpt>
      <trkpt lat="50.81019" lon="5.48645">
        <ele>82.2</ele>
        <time>2022-10-04T08:42:39Z</time>
      </trkpt>
      <trkpt lat="50.81007" lon="5.48561">
        <ele>83.2</ele>
        <time>2022-10-04T08:42:47Z</time>
      </trkpt>
      <trkpt lat="50.81002" lon="5.48529">
        <ele>83.4</ele>
        <time>2022-10-04T08:42:50Z</time>
      </trkpt>
      <trkpt lat="50.8099" lon="5.48445">
        <ele>84</ele>
        <time>2022-10-04T08:42:58Z</time>
      </trkpt>
      <trkpt lat="50.80988" lon="5.48434">
        <ele>84.2</ele>
        <time>2022-10-04T08:42:59Z</time>
      </trkpt>
      <trkpt lat="50.80983" lon="5.48402">
        <ele>84.4</ele>
        <time>2022-10-04T08:43:02Z</time>
      </trkpt>
      <trkpt lat="50.8098" lon="5.4838">
        <ele>84.8</ele>
        <time>2022-10-04T08:43:04Z</time>
      </trkpt>
      <trkpt lat="50.80974" lon="5.48347">
        <ele>84.8</ele>
        <time>2022-10-04T08:43:07Z</time>
      </trkpt>
      <trkpt lat="50.80972" lon="5.48337">
        <ele>84.8</ele>
        <time>2022-10-04T08:43:08Z</time>
      </trkpt>
      <trkpt lat="50.80958" lon="5.48263">
        <ele>85.6</ele>
        <time>2022-10-04T08:43:15Z</time>
      </trkpt>
      <trkpt lat="50.80952" lon="5.48232">
        <ele>85.8</ele>
        <time>2022-10-04T08:43:18Z</time>
      </trkpt>
      <trkpt lat="50.80942" lon="5.48178">
        <ele>86.8</ele>
        <time>2022-10-04T08:43:23Z</time>
      </trkpt>
      <trkpt lat="50.80934" lon="5.48134">
        <ele>87.6</ele>
        <time>2022-10-04T08:43:27Z</time>
      </trkpt>
      <trkpt lat="50.80928" lon="5.48101">
        <ele>87.8</ele>
        <time>2022-10-04T08:43:30Z</time>
      </trkpt>
      <trkpt lat="50.80916" lon="5.48036">
        <ele>88.4</ele>
        <time>2022-10-04T08:43:36Z</time>
      </trkpt>
      <trkpt lat="50.80914" lon="5.48025">
        <ele>88.4</ele>
        <time>2022-10-04T08:43:37Z</time>
      </trkpt>
      <trkpt lat="50.80912" lon="5.48015">
        <ele>88.4</ele>
        <time>2022-10-04T08:43:38Z</time>
      </trkpt>
      <trkpt lat="50.80899" lon="5.47949">
        <ele>89</ele>
        <time>2022-10-04T08:43:44Z</time>
      </trkpt>
      <trkpt lat="50.80882" lon="5.47864">
        <ele>89.4</ele>
        <time>2022-10-04T08:43:52Z</time>
      </trkpt>
      <trkpt lat="50.80879" lon="5.47853">
        <ele>89.6</ele>
        <time>2022-10-04T08:43:53Z</time>
      </trkpt>
      <trkpt lat="50.80858" lon="5.47784">
        <ele>89.8</ele>
        <time>2022-10-04T08:44:00Z</time>
      </trkpt>
      <trkpt lat="50.80852" lon="5.47764">
        <ele>90.2</ele>
        <time>2022-10-04T08:44:02Z</time>
      </trkpt>
      <trkpt lat="50.80845" lon="5.47745">
        <ele>90.2</ele>
        <time>2022-10-04T08:44:04Z</time>
      </trkpt>
      <trkpt lat="50.80837" lon="5.47726">
        <ele>90.2</ele>
        <time>2022-10-04T08:44:06Z</time>
      </trkpt>
      <trkpt lat="50.80833" lon="5.47716">
        <ele>90.4</ele>
        <time>2022-10-04T08:44:07Z</time>
      </trkpt>
      <trkpt lat="50.80826" lon="5.47697">
        <ele>90.4</ele>
        <time>2022-10-04T08:44:09Z</time>
      </trkpt>
      <trkpt lat="50.80811" lon="5.47661">
        <ele>90.6</ele>
        <time>2022-10-04T08:44:13Z</time>
      </trkpt>
      <trkpt lat="50.808" lon="5.47634">
        <ele>90.4</ele>
        <time>2022-10-04T08:44:16Z</time>
      </trkpt>
      <trkpt lat="50.80789" lon="5.47606">
        <ele>90.6</ele>
        <time>2022-10-04T08:44:19Z</time>
      </trkpt>
      <trkpt lat="50.80768" lon="5.4755">
        <ele>90.8</ele>
        <time>2022-10-04T08:44:25Z</time>
      </trkpt>
      <trkpt lat="50.80757" lon="5.47522">
        <ele>91</ele>
        <time>2022-10-04T08:44:28Z</time>
      </trkpt>
      <trkpt lat="50.80734" lon="5.47463">
        <ele>92.6</ele>
        <time>2022-10-04T08:44:34Z</time>
      </trkpt>
      <trkpt lat="50.80723" lon="5.47434">
        <ele>93.4</ele>
        <time>2022-10-04T08:44:37Z</time>
      </trkpt>
      <trkpt lat="50.80715" lon="5.47414">
        <ele>93.6</ele>
        <time>2022-10-04T08:44:39Z</time>
      </trkpt>
      <trkpt lat="50.80711" lon="5.47405">
        <ele>93.8</ele>
        <time>2022-10-04T08:44:40Z</time>
      </trkpt>
      <trkpt lat="50.80704" lon="5.47386">
        <ele>94.2</ele>
        <time>2022-10-04T08:44:42Z</time>
      </trkpt>
      <trkpt lat="50.8068" lon="5.4733">
        <ele>94.8</ele>
        <time>2022-10-04T08:44:48Z</time>
      </trkpt>
      <trkpt lat="50.80654" lon="5.47268">
        <ele>95.6</ele>
        <time>2022-10-04T08:44:55Z</time>
      </trkpt>
      <trkpt lat="50.8065" lon="5.4726">
        <ele>95.8</ele>
        <time>2022-10-04T08:44:56Z</time>
      </trkpt>
      <trkpt lat="50.80645" lon="5.47254">
        <ele>95.6</ele>
        <time>2022-10-04T08:44:57Z</time>
      </trkpt>
      <trkpt lat="50.80633" lon="5.47245">
        <ele>95.8</ele>
        <time>2022-10-04T08:44:59Z</time>
      </trkpt>
      <trkpt lat="50.806" lon="5.47229">
        <ele>96</ele>
        <time>2022-10-04T08:45:04Z</time>
      </trkpt>
      <trkpt lat="50.80594" lon="5.47224">
        <ele>96</ele>
        <time>2022-10-04T08:45:05Z</time>
      </trkpt>
      <trkpt lat="50.80581" lon="5.47212">
        <ele>95.8</ele>
        <time>2022-10-04T08:45:07Z</time>
      </trkpt>
      <trkpt lat="50.80568" lon="5.47199">
        <ele>95.8</ele>
        <time>2022-10-04T08:45:09Z</time>
      </trkpt>
      <trkpt lat="50.80562" lon="5.47193">
        <ele>95.8</ele>
        <time>2022-10-04T08:45:10Z</time>
      </trkpt>
      <trkpt lat="50.80549" lon="5.4718">
        <ele>95.2</ele>
        <time>2022-10-04T08:45:12Z</time>
      </trkpt>
      <trkpt lat="50.80542" lon="5.47173">
        <ele>95</ele>
        <time>2022-10-04T08:45:13Z</time>
      </trkpt>
      <trkpt lat="50.80536" lon="5.47166">
        <ele>94.4</ele>
        <time>2022-10-04T08:45:14Z</time>
      </trkpt>
      <trkpt lat="50.80516" lon="5.47148">
        <ele>93.6</ele>
        <time>2022-10-04T08:45:17Z</time>
      </trkpt>
      <trkpt lat="50.80497" lon="5.4713">
        <ele>93.4</ele>
        <time>2022-10-04T08:45:20Z</time>
      </trkpt>
      <trkpt lat="50.80479" lon="5.47115">
        <ele>93.4</ele>
        <time>2022-10-04T08:45:23Z</time>
      </trkpt>
      <trkpt lat="50.80469" lon="5.47107">
        <ele>93.6</ele>
        <time>2022-10-04T08:45:25Z</time>
      </trkpt>
      <trkpt lat="50.80464" lon="5.47093">
        <ele>93.6</ele>
        <time>2022-10-04T08:45:27Z</time>
      </trkpt>
      <trkpt lat="50.80464" lon="5.47084">
        <ele>94</ele>
        <time>2022-10-04T08:45:28Z</time>
      </trkpt>
      <trkpt lat="50.80467" lon="5.47055">
        <ele>94.6</ele>
        <time>2022-10-04T08:45:31Z</time>
      </trkpt>
      <trkpt lat="50.80469" lon="5.47034">
        <ele>94.8</ele>
        <time>2022-10-04T08:45:33Z</time>
      </trkpt>
      <trkpt lat="50.80471" lon="5.47023">
        <ele>95</ele>
        <time>2022-10-04T08:45:34Z</time>
      </trkpt>
      <trkpt lat="50.80473" lon="5.46991">
        <ele>95.8</ele>
        <time>2022-10-04T08:45:37Z</time>
      </trkpt>
      <trkpt lat="50.80475" lon="5.46949">
        <ele>96.6</ele>
        <time>2022-10-04T08:45:41Z</time>
      </trkpt>
      <trkpt lat="50.80476" lon="5.46917">
        <ele>97.2</ele>
        <time>2022-10-04T08:45:44Z</time>
      </trkpt>
      <trkpt lat="50.80477" lon="5.46896">
        <ele>97.6</ele>
        <time>2022-10-04T08:45:46Z</time>
      </trkpt>
      <trkpt lat="50.80478" lon="5.46855">
        <ele>98.4</ele>
        <time>2022-10-04T08:45:50Z</time>
      </trkpt>
      <trkpt lat="50.80479" lon="5.46834">
        <ele>98.8</ele>
        <time>2022-10-04T08:45:52Z</time>
      </trkpt>
      <trkpt lat="50.80482" lon="5.46784">
        <ele>99.6</ele>
        <time>2022-10-04T08:45:57Z</time>
      </trkpt>
      <trkpt lat="50.80484" lon="5.46764">
        <ele>100</ele>
        <time>2022-10-04T08:45:59Z</time>
      </trkpt>
      <trkpt lat="50.8049" lon="5.46711">
        <ele>101.4</ele>
        <time>2022-10-04T08:46:05Z</time>
      </trkpt>
      <trkpt lat="50.8049" lon="5.46703">
        <ele>101.8</ele>
        <time>2022-10-04T08:46:06Z</time>
      </trkpt>
      <trkpt lat="50.80487" lon="5.46687">
        <ele>102.2</ele>
        <time>2022-10-04T08:46:08Z</time>
      </trkpt>
      <trkpt lat="50.80485" lon="5.46679">
        <ele>102.4</ele>
        <time>2022-10-04T08:46:09Z</time>
      </trkpt>
      <trkpt lat="50.80483" lon="5.46671">
        <ele>102.4</ele>
        <time>2022-10-04T08:46:10Z</time>
      </trkpt>
      <trkpt lat="50.80484" lon="5.46654">
        <ele>102.6</ele>
        <time>2022-10-04T08:46:12Z</time>
      </trkpt>
      <trkpt lat="50.80485" lon="5.46646">
        <ele>102.8</ele>
        <time>2022-10-04T08:46:13Z</time>
      </trkpt>
      <trkpt lat="50.80486" lon="5.46638">
        <ele>102.8</ele>
        <time>2022-10-04T08:46:14Z</time>
      </trkpt>
      <trkpt lat="50.80489" lon="5.46612">
        <ele>103.2</ele>
        <time>2022-10-04T08:46:18Z</time>
      </trkpt>
      <trkpt lat="50.80491" lon="5.466">
        <ele>104</ele>
        <time>2022-10-04T08:46:22Z</time>
      </trkpt>
      <trkpt lat="50.80491" lon="5.46597">
        <ele>104.2</ele>
        <time>2022-10-04T08:46:23Z</time>
      </trkpt>
      <trkpt lat="50.80494" lon="5.46576">
        <ele>105.6</ele>
        <time>2022-10-04T08:46:27Z</time>
      </trkpt>
      <trkpt lat="50.80495" lon="5.46569">
        <ele>106</ele>
        <time>2022-10-04T08:46:28Z</time>
      </trkpt>
      <trkpt lat="50.80495" lon="5.46554">
        <ele>106.8</ele>
        <time>2022-10-04T08:46:30Z</time>
      </trkpt>
      <trkpt lat="50.80492" lon="5.46525">
        <ele>107.2</ele>
        <time>2022-10-04T08:46:34Z</time>
      </trkpt>
      <trkpt lat="50.80488" lon="5.46501">
        <ele>107.6</ele>
        <time>2022-10-04T08:46:37Z</time>
      </trkpt>
      <trkpt lat="50.80486" lon="5.46485">
        <ele>107.8</ele>
        <time>2022-10-04T08:46:39Z</time>
      </trkpt>
      <trkpt lat="50.80482" lon="5.46452">
        <ele>108.2</ele>
        <time>2022-10-04T08:46:43Z</time>
      </trkpt>
      <trkpt lat="50.80478" lon="5.46426">
        <ele>108.2</ele>
        <time>2022-10-04T08:46:46Z</time>
      </trkpt>
      <trkpt lat="50.80474" lon="5.46402">
        <ele>108.4</ele>
        <time>2022-10-04T08:46:49Z</time>
      </trkpt>
      <trkpt lat="50.80471" lon="5.4638">
        <ele>108.8</ele>
        <time>2022-10-04T08:46:52Z</time>
      </trkpt>
      <trkpt lat="50.80476" lon="5.46367">
        <ele>109.2</ele>
        <time>2022-10-04T08:46:54Z</time>
      </trkpt>
      <trkpt lat="50.8048" lon="5.46362">
        <ele>109.6</ele>
        <time>2022-10-04T08:46:55Z</time>
      </trkpt>
      <trkpt lat="50.80485" lon="5.46358">
        <ele>109.6</ele>
        <time>2022-10-04T08:46:56Z</time>
      </trkpt>
      <trkpt lat="50.80495" lon="5.4635">
        <ele>110</ele>
        <time>2022-10-04T08:46:58Z</time>
      </trkpt>
      <trkpt lat="50.80505" lon="5.46339">
        <ele>110.2</ele>
        <time>2022-10-04T08:47:00Z</time>
      </trkpt>
      <trkpt lat="50.80532" lon="5.463">
        <ele>110.2</ele>
        <time>2022-10-04T08:47:06Z</time>
      </trkpt>
      <trkpt lat="50.80551" lon="5.46261">
        <ele>110</ele>
        <time>2022-10-04T08:47:11Z</time>
      </trkpt>
      <trkpt lat="50.80556" lon="5.46254">
        <ele>110</ele>
        <time>2022-10-04T08:47:12Z</time>
      </trkpt>
      <trkpt lat="50.80562" lon="5.46249">
        <ele>109.8</ele>
        <time>2022-10-04T08:47:13Z</time>
      </trkpt>
      <trkpt lat="50.80575" lon="5.46242">
        <ele>109.6</ele>
        <time>2022-10-04T08:47:15Z</time>
      </trkpt>
      <trkpt lat="50.80582" lon="5.46241">
        <ele>109.6</ele>
        <time>2022-10-04T08:47:16Z</time>
      </trkpt>
      <trkpt lat="50.8061" lon="5.4624">
        <ele>109.6</ele>
        <time>2022-10-04T08:47:20Z</time>
      </trkpt>
      <trkpt lat="50.80617" lon="5.46243">
        <ele>109.4</ele>
        <time>2022-10-04T08:47:21Z</time>
      </trkpt>
      <trkpt lat="50.80638" lon="5.46254">
        <ele>108.8</ele>
        <time>2022-10-04T08:47:24Z</time>
      </trkpt>
      <trkpt lat="50.80653" lon="5.46256">
        <ele>108.6</ele>
        <time>2022-10-04T08:47:26Z</time>
      </trkpt>
      <trkpt lat="50.80668" lon="5.46247">
        <ele>108.4</ele>
        <time>2022-10-04T08:47:28Z</time>
      </trkpt>
      <trkpt lat="50.80674" lon="5.4624">
        <ele>108.4</ele>
        <time>2022-10-04T08:47:29Z</time>
      </trkpt>
      <trkpt lat="50.80697" lon="5.46203">
        <ele>108</ele>
        <time>2022-10-04T08:47:33Z</time>
      </trkpt>
      <trkpt lat="50.80707" lon="5.46185">
        <ele>108</ele>
        <time>2022-10-04T08:47:35Z</time>
      </trkpt>
      <trkpt lat="50.80713" lon="5.46176">
        <ele>107.8</ele>
        <time>2022-10-04T08:47:36Z</time>
      </trkpt>
      <trkpt lat="50.80754" lon="5.46106">
        <ele>108</ele>
        <time>2022-10-04T08:47:44Z</time>
      </trkpt>
      <trkpt lat="50.80758" lon="5.46098">
        <ele>108</ele>
        <time>2022-10-04T08:47:45Z</time>
      </trkpt>
      <trkpt lat="50.80772" lon="5.46074">
        <ele>108</ele>
        <time>2022-10-04T08:47:48Z</time>
      </trkpt>
      <trkpt lat="50.8079" lon="5.46043">
        <ele>108.4</ele>
        <time>2022-10-04T08:47:52Z</time>
      </trkpt>
      <trkpt lat="50.80799" lon="5.46028">
        <ele>108.6</ele>
        <time>2022-10-04T08:47:54Z</time>
      </trkpt>
      <trkpt lat="50.80821" lon="5.45986">
        <ele>109.6</ele>
        <time>2022-10-04T08:47:59Z</time>
      </trkpt>
      <trkpt lat="50.80848" lon="5.45922">
        <ele>111</ele>
        <time>2022-10-04T08:48:06Z</time>
      </trkpt>
      <trkpt lat="50.80866" lon="5.45863">
        <ele>111.2</ele>
        <time>2022-10-04T08:48:12Z</time>
      </trkpt>
      <trkpt lat="50.80871" lon="5.45843">
        <ele>111.4</ele>
        <time>2022-10-04T08:48:14Z</time>
      </trkpt>
      <trkpt lat="50.80891" lon="5.45753">
        <ele>110.8</ele>
        <time>2022-10-04T08:48:23Z</time>
      </trkpt>
      <trkpt lat="50.80894" lon="5.45743">
        <ele>110.6</ele>
        <time>2022-10-04T08:48:24Z</time>
      </trkpt>
      <trkpt lat="50.80906" lon="5.45691">
        <ele>110.2</ele>
        <time>2022-10-04T08:48:29Z</time>
      </trkpt>
      <trkpt lat="50.80912" lon="5.45668">
        <ele>110.2</ele>
        <time>2022-10-04T08:48:31Z</time>
      </trkpt>
      <trkpt lat="50.80915" lon="5.45656">
        <ele>110</ele>
        <time>2022-10-04T08:48:32Z</time>
      </trkpt>
      <trkpt lat="50.8092" lon="5.45631">
        <ele>110</ele>
        <time>2022-10-04T08:48:34Z</time>
      </trkpt>
      <trkpt lat="50.80929" lon="5.45593">
        <ele>109.4</ele>
        <time>2022-10-04T08:48:37Z</time>
      </trkpt>
      <trkpt lat="50.80935" lon="5.45567">
        <ele>108.8</ele>
        <time>2022-10-04T08:48:39Z</time>
      </trkpt>
      <trkpt lat="50.80938" lon="5.45554">
        <ele>108.2</ele>
        <time>2022-10-04T08:48:40Z</time>
      </trkpt>
      <trkpt lat="50.80942" lon="5.4554">
        <ele>107.8</ele>
        <time>2022-10-04T08:48:41Z</time>
      </trkpt>
      <trkpt lat="50.80949" lon="5.45513">
        <ele>106.6</ele>
        <time>2022-10-04T08:48:43Z</time>
      </trkpt>
      <trkpt lat="50.80957" lon="5.45486">
        <ele>106</ele>
        <time>2022-10-04T08:48:45Z</time>
      </trkpt>
      <trkpt lat="50.80962" lon="5.45473">
        <ele>105</ele>
        <time>2022-10-04T08:48:46Z</time>
      </trkpt>
      <trkpt lat="50.80972" lon="5.45446">
        <ele>103.8</ele>
        <time>2022-10-04T08:48:48Z</time>
      </trkpt>
      <trkpt lat="50.8099" lon="5.45407">
        <ele>102.6</ele>
        <time>2022-10-04T08:48:51Z</time>
      </trkpt>
      <trkpt lat="50.80996" lon="5.45393">
        <ele>101.8</ele>
        <time>2022-10-04T08:48:52Z</time>
      </trkpt>
      <trkpt lat="50.81008" lon="5.45365">
        <ele>101.2</ele>
        <time>2022-10-04T08:48:54Z</time>
      </trkpt>
      <trkpt lat="50.81027" lon="5.45323">
        <ele>99.4</ele>
        <time>2022-10-04T08:48:57Z</time>
      </trkpt>
      <trkpt lat="50.8104" lon="5.45293">
        <ele>98.4</ele>
        <time>2022-10-04T08:48:59Z</time>
      </trkpt>
      <trkpt lat="50.81053" lon="5.45264">
        <ele>97</ele>
        <time>2022-10-04T08:49:01Z</time>
      </trkpt>
      <trkpt lat="50.81059" lon="5.45249">
        <ele>96.4</ele>
        <time>2022-10-04T08:49:02Z</time>
      </trkpt>
      <trkpt lat="50.81066" lon="5.45234">
        <ele>95.2</ele>
        <time>2022-10-04T08:49:03Z</time>
      </trkpt>
      <trkpt lat="50.81076" lon="5.45201">
        <ele>94.2</ele>
        <time>2022-10-04T08:49:05Z</time>
      </trkpt>
      <trkpt lat="50.81081" lon="5.45185">
        <ele>93.4</ele>
        <time>2022-10-04T08:49:06Z</time>
      </trkpt>
      <trkpt lat="50.81085" lon="5.45168">
        <ele>92.6</ele>
        <time>2022-10-04T08:49:07Z</time>
      </trkpt>
      <trkpt lat="50.81089" lon="5.45151">
        <ele>91.8</ele>
        <time>2022-10-04T08:49:08Z</time>
      </trkpt>
      <trkpt lat="50.81096" lon="5.45117">
        <ele>90.2</ele>
        <time>2022-10-04T08:49:10Z</time>
      </trkpt>
      <trkpt lat="50.811" lon="5.451">
        <ele>89.6</ele>
        <time>2022-10-04T08:49:11Z</time>
      </trkpt>
      <trkpt lat="50.81103" lon="5.45083">
        <ele>88.6</ele>
        <time>2022-10-04T08:49:12Z</time>
      </trkpt>
      <trkpt lat="50.81106" lon="5.45067">
        <ele>88</ele>
        <time>2022-10-04T08:49:13Z</time>
      </trkpt>
      <trkpt lat="50.81107" lon="5.45034">
        <ele>87.2</ele>
        <time>2022-10-04T08:49:15Z</time>
      </trkpt>
      <trkpt lat="50.81105" lon="5.45017">
        <ele>86.6</ele>
        <time>2022-10-04T08:49:16Z</time>
      </trkpt>
      <trkpt lat="50.81101" lon="5.44986">
        <ele>85.4</ele>
        <time>2022-10-04T08:49:18Z</time>
      </trkpt>
      <trkpt lat="50.81099" lon="5.4497">
        <ele>84.8</ele>
        <time>2022-10-04T08:49:19Z</time>
      </trkpt>
      <trkpt lat="50.81094" lon="5.44924">
        <ele>83.6</ele>
        <time>2022-10-04T08:49:22Z</time>
      </trkpt>
      <trkpt lat="50.81092" lon="5.44909">
        <ele>83.2</ele>
        <time>2022-10-04T08:49:23Z</time>
      </trkpt>
      <trkpt lat="50.81092" lon="5.44878">
        <ele>82.6</ele>
        <time>2022-10-04T08:49:25Z</time>
      </trkpt>
      <trkpt lat="50.81094" lon="5.44863">
        <ele>82.2</ele>
        <time>2022-10-04T08:49:26Z</time>
      </trkpt>
      <trkpt lat="50.81105" lon="5.44807">
        <ele>81</ele>
        <time>2022-10-04T08:49:30Z</time>
      </trkpt>
      <trkpt lat="50.8111" lon="5.44795">
        <ele>80.2</ele>
        <time>2022-10-04T08:49:31Z</time>
      </trkpt>
      <trkpt lat="50.81116" lon="5.44785">
        <ele>79.2</ele>
        <time>2022-10-04T08:49:32Z</time>
      </trkpt>
      <trkpt lat="50.81123" lon="5.44775">
        <ele>78.6</ele>
        <time>2022-10-04T08:49:33Z</time>
      </trkpt>
      <trkpt lat="50.81134" lon="5.44754">
        <ele>78</ele>
        <time>2022-10-04T08:49:35Z</time>
      </trkpt>
      <trkpt lat="50.81142" lon="5.4473">
        <ele>77.8</ele>
        <time>2022-10-04T08:49:37Z</time>
      </trkpt>
      <trkpt lat="50.81144" lon="5.44718">
        <ele>77.6</ele>
        <time>2022-10-04T08:49:38Z</time>
      </trkpt>
      <trkpt lat="50.81144" lon="5.44705">
        <ele>77.6</ele>
        <time>2022-10-04T08:49:39Z</time>
      </trkpt>
      <trkpt lat="50.81144" lon="5.44692">
        <ele>77.4</ele>
        <time>2022-10-04T08:49:40Z</time>
      </trkpt>
      <trkpt lat="50.81142" lon="5.44666">
        <ele>77.2</ele>
        <time>2022-10-04T08:49:42Z</time>
      </trkpt>
      <trkpt lat="50.81131" lon="5.44605">
        <ele>77</ele>
        <time>2022-10-04T08:49:47Z</time>
      </trkpt>
      <trkpt lat="50.81127" lon="5.44583">
        <ele>77</ele>
        <time>2022-10-04T08:49:49Z</time>
      </trkpt>
      <trkpt lat="50.81121" lon="5.44553">
        <ele>77</ele>
        <time>2022-10-04T08:49:52Z</time>
      </trkpt>
      <trkpt lat="50.8112" lon="5.44543">
        <ele>77.2</ele>
        <time>2022-10-04T08:49:53Z</time>
      </trkpt>
      <trkpt lat="50.81118" lon="5.44533">
        <ele>77.2</ele>
        <time>2022-10-04T08:49:54Z</time>
      </trkpt>
      <trkpt lat="50.81116" lon="5.44524">
        <ele>77.4</ele>
        <time>2022-10-04T08:49:55Z</time>
      </trkpt>
      <trkpt lat="50.81114" lon="5.44514">
        <ele>77.4</ele>
        <time>2022-10-04T08:49:56Z</time>
      </trkpt>
      <trkpt lat="50.81113" lon="5.44505">
        <ele>77.6</ele>
        <time>2022-10-04T08:49:57Z</time>
      </trkpt>
      <trkpt lat="50.81109" lon="5.44486">
        <ele>78.4</ele>
        <time>2022-10-04T08:49:59Z</time>
      </trkpt>
      <trkpt lat="50.81105" lon="5.44467">
        <ele>79</ele>
        <time>2022-10-04T08:50:01Z</time>
      </trkpt>
      <trkpt lat="50.81103" lon="5.44459">
        <ele>79.4</ele>
        <time>2022-10-04T08:50:02Z</time>
      </trkpt>
      <trkpt lat="50.811" lon="5.44444">
        <ele>80.2</ele>
        <time>2022-10-04T08:50:04Z</time>
      </trkpt>
      <trkpt lat="50.81099" lon="5.44438">
        <ele>80.6</ele>
        <time>2022-10-04T08:50:05Z</time>
      </trkpt>
      <trkpt lat="50.81099" lon="5.44432">
        <ele>80.8</ele>
        <time>2022-10-04T08:50:06Z</time>
      </trkpt>
      <trkpt lat="50.81101" lon="5.44423">
        <ele>81</ele>
        <time>2022-10-04T08:50:08Z</time>
      </trkpt>
      <trkpt lat="50.81104" lon="5.4442">
        <ele>81.2</ele>
        <time>2022-10-04T08:50:09Z</time>
      </trkpt>
      <trkpt lat="50.81112" lon="5.44419">
        <ele>81.8</ele>
        <time>2022-10-04T08:50:11Z</time>
      </trkpt>
      <trkpt lat="50.81121" lon="5.4442">
        <ele>82.2</ele>
        <time>2022-10-04T08:50:13Z</time>
      </trkpt>
      <trkpt lat="50.81131" lon="5.44423">
        <ele>82.8</ele>
        <time>2022-10-04T08:50:15Z</time>
      </trkpt>
      <trkpt lat="50.81151" lon="5.44428">
        <ele>83</ele>
        <time>2022-10-04T08:50:19Z</time>
      </trkpt>
      <trkpt lat="50.81178" lon="5.44434">
        <ele>82.8</ele>
        <time>2022-10-04T08:50:24Z</time>
      </trkpt>
      <trkpt lat="50.81188" lon="5.44436">
        <ele>83</ele>
        <time>2022-10-04T08:50:26Z</time>
      </trkpt>
      <trkpt lat="50.81192" lon="5.44436">
        <ele>82.8</ele>
        <time>2022-10-04T08:50:27Z</time>
      </trkpt>
      <trkpt lat="50.81202" lon="5.44435">
        <ele>82.8</ele>
        <time>2022-10-04T08:50:29Z</time>
      </trkpt>
      <trkpt lat="50.81216" lon="5.44431">
        <ele>82.8</ele>
        <time>2022-10-04T08:50:32Z</time>
      </trkpt>
      <trkpt lat="50.81223" lon="5.44426">
        <ele>82.8</ele>
        <time>2022-10-04T08:50:34Z</time>
      </trkpt>
      <trkpt lat="50.81236" lon="5.44417">
        <ele>82.4</ele>
        <time>2022-10-04T08:50:39Z</time>
      </trkpt>
      <trkpt lat="50.81243" lon="5.4441">
        <ele>82.4</ele>
        <time>2022-10-04T08:50:43Z</time>
      </trkpt>
      <trkpt lat="50.81246" lon="5.44407">
        <ele>82.2</ele>
        <time>2022-10-04T08:50:45Z</time>
      </trkpt>
      <trkpt lat="50.81247" lon="5.44407">
        <ele>82.4</ele>
        <time>2022-10-04T08:50:46Z</time>
      </trkpt>
      <trkpt lat="50.81247" lon="5.44407">
        <ele>82.2</ele>
        <time>2022-10-04T08:50:47Z</time>
      </trkpt>
      <trkpt lat="50.81239" lon="5.44413">
        <ele>82</ele>
        <time>2022-10-04T08:51:16Z</time>
      </trkpt>
      <trkpt lat="50.81235" lon="5.44416">
        <ele>82</ele>
        <time>2022-10-04T08:51:18Z</time>
      </trkpt>
      <trkpt lat="50.81218" lon="5.44431">
        <ele>82</ele>
        <time>2022-10-04T08:51:25Z</time>
      </trkpt>
      <trkpt lat="50.81212" lon="5.44434">
        <ele>82</ele>
        <time>2022-10-04T08:51:27Z</time>
      </trkpt>
      <trkpt lat="50.81195" lon="5.44438">
        <ele>81.8</ele>
        <time>2022-10-04T08:51:32Z</time>
      </trkpt>
      <trkpt lat="50.81185" lon="5.44439">
        <ele>82</ele>
        <time>2022-10-04T08:51:35Z</time>
      </trkpt>
      <trkpt lat="50.81173" lon="5.44436">
        <ele>81.8</ele>
        <time>2022-10-04T08:51:38Z</time>
      </trkpt>
      <trkpt lat="50.81146" lon="5.44431">
        <ele>82.4</ele>
        <time>2022-10-04T08:51:44Z</time>
      </trkpt>
      <trkpt lat="50.81141" lon="5.4443">
        <ele>82.6</ele>
        <time>2022-10-04T08:51:45Z</time>
      </trkpt>
      <trkpt lat="50.81113" lon="5.44427">
        <ele>82.8</ele>
        <time>2022-10-04T08:51:51Z</time>
      </trkpt>
      <trkpt lat="50.8111" lon="5.44428">
        <ele>82.8</ele>
        <time>2022-10-04T08:51:52Z</time>
      </trkpt>
      <trkpt lat="50.81106" lon="5.44429">
        <ele>83</ele>
        <time>2022-10-04T08:51:54Z</time>
      </trkpt>
      <trkpt lat="50.81102" lon="5.44431">
        <ele>82.8</ele>
        <time>2022-10-04T08:51:56Z</time>
      </trkpt>
      <trkpt lat="50.81099" lon="5.44431">
        <ele>83</ele>
        <time>2022-10-04T08:51:59Z</time>
      </trkpt>
      <trkpt lat="50.81099" lon="5.4442">
        <ele>83.8</ele>
        <time>2022-10-04T08:52:41Z</time>
      </trkpt>
      <trkpt lat="50.81093" lon="5.44403">
        <ele>84</ele>
        <time>2022-10-04T08:52:48Z</time>
      </trkpt>
      <trkpt lat="50.8109" lon="5.444">
        <ele>84</ele>
        <time>2022-10-04T08:52:49Z</time>
      </trkpt>
      <trkpt lat="50.81084" lon="5.44391">
        <ele>83.8</ele>
        <time>2022-10-04T08:52:52Z</time>
      </trkpt>
      <trkpt lat="50.81078" lon="5.44384">
        <ele>84</ele>
        <time>2022-10-04T08:52:54Z</time>
      </trkpt>
      <trkpt lat="50.81073" lon="5.44376">
        <ele>84.4</ele>
        <time>2022-10-04T08:52:56Z</time>
      </trkpt>
      <trkpt lat="50.81063" lon="5.44363">
        <ele>84.4</ele>
        <time>2022-10-04T08:52:59Z</time>
      </trkpt>
      <trkpt lat="50.8106" lon="5.44358">
        <ele>84.6</ele>
        <time>2022-10-04T08:53:00Z</time>
      </trkpt>
      <trkpt lat="50.81049" lon="5.4434">
        <ele>85.8</ele>
        <time>2022-10-04T08:53:05Z</time>
      </trkpt>
      <trkpt lat="50.81049" lon="5.44338">
        <ele>86</ele>
        <time>2022-10-04T08:53:06Z</time>
      </trkpt>
      <trkpt lat="50.81048" lon="5.44338">
        <ele>86.2</ele>
        <time>2022-10-04T08:53:07Z</time>
      </trkpt>
      <trkpt lat="50.81054" lon="5.44346">
        <ele>87.2</ele>
        <time>2022-10-04T08:53:17Z</time>
      </trkpt>
      <trkpt lat="50.81056" lon="5.44349">
        <ele>87.2</ele>
        <time>2022-10-04T08:53:18Z</time>
      </trkpt>
      <trkpt lat="50.81063" lon="5.44358">
        <ele>87.2</ele>
        <time>2022-10-04T08:53:21Z</time>
      </trkpt>
      <trkpt lat="50.81065" lon="5.44362">
        <ele>87.2</ele>
        <time>2022-10-04T08:53:22Z</time>
      </trkpt>
      <trkpt lat="50.8107" lon="5.4437">
        <ele>87.4</ele>
        <time>2022-10-04T08:53:24Z</time>
      </trkpt>
      <trkpt lat="50.81076" lon="5.44378">
        <ele>87</ele>
        <time>2022-10-04T08:53:26Z</time>
      </trkpt>
      <trkpt lat="50.8109" lon="5.44399">
        <ele>87</ele>
        <time>2022-10-04T08:53:31Z</time>
      </trkpt>
      <trkpt lat="50.811" lon="5.44417">
        <ele>85.6</ele>
        <time>2022-10-04T08:53:36Z</time>
      </trkpt>
      <trkpt lat="50.81099" lon="5.44425">
        <ele>85.4</ele>
        <time>2022-10-04T08:53:38Z</time>
      </trkpt>
      <trkpt lat="50.81097" lon="5.44427">
        <ele>85.2</ele>
        <time>2022-10-04T08:53:39Z</time>
      </trkpt>
      <trkpt lat="50.81083" lon="5.44431">
        <ele>84</ele>
        <time>2022-10-04T08:53:43Z</time>
      </trkpt>
      <trkpt lat="50.81068" lon="5.44441">
        <ele>83.6</ele>
        <time>2022-10-04T08:53:47Z</time>
      </trkpt>
      <trkpt lat="50.81061" lon="5.44446">
        <ele>83.6</ele>
        <time>2022-10-04T08:53:49Z</time>
      </trkpt>
      <trkpt lat="50.81057" lon="5.44449">
        <ele>83.6</ele>
        <time>2022-10-04T08:53:50Z</time>
      </trkpt>
      <trkpt lat="50.8103" lon="5.44471">
        <ele>83.6</ele>
        <time>2022-10-04T08:53:57Z</time>
      </trkpt>
      <trkpt lat="50.81006" lon="5.44491">
        <ele>84.2</ele>
        <time>2022-10-04T08:54:03Z</time>
      </trkpt>
      <trkpt lat="50.80993" lon="5.44502">
        <ele>84.4</ele>
        <time>2022-10-04T08:54:06Z</time>
      </trkpt>
      <trkpt lat="50.8098" lon="5.4451">
        <ele>84.4</ele>
        <time>2022-10-04T08:54:09Z</time>
      </trkpt>
      <trkpt lat="50.80956" lon="5.44523">
        <ele>84.6</ele>
        <time>2022-10-04T08:54:14Z</time>
      </trkpt>
      <trkpt lat="50.80917" lon="5.44537">
        <ele>85</ele>
        <time>2022-10-04T08:54:22Z</time>
      </trkpt>
      <trkpt lat="50.80872" lon="5.44552">
        <ele>85.6</ele>
        <time>2022-10-04T08:54:31Z</time>
      </trkpt>
      <trkpt lat="50.80853" lon="5.44559">
        <ele>86</ele>
        <time>2022-10-04T08:54:36Z</time>
      </trkpt>
      <trkpt lat="50.80851" lon="5.44559">
        <ele>86</ele>
        <time>2022-10-04T08:54:38Z</time>
      </trkpt>
      <trkpt lat="50.8084" lon="5.44565">
        <ele>88.8</ele>
        <time>2022-10-04T09:07:06Z</time>
      </trkpt>
      <trkpt lat="50.80839" lon="5.44564">
        <ele>89</ele>
        <time>2022-10-04T09:07:07Z</time>
      </trkpt>
      <trkpt lat="50.80831" lon="5.44566">
        <ele>88.8</ele>
        <time>2022-10-04T09:07:11Z</time>
      </trkpt>
      <trkpt lat="50.80828" lon="5.44566">
        <ele>88.8</ele>
        <time>2022-10-04T09:07:12Z</time>
      </trkpt>
      <trkpt lat="50.8082" lon="5.44567">
        <ele>89</ele>
        <time>2022-10-04T09:07:15Z</time>
      </trkpt>
      <trkpt lat="50.80816" lon="5.44567">
        <ele>88.8</ele>
        <time>2022-10-04T09:07:16Z</time>
      </trkpt>
      <trkpt lat="50.80797" lon="5.44567">
        <ele>89</ele>
        <time>2022-10-04T09:07:21Z</time>
      </trkpt>
      <trkpt lat="50.80788" lon="5.44566">
        <ele>89</ele>
        <time>2022-10-04T09:07:23Z</time>
      </trkpt>
      <trkpt lat="50.80779" lon="5.44564">
        <ele>89.2</ele>
        <time>2022-10-04T09:07:25Z</time>
      </trkpt>
      <trkpt lat="50.8077" lon="5.44562">
        <ele>89.2</ele>
        <time>2022-10-04T09:07:27Z</time>
      </trkpt>
      <trkpt lat="50.80757" lon="5.44558">
        <ele>89.2</ele>
        <time>2022-10-04T09:07:30Z</time>
      </trkpt>
      <trkpt lat="50.80752" lon="5.44557">
        <ele>89.4</ele>
        <time>2022-10-04T09:07:31Z</time>
      </trkpt>
      <trkpt lat="50.80729" lon="5.44548">
        <ele>90</ele>
        <time>2022-10-04T09:07:36Z</time>
      </trkpt>
      <trkpt lat="50.80724" lon="5.44546">
        <ele>90</ele>
        <time>2022-10-04T09:07:37Z</time>
      </trkpt>
      <trkpt lat="50.80715" lon="5.44541">
        <ele>90.6</ele>
        <time>2022-10-04T09:07:39Z</time>
      </trkpt>
      <trkpt lat="50.80683" lon="5.44524">
        <ele>92</ele>
        <time>2022-10-04T09:07:46Z</time>
      </trkpt>
      <trkpt lat="50.80679" lon="5.44522">
        <ele>92</ele>
        <time>2022-10-04T09:07:47Z</time>
      </trkpt>
      <trkpt lat="50.80666" lon="5.44513">
        <ele>93</ele>
        <time>2022-10-04T09:07:50Z</time>
      </trkpt>
      <trkpt lat="50.80648" lon="5.44501">
        <ele>93.8</ele>
        <time>2022-10-04T09:07:54Z</time>
      </trkpt>
      <trkpt lat="50.80644" lon="5.44498">
        <ele>94</ele>
        <time>2022-10-04T09:07:55Z</time>
      </trkpt>
      <trkpt lat="50.80635" lon="5.44492">
        <ele>94.2</ele>
        <time>2022-10-04T09:07:57Z</time>
      </trkpt>
      <trkpt lat="50.80627" lon="5.44485">
        <ele>94.8</ele>
        <time>2022-10-04T09:07:59Z</time>
      </trkpt>
      <trkpt lat="50.80622" lon="5.44482">
        <ele>95</ele>
        <time>2022-10-04T09:08:00Z</time>
      </trkpt>
      <trkpt lat="50.80601" lon="5.44467">
        <ele>95.6</ele>
        <time>2022-10-04T09:08:05Z</time>
      </trkpt>
      <trkpt lat="50.80578" lon="5.44455">
        <ele>96</ele>
        <time>2022-10-04T09:08:10Z</time>
      </trkpt>
      <trkpt lat="50.80563" lon="5.4445">
        <ele>96.6</ele>
        <time>2022-10-04T09:08:13Z</time>
      </trkpt>
      <trkpt lat="50.80558" lon="5.44448">
        <ele>97</ele>
        <time>2022-10-04T09:08:14Z</time>
      </trkpt>
      <trkpt lat="50.80522" lon="5.44443">
        <ele>97.4</ele>
        <time>2022-10-04T09:08:21Z</time>
      </trkpt>
      <trkpt lat="50.80517" lon="5.44442">
        <ele>97.4</ele>
        <time>2022-10-04T09:08:22Z</time>
      </trkpt>
      <trkpt lat="50.80482" lon="5.44437">
        <ele>98.2</ele>
        <time>2022-10-04T09:08:29Z</time>
      </trkpt>
      <trkpt lat="50.80433" lon="5.44433">
        <ele>99</ele>
        <time>2022-10-04T09:08:39Z</time>
      </trkpt>
      <trkpt lat="50.80428" lon="5.44432">
        <ele>99.4</ele>
        <time>2022-10-04T09:08:40Z</time>
      </trkpt>
      <trkpt lat="50.80388" lon="5.44427">
        <ele>99.8</ele>
        <time>2022-10-04T09:08:48Z</time>
      </trkpt>
      <trkpt lat="50.80378" lon="5.44426">
        <ele>100</ele>
        <time>2022-10-04T09:08:50Z</time>
      </trkpt>
      <trkpt lat="50.80363" lon="5.44423">
        <ele>100.6</ele>
        <time>2022-10-04T09:08:53Z</time>
      </trkpt>
      <trkpt lat="50.80358" lon="5.44422">
        <ele>100.6</ele>
        <time>2022-10-04T09:08:54Z</time>
      </trkpt>
      <trkpt lat="50.80337" lon="5.44417">
        <ele>101</ele>
        <time>2022-10-04T09:08:58Z</time>
      </trkpt>
      <trkpt lat="50.80327" lon="5.44413">
        <ele>101</ele>
        <time>2022-10-04T09:09:00Z</time>
      </trkpt>
      <trkpt lat="50.80296" lon="5.44398">
        <ele>101.6</ele>
        <time>2022-10-04T09:09:06Z</time>
      </trkpt>
      <trkpt lat="50.80255" lon="5.44371">
        <ele>102</ele>
        <time>2022-10-04T09:09:14Z</time>
      </trkpt>
      <trkpt lat="50.80205" lon="5.4434">
        <ele>102</ele>
        <time>2022-10-04T09:09:23Z</time>
      </trkpt>
      <trkpt lat="50.80184" lon="5.44326">
        <ele>102</ele>
        <time>2022-10-04T09:09:27Z</time>
      </trkpt>
      <trkpt lat="50.8016" lon="5.4431">
        <ele>102.2</ele>
        <time>2022-10-04T09:09:32Z</time>
      </trkpt>
      <trkpt lat="50.80156" lon="5.44307">
        <ele>102.4</ele>
        <time>2022-10-04T09:09:33Z</time>
      </trkpt>
      <trkpt lat="50.80146" lon="5.44294">
        <ele>103</ele>
        <time>2022-10-04T09:09:37Z</time>
      </trkpt>
      <trkpt lat="50.8015" lon="5.44281">
        <ele>103.2</ele>
        <time>2022-10-04T09:09:40Z</time>
      </trkpt>
      <trkpt lat="50.80163" lon="5.44253">
        <ele>103.2</ele>
        <time>2022-10-04T09:09:44Z</time>
      </trkpt>
      <trkpt lat="50.80187" lon="5.44205">
        <ele>103.6</ele>
        <time>2022-10-04T09:09:50Z</time>
      </trkpt>
      <trkpt lat="50.80211" lon="5.44158">
        <ele>103.8</ele>
        <time>2022-10-04T09:09:56Z</time>
      </trkpt>
      <trkpt lat="50.8022" lon="5.44144">
        <ele>103.8</ele>
        <time>2022-10-04T09:09:58Z</time>
      </trkpt>
      <trkpt lat="50.80224" lon="5.44136">
        <ele>104</ele>
        <time>2022-10-04T09:09:59Z</time>
      </trkpt>
      <trkpt lat="50.80243" lon="5.44094">
        <ele>104</ele>
        <time>2022-10-04T09:10:04Z</time>
      </trkpt>
      <trkpt lat="50.80268" lon="5.44039">
        <ele>104.4</ele>
        <time>2022-10-04T09:10:10Z</time>
      </trkpt>
      <trkpt lat="50.80273" lon="5.44029">
        <ele>104.2</ele>
        <time>2022-10-04T09:10:11Z</time>
      </trkpt>
      <trkpt lat="50.80283" lon="5.44009">
        <ele>104.4</ele>
        <time>2022-10-04T09:10:13Z</time>
      </trkpt>
      <trkpt lat="50.80307" lon="5.43957">
        <ele>104</ele>
        <time>2022-10-04T09:10:18Z</time>
      </trkpt>
      <trkpt lat="50.80313" lon="5.43946">
        <ele>103.8</ele>
        <time>2022-10-04T09:10:19Z</time>
      </trkpt>
      <trkpt lat="50.80329" lon="5.43912">
        <ele>102.6</ele>
        <time>2022-10-04T09:10:22Z</time>
      </trkpt>
      <trkpt lat="50.80347" lon="5.43875">
        <ele>102</ele>
        <time>2022-10-04T09:10:25Z</time>
      </trkpt>
      <trkpt lat="50.80353" lon="5.43862">
        <ele>101.8</ele>
        <time>2022-10-04T09:10:26Z</time>
      </trkpt>
      <trkpt lat="50.80365" lon="5.43837">
        <ele>101.4</ele>
        <time>2022-10-04T09:10:28Z</time>
      </trkpt>
      <trkpt lat="50.80371" lon="5.43824">
        <ele>100.8</ele>
        <time>2022-10-04T09:10:29Z</time>
      </trkpt>
      <trkpt lat="50.80407" lon="5.43749">
        <ele>98.8</ele>
        <time>2022-10-04T09:10:35Z</time>
      </trkpt>
      <trkpt lat="50.80435" lon="5.43692">
        <ele>96.2</ele>
        <time>2022-10-04T09:10:40Z</time>
      </trkpt>
      <trkpt lat="50.80445" lon="5.4367">
        <ele>95.8</ele>
        <time>2022-10-04T09:10:42Z</time>
      </trkpt>
      <trkpt lat="50.80455" lon="5.4365">
        <ele>95.6</ele>
        <time>2022-10-04T09:10:44Z</time>
      </trkpt>
      <trkpt lat="50.8047" lon="5.43619">
        <ele>95.6</ele>
        <time>2022-10-04T09:10:47Z</time>
      </trkpt>
      <trkpt lat="50.80484" lon="5.43589">
        <ele>95.4</ele>
        <time>2022-10-04T09:10:50Z</time>
      </trkpt>
      <trkpt lat="50.80488" lon="5.43579">
        <ele>95.6</ele>
        <time>2022-10-04T09:10:51Z</time>
      </trkpt>
      <trkpt lat="50.80506" lon="5.43541">
        <ele>95.6</ele>
        <time>2022-10-04T09:10:55Z</time>
      </trkpt>
      <trkpt lat="50.8052" lon="5.43511">
        <ele>95.8</ele>
        <time>2022-10-04T09:10:58Z</time>
      </trkpt>
      <trkpt lat="50.80534" lon="5.43481">
        <ele>95.6</ele>
        <time>2022-10-04T09:11:01Z</time>
      </trkpt>
      <trkpt lat="50.80544" lon="5.4346">
        <ele>95.8</ele>
        <time>2022-10-04T09:11:03Z</time>
      </trkpt>
      <trkpt lat="50.8055" lon="5.43449">
        <ele>95.6</ele>
        <time>2022-10-04T09:11:04Z</time>
      </trkpt>
      <trkpt lat="50.8056" lon="5.43428">
        <ele>95.4</ele>
        <time>2022-10-04T09:11:06Z</time>
      </trkpt>
      <trkpt lat="50.80576" lon="5.43394">
        <ele>94.6</ele>
        <time>2022-10-04T09:11:09Z</time>
      </trkpt>
      <trkpt lat="50.80581" lon="5.43382">
        <ele>94.2</ele>
        <time>2022-10-04T09:11:10Z</time>
      </trkpt>
      <trkpt lat="50.80592" lon="5.4336">
        <ele>93.6</ele>
        <time>2022-10-04T09:11:12Z</time>
      </trkpt>
      <trkpt lat="50.80607" lon="5.43327">
        <ele>92</ele>
        <time>2022-10-04T09:11:15Z</time>
      </trkpt>
      <trkpt lat="50.80612" lon="5.43316">
        <ele>91.6</ele>
        <time>2022-10-04T09:11:16Z</time>
      </trkpt>
      <trkpt lat="50.80622" lon="5.43295">
        <ele>90.6</ele>
        <time>2022-10-04T09:11:18Z</time>
      </trkpt>
      <trkpt lat="50.80627" lon="5.43284">
        <ele>90.4</ele>
        <time>2022-10-04T09:11:19Z</time>
      </trkpt>
      <trkpt lat="50.80643" lon="5.43249">
        <ele>89.6</ele>
        <time>2022-10-04T09:11:23Z</time>
      </trkpt>
      <trkpt lat="50.80646" lon="5.43244">
        <ele>89.4</ele>
        <time>2022-10-04T09:11:24Z</time>
      </trkpt>
      <trkpt lat="50.80651" lon="5.43236">
        <ele>89.2</ele>
        <time>2022-10-04T09:11:26Z</time>
      </trkpt>
      <trkpt lat="50.80654" lon="5.4323">
        <ele>88.8</ele>
        <time>2022-10-04T09:11:29Z</time>
      </trkpt>
      <trkpt lat="50.80654" lon="5.43226">
        <ele>89</ele>
        <time>2022-10-04T09:11:30Z</time>
      </trkpt>
      <trkpt lat="50.80654" lon="5.43222">
        <ele>89</ele>
        <time>2022-10-04T09:11:31Z</time>
      </trkpt>
      <trkpt lat="50.80652" lon="5.43212">
        <ele>89</ele>
        <time>2022-10-04T09:11:33Z</time>
      </trkpt>
      <trkpt lat="50.8065" lon="5.43205">
        <ele>89</ele>
        <time>2022-10-04T09:11:34Z</time>
      </trkpt>
      <trkpt lat="50.80649" lon="5.43197">
        <ele>88.8</ele>
        <time>2022-10-04T09:11:35Z</time>
      </trkpt>
      <trkpt lat="50.80649" lon="5.4318">
        <ele>89</ele>
        <time>2022-10-04T09:11:37Z</time>
      </trkpt>
      <trkpt lat="50.80648" lon="5.43148">
        <ele>88.8</ele>
        <time>2022-10-04T09:11:40Z</time>
      </trkpt>
      <trkpt lat="50.80647" lon="5.43125">
        <ele>88.6</ele>
        <time>2022-10-04T09:11:42Z</time>
      </trkpt>
      <trkpt lat="50.80647" lon="5.43088">
        <ele>88.4</ele>
        <time>2022-10-04T09:11:45Z</time>
      </trkpt>
      <trkpt lat="50.80646" lon="5.43075">
        <ele>88.4</ele>
        <time>2022-10-04T09:11:46Z</time>
      </trkpt>
      <trkpt lat="50.80641" lon="5.43027">
        <ele>88.2</ele>
        <time>2022-10-04T09:11:50Z</time>
      </trkpt>
      <trkpt lat="50.80639" lon="5.43016">
        <ele>88.2</ele>
        <time>2022-10-04T09:11:51Z</time>
      </trkpt>
      <trkpt lat="50.80637" lon="5.43005">
        <ele>88.2</ele>
        <time>2022-10-04T09:11:52Z</time>
      </trkpt>
      <trkpt lat="50.80631" lon="5.42985">
        <ele>88.4</ele>
        <time>2022-10-04T09:11:54Z</time>
      </trkpt>
      <trkpt lat="50.80625" lon="5.42966">
        <ele>88.4</ele>
        <time>2022-10-04T09:11:56Z</time>
      </trkpt>
      <trkpt lat="50.80619" lon="5.42947">
        <ele>88.6</ele>
        <time>2022-10-04T09:11:58Z</time>
      </trkpt>
      <trkpt lat="50.80609" lon="5.4292">
        <ele>89</ele>
        <time>2022-10-04T09:12:01Z</time>
      </trkpt>
      <trkpt lat="50.80603" lon="5.42904">
        <ele>90</ele>
        <time>2022-10-04T09:12:03Z</time>
      </trkpt>
      <trkpt lat="50.80598" lon="5.42889">
        <ele>91</ele>
        <time>2022-10-04T09:12:05Z</time>
      </trkpt>
      <trkpt lat="50.80589" lon="5.4286">
        <ele>92.4</ele>
        <time>2022-10-04T09:12:09Z</time>
      </trkpt>
      <trkpt lat="50.80581" lon="5.42834">
        <ele>94</ele>
        <time>2022-10-04T09:12:13Z</time>
      </trkpt>
      <trkpt lat="50.80574" lon="5.42815">
        <ele>94.8</ele>
        <time>2022-10-04T09:12:16Z</time>
      </trkpt>
      <trkpt lat="50.80572" lon="5.42808">
        <ele>94.8</ele>
        <time>2022-10-04T09:12:17Z</time>
      </trkpt>
      <trkpt lat="50.80568" lon="5.42795">
        <ele>95.2</ele>
        <time>2022-10-04T09:12:19Z</time>
      </trkpt>
      <trkpt lat="50.80564" lon="5.42782">
        <ele>96</ele>
        <time>2022-10-04T09:12:21Z</time>
      </trkpt>
      <trkpt lat="50.8056" lon="5.4277">
        <ele>96.6</ele>
        <time>2022-10-04T09:12:23Z</time>
      </trkpt>
      <trkpt lat="50.8055" lon="5.42739">
        <ele>97.4</ele>
        <time>2022-10-04T09:12:28Z</time>
      </trkpt>
      <trkpt lat="50.80544" lon="5.4272">
        <ele>97.8</ele>
        <time>2022-10-04T09:12:31Z</time>
      </trkpt>
      <trkpt lat="50.80542" lon="5.42714">
        <ele>98</ele>
        <time>2022-10-04T09:12:32Z</time>
      </trkpt>
      <trkpt lat="50.80532" lon="5.42681">
        <ele>99.2</ele>
        <time>2022-10-04T09:12:37Z</time>
      </trkpt>
      <trkpt lat="50.80521" lon="5.42647">
        <ele>100.4</ele>
        <time>2022-10-04T09:12:42Z</time>
      </trkpt>
      <trkpt lat="50.80509" lon="5.42605">
        <ele>101.8</ele>
        <time>2022-10-04T09:12:48Z</time>
      </trkpt>
      <trkpt lat="50.80501" lon="5.42578">
        <ele>102.4</ele>
        <time>2022-10-04T09:12:52Z</time>
      </trkpt>
      <trkpt lat="50.80495" lon="5.42558">
        <ele>103.2</ele>
        <time>2022-10-04T09:12:55Z</time>
      </trkpt>
      <trkpt lat="50.80484" lon="5.42524">
        <ele>104.4</ele>
        <time>2022-10-04T09:13:00Z</time>
      </trkpt>
      <trkpt lat="50.80473" lon="5.42491">
        <ele>105.4</ele>
        <time>2022-10-04T09:13:05Z</time>
      </trkpt>
      <trkpt lat="50.8047" lon="5.42485">
        <ele>105.6</ele>
        <time>2022-10-04T09:13:06Z</time>
      </trkpt>
      <trkpt lat="50.80454" lon="5.42446">
        <ele>107</ele>
        <time>2022-10-04T09:13:12Z</time>
      </trkpt>
      <trkpt lat="50.80452" lon="5.4244">
        <ele>107</ele>
        <time>2022-10-04T09:13:13Z</time>
      </trkpt>
      <trkpt lat="50.80432" lon="5.42391">
        <ele>108.4</ele>
        <time>2022-10-04T09:13:21Z</time>
      </trkpt>
      <trkpt lat="50.80423" lon="5.42373">
        <ele>108.8</ele>
        <time>2022-10-04T09:13:24Z</time>
      </trkpt>
      <trkpt lat="50.8041" lon="5.42358">
        <ele>109</ele>
        <time>2022-10-04T09:13:27Z</time>
      </trkpt>
      <trkpt lat="50.804" lon="5.4235">
        <ele>109.2</ele>
        <time>2022-10-04T09:13:29Z</time>
      </trkpt>
      <trkpt lat="50.80385" lon="5.42342">
        <ele>109.4</ele>
        <time>2022-10-04T09:13:32Z</time>
      </trkpt>
      <trkpt lat="50.80379" lon="5.42339">
        <ele>109.4</ele>
        <time>2022-10-04T09:13:33Z</time>
      </trkpt>
      <trkpt lat="50.80357" lon="5.42327">
        <ele>109.4</ele>
        <time>2022-10-04T09:13:37Z</time>
      </trkpt>
      <trkpt lat="50.80328" lon="5.42313">
        <ele>109.8</ele>
        <time>2022-10-04T09:13:42Z</time>
      </trkpt>
      <trkpt lat="50.80322" lon="5.4231">
        <ele>110</ele>
        <time>2022-10-04T09:13:43Z</time>
      </trkpt>
      <trkpt lat="50.80279" lon="5.42283">
        <ele>110</ele>
        <time>2022-10-04T09:13:50Z</time>
      </trkpt>
      <trkpt lat="50.80273" lon="5.42277">
        <ele>109.6</ele>
        <time>2022-10-04T09:13:51Z</time>
      </trkpt>
      <trkpt lat="50.80267" lon="5.42269">
        <ele>109.6</ele>
        <time>2022-10-04T09:13:52Z</time>
      </trkpt>
      <trkpt lat="50.80253" lon="5.4224">
        <ele>109.4</ele>
        <time>2022-10-04T09:13:55Z</time>
      </trkpt>
      <trkpt lat="50.80248" lon="5.42216">
        <ele>109.2</ele>
        <time>2022-10-04T09:13:57Z</time>
      </trkpt>
      <trkpt lat="50.80248" lon="5.42204">
        <ele>109.2</ele>
        <time>2022-10-04T09:13:58Z</time>
      </trkpt>
      <trkpt lat="50.80248" lon="5.42191">
        <ele>108.8</ele>
        <time>2022-10-04T09:13:59Z</time>
      </trkpt>
      <trkpt lat="50.80249" lon="5.42179">
        <ele>108.8</ele>
        <time>2022-10-04T09:14:00Z</time>
      </trkpt>
      <trkpt lat="50.80253" lon="5.42154">
        <ele>108</ele>
        <time>2022-10-04T09:14:02Z</time>
      </trkpt>
      <trkpt lat="50.80257" lon="5.42129">
        <ele>107.2</ele>
        <time>2022-10-04T09:14:04Z</time>
      </trkpt>
      <trkpt lat="50.8026" lon="5.42116">
        <ele>106.8</ele>
        <time>2022-10-04T09:14:05Z</time>
      </trkpt>
      <trkpt lat="50.80269" lon="5.42061">
        <ele>106</ele>
        <time>2022-10-04T09:14:09Z</time>
      </trkpt>
      <trkpt lat="50.8027" lon="5.42048">
        <ele>105.8</ele>
        <time>2022-10-04T09:14:10Z</time>
      </trkpt>
      <trkpt lat="50.80271" lon="5.42033">
        <ele>105.2</ele>
        <time>2022-10-04T09:14:11Z</time>
      </trkpt>
      <trkpt lat="50.8027" lon="5.42005">
        <ele>104.4</ele>
        <time>2022-10-04T09:14:13Z</time>
      </trkpt>
      <trkpt lat="50.80268" lon="5.4199">
        <ele>104</ele>
        <time>2022-10-04T09:14:14Z</time>
      </trkpt>
      <trkpt lat="50.80259" lon="5.41935">
        <ele>102.8</ele>
        <time>2022-10-04T09:14:18Z</time>
      </trkpt>
      <trkpt lat="50.80255" lon="5.41907">
        <ele>102</ele>
        <time>2022-10-04T09:14:20Z</time>
      </trkpt>
      <trkpt lat="50.8025" lon="5.41879">
        <ele>101.6</ele>
        <time>2022-10-04T09:14:22Z</time>
      </trkpt>
      <trkpt lat="50.80247" lon="5.41866">
        <ele>101.4</ele>
        <time>2022-10-04T09:14:23Z</time>
      </trkpt>
      <trkpt lat="50.80244" lon="5.41853">
        <ele>100.6</ele>
        <time>2022-10-04T09:14:24Z</time>
      </trkpt>
      <trkpt lat="50.80239" lon="5.41841">
        <ele>100.2</ele>
        <time>2022-10-04T09:14:25Z</time>
      </trkpt>
      <trkpt lat="50.80234" lon="5.4183">
        <ele>99.8</ele>
        <time>2022-10-04T09:14:26Z</time>
      </trkpt>
      <trkpt lat="50.80227" lon="5.4182">
        <ele>99.6</ele>
        <time>2022-10-04T09:14:27Z</time>
      </trkpt>
      <trkpt lat="50.8022" lon="5.41812">
        <ele>99.2</ele>
        <time>2022-10-04T09:14:28Z</time>
      </trkpt>
      <trkpt lat="50.80204" lon="5.41801">
        <ele>98.4</ele>
        <time>2022-10-04T09:14:30Z</time>
      </trkpt>
      <trkpt lat="50.80195" lon="5.41798">
        <ele>98</ele>
        <time>2022-10-04T09:14:31Z</time>
      </trkpt>
      <trkpt lat="50.80185" lon="5.41797">
        <ele>96.6</ele>
        <time>2022-10-04T09:14:32Z</time>
      </trkpt>
      <trkpt lat="50.80176" lon="5.41798">
        <ele>96</ele>
        <time>2022-10-04T09:14:33Z</time>
      </trkpt>
      <trkpt lat="50.80166" lon="5.41802">
        <ele>95.8</ele>
        <time>2022-10-04T09:14:34Z</time>
      </trkpt>
      <trkpt lat="50.80157" lon="5.41809">
        <ele>95.2</ele>
        <time>2022-10-04T09:14:35Z</time>
      </trkpt>
      <trkpt lat="50.80149" lon="5.41818">
        <ele>94.8</ele>
        <time>2022-10-04T09:14:36Z</time>
      </trkpt>
      <trkpt lat="50.80141" lon="5.41829">
        <ele>94.2</ele>
        <time>2022-10-04T09:14:37Z</time>
      </trkpt>
      <trkpt lat="50.80135" lon="5.41842">
        <ele>94</ele>
        <time>2022-10-04T09:14:38Z</time>
      </trkpt>
      <trkpt lat="50.80129" lon="5.41856">
        <ele>93.2</ele>
        <time>2022-10-04T09:14:39Z</time>
      </trkpt>
      <trkpt lat="50.80119" lon="5.41883">
        <ele>92</ele>
        <time>2022-10-04T09:14:41Z</time>
      </trkpt>
      <trkpt lat="50.80108" lon="5.41911">
        <ele>90.8</ele>
        <time>2022-10-04T09:14:43Z</time>
      </trkpt>
      <trkpt lat="50.80103" lon="5.41926">
        <ele>90</ele>
        <time>2022-10-04T09:14:44Z</time>
      </trkpt>
      <trkpt lat="50.80098" lon="5.41941">
        <ele>89.4</ele>
        <time>2022-10-04T09:14:45Z</time>
      </trkpt>
      <trkpt lat="50.80087" lon="5.41971">
        <ele>88.6</ele>
        <time>2022-10-04T09:14:47Z</time>
      </trkpt>
      <trkpt lat="50.80075" lon="5.42001">
        <ele>87.8</ele>
        <time>2022-10-04T09:14:49Z</time>
      </trkpt>
      <trkpt lat="50.80058" lon="5.42025">
        <ele>87.4</ele>
        <time>2022-10-04T09:14:51Z</time>
      </trkpt>
      <trkpt lat="50.80036" lon="5.42041">
        <ele>87</ele>
        <time>2022-10-04T09:14:53Z</time>
      </trkpt>
      <trkpt lat="50.80024" lon="5.42045">
        <ele>86.6</ele>
        <time>2022-10-04T09:14:54Z</time>
      </trkpt>
      <trkpt lat="50.80012" lon="5.42047">
        <ele>85.8</ele>
        <time>2022-10-04T09:14:55Z</time>
      </trkpt>
      <trkpt lat="50.8" lon="5.42044">
        <ele>84.8</ele>
        <time>2022-10-04T09:14:56Z</time>
      </trkpt>
      <trkpt lat="50.79988" lon="5.4204">
        <ele>84</ele>
        <time>2022-10-04T09:14:57Z</time>
      </trkpt>
      <trkpt lat="50.79963" lon="5.4203">
        <ele>82.2</ele>
        <time>2022-10-04T09:14:59Z</time>
      </trkpt>
      <trkpt lat="50.79939" lon="5.4202">
        <ele>80.8</ele>
        <time>2022-10-04T09:15:01Z</time>
      </trkpt>
      <trkpt lat="50.79926" lon="5.42015">
        <ele>80</ele>
        <time>2022-10-04T09:15:02Z</time>
      </trkpt>
      <trkpt lat="50.79914" lon="5.4201">
        <ele>79</ele>
        <time>2022-10-04T09:15:03Z</time>
      </trkpt>
      <trkpt lat="50.7989" lon="5.42001">
        <ele>76.6</ele>
        <time>2022-10-04T09:15:05Z</time>
      </trkpt>
      <trkpt lat="50.79878" lon="5.41997">
        <ele>76</ele>
        <time>2022-10-04T09:15:06Z</time>
      </trkpt>
      <trkpt lat="50.79844" lon="5.41983">
        <ele>74</ele>
        <time>2022-10-04T09:15:09Z</time>
      </trkpt>
      <trkpt lat="50.79833" lon="5.41979">
        <ele>72.8</ele>
        <time>2022-10-04T09:15:10Z</time>
      </trkpt>
      <trkpt lat="50.79823" lon="5.41974">
        <ele>71.8</ele>
        <time>2022-10-04T09:15:11Z</time>
      </trkpt>
      <trkpt lat="50.79775" lon="5.41955">
        <ele>68.8</ele>
        <time>2022-10-04T09:15:16Z</time>
      </trkpt>
      <trkpt lat="50.79766" lon="5.41952">
        <ele>68.8</ele>
        <time>2022-10-04T09:15:17Z</time>
      </trkpt>
      <trkpt lat="50.79733" lon="5.41939">
        <ele>68.8</ele>
        <time>2022-10-04T09:15:21Z</time>
      </trkpt>
      <trkpt lat="50.79725" lon="5.41936">
        <ele>68.8</ele>
        <time>2022-10-04T09:15:22Z</time>
      </trkpt>
      <trkpt lat="50.79717" lon="5.41932">
        <ele>68.8</ele>
        <time>2022-10-04T09:15:23Z</time>
      </trkpt>
      <trkpt lat="50.79692" lon="5.41923">
        <ele>68.8</ele>
        <time>2022-10-04T09:15:26Z</time>
      </trkpt>
      <trkpt lat="50.79684" lon="5.4192">
        <ele>68.8</ele>
        <time>2022-10-04T09:15:27Z</time>
      </trkpt>
      <trkpt lat="50.7966" lon="5.41909">
        <ele>68.8</ele>
        <time>2022-10-04T09:15:30Z</time>
      </trkpt>
      <trkpt lat="50.79653" lon="5.41904">
        <ele>68.8</ele>
        <time>2022-10-04T09:15:31Z</time>
      </trkpt>
      <trkpt lat="50.79646" lon="5.419">
        <ele>68.8</ele>
        <time>2022-10-04T09:15:32Z</time>
      </trkpt>
      <trkpt lat="50.79633" lon="5.41892">
        <ele>69</ele>
        <time>2022-10-04T09:15:34Z</time>
      </trkpt>
      <trkpt lat="50.79616" lon="5.41879">
        <ele>69</ele>
        <time>2022-10-04T09:15:37Z</time>
      </trkpt>
      <trkpt lat="50.796" lon="5.41866">
        <ele>69.8</ele>
        <time>2022-10-04T09:15:40Z</time>
      </trkpt>
      <trkpt lat="50.79589" lon="5.41857">
        <ele>69.8</ele>
        <time>2022-10-04T09:15:42Z</time>
      </trkpt>
      <trkpt lat="50.79574" lon="5.41843">
        <ele>71.2</ele>
        <time>2022-10-04T09:15:45Z</time>
      </trkpt>
      <trkpt lat="50.79568" lon="5.41838">
        <ele>71.8</ele>
        <time>2022-10-04T09:15:46Z</time>
      </trkpt>
      <trkpt lat="50.79553" lon="5.41824">
        <ele>72.6</ele>
        <time>2022-10-04T09:15:49Z</time>
      </trkpt>
      <trkpt lat="50.79544" lon="5.4181">
        <ele>72.6</ele>
        <time>2022-10-04T09:15:51Z</time>
      </trkpt>
      <trkpt lat="50.79535" lon="5.41793">
        <ele>73.2</ele>
        <time>2022-10-04T09:15:53Z</time>
      </trkpt>
      <trkpt lat="50.79519" lon="5.41758">
        <ele>73.8</ele>
        <time>2022-10-04T09:15:57Z</time>
      </trkpt>
      <trkpt lat="50.79492" lon="5.417">
        <ele>74.2</ele>
        <time>2022-10-04T09:16:04Z</time>
      </trkpt>
      <trkpt lat="50.79484" lon="5.41683">
        <ele>74.6</ele>
        <time>2022-10-04T09:16:06Z</time>
      </trkpt>
      <trkpt lat="50.79477" lon="5.41666">
        <ele>75</ele>
        <time>2022-10-04T09:16:08Z</time>
      </trkpt>
      <trkpt lat="50.79469" lon="5.41649">
        <ele>75</ele>
        <time>2022-10-04T09:16:10Z</time>
      </trkpt>
      <trkpt lat="50.79455" lon="5.41617">
        <ele>75.2</ele>
        <time>2022-10-04T09:16:14Z</time>
      </trkpt>
      <trkpt lat="50.79443" lon="5.41592">
        <ele>75.6</ele>
        <time>2022-10-04T09:16:17Z</time>
      </trkpt>
      <trkpt lat="50.79432" lon="5.41569">
        <ele>75.8</ele>
        <time>2022-10-04T09:16:20Z</time>
      </trkpt>
      <trkpt lat="50.79414" lon="5.41541">
        <ele>76</ele>
        <time>2022-10-04T09:16:24Z</time>
      </trkpt>
      <trkpt lat="50.79404" lon="5.41529">
        <ele>76.2</ele>
        <time>2022-10-04T09:16:26Z</time>
      </trkpt>
      <trkpt lat="50.79382" lon="5.41508">
        <ele>76.2</ele>
        <time>2022-10-04T09:16:30Z</time>
      </trkpt>
      <trkpt lat="50.79334" lon="5.41468">
        <ele>77.4</ele>
        <time>2022-10-04T09:16:39Z</time>
      </trkpt>
      <trkpt lat="50.79329" lon="5.41464">
        <ele>77.4</ele>
        <time>2022-10-04T09:16:40Z</time>
      </trkpt>
      <trkpt lat="50.79318" lon="5.41455">
        <ele>77.6</ele>
        <time>2022-10-04T09:16:42Z</time>
      </trkpt>
      <trkpt lat="50.79296" lon="5.41437">
        <ele>77.8</ele>
        <time>2022-10-04T09:16:46Z</time>
      </trkpt>
      <trkpt lat="50.79252" lon="5.41402">
        <ele>79.6</ele>
        <time>2022-10-04T09:16:54Z</time>
      </trkpt>
      <trkpt lat="50.79225" lon="5.4138">
        <ele>79.8</ele>
        <time>2022-10-04T09:16:59Z</time>
      </trkpt>
      <trkpt lat="50.79199" lon="5.41359">
        <ele>80</ele>
        <time>2022-10-04T09:17:04Z</time>
      </trkpt>
      <trkpt lat="50.79156" lon="5.41332">
        <ele>81.2</ele>
        <time>2022-10-04T09:17:12Z</time>
      </trkpt>
      <trkpt lat="50.79151" lon="5.41329">
        <ele>81.4</ele>
        <time>2022-10-04T09:17:13Z</time>
      </trkpt>
      <trkpt lat="50.79106" lon="5.41308">
        <ele>82.6</ele>
        <time>2022-10-04T09:17:21Z</time>
      </trkpt>
      <trkpt lat="50.79078" lon="5.41298">
        <ele>83.6</ele>
        <time>2022-10-04T09:17:26Z</time>
      </trkpt>
      <trkpt lat="50.79049" lon="5.41287">
        <ele>84.2</ele>
        <time>2022-10-04T09:17:31Z</time>
      </trkpt>
      <trkpt lat="50.78996" lon="5.41266">
        <ele>85</ele>
        <time>2022-10-04T09:17:40Z</time>
      </trkpt>
      <trkpt lat="50.7899" lon="5.41264">
        <ele>85.2</ele>
        <time>2022-10-04T09:17:41Z</time>
      </trkpt>
      <trkpt lat="50.78985" lon="5.41262">
        <ele>85.2</ele>
        <time>2022-10-04T09:17:42Z</time>
      </trkpt>
      <trkpt lat="50.78979" lon="5.4126">
        <ele>85.2</ele>
        <time>2022-10-04T09:17:43Z</time>
      </trkpt>
      <trkpt lat="50.78943" lon="5.41241">
        <ele>85.8</ele>
        <time>2022-10-04T09:17:49Z</time>
      </trkpt>
      <trkpt lat="50.78899" lon="5.4121">
        <ele>86.4</ele>
        <time>2022-10-04T09:17:57Z</time>
      </trkpt>
      <trkpt lat="50.78888" lon="5.412">
        <ele>86.4</ele>
        <time>2022-10-04T09:17:59Z</time>
      </trkpt>
      <trkpt lat="50.78854" lon="5.41168">
        <ele>86.8</ele>
        <time>2022-10-04T09:18:06Z</time>
      </trkpt>
      <trkpt lat="50.78832" lon="5.41149">
        <ele>87.8</ele>
        <time>2022-10-04T09:18:11Z</time>
      </trkpt>
      <trkpt lat="50.78828" lon="5.41147">
        <ele>87.8</ele>
        <time>2022-10-04T09:18:12Z</time>
      </trkpt>
      <trkpt lat="50.78819" lon="5.41148">
        <ele>88</ele>
        <time>2022-10-04T09:18:14Z</time>
      </trkpt>
      <trkpt lat="50.78815" lon="5.41152">
        <ele>88</ele>
        <time>2022-10-04T09:18:15Z</time>
      </trkpt>
      <trkpt lat="50.78812" lon="5.41158">
        <ele>88</ele>
        <time>2022-10-04T09:18:16Z</time>
      </trkpt>
      <trkpt lat="50.78807" lon="5.41174">
        <ele>88.2</ele>
        <time>2022-10-04T09:18:18Z</time>
      </trkpt>
      <trkpt lat="50.78793" lon="5.41232">
        <ele>88.4</ele>
        <time>2022-10-04T09:18:24Z</time>
      </trkpt>
      <trkpt lat="50.78784" lon="5.41263">
        <ele>88.6</ele>
        <time>2022-10-04T09:18:27Z</time>
      </trkpt>
      <trkpt lat="50.78773" lon="5.41306">
        <ele>88.4</ele>
        <time>2022-10-04T09:18:31Z</time>
      </trkpt>
      <trkpt lat="50.78768" lon="5.41328">
        <ele>88.2</ele>
        <time>2022-10-04T09:18:33Z</time>
      </trkpt>
      <trkpt lat="50.78763" lon="5.4135">
        <ele>88</ele>
        <time>2022-10-04T09:18:35Z</time>
      </trkpt>
      <trkpt lat="50.78753" lon="5.41393">
        <ele>87.6</ele>
        <time>2022-10-04T09:18:39Z</time>
      </trkpt>
      <trkpt lat="50.78751" lon="5.41404">
        <ele>87.2</ele>
        <time>2022-10-04T09:18:40Z</time>
      </trkpt>
      <trkpt lat="50.78741" lon="5.41447">
        <ele>86.6</ele>
        <time>2022-10-04T09:18:44Z</time>
      </trkpt>
      <trkpt lat="50.7873" lon="5.41504">
        <ele>86</ele>
        <time>2022-10-04T09:18:49Z</time>
      </trkpt>
      <trkpt lat="50.78716" lon="5.41558">
        <ele>85.8</ele>
        <time>2022-10-04T09:18:54Z</time>
      </trkpt>
      <trkpt lat="50.78708" lon="5.41579">
        <ele>85.4</ele>
        <time>2022-10-04T09:18:56Z</time>
      </trkpt>
      <trkpt lat="50.78701" lon="5.416">
        <ele>85</ele>
        <time>2022-10-04T09:18:58Z</time>
      </trkpt>
      <trkpt lat="50.78694" lon="5.41622">
        <ele>85</ele>
        <time>2022-10-04T09:19:00Z</time>
      </trkpt>
      <trkpt lat="50.78684" lon="5.41655">
        <ele>84.6</ele>
        <time>2022-10-04T09:19:03Z</time>
      </trkpt>
      <trkpt lat="50.78681" lon="5.41665">
        <ele>84.6</ele>
        <time>2022-10-04T09:19:04Z</time>
      </trkpt>
      <trkpt lat="50.78659" lon="5.41724">
        <ele>84.4</ele>
        <time>2022-10-04T09:19:10Z</time>
      </trkpt>
      <trkpt lat="50.78656" lon="5.41733">
        <ele>84.4</ele>
        <time>2022-10-04T09:19:11Z</time>
      </trkpt>
      <trkpt lat="50.78644" lon="5.41772">
        <ele>84.6</ele>
        <time>2022-10-04T09:19:15Z</time>
      </trkpt>
      <trkpt lat="50.78642" lon="5.41781">
        <ele>84.8</ele>
        <time>2022-10-04T09:19:16Z</time>
      </trkpt>
      <trkpt lat="50.7863" lon="5.41827">
        <ele>85.6</ele>
        <time>2022-10-04T09:19:21Z</time>
      </trkpt>
      <trkpt lat="50.78629" lon="5.41837">
        <ele>86</ele>
        <time>2022-10-04T09:19:22Z</time>
      </trkpt>
      <trkpt lat="50.78628" lon="5.41846">
        <ele>86.2</ele>
        <time>2022-10-04T09:19:23Z</time>
      </trkpt>
      <trkpt lat="50.78625" lon="5.41865">
        <ele>87</ele>
        <time>2022-10-04T09:19:25Z</time>
      </trkpt>
      <trkpt lat="50.78621" lon="5.41902">
        <ele>87.4</ele>
        <time>2022-10-04T09:19:29Z</time>
      </trkpt>
      <trkpt lat="50.78619" lon="5.41917">
        <ele>87.6</ele>
        <time>2022-10-04T09:19:31Z</time>
      </trkpt>
      <trkpt lat="50.78615" lon="5.41937">
        <ele>88</ele>
        <time>2022-10-04T09:19:34Z</time>
      </trkpt>
      <trkpt lat="50.78605" lon="5.4197">
        <ele>89.2</ele>
        <time>2022-10-04T09:19:40Z</time>
      </trkpt>
      <trkpt lat="50.78595" lon="5.42001">
        <ele>90</ele>
        <time>2022-10-04T09:19:46Z</time>
      </trkpt>
      <trkpt lat="50.78589" lon="5.42016">
        <ele>90</ele>
        <time>2022-10-04T09:19:49Z</time>
      </trkpt>
      <trkpt lat="50.78586" lon="5.42022">
        <ele>90</ele>
        <time>2022-10-04T09:19:51Z</time>
      </trkpt>
      <trkpt lat="50.78584" lon="5.42024">
        <ele>90.2</ele>
        <time>2022-10-04T09:19:53Z</time>
      </trkpt>
      <trkpt lat="50.78584" lon="5.42019">
        <ele>90.2</ele>
        <time>2022-10-04T09:21:23Z</time>
      </trkpt>
      <trkpt lat="50.78586" lon="5.42015">
        <ele>90.2</ele>
        <time>2022-10-04T09:21:24Z</time>
      </trkpt>
      <trkpt lat="50.78588" lon="5.4201">
        <ele>90.2</ele>
        <time>2022-10-04T09:21:25Z</time>
      </trkpt>
      <trkpt lat="50.78589" lon="5.42004">
        <ele>90</ele>
        <time>2022-10-04T09:21:26Z</time>
      </trkpt>
      <trkpt lat="50.78587" lon="5.41993">
        <ele>90</ele>
        <time>2022-10-04T09:21:28Z</time>
      </trkpt>
      <trkpt lat="50.78584" lon="5.41989">
        <ele>90</ele>
        <time>2022-10-04T09:21:29Z</time>
      </trkpt>
      <trkpt lat="50.78577" lon="5.41982">
        <ele>90</ele>
        <time>2022-10-04T09:21:31Z</time>
      </trkpt>
      <trkpt lat="50.78573" lon="5.41978">
        <ele>89.8</ele>
        <time>2022-10-04T09:21:32Z</time>
      </trkpt>
      <trkpt lat="50.7856" lon="5.41964">
        <ele>89.8</ele>
        <time>2022-10-04T09:21:35Z</time>
      </trkpt>
      <trkpt lat="50.78551" lon="5.41955">
        <ele>89.8</ele>
        <time>2022-10-04T09:21:37Z</time>
      </trkpt>
      <trkpt lat="50.78532" lon="5.4194">
        <ele>90.2</ele>
        <time>2022-10-04T09:21:41Z</time>
      </trkpt>
      <trkpt lat="50.78515" lon="5.41928">
        <ele>90.6</ele>
        <time>2022-10-04T09:21:45Z</time>
      </trkpt>
      <trkpt lat="50.78504" lon="5.41919">
        <ele>91.2</ele>
        <time>2022-10-04T09:21:48Z</time>
      </trkpt>
      <trkpt lat="50.785" lon="5.41916">
        <ele>91.2</ele>
        <time>2022-10-04T09:21:49Z</time>
      </trkpt>
      <trkpt lat="50.78487" lon="5.41907">
        <ele>91.6</ele>
        <time>2022-10-04T09:21:52Z</time>
      </trkpt>
      <trkpt lat="50.78479" lon="5.41901">
        <ele>92.4</ele>
        <time>2022-10-04T09:21:54Z</time>
      </trkpt>
      <trkpt lat="50.78471" lon="5.41895">
        <ele>93.2</ele>
        <time>2022-10-04T09:21:56Z</time>
      </trkpt>
      <trkpt lat="50.78466" lon="5.41892">
        <ele>93.6</ele>
        <time>2022-10-04T09:21:57Z</time>
      </trkpt>
      <trkpt lat="50.78443" lon="5.41879">
        <ele>94.4</ele>
        <time>2022-10-04T09:22:02Z</time>
      </trkpt>
      <trkpt lat="50.78438" lon="5.41877">
        <ele>94.4</ele>
        <time>2022-10-04T09:22:03Z</time>
      </trkpt>
      <trkpt lat="50.78413" lon="5.41869">
        <ele>95.4</ele>
        <time>2022-10-04T09:22:08Z</time>
      </trkpt>
      <trkpt lat="50.78408" lon="5.41869">
        <ele>95.4</ele>
        <time>2022-10-04T09:22:09Z</time>
      </trkpt>
      <trkpt lat="50.78375" lon="5.41865">
        <ele>96.8</ele>
        <time>2022-10-04T09:22:16Z</time>
      </trkpt>
      <trkpt lat="50.78366" lon="5.41864">
        <ele>96.8</ele>
        <time>2022-10-04T09:22:18Z</time>
      </trkpt>
      <trkpt lat="50.78346" lon="5.41858">
        <ele>97</ele>
        <time>2022-10-04T09:22:22Z</time>
      </trkpt>
      <trkpt lat="50.78316" lon="5.41854">
        <ele>97.4</ele>
        <time>2022-10-04T09:22:27Z</time>
      </trkpt>
      <trkpt lat="50.78304" lon="5.41852">
        <ele>97.2</ele>
        <time>2022-10-04T09:22:29Z</time>
      </trkpt>
      <trkpt lat="50.78297" lon="5.41852">
        <ele>97.2</ele>
        <time>2022-10-04T09:22:30Z</time>
      </trkpt>
      <trkpt lat="50.78264" lon="5.41848">
        <ele>97</ele>
        <time>2022-10-04T09:22:35Z</time>
      </trkpt>
      <trkpt lat="50.7821" lon="5.41844">
        <ele>94.8</ele>
        <time>2022-10-04T09:22:43Z</time>
      </trkpt>
      <trkpt lat="50.78173" lon="5.41843">
        <ele>94.2</ele>
        <time>2022-10-04T09:22:49Z</time>
      </trkpt>
      <trkpt lat="50.78159" lon="5.4184">
        <ele>94.2</ele>
        <time>2022-10-04T09:22:53Z</time>
      </trkpt>
      <trkpt lat="50.78156" lon="5.41838">
        <ele>94.2</ele>
        <time>2022-10-04T09:22:56Z</time>
      </trkpt>
      <trkpt lat="50.78152" lon="5.41838">
        <ele>95</ele>
        <time>2022-10-04T09:23:11Z</time>
      </trkpt>
      <trkpt lat="50.7815" lon="5.41838">
        <ele>95.2</ele>
        <time>2022-10-04T09:23:12Z</time>
      </trkpt>
      <trkpt lat="50.78148" lon="5.41838">
        <ele>95.2</ele>
        <time>2022-10-04T09:23:13Z</time>
      </trkpt>
      <trkpt lat="50.78137" lon="5.41835">
        <ele>95.2</ele>
        <time>2022-10-04T09:23:16Z</time>
      </trkpt>
      <trkpt lat="50.78117" lon="5.41821">
        <ele>94.8</ele>
        <time>2022-10-04T09:23:20Z</time>
      </trkpt>
      <trkpt lat="50.78105" lon="5.41813">
        <ele>94</ele>
        <time>2022-10-04T09:23:22Z</time>
      </trkpt>
      <trkpt lat="50.78092" lon="5.41804">
        <ele>93.8</ele>
        <time>2022-10-04T09:23:24Z</time>
      </trkpt>
      <trkpt lat="50.78073" lon="5.4179">
        <ele>92.6</ele>
        <time>2022-10-04T09:23:27Z</time>
      </trkpt>
      <trkpt lat="50.78033" lon="5.41761">
        <ele>90</ele>
        <time>2022-10-04T09:23:33Z</time>
      </trkpt>
      <trkpt lat="50.78014" lon="5.41747">
        <ele>89.4</ele>
        <time>2022-10-04T09:23:36Z</time>
      </trkpt>
      <trkpt lat="50.77994" lon="5.41736">
        <ele>88.6</ele>
        <time>2022-10-04T09:23:39Z</time>
      </trkpt>
      <trkpt lat="50.77975" lon="5.41729">
        <ele>88.2</ele>
        <time>2022-10-04T09:23:42Z</time>
      </trkpt>
      <trkpt lat="50.77954" lon="5.41725">
        <ele>88.2</ele>
        <time>2022-10-04T09:23:46Z</time>
      </trkpt>
      <trkpt lat="50.77951" lon="5.41724">
        <ele>88.2</ele>
        <time>2022-10-04T09:23:47Z</time>
      </trkpt>
      <trkpt lat="50.77947" lon="5.41724">
        <ele>88.4</ele>
        <time>2022-10-04T09:23:51Z</time>
      </trkpt>
      <trkpt lat="50.77948" lon="5.41727">
        <ele>89.8</ele>
        <time>2022-10-04T09:24:08Z</time>
      </trkpt>
      <trkpt lat="50.77952" lon="5.41728">
        <ele>89.8</ele>
        <time>2022-10-04T09:24:10Z</time>
      </trkpt>
      <trkpt lat="50.77964" lon="5.41729">
        <ele>90</ele>
        <time>2022-10-04T09:24:14Z</time>
      </trkpt>
      <trkpt lat="50.77989" lon="5.41737">
        <ele>89.8</ele>
        <time>2022-10-04T09:24:19Z</time>
      </trkpt>
      <trkpt lat="50.7803" lon="5.41761">
        <ele>89.8</ele>
        <time>2022-10-04T09:24:26Z</time>
      </trkpt>
      <trkpt lat="50.78081" lon="5.41799">
        <ele>89.8</ele>
        <time>2022-10-04T09:24:35Z</time>
      </trkpt>
      <trkpt lat="50.78098" lon="5.41812">
        <ele>90.2</ele>
        <time>2022-10-04T09:24:38Z</time>
      </trkpt>
      <trkpt lat="50.78116" lon="5.41825">
        <ele>90.6</ele>
        <time>2022-10-04T09:24:41Z</time>
      </trkpt>
      <trkpt lat="50.78126" lon="5.41832">
        <ele>91</ele>
        <time>2022-10-04T09:24:43Z</time>
      </trkpt>
      <trkpt lat="50.78131" lon="5.41835">
        <ele>90.8</ele>
        <time>2022-10-04T09:24:44Z</time>
      </trkpt>
      <trkpt lat="50.78141" lon="5.41845">
        <ele>91.4</ele>
        <time>2022-10-04T09:24:47Z</time>
      </trkpt>
      <trkpt lat="50.78143" lon="5.4185">
        <ele>91.4</ele>
        <time>2022-10-04T09:24:48Z</time>
      </trkpt>
      <trkpt lat="50.7814" lon="5.41862">
        <ele>91.8</ele>
        <time>2022-10-04T09:24:50Z</time>
      </trkpt>
      <trkpt lat="50.78126" lon="5.41913">
        <ele>94.2</ele>
        <time>2022-10-04T09:24:57Z</time>
      </trkpt>
      <trkpt lat="50.78116" lon="5.41951">
        <ele>94.8</ele>
        <time>2022-10-04T09:25:02Z</time>
      </trkpt>
      <trkpt lat="50.78111" lon="5.4197">
        <ele>94.8</ele>
        <time>2022-10-04T09:25:05Z</time>
      </trkpt>
      <trkpt lat="50.78109" lon="5.41975">
        <ele>95</ele>
        <time>2022-10-04T09:25:06Z</time>
      </trkpt>
      <trkpt lat="50.78103" lon="5.41987">
        <ele>95.2</ele>
        <time>2022-10-04T09:25:08Z</time>
      </trkpt>
      <trkpt lat="50.78101" lon="5.41994">
        <ele>95.2</ele>
        <time>2022-10-04T09:25:09Z</time>
      </trkpt>
      <trkpt lat="50.78096" lon="5.4201">
        <ele>95.4</ele>
        <time>2022-10-04T09:25:11Z</time>
      </trkpt>
      <trkpt lat="50.78094" lon="5.42018">
        <ele>95.4</ele>
        <time>2022-10-04T09:25:12Z</time>
      </trkpt>
      <trkpt lat="50.78091" lon="5.42044">
        <ele>96</ele>
        <time>2022-10-04T09:25:15Z</time>
      </trkpt>
      <trkpt lat="50.78089" lon="5.42052">
        <ele>96.2</ele>
        <time>2022-10-04T09:25:16Z</time>
      </trkpt>
      <trkpt lat="50.78082" lon="5.42077">
        <ele>96.4</ele>
        <time>2022-10-04T09:25:19Z</time>
      </trkpt>
      <trkpt lat="50.7808" lon="5.42086">
        <ele>96.4</ele>
        <time>2022-10-04T09:25:20Z</time>
      </trkpt>
      <trkpt lat="50.78061" lon="5.42155">
        <ele>98</ele>
        <time>2022-10-04T09:25:28Z</time>
      </trkpt>
      <trkpt lat="50.78052" lon="5.4219">
        <ele>98.4</ele>
        <time>2022-10-04T09:25:32Z</time>
      </trkpt>
      <trkpt lat="50.7804" lon="5.42233">
        <ele>99.2</ele>
        <time>2022-10-04T09:25:37Z</time>
      </trkpt>
      <trkpt lat="50.78028" lon="5.42277">
        <ele>100</ele>
        <time>2022-10-04T09:25:42Z</time>
      </trkpt>
      <trkpt lat="50.78026" lon="5.42286">
        <ele>100</ele>
        <time>2022-10-04T09:25:43Z</time>
      </trkpt>
      <trkpt lat="50.78014" lon="5.42329">
        <ele>100.8</ele>
        <time>2022-10-04T09:25:48Z</time>
      </trkpt>
      <trkpt lat="50.78008" lon="5.42354">
        <ele>102</ele>
        <time>2022-10-04T09:25:51Z</time>
      </trkpt>
      <trkpt lat="50.78001" lon="5.4238">
        <ele>102.4</ele>
        <time>2022-10-04T09:25:54Z</time>
      </trkpt>
      <trkpt lat="50.77991" lon="5.42414">
        <ele>103.6</ele>
        <time>2022-10-04T09:25:58Z</time>
      </trkpt>
      <trkpt lat="50.77984" lon="5.4244">
        <ele>104.2</ele>
        <time>2022-10-04T09:26:01Z</time>
      </trkpt>
      <trkpt lat="50.77972" lon="5.42484">
        <ele>104.6</ele>
        <time>2022-10-04T09:26:06Z</time>
      </trkpt>
      <trkpt lat="50.77951" lon="5.42565">
        <ele>105.8</ele>
        <time>2022-10-04T09:26:15Z</time>
      </trkpt>
      <trkpt lat="50.77944" lon="5.42593">
        <ele>106</ele>
        <time>2022-10-04T09:26:18Z</time>
      </trkpt>
      <trkpt lat="50.77936" lon="5.42621">
        <ele>106</ele>
        <time>2022-10-04T09:26:21Z</time>
      </trkpt>
      <trkpt lat="50.77927" lon="5.42657">
        <ele>106</ele>
        <time>2022-10-04T09:26:25Z</time>
      </trkpt>
      <trkpt lat="50.77922" lon="5.42674">
        <ele>106</ele>
        <time>2022-10-04T09:26:27Z</time>
      </trkpt>
      <trkpt lat="50.77918" lon="5.42682">
        <ele>106.2</ele>
        <time>2022-10-04T09:26:28Z</time>
      </trkpt>
      <trkpt lat="50.77914" lon="5.42689">
        <ele>106</ele>
        <time>2022-10-04T09:26:29Z</time>
      </trkpt>
      <trkpt lat="50.77911" lon="5.42699">
        <ele>106</ele>
        <time>2022-10-04T09:26:30Z</time>
      </trkpt>
      <trkpt lat="50.7789" lon="5.42777">
        <ele>106</ele>
        <time>2022-10-04T09:26:38Z</time>
      </trkpt>
      <trkpt lat="50.7787" lon="5.42857">
        <ele>105.8</ele>
        <time>2022-10-04T09:26:46Z</time>
      </trkpt>
      <trkpt lat="50.77859" lon="5.42897">
        <ele>105.8</ele>
        <time>2022-10-04T09:26:50Z</time>
      </trkpt>
      <trkpt lat="50.77846" lon="5.42945">
        <ele>106.2</ele>
        <time>2022-10-04T09:26:55Z</time>
      </trkpt>
      <trkpt lat="50.77834" lon="5.42995">
        <ele>106.4</ele>
        <time>2022-10-04T09:27:00Z</time>
      </trkpt>
      <trkpt lat="50.77826" lon="5.43025">
        <ele>106.6</ele>
        <time>2022-10-04T09:27:03Z</time>
      </trkpt>
      <trkpt lat="50.77823" lon="5.43036">
        <ele>106.8</ele>
        <time>2022-10-04T09:27:04Z</time>
      </trkpt>
      <trkpt lat="50.77818" lon="5.43056">
        <ele>106.8</ele>
        <time>2022-10-04T09:27:06Z</time>
      </trkpt>
      <trkpt lat="50.77812" lon="5.43077">
        <ele>107.4</ele>
        <time>2022-10-04T09:27:08Z</time>
      </trkpt>
      <trkpt lat="50.77806" lon="5.43098">
        <ele>107.8</ele>
        <time>2022-10-04T09:27:10Z</time>
      </trkpt>
      <trkpt lat="50.77793" lon="5.43151">
        <ele>108.4</ele>
        <time>2022-10-04T09:27:15Z</time>
      </trkpt>
      <trkpt lat="50.77784" lon="5.43183">
        <ele>108.4</ele>
        <time>2022-10-04T09:27:18Z</time>
      </trkpt>
      <trkpt lat="50.77782" lon="5.43194">
        <ele>108.4</ele>
        <time>2022-10-04T09:27:19Z</time>
      </trkpt>
      <trkpt lat="50.77779" lon="5.43215">
        <ele>108.8</ele>
        <time>2022-10-04T09:27:21Z</time>
      </trkpt>
      <trkpt lat="50.77779" lon="5.43225">
        <ele>108.8</ele>
        <time>2022-10-04T09:27:22Z</time>
      </trkpt>
      <trkpt lat="50.77778" lon="5.43236">
        <ele>108.8</ele>
        <time>2022-10-04T09:27:23Z</time>
      </trkpt>
      <trkpt lat="50.77772" lon="5.43267">
        <ele>109</ele>
        <time>2022-10-04T09:27:26Z</time>
      </trkpt>
      <trkpt lat="50.7776" lon="5.43331">
        <ele>109.4</ele>
        <time>2022-10-04T09:27:32Z</time>
      </trkpt>
      <trkpt lat="50.77755" lon="5.43353">
        <ele>109.4</ele>
        <time>2022-10-04T09:27:34Z</time>
      </trkpt>
      <trkpt lat="50.77749" lon="5.43388">
        <ele>109.4</ele>
        <time>2022-10-04T09:27:37Z</time>
      </trkpt>
      <trkpt lat="50.77747" lon="5.434">
        <ele>109.4</ele>
        <time>2022-10-04T09:27:38Z</time>
      </trkpt>
      <trkpt lat="50.77743" lon="5.43424">
        <ele>109.4</ele>
        <time>2022-10-04T09:27:40Z</time>
      </trkpt>
      <trkpt lat="50.77736" lon="5.43472">
        <ele>109</ele>
        <time>2022-10-04T09:27:44Z</time>
      </trkpt>
      <trkpt lat="50.77732" lon="5.43495">
        <ele>108.6</ele>
        <time>2022-10-04T09:27:46Z</time>
      </trkpt>
      <trkpt lat="50.77731" lon="5.43506">
        <ele>108.4</ele>
        <time>2022-10-04T09:27:47Z</time>
      </trkpt>
      <trkpt lat="50.77723" lon="5.43564">
        <ele>107.6</ele>
        <time>2022-10-04T09:27:52Z</time>
      </trkpt>
      <trkpt lat="50.77711" lon="5.43654">
        <ele>106.2</ele>
        <time>2022-10-04T09:27:59Z</time>
      </trkpt>
      <trkpt lat="50.7771" lon="5.43667">
        <ele>106</ele>
        <time>2022-10-04T09:28:00Z</time>
      </trkpt>
      <trkpt lat="50.77708" lon="5.43679">
        <ele>105.6</ele>
        <time>2022-10-04T09:28:01Z</time>
      </trkpt>
      <trkpt lat="50.77706" lon="5.43691">
        <ele>105.6</ele>
        <time>2022-10-04T09:28:02Z</time>
      </trkpt>
      <trkpt lat="50.77701" lon="5.43744">
        <ele>105.2</ele>
        <time>2022-10-04T09:28:06Z</time>
      </trkpt>
      <trkpt lat="50.77699" lon="5.43758">
        <ele>105</ele>
        <time>2022-10-04T09:28:07Z</time>
      </trkpt>
      <trkpt lat="50.77697" lon="5.43786">
        <ele>104.6</ele>
        <time>2022-10-04T09:28:09Z</time>
      </trkpt>
      <trkpt lat="50.7769" lon="5.43874">
        <ele>103.8</ele>
        <time>2022-10-04T09:28:15Z</time>
      </trkpt>
      <trkpt lat="50.77689" lon="5.43889">
        <ele>103.6</ele>
        <time>2022-10-04T09:28:16Z</time>
      </trkpt>
      <trkpt lat="50.77685" lon="5.43978">
        <ele>102.6</ele>
        <time>2022-10-04T09:28:22Z</time>
      </trkpt>
      <trkpt lat="50.77684" lon="5.44006">
        <ele>102.4</ele>
        <time>2022-10-04T09:28:24Z</time>
      </trkpt>
      <trkpt lat="50.77683" lon="5.44049">
        <ele>101.4</ele>
        <time>2022-10-04T09:28:27Z</time>
      </trkpt>
      <trkpt lat="50.77682" lon="5.44076">
        <ele>101.4</ele>
        <time>2022-10-04T09:28:29Z</time>
      </trkpt>
      <trkpt lat="50.77682" lon="5.4413">
        <ele>100.8</ele>
        <time>2022-10-04T09:28:33Z</time>
      </trkpt>
      <trkpt lat="50.77682" lon="5.44169">
        <ele>100.8</ele>
        <time>2022-10-04T09:28:36Z</time>
      </trkpt>
      <trkpt lat="50.77685" lon="5.44251">
        <ele>100.6</ele>
        <time>2022-10-04T09:28:42Z</time>
      </trkpt>
      <trkpt lat="50.77687" lon="5.44292">
        <ele>99.8</ele>
        <time>2022-10-04T09:28:45Z</time>
      </trkpt>
      <trkpt lat="50.77689" lon="5.44318">
        <ele>99.4</ele>
        <time>2022-10-04T09:28:47Z</time>
      </trkpt>
      <trkpt lat="50.77691" lon="5.44359">
        <ele>99</ele>
        <time>2022-10-04T09:28:50Z</time>
      </trkpt>
      <trkpt lat="50.77694" lon="5.44385">
        <ele>98.8</ele>
        <time>2022-10-04T09:28:52Z</time>
      </trkpt>
      <trkpt lat="50.77697" lon="5.44423">
        <ele>99</ele>
        <time>2022-10-04T09:28:55Z</time>
      </trkpt>
      <trkpt lat="50.77698" lon="5.44436">
        <ele>99</ele>
        <time>2022-10-04T09:28:56Z</time>
      </trkpt>
      <trkpt lat="50.77704" lon="5.44484">
        <ele>99</ele>
        <time>2022-10-04T09:29:00Z</time>
      </trkpt>
      <trkpt lat="50.77705" lon="5.44495">
        <ele>99.2</ele>
        <time>2022-10-04T09:29:01Z</time>
      </trkpt>
      <trkpt lat="50.77715" lon="5.44569">
        <ele>99.8</ele>
        <time>2022-10-04T09:29:08Z</time>
      </trkpt>
      <trkpt lat="50.77724" lon="5.44622">
        <ele>99.8</ele>
        <time>2022-10-04T09:29:13Z</time>
      </trkpt>
      <trkpt lat="50.77729" lon="5.44655">
        <ele>99.8</ele>
        <time>2022-10-04T09:29:16Z</time>
      </trkpt>
      <trkpt lat="50.77745" lon="5.44742">
        <ele>100</ele>
        <time>2022-10-04T09:29:24Z</time>
      </trkpt>
      <trkpt lat="50.77748" lon="5.44763">
        <ele>100</ele>
        <time>2022-10-04T09:29:26Z</time>
      </trkpt>
      <trkpt lat="50.77757" lon="5.44805">
        <ele>100</ele>
        <time>2022-10-04T09:29:31Z</time>
      </trkpt>
      <trkpt lat="50.77759" lon="5.4483">
        <ele>100.6</ele>
        <time>2022-10-04T09:29:36Z</time>
      </trkpt>
      <trkpt lat="50.77759" lon="5.44839">
        <ele>101</ele>
        <time>2022-10-04T09:29:40Z</time>
      </trkpt>
      <trkpt lat="50.7776" lon="5.44844">
        <ele>101.2</ele>
        <time>2022-10-04T09:30:00Z</time>
      </trkpt>
      <trkpt lat="50.77761" lon="5.44847">
        <ele>100.8</ele>
        <time>2022-10-04T09:30:01Z</time>
      </trkpt>
      <trkpt lat="50.77763" lon="5.44861">
        <ele>101</ele>
        <time>2022-10-04T09:30:04Z</time>
      </trkpt>
      <trkpt lat="50.77764" lon="5.44867">
        <ele>100.8</ele>
        <time>2022-10-04T09:30:05Z</time>
      </trkpt>
      <trkpt lat="50.77771" lon="5.44894">
        <ele>100.8</ele>
        <time>2022-10-04T09:30:09Z</time>
      </trkpt>
      <trkpt lat="50.77772" lon="5.44901">
        <ele>100.6</ele>
        <time>2022-10-04T09:30:10Z</time>
      </trkpt>
      <trkpt lat="50.77781" lon="5.44945">
        <ele>100.2</ele>
        <time>2022-10-04T09:30:15Z</time>
      </trkpt>
      <trkpt lat="50.77784" lon="5.44954">
        <ele>100.4</ele>
        <time>2022-10-04T09:30:16Z</time>
      </trkpt>
      <trkpt lat="50.77798" lon="5.45013">
        <ele>100</ele>
        <time>2022-10-04T09:30:22Z</time>
      </trkpt>
      <trkpt lat="50.77805" lon="5.45045">
        <ele>100</ele>
        <time>2022-10-04T09:30:25Z</time>
      </trkpt>
      <trkpt lat="50.77812" lon="5.45078">
        <ele>100.2</ele>
        <time>2022-10-04T09:30:28Z</time>
      </trkpt>
      <trkpt lat="50.77814" lon="5.45088">
        <ele>100.2</ele>
        <time>2022-10-04T09:30:29Z</time>
      </trkpt>
      <trkpt lat="50.77816" lon="5.45099">
        <ele>100.2</ele>
        <time>2022-10-04T09:30:30Z</time>
      </trkpt>
      <trkpt lat="50.7782" lon="5.4512">
        <ele>100.2</ele>
        <time>2022-10-04T09:30:32Z</time>
      </trkpt>
      <trkpt lat="50.77829" lon="5.45163">
        <ele>100.2</ele>
        <time>2022-10-04T09:30:36Z</time>
      </trkpt>
      <trkpt lat="50.77835" lon="5.45196">
        <ele>100.2</ele>
        <time>2022-10-04T09:30:39Z</time>
      </trkpt>
      <trkpt lat="50.77837" lon="5.45206">
        <ele>100.2</ele>
        <time>2022-10-04T09:30:40Z</time>
      </trkpt>
      <trkpt lat="50.77844" lon="5.45238">
        <ele>100.4</ele>
        <time>2022-10-04T09:30:43Z</time>
      </trkpt>
      <trkpt lat="50.77848" lon="5.4526">
        <ele>100.4</ele>
        <time>2022-10-04T09:30:45Z</time>
      </trkpt>
      <trkpt lat="50.77853" lon="5.45282">
        <ele>100.4</ele>
        <time>2022-10-04T09:30:47Z</time>
      </trkpt>
      <trkpt lat="50.77857" lon="5.45303">
        <ele>100.2</ele>
        <time>2022-10-04T09:30:49Z</time>
      </trkpt>
      <trkpt lat="50.77859" lon="5.45314">
        <ele>100.4</ele>
        <time>2022-10-04T09:30:50Z</time>
      </trkpt>
      <trkpt lat="50.77863" lon="5.45336">
        <ele>100.4</ele>
        <time>2022-10-04T09:30:52Z</time>
      </trkpt>
      <trkpt lat="50.77865" lon="5.45347">
        <ele>100.4</ele>
        <time>2022-10-04T09:30:53Z</time>
      </trkpt>
      <trkpt lat="50.77872" lon="5.45379">
        <ele>100.8</ele>
        <time>2022-10-04T09:30:56Z</time>
      </trkpt>
      <trkpt lat="50.77885" lon="5.45442">
        <ele>101.2</ele>
        <time>2022-10-04T09:31:02Z</time>
      </trkpt>
      <trkpt lat="50.77887" lon="5.45452">
        <ele>101.6</ele>
        <time>2022-10-04T09:31:03Z</time>
      </trkpt>
      <trkpt lat="50.77898" lon="5.45512">
        <ele>102.4</ele>
        <time>2022-10-04T09:31:09Z</time>
      </trkpt>
      <trkpt lat="50.77901" lon="5.45522">
        <ele>102.4</ele>
        <time>2022-10-04T09:31:10Z</time>
      </trkpt>
      <trkpt lat="50.7791" lon="5.4557">
        <ele>103.4</ele>
        <time>2022-10-04T09:31:15Z</time>
      </trkpt>
      <trkpt lat="50.77912" lon="5.45579">
        <ele>103.8</ele>
        <time>2022-10-04T09:31:16Z</time>
      </trkpt>
      <trkpt lat="50.77914" lon="5.45588">
        <ele>104</ele>
        <time>2022-10-04T09:31:17Z</time>
      </trkpt>
      <trkpt lat="50.77917" lon="5.45607">
        <ele>104.2</ele>
        <time>2022-10-04T09:31:19Z</time>
      </trkpt>
      <trkpt lat="50.77919" lon="5.45616">
        <ele>104.4</ele>
        <time>2022-10-04T09:31:20Z</time>
      </trkpt>
      <trkpt lat="50.77928" lon="5.45652">
        <ele>105.2</ele>
        <time>2022-10-04T09:31:24Z</time>
      </trkpt>
      <trkpt lat="50.77944" lon="5.45736">
        <ele>106.8</ele>
        <time>2022-10-04T09:31:33Z</time>
      </trkpt>
      <trkpt lat="50.77946" lon="5.45745">
        <ele>106.8</ele>
        <time>2022-10-04T09:31:34Z</time>
      </trkpt>
      <trkpt lat="50.77956" lon="5.45799">
        <ele>107.4</ele>
        <time>2022-10-04T09:31:40Z</time>
      </trkpt>
      <trkpt lat="50.77959" lon="5.45817">
        <ele>107.6</ele>
        <time>2022-10-04T09:31:42Z</time>
      </trkpt>
      <trkpt lat="50.77961" lon="5.45826">
        <ele>107.8</ele>
        <time>2022-10-04T09:31:43Z</time>
      </trkpt>
      <trkpt lat="50.77963" lon="5.45835">
        <ele>108</ele>
        <time>2022-10-04T09:31:44Z</time>
      </trkpt>
      <trkpt lat="50.77965" lon="5.45853">
        <ele>108.4</ele>
        <time>2022-10-04T09:31:46Z</time>
      </trkpt>
      <trkpt lat="50.77967" lon="5.45862">
        <ele>108.4</ele>
        <time>2022-10-04T09:31:47Z</time>
      </trkpt>
      <trkpt lat="50.77974" lon="5.45896">
        <ele>108.8</ele>
        <time>2022-10-04T09:31:51Z</time>
      </trkpt>
      <trkpt lat="50.77979" lon="5.45922">
        <ele>109</ele>
        <time>2022-10-04T09:31:54Z</time>
      </trkpt>
      <trkpt lat="50.77986" lon="5.45948">
        <ele>109.2</ele>
        <time>2022-10-04T09:31:57Z</time>
      </trkpt>
      <trkpt lat="50.77989" lon="5.45966">
        <ele>109.6</ele>
        <time>2022-10-04T09:31:59Z</time>
      </trkpt>
      <trkpt lat="50.77994" lon="5.46">
        <ele>109.8</ele>
        <time>2022-10-04T09:32:03Z</time>
      </trkpt>
      <trkpt lat="50.78001" lon="5.46042">
        <ele>110</ele>
        <time>2022-10-04T09:32:08Z</time>
      </trkpt>
      <trkpt lat="50.78003" lon="5.46049">
        <ele>110</ele>
        <time>2022-10-04T09:32:09Z</time>
      </trkpt>
      <trkpt lat="50.78005" lon="5.46064">
        <ele>110.2</ele>
        <time>2022-10-04T09:32:11Z</time>
      </trkpt>
      <trkpt lat="50.78009" lon="5.46086">
        <ele>110.2</ele>
        <time>2022-10-04T09:32:14Z</time>
      </trkpt>
      <trkpt lat="50.78015" lon="5.461">
        <ele>110.4</ele>
        <time>2022-10-04T09:32:16Z</time>
      </trkpt>
      <trkpt lat="50.78024" lon="5.46119">
        <ele>110.6</ele>
        <time>2022-10-04T09:32:19Z</time>
      </trkpt>
      <trkpt lat="50.7803" lon="5.46133">
        <ele>110.8</ele>
        <time>2022-10-04T09:32:21Z</time>
      </trkpt>
      <trkpt lat="50.78032" lon="5.46141">
        <ele>110.6</ele>
        <time>2022-10-04T09:32:22Z</time>
      </trkpt>
      <trkpt lat="50.7804" lon="5.46172">
        <ele>111</ele>
        <time>2022-10-04T09:32:26Z</time>
      </trkpt>
      <trkpt lat="50.78046" lon="5.46196">
        <ele>111</ele>
        <time>2022-10-04T09:32:29Z</time>
      </trkpt>
      <trkpt lat="50.78047" lon="5.46204">
        <ele>111</ele>
        <time>2022-10-04T09:32:30Z</time>
      </trkpt>
      <trkpt lat="50.78049" lon="5.46222">
        <ele>110.8</ele>
        <time>2022-10-04T09:32:32Z</time>
      </trkpt>
      <trkpt lat="50.78051" lon="5.4623">
        <ele>110.8</ele>
        <time>2022-10-04T09:32:33Z</time>
      </trkpt>
      <trkpt lat="50.78053" lon="5.46237">
        <ele>110.6</ele>
        <time>2022-10-04T09:32:34Z</time>
      </trkpt>
      <trkpt lat="50.7806" lon="5.46259">
        <ele>110.4</ele>
        <time>2022-10-04T09:32:37Z</time>
      </trkpt>
      <trkpt lat="50.78062" lon="5.46266">
        <ele>110.2</ele>
        <time>2022-10-04T09:32:38Z</time>
      </trkpt>
      <trkpt lat="50.78065" lon="5.46279">
        <ele>110.2</ele>
        <time>2022-10-04T09:32:40Z</time>
      </trkpt>
      <trkpt lat="50.78067" lon="5.46285">
        <ele>110.2</ele>
        <time>2022-10-04T09:32:41Z</time>
        <extensions>
          <visugpx:TrkExtension xmlns:visugpx="https://www.visugpx.com/editgpx/">
            <visugpx:etape>1</visugpx:etape>
            </visugpx:TrkExtension>
        </extensions>
      </trkpt>
      <trkpt lat="50.78068" lon="5.46292">
        <ele>110</ele>
        <time>2022-10-04T09:32:43Z</time>
      </trkpt>
      <trkpt lat="50.78068" lon="5.463">
        <ele>110</ele>
        <time>2022-10-04T09:32:45Z</time>
      </trkpt>
      <trkpt lat="50.78068" lon="5.46303">
        <ele>110</ele>
        <time>2022-10-04T09:32:46Z</time>
      </trkpt>
      <trkpt lat="50.78068" lon="5.46305">
        <ele>110</ele>
        <time>2022-10-04T09:32:48Z</time>
      </trkpt>
      <trkpt lat="50.78064" lon="5.46302">
        <ele>111</ele>
        <time>2022-10-04T09:54:18Z</time>
      </trkpt>
      <trkpt lat="50.7806" lon="5.46283">
        <ele>110.8</ele>
        <time>2022-10-04T09:54:23Z</time>
      </trkpt>
      <trkpt lat="50.78058" lon="5.46276">
        <ele>110.8</ele>
        <time>2022-10-04T09:54:25Z</time>
      </trkpt>
      <trkpt lat="50.78055" lon="5.4626">
        <ele>111</ele>
        <time>2022-10-04T09:54:29Z</time>
      </trkpt>
      <trkpt lat="50.78053" lon="5.46252">
        <ele>110.8</ele>
        <time>2022-10-04T09:54:31Z</time>
      </trkpt>
      <trkpt lat="50.78051" lon="5.46238">
        <ele>111</ele>
        <time>2022-10-04T09:54:34Z</time>
      </trkpt>
      <trkpt lat="50.78049" lon="5.4623">
        <ele>111</ele>
        <time>2022-10-04T09:54:36Z</time>
      </trkpt>
      <trkpt lat="50.78047" lon="5.46225">
        <ele>111</ele>
        <time>2022-10-04T09:54:37Z</time>
      </trkpt>
      <trkpt lat="50.78038" lon="5.46201">
        <ele>111.2</ele>
        <time>2022-10-04T09:54:43Z</time>
      </trkpt>
      <trkpt lat="50.78036" lon="5.46196">
        <ele>111.2</ele>
        <time>2022-10-04T09:54:44Z</time>
      </trkpt>
      <trkpt lat="50.78033" lon="5.46186">
        <ele>111.2</ele>
        <time>2022-10-04T09:54:46Z</time>
      </trkpt>
      <trkpt lat="50.78027" lon="5.46167">
        <ele>111.6</ele>
        <time>2022-10-04T09:54:50Z</time>
      </trkpt>
      <trkpt lat="50.78024" lon="5.46145">
        <ele>111.6</ele>
        <time>2022-10-04T09:54:55Z</time>
      </trkpt>
      <trkpt lat="50.78023" lon="5.46141">
        <ele>111.8</ele>
        <time>2022-10-04T09:54:56Z</time>
      </trkpt>
      <trkpt lat="50.78014" lon="5.46108">
        <ele>112</ele>
        <time>2022-10-04T09:55:03Z</time>
      </trkpt>
      <trkpt lat="50.78009" lon="5.46094">
        <ele>112.2</ele>
        <time>2022-10-04T09:55:06Z</time>
      </trkpt>
      <trkpt lat="50.78005" lon="5.46085">
        <ele>112.2</ele>
        <time>2022-10-04T09:55:08Z</time>
      </trkpt>
      <trkpt lat="50.78002" lon="5.46076">
        <ele>112.4</ele>
        <time>2022-10-04T09:55:10Z</time>
      </trkpt>
      <trkpt lat="50.78001" lon="5.46064">
        <ele>112.2</ele>
        <time>2022-10-04T09:55:12Z</time>
      </trkpt>
      <trkpt lat="50.78002" lon="5.46054">
        <ele>112.4</ele>
        <time>2022-10-04T09:55:14Z</time>
      </trkpt>
      <trkpt lat="50.78002" lon="5.46027">
        <ele>112.4</ele>
        <time>2022-10-04T09:55:18Z</time>
      </trkpt>
      <trkpt lat="50.78001" lon="5.46019">
        <ele>112.6</ele>
        <time>2022-10-04T09:55:19Z</time>
      </trkpt>
      <trkpt lat="50.78" lon="5.46011">
        <ele>112.6</ele>
        <time>2022-10-04T09:55:20Z</time>
      </trkpt>
      <trkpt lat="50.77995" lon="5.45985">
        <ele>112.4</ele>
        <time>2022-10-04T09:55:23Z</time>
      </trkpt>
      <trkpt lat="50.77991" lon="5.45967">
        <ele>112.4</ele>
        <time>2022-10-04T09:55:25Z</time>
      </trkpt>
      <trkpt lat="50.77984" lon="5.45928">
        <ele>111.4</ele>
        <time>2022-10-04T09:55:29Z</time>
      </trkpt>
      <trkpt lat="50.7798" lon="5.45908">
        <ele>111.4</ele>
        <time>2022-10-04T09:55:31Z</time>
      </trkpt>
      <trkpt lat="50.77972" lon="5.45857">
        <ele>111</ele>
        <time>2022-10-04T09:55:36Z</time>
      </trkpt>
      <trkpt lat="50.77971" lon="5.45847">
        <ele>111</ele>
        <time>2022-10-04T09:55:37Z</time>
      </trkpt>
      <trkpt lat="50.77967" lon="5.45827">
        <ele>110.8</ele>
        <time>2022-10-04T09:55:39Z</time>
      </trkpt>
      <trkpt lat="50.77963" lon="5.45807">
        <ele>110.2</ele>
        <time>2022-10-04T09:55:41Z</time>
      </trkpt>
      <trkpt lat="50.77957" lon="5.45777">
        <ele>110</ele>
        <time>2022-10-04T09:55:44Z</time>
      </trkpt>
      <trkpt lat="50.77955" lon="5.45768">
        <ele>109.8</ele>
        <time>2022-10-04T09:55:45Z</time>
      </trkpt>
      <trkpt lat="50.77952" lon="5.45748">
        <ele>109.4</ele>
        <time>2022-10-04T09:55:47Z</time>
      </trkpt>
      <trkpt lat="50.7794" lon="5.45691">
        <ele>108.6</ele>
        <time>2022-10-04T09:55:53Z</time>
      </trkpt>
      <trkpt lat="50.77937" lon="5.4568">
        <ele>108.2</ele>
        <time>2022-10-04T09:55:54Z</time>
      </trkpt>
      <trkpt lat="50.77922" lon="5.4561">
        <ele>107.4</ele>
        <time>2022-10-04T09:56:01Z</time>
      </trkpt>
      <trkpt lat="50.7792" lon="5.456">
        <ele>107.2</ele>
        <time>2022-10-04T09:56:02Z</time>
      </trkpt>
      <trkpt lat="50.77905" lon="5.45518">
        <ele>106.4</ele>
        <time>2022-10-04T09:56:10Z</time>
      </trkpt>
      <trkpt lat="50.77897" lon="5.4548">
        <ele>105.8</ele>
        <time>2022-10-04T09:56:14Z</time>
      </trkpt>
      <trkpt lat="50.77892" lon="5.45451">
        <ele>105.6</ele>
        <time>2022-10-04T09:56:17Z</time>
      </trkpt>
      <trkpt lat="50.77888" lon="5.4543">
        <ele>105.4</ele>
        <time>2022-10-04T09:56:19Z</time>
      </trkpt>
      <trkpt lat="50.77882" lon="5.454">
        <ele>105</ele>
        <time>2022-10-04T09:56:22Z</time>
      </trkpt>
      <trkpt lat="50.7788" lon="5.45389">
        <ele>105</ele>
        <time>2022-10-04T09:56:23Z</time>
      </trkpt>
      <trkpt lat="50.77877" lon="5.45369">
        <ele>104.4</ele>
        <time>2022-10-04T09:56:25Z</time>
      </trkpt>
      <trkpt lat="50.77872" lon="5.45347">
        <ele>104</ele>
        <time>2022-10-04T09:56:27Z</time>
      </trkpt>
      <trkpt lat="50.77863" lon="5.45304">
        <ele>103.4</ele>
        <time>2022-10-04T09:56:31Z</time>
      </trkpt>
      <trkpt lat="50.77858" lon="5.45282">
        <ele>103.4</ele>
        <time>2022-10-04T09:56:33Z</time>
      </trkpt>
      <trkpt lat="50.77853" lon="5.45258">
        <ele>103.4</ele>
        <time>2022-10-04T09:56:35Z</time>
      </trkpt>
      <trkpt lat="50.77849" lon="5.45235">
        <ele>103</ele>
        <time>2022-10-04T09:56:37Z</time>
      </trkpt>
      <trkpt lat="50.77839" lon="5.45188">
        <ele>102.2</ele>
        <time>2022-10-04T09:56:41Z</time>
      </trkpt>
      <trkpt lat="50.77834" lon="5.45164">
        <ele>101.6</ele>
        <time>2022-10-04T09:56:43Z</time>
      </trkpt>
      <trkpt lat="50.7782" lon="5.45091">
        <ele>101.4</ele>
        <time>2022-10-04T09:56:49Z</time>
      </trkpt>
      <trkpt lat="50.77818" lon="5.4508">
        <ele>101.4</ele>
        <time>2022-10-04T09:56:50Z</time>
      </trkpt>
      <trkpt lat="50.77816" lon="5.45068">
        <ele>101.2</ele>
        <time>2022-10-04T09:56:51Z</time>
      </trkpt>
      <trkpt lat="50.7781" lon="5.45034">
        <ele>101.4</ele>
        <time>2022-10-04T09:56:54Z</time>
      </trkpt>
      <trkpt lat="50.77808" lon="5.45023">
        <ele>101.4</ele>
        <time>2022-10-04T09:56:55Z</time>
      </trkpt>
      <trkpt lat="50.77806" lon="5.45013">
        <ele>101.4</ele>
        <time>2022-10-04T09:56:56Z</time>
      </trkpt>
      <trkpt lat="50.77805" lon="5.45003">
        <ele>101.2</ele>
        <time>2022-10-04T09:56:57Z</time>
      </trkpt>
      <trkpt lat="50.77801" lon="5.44984">
        <ele>101.4</ele>
        <time>2022-10-04T09:56:59Z</time>
      </trkpt>
      <trkpt lat="50.77791" lon="5.44928">
        <ele>101.6</ele>
        <time>2022-10-04T09:57:05Z</time>
      </trkpt>
      <trkpt lat="50.77782" lon="5.44873">
        <ele>101.6</ele>
        <time>2022-10-04T09:57:11Z</time>
      </trkpt>
      <trkpt lat="50.77779" lon="5.44854">
        <ele>101.4</ele>
        <time>2022-10-04T09:57:13Z</time>
      </trkpt>
      <trkpt lat="50.77772" lon="5.44817">
        <ele>101.4</ele>
        <time>2022-10-04T09:57:18Z</time>
      </trkpt>
      <trkpt lat="50.7777" lon="5.44813">
        <ele>101.4</ele>
        <time>2022-10-04T09:57:21Z</time>
      </trkpt>
      <trkpt lat="50.77769" lon="5.44808">
        <ele>101.6</ele>
        <time>2022-10-04T09:57:27Z</time>
      </trkpt>
      <trkpt lat="50.77767" lon="5.44793">
        <ele>102</ele>
        <time>2022-10-04T09:57:31Z</time>
      </trkpt>
      <trkpt lat="50.77766" lon="5.44787">
        <ele>102</ele>
        <time>2022-10-04T09:57:32Z</time>
      </trkpt>
      <trkpt lat="50.77764" lon="5.44773">
        <ele>101.8</ele>
        <time>2022-10-04T09:57:34Z</time>
      </trkpt>
      <trkpt lat="50.77758" lon="5.44744">
        <ele>102</ele>
        <time>2022-10-04T09:57:38Z</time>
      </trkpt>
      <trkpt lat="50.77746" lon="5.44705">
        <ele>101.4</ele>
        <time>2022-10-04T09:57:43Z</time>
      </trkpt>
      <trkpt lat="50.77743" lon="5.44688">
        <ele>101</ele>
        <time>2022-10-04T09:57:45Z</time>
      </trkpt>
      <trkpt lat="50.77742" lon="5.44679">
        <ele>101</ele>
        <time>2022-10-04T09:57:46Z</time>
      </trkpt>
      <trkpt lat="50.7774" lon="5.4467">
        <ele>101</ele>
        <time>2022-10-04T09:57:47Z</time>
      </trkpt>
      <trkpt lat="50.77734" lon="5.4464">
        <ele>100.8</ele>
        <time>2022-10-04T09:57:50Z</time>
      </trkpt>
      <trkpt lat="50.77725" lon="5.44587">
        <ele>100.8</ele>
        <time>2022-10-04T09:57:55Z</time>
      </trkpt>
      <trkpt lat="50.77719" lon="5.44542">
        <ele>100.6</ele>
        <time>2022-10-04T09:57:59Z</time>
      </trkpt>
      <trkpt lat="50.77713" lon="5.44496">
        <ele>100.2</ele>
        <time>2022-10-04T09:58:03Z</time>
      </trkpt>
      <trkpt lat="50.7771" lon="5.44473">
        <ele>100</ele>
        <time>2022-10-04T09:58:05Z</time>
      </trkpt>
      <trkpt lat="50.77709" lon="5.44461">
        <ele>100</ele>
        <time>2022-10-04T09:58:06Z</time>
      </trkpt>
      <trkpt lat="50.77706" lon="5.44438">
        <ele>99.6</ele>
        <time>2022-10-04T09:58:08Z</time>
      </trkpt>
      <trkpt lat="50.77705" lon="5.44427">
        <ele>99.4</ele>
        <time>2022-10-04T09:58:09Z</time>
      </trkpt>
      <trkpt lat="50.777" lon="5.4437">
        <ele>99.4</ele>
        <time>2022-10-04T09:58:14Z</time>
      </trkpt>
      <trkpt lat="50.77698" lon="5.44347">
        <ele>99.4</ele>
        <time>2022-10-04T09:58:16Z</time>
      </trkpt>
      <trkpt lat="50.77695" lon="5.44302">
        <ele>99.6</ele>
        <time>2022-10-04T09:58:20Z</time>
      </trkpt>
      <trkpt lat="50.77694" lon="5.4428">
        <ele>99.8</ele>
        <time>2022-10-04T09:58:22Z</time>
      </trkpt>
      <trkpt lat="50.77693" lon="5.44257">
        <ele>100</ele>
        <time>2022-10-04T09:58:24Z</time>
      </trkpt>
      <trkpt lat="50.77691" lon="5.44202">
        <ele>100.4</ele>
        <time>2022-10-04T09:58:29Z</time>
      </trkpt>
      <trkpt lat="50.7769" lon="5.44191">
        <ele>100.4</ele>
        <time>2022-10-04T09:58:30Z</time>
      </trkpt>
      <trkpt lat="50.7769" lon="5.4417">
        <ele>100.4</ele>
        <time>2022-10-04T09:58:32Z</time>
      </trkpt>
      <trkpt lat="50.7769" lon="5.44159">
        <ele>100.4</ele>
        <time>2022-10-04T09:58:33Z</time>
      </trkpt>
      <trkpt lat="50.77689" lon="5.44117">
        <ele>100.6</ele>
        <time>2022-10-04T09:58:37Z</time>
      </trkpt>
      <trkpt lat="50.77689" lon="5.44106">
        <ele>100.6</ele>
        <time>2022-10-04T09:58:38Z</time>
      </trkpt>
      <trkpt lat="50.7769" lon="5.44074">
        <ele>100.8</ele>
        <time>2022-10-04T09:58:41Z</time>
      </trkpt>
      <trkpt lat="50.77691" lon="5.44023">
        <ele>101.2</ele>
        <time>2022-10-04T09:58:46Z</time>
      </trkpt>
      <trkpt lat="50.77693" lon="5.43954">
        <ele>101.8</ele>
        <time>2022-10-04T09:58:53Z</time>
      </trkpt>
      <trkpt lat="50.77694" lon="5.43925">
        <ele>102.2</ele>
        <time>2022-10-04T09:58:56Z</time>
      </trkpt>
      <trkpt lat="50.77695" lon="5.43915">
        <ele>102.4</ele>
        <time>2022-10-04T09:58:57Z</time>
      </trkpt>
      <trkpt lat="50.777" lon="5.43828">
        <ele>103.4</ele>
        <time>2022-10-04T09:59:06Z</time>
      </trkpt>
      <trkpt lat="50.77702" lon="5.43809">
        <ele>103.6</ele>
        <time>2022-10-04T09:59:08Z</time>
      </trkpt>
      <trkpt lat="50.77702" lon="5.43799">
        <ele>104</ele>
        <time>2022-10-04T09:59:09Z</time>
      </trkpt>
      <trkpt lat="50.77703" lon="5.4379">
        <ele>104.2</ele>
        <time>2022-10-04T09:59:10Z</time>
      </trkpt>
      <trkpt lat="50.77704" lon="5.4378">
        <ele>104.2</ele>
        <time>2022-10-04T09:59:11Z</time>
      </trkpt>
      <trkpt lat="50.77712" lon="5.43703">
        <ele>105.2</ele>
        <time>2022-10-04T09:59:19Z</time>
      </trkpt>
      <trkpt lat="50.77713" lon="5.43694">
        <ele>105.4</ele>
        <time>2022-10-04T09:59:20Z</time>
      </trkpt>
      <trkpt lat="50.77723" lon="5.43608">
        <ele>106.2</ele>
        <time>2022-10-04T09:59:29Z</time>
      </trkpt>
      <trkpt lat="50.77728" lon="5.4357">
        <ele>106.6</ele>
        <time>2022-10-04T09:59:33Z</time>
      </trkpt>
      <trkpt lat="50.77731" lon="5.43552">
        <ele>106.8</ele>
        <time>2022-10-04T09:59:35Z</time>
      </trkpt>
      <trkpt lat="50.77744" lon="5.43467">
        <ele>108</ele>
        <time>2022-10-04T09:59:44Z</time>
      </trkpt>
      <trkpt lat="50.77746" lon="5.43457">
        <ele>108</ele>
        <time>2022-10-04T09:59:45Z</time>
      </trkpt>
      <trkpt lat="50.77752" lon="5.43418">
        <ele>108.6</ele>
        <time>2022-10-04T09:59:49Z</time>
      </trkpt>
      <trkpt lat="50.77764" lon="5.43351">
        <ele>109.6</ele>
        <time>2022-10-04T09:59:56Z</time>
      </trkpt>
      <trkpt lat="50.77782" lon="5.43266">
        <ele>110.4</ele>
        <time>2022-10-04T10:00:05Z</time>
      </trkpt>
      <trkpt lat="50.77785" lon="5.43256">
        <ele>110.6</ele>
        <time>2022-10-04T10:00:06Z</time>
      </trkpt>
      <trkpt lat="50.7779" lon="5.43237">
        <ele>110.8</ele>
        <time>2022-10-04T10:00:08Z</time>
      </trkpt>
      <trkpt lat="50.77797" lon="5.43219">
        <ele>110.6</ele>
        <time>2022-10-04T10:00:10Z</time>
      </trkpt>
      <trkpt lat="50.778" lon="5.4321">
        <ele>110.8</ele>
        <time>2022-10-04T10:00:11Z</time>
      </trkpt>
      <trkpt lat="50.77806" lon="5.43181">
        <ele>110.8</ele>
        <time>2022-10-04T10:00:14Z</time>
      </trkpt>
      <trkpt lat="50.77808" lon="5.43173">
        <ele>110.8</ele>
        <time>2022-10-04T10:00:15Z</time>
      </trkpt>
      <trkpt lat="50.77813" lon="5.43157">
        <ele>110.8</ele>
        <time>2022-10-04T10:00:17Z</time>
      </trkpt>
      <trkpt lat="50.77816" lon="5.43149">
        <ele>110.8</ele>
        <time>2022-10-04T10:00:18Z</time>
      </trkpt>
      <trkpt lat="50.77819" lon="5.43132">
        <ele>110.8</ele>
        <time>2022-10-04T10:00:20Z</time>
      </trkpt>
      <trkpt lat="50.77819" lon="5.43123">
        <ele>110.8</ele>
        <time>2022-10-04T10:00:21Z</time>
      </trkpt>
      <trkpt lat="50.77819" lon="5.43114">
        <ele>110.8</ele>
        <time>2022-10-04T10:00:22Z</time>
      </trkpt>
      <trkpt lat="50.77825" lon="5.43087">
        <ele>110.6</ele>
        <time>2022-10-04T10:00:25Z</time>
      </trkpt>
      <trkpt lat="50.77834" lon="5.43047">
        <ele>110.8</ele>
        <time>2022-10-04T10:00:29Z</time>
      </trkpt>
      <trkpt lat="50.77843" lon="5.43004">
        <ele>110.4</ele>
        <time>2022-10-04T10:00:33Z</time>
      </trkpt>
      <trkpt lat="50.77856" lon="5.42947">
        <ele>110</ele>
        <time>2022-10-04T10:00:38Z</time>
      </trkpt>
      <trkpt lat="50.77859" lon="5.42936">
        <ele>110.2</ele>
        <time>2022-10-04T10:00:39Z</time>
      </trkpt>
      <trkpt lat="50.77879" lon="5.42868">
        <ele>109.6</ele>
        <time>2022-10-04T10:00:45Z</time>
      </trkpt>
      <trkpt lat="50.77904" lon="5.42786">
        <ele>109.6</ele>
        <time>2022-10-04T10:00:52Z</time>
      </trkpt>
      <trkpt lat="50.77907" lon="5.42774">
        <ele>109.4</ele>
        <time>2022-10-04T10:00:53Z</time>
      </trkpt>
      <trkpt lat="50.7791" lon="5.42761">
        <ele>109.4</ele>
        <time>2022-10-04T10:00:54Z</time>
      </trkpt>
      <trkpt lat="50.77917" lon="5.42737">
        <ele>109.2</ele>
        <time>2022-10-04T10:00:56Z</time>
      </trkpt>
      <trkpt lat="50.77928" lon="5.42687">
        <ele>109</ele>
        <time>2022-10-04T10:01:00Z</time>
      </trkpt>
      <trkpt lat="50.77934" lon="5.42662">
        <ele>108.8</ele>
        <time>2022-10-04T10:01:02Z</time>
      </trkpt>
      <trkpt lat="50.77957" lon="5.42574">
        <ele>107.8</ele>
        <time>2022-10-04T10:01:09Z</time>
      </trkpt>
      <trkpt lat="50.77967" lon="5.42537">
        <ele>107.6</ele>
        <time>2022-10-04T10:01:12Z</time>
      </trkpt>
      <trkpt lat="50.77987" lon="5.42461">
        <ele>107.2</ele>
        <time>2022-10-04T10:01:18Z</time>
      </trkpt>
      <trkpt lat="50.77994" lon="5.42435">
        <ele>107</ele>
        <time>2022-10-04T10:01:20Z</time>
      </trkpt>
      <trkpt lat="50.78001" lon="5.42409">
        <ele>107</ele>
        <time>2022-10-04T10:01:22Z</time>
      </trkpt>
      <trkpt lat="50.78015" lon="5.42355">
        <ele>106.6</ele>
        <time>2022-10-04T10:01:26Z</time>
      </trkpt>
      <trkpt lat="50.78026" lon="5.42313">
        <ele>106</ele>
        <time>2022-10-04T10:01:29Z</time>
      </trkpt>
      <trkpt lat="50.78034" lon="5.42285">
        <ele>105</ele>
        <time>2022-10-04T10:01:31Z</time>
      </trkpt>
      <trkpt lat="50.78045" lon="5.42243">
        <ele>104.4</ele>
        <time>2022-10-04T10:01:34Z</time>
      </trkpt>
      <trkpt lat="50.78068" lon="5.42162">
        <ele>102.8</ele>
        <time>2022-10-04T10:01:40Z</time>
      </trkpt>
      <trkpt lat="50.78071" lon="5.42148">
        <ele>102.4</ele>
        <time>2022-10-04T10:01:41Z</time>
      </trkpt>
      <trkpt lat="50.7809" lon="5.42066">
        <ele>100.8</ele>
        <time>2022-10-04T10:01:47Z</time>
      </trkpt>
      <trkpt lat="50.78101" lon="5.42026">
        <ele>100.4</ele>
        <time>2022-10-04T10:01:50Z</time>
      </trkpt>
      <trkpt lat="50.78111" lon="5.41986">
        <ele>98.8</ele>
        <time>2022-10-04T10:01:53Z</time>
      </trkpt>
      <trkpt lat="50.78121" lon="5.41947">
        <ele>98</ele>
        <time>2022-10-04T10:01:56Z</time>
      </trkpt>
      <trkpt lat="50.78125" lon="5.41934">
        <ele>97.4</ele>
        <time>2022-10-04T10:01:57Z</time>
      </trkpt>
      <trkpt lat="50.78131" lon="5.41909">
        <ele>96.8</ele>
        <time>2022-10-04T10:01:59Z</time>
      </trkpt>
      <trkpt lat="50.78141" lon="5.41875">
        <ele>96.4</ele>
        <time>2022-10-04T10:02:02Z</time>
      </trkpt>
      <trkpt lat="50.78143" lon="5.41866">
        <ele>96.2</ele>
        <time>2022-10-04T10:02:03Z</time>
      </trkpt>
      <trkpt lat="50.78147" lon="5.41844">
        <ele>95.8</ele>
        <time>2022-10-04T10:02:07Z</time>
      </trkpt>
      <trkpt lat="50.78146" lon="5.41839">
        <ele>95.6</ele>
        <time>2022-10-04T10:02:08Z</time>
      </trkpt>
      <trkpt lat="50.78143" lon="5.41835">
        <ele>95.4</ele>
        <time>2022-10-04T10:02:09Z</time>
      </trkpt>
      <trkpt lat="50.7814" lon="5.41832">
        <ele>95.4</ele>
        <time>2022-10-04T10:02:10Z</time>
      </trkpt>
      <trkpt lat="50.78135" lon="5.41829">
        <ele>95</ele>
        <time>2022-10-04T10:02:11Z</time>
      </trkpt>
      <trkpt lat="50.7813" lon="5.41826">
        <ele>95</ele>
        <time>2022-10-04T10:02:12Z</time>
      </trkpt>
      <trkpt lat="50.78119" lon="5.41818">
        <ele>94.8</ele>
        <time>2022-10-04T10:02:14Z</time>
      </trkpt>
      <trkpt lat="50.78077" lon="5.41788">
        <ele>94.6</ele>
        <time>2022-10-04T10:02:20Z</time>
      </trkpt>
      <trkpt lat="50.78049" lon="5.41767">
        <ele>92.4</ele>
        <time>2022-10-04T10:02:24Z</time>
      </trkpt>
      <trkpt lat="50.78035" lon="5.41758">
        <ele>91.8</ele>
        <time>2022-10-04T10:02:26Z</time>
      </trkpt>
      <trkpt lat="50.7802" lon="5.41749">
        <ele>91.4</ele>
        <time>2022-10-04T10:02:28Z</time>
      </trkpt>
      <trkpt lat="50.78007" lon="5.41741">
        <ele>91.2</ele>
        <time>2022-10-04T10:02:30Z</time>
      </trkpt>
      <trkpt lat="50.77987" lon="5.41731">
        <ele>91.2</ele>
        <time>2022-10-04T10:02:33Z</time>
      </trkpt>
      <trkpt lat="50.77981" lon="5.41729">
        <ele>91</ele>
        <time>2022-10-04T10:02:34Z</time>
      </trkpt>
      <trkpt lat="50.77969" lon="5.41725">
        <ele>90</ele>
        <time>2022-10-04T10:02:36Z</time>
      </trkpt>
      <trkpt lat="50.77958" lon="5.41722">
        <ele>89.6</ele>
        <time>2022-10-04T10:02:38Z</time>
      </trkpt>
      <trkpt lat="50.77954" lon="5.41721">
        <ele>89.4</ele>
        <time>2022-10-04T10:02:39Z</time>
      </trkpt>
      <trkpt lat="50.77947" lon="5.41718">
        <ele>89.2</ele>
        <time>2022-10-04T10:02:43Z</time>
      </trkpt>
      <trkpt lat="50.77947" lon="5.41719">
        <ele>89.2</ele>
        <time>2022-10-04T10:02:44Z</time>
      </trkpt>
      <trkpt lat="50.77944" lon="5.41722">
        <ele>90.8</ele>
        <time>2022-10-04T10:04:29Z</time>
      </trkpt>
      <trkpt lat="50.7794" lon="5.41722">
        <ele>90.6</ele>
        <time>2022-10-04T10:04:31Z</time>
      </trkpt>
      <trkpt lat="50.77923" lon="5.41724">
        <ele>90.6</ele>
        <time>2022-10-04T10:04:36Z</time>
      </trkpt>
      <trkpt lat="50.77909" lon="5.41725">
        <ele>90.6</ele>
        <time>2022-10-04T10:04:39Z</time>
      </trkpt>
      <trkpt lat="50.77898" lon="5.41724">
        <ele>90.2</ele>
        <time>2022-10-04T10:04:41Z</time>
      </trkpt>
      <trkpt lat="50.77873" lon="5.4172">
        <ele>89.8</ele>
        <time>2022-10-04T10:04:45Z</time>
      </trkpt>
      <trkpt lat="50.7786" lon="5.41717">
        <ele>89.4</ele>
        <time>2022-10-04T10:04:47Z</time>
      </trkpt>
      <trkpt lat="50.77803" lon="5.41703">
        <ele>88.6</ele>
        <time>2022-10-04T10:04:55Z</time>
      </trkpt>
      <trkpt lat="50.77796" lon="5.41701">
        <ele>88.4</ele>
        <time>2022-10-04T10:04:56Z</time>
      </trkpt>
      <trkpt lat="50.77775" lon="5.41689">
        <ele>88.4</ele>
        <time>2022-10-04T10:04:59Z</time>
      </trkpt>
      <trkpt lat="50.77762" lon="5.41678">
        <ele>88.2</ele>
        <time>2022-10-04T10:05:01Z</time>
      </trkpt>
      <trkpt lat="50.7775" lon="5.41663">
        <ele>88</ele>
        <time>2022-10-04T10:05:03Z</time>
      </trkpt>
      <trkpt lat="50.77744" lon="5.41654">
        <ele>87.8</ele>
        <time>2022-10-04T10:05:04Z</time>
      </trkpt>
      <trkpt lat="50.77739" lon="5.41644">
        <ele>87.8</ele>
        <time>2022-10-04T10:05:05Z</time>
      </trkpt>
      <trkpt lat="50.77735" lon="5.41634">
        <ele>87.8</ele>
        <time>2022-10-04T10:05:06Z</time>
      </trkpt>
      <trkpt lat="50.77725" lon="5.416">
        <ele>87.4</ele>
        <time>2022-10-04T10:05:09Z</time>
      </trkpt>
      <trkpt lat="50.77715" lon="5.4153">
        <ele>87</ele>
        <time>2022-10-04T10:05:15Z</time>
      </trkpt>
      <trkpt lat="50.77707" lon="5.4147">
        <ele>87</ele>
        <time>2022-10-04T10:05:20Z</time>
      </trkpt>
      <trkpt lat="50.77705" lon="5.41459">
        <ele>86.8</ele>
        <time>2022-10-04T10:05:21Z</time>
      </trkpt>
      <trkpt lat="50.777" lon="5.41426">
        <ele>86.6</ele>
        <time>2022-10-04T10:05:24Z</time>
      </trkpt>
      <trkpt lat="50.77694" lon="5.41392">
        <ele>86.2</ele>
        <time>2022-10-04T10:05:27Z</time>
      </trkpt>
      <trkpt lat="50.77692" lon="5.4138">
        <ele>86</ele>
        <time>2022-10-04T10:05:28Z</time>
      </trkpt>
      <trkpt lat="50.77689" lon="5.41369">
        <ele>86.2</ele>
        <time>2022-10-04T10:05:29Z</time>
      </trkpt>
      <trkpt lat="50.77679" lon="5.41336">
        <ele>86</ele>
        <time>2022-10-04T10:05:32Z</time>
      </trkpt>
      <trkpt lat="50.77671" lon="5.41315">
        <ele>85.8</ele>
        <time>2022-10-04T10:05:34Z</time>
      </trkpt>
      <trkpt lat="50.77643" lon="5.41261">
        <ele>85.4</ele>
        <time>2022-10-04T10:05:40Z</time>
      </trkpt>
      <trkpt lat="50.77605" lon="5.4121">
        <ele>85.4</ele>
        <time>2022-10-04T10:05:47Z</time>
      </trkpt>
      <trkpt lat="50.77589" lon="5.41188">
        <ele>85.4</ele>
        <time>2022-10-04T10:05:50Z</time>
      </trkpt>
      <trkpt lat="50.77572" lon="5.41166">
        <ele>85.6</ele>
        <time>2022-10-04T10:05:53Z</time>
      </trkpt>
      <trkpt lat="50.77556" lon="5.41146">
        <ele>85.6</ele>
        <time>2022-10-04T10:05:56Z</time>
      </trkpt>
      <trkpt lat="50.7755" lon="5.4114">
        <ele>85.8</ele>
        <time>2022-10-04T10:05:57Z</time>
      </trkpt>
      <trkpt lat="50.77537" lon="5.41134">
        <ele>85.8</ele>
        <time>2022-10-04T10:05:59Z</time>
      </trkpt>
      <trkpt lat="50.77523" lon="5.41135">
        <ele>86</ele>
        <time>2022-10-04T10:06:01Z</time>
      </trkpt>
      <trkpt lat="50.77516" lon="5.41138">
        <ele>86</ele>
        <time>2022-10-04T10:06:02Z</time>
      </trkpt>
      <trkpt lat="50.7751" lon="5.41142">
        <ele>86.2</ele>
        <time>2022-10-04T10:06:03Z</time>
      </trkpt>
      <trkpt lat="50.77495" lon="5.41161">
        <ele>86.4</ele>
        <time>2022-10-04T10:06:06Z</time>
      </trkpt>
      <trkpt lat="50.77485" lon="5.41175">
        <ele>86.8</ele>
        <time>2022-10-04T10:06:08Z</time>
      </trkpt>
      <trkpt lat="50.77466" lon="5.41201">
        <ele>87.2</ele>
        <time>2022-10-04T10:06:12Z</time>
      </trkpt>
      <trkpt lat="50.7746" lon="5.41205">
        <ele>87.2</ele>
        <time>2022-10-04T10:06:13Z</time>
      </trkpt>
      <trkpt lat="50.77454" lon="5.41204">
        <ele>87.4</ele>
        <time>2022-10-04T10:06:14Z</time>
      </trkpt>
      <trkpt lat="50.77449" lon="5.412">
        <ele>87.4</ele>
        <time>2022-10-04T10:06:15Z</time>
      </trkpt>
      <trkpt lat="50.77444" lon="5.41194">
        <ele>87.6</ele>
        <time>2022-10-04T10:06:16Z</time>
      </trkpt>
      <trkpt lat="50.77436" lon="5.41178">
        <ele>87.6</ele>
        <time>2022-10-04T10:06:18Z</time>
      </trkpt>
      <trkpt lat="50.77429" lon="5.41161">
        <ele>87.4</ele>
        <time>2022-10-04T10:06:20Z</time>
      </trkpt>
      <trkpt lat="50.77397" lon="5.41106">
        <ele>87.8</ele>
        <time>2022-10-04T10:06:27Z</time>
      </trkpt>
      <trkpt lat="50.77387" lon="5.4109">
        <ele>87.8</ele>
        <time>2022-10-04T10:06:29Z</time>
      </trkpt>
      <trkpt lat="50.77361" lon="5.41054">
        <ele>87.8</ele>
        <time>2022-10-04T10:06:34Z</time>
      </trkpt>
      <trkpt lat="50.77352" lon="5.4104">
        <ele>87.8</ele>
        <time>2022-10-04T10:06:36Z</time>
      </trkpt>
      <trkpt lat="50.77337" lon="5.41017">
        <ele>88.4</ele>
        <time>2022-10-04T10:06:39Z</time>
      </trkpt>
      <trkpt lat="50.77314" lon="5.40977">
        <ele>88.8</ele>
        <time>2022-10-04T10:06:44Z</time>
      </trkpt>
      <trkpt lat="50.77277" lon="5.40915">
        <ele>89.2</ele>
        <time>2022-10-04T10:06:52Z</time>
      </trkpt>
      <trkpt lat="50.77272" lon="5.4091">
        <ele>89.2</ele>
        <time>2022-10-04T10:06:53Z</time>
      </trkpt>
      <trkpt lat="50.7726" lon="5.409">
        <ele>89.2</ele>
        <time>2022-10-04T10:06:55Z</time>
      </trkpt>
      <trkpt lat="50.77246" lon="5.40896">
        <ele>89.2</ele>
        <time>2022-10-04T10:06:57Z</time>
      </trkpt>
      <trkpt lat="50.77227" lon="5.40888">
        <ele>89.2</ele>
        <time>2022-10-04T10:07:00Z</time>
      </trkpt>
      <trkpt lat="50.77207" lon="5.40877">
        <ele>89.4</ele>
        <time>2022-10-04T10:07:03Z</time>
      </trkpt>
      <trkpt lat="50.772" lon="5.40872">
        <ele>89.6</ele>
        <time>2022-10-04T10:07:04Z</time>
      </trkpt>
      <trkpt lat="50.77194" lon="5.40868">
        <ele>89.6</ele>
        <time>2022-10-04T10:07:05Z</time>
      </trkpt>
      <trkpt lat="50.77174" lon="5.40857">
        <ele>89.6</ele>
        <time>2022-10-04T10:07:08Z</time>
      </trkpt>
      <trkpt lat="50.77161" lon="5.40849">
        <ele>89.8</ele>
        <time>2022-10-04T10:07:10Z</time>
      </trkpt>
      <trkpt lat="50.77135" lon="5.40835">
        <ele>90.2</ele>
        <time>2022-10-04T10:07:14Z</time>
      </trkpt>
      <trkpt lat="50.77122" lon="5.40828">
        <ele>90.4</ele>
        <time>2022-10-04T10:07:16Z</time>
      </trkpt>
      <trkpt lat="50.77115" lon="5.40825">
        <ele>90.6</ele>
        <time>2022-10-04T10:07:17Z</time>
      </trkpt>
      <trkpt lat="50.77083" lon="5.4081">
        <ele>91.4</ele>
        <time>2022-10-04T10:07:22Z</time>
      </trkpt>
      <trkpt lat="50.77071" lon="5.40805">
        <ele>92</ele>
        <time>2022-10-04T10:07:24Z</time>
      </trkpt>
      <trkpt lat="50.77033" lon="5.40797">
        <ele>92.8</ele>
        <time>2022-10-04T10:07:30Z</time>
      </trkpt>
      <trkpt lat="50.7702" lon="5.40795">
        <ele>93.2</ele>
        <time>2022-10-04T10:07:32Z</time>
      </trkpt>
      <trkpt lat="50.76983" lon="5.40784">
        <ele>93.8</ele>
        <time>2022-10-04T10:07:38Z</time>
      </trkpt>
      <trkpt lat="50.76977" lon="5.40782">
        <ele>93.8</ele>
        <time>2022-10-04T10:07:39Z</time>
      </trkpt>
      <trkpt lat="50.76943" lon="5.40773">
        <ele>94.2</ele>
        <time>2022-10-04T10:07:44Z</time>
      </trkpt>
      <trkpt lat="50.76924" lon="5.40768">
        <ele>94.4</ele>
        <time>2022-10-04T10:07:47Z</time>
      </trkpt>
      <trkpt lat="50.76905" lon="5.40763">
        <ele>94.6</ele>
        <time>2022-10-04T10:07:50Z</time>
      </trkpt>
      <trkpt lat="50.76874" lon="5.40757">
        <ele>95.2</ele>
        <time>2022-10-04T10:07:55Z</time>
      </trkpt>
      <trkpt lat="50.76868" lon="5.40756">
        <ele>95.2</ele>
        <time>2022-10-04T10:07:56Z</time>
      </trkpt>
      <trkpt lat="50.76862" lon="5.40755">
        <ele>95.4</ele>
        <time>2022-10-04T10:07:57Z</time>
      </trkpt>
      <trkpt lat="50.76843" lon="5.40753">
        <ele>95.6</ele>
        <time>2022-10-04T10:08:00Z</time>
      </trkpt>
      <trkpt lat="50.76812" lon="5.40753">
        <ele>95.8</ele>
        <time>2022-10-04T10:08:05Z</time>
      </trkpt>
      <trkpt lat="50.7676" lon="5.40761">
        <ele>97.6</ele>
        <time>2022-10-04T10:08:13Z</time>
      </trkpt>
      <trkpt lat="50.76712" lon="5.40769">
        <ele>98.4</ele>
        <time>2022-10-04T10:08:21Z</time>
      </trkpt>
      <trkpt lat="50.76707" lon="5.40769">
        <ele>98.4</ele>
        <time>2022-10-04T10:08:22Z</time>
      </trkpt>
      <trkpt lat="50.76685" lon="5.40772">
        <ele>99.2</ele>
        <time>2022-10-04T10:08:26Z</time>
      </trkpt>
      <trkpt lat="50.76679" lon="5.40773">
        <ele>99.2</ele>
        <time>2022-10-04T10:08:27Z</time>
      </trkpt>
      <trkpt lat="50.76668" lon="5.40774">
        <ele>99.6</ele>
        <time>2022-10-04T10:08:29Z</time>
      </trkpt>
      <trkpt lat="50.76656" lon="5.40776">
        <ele>100</ele>
        <time>2022-10-04T10:08:31Z</time>
      </trkpt>
      <trkpt lat="50.76633" lon="5.40775">
        <ele>100.6</ele>
        <time>2022-10-04T10:08:35Z</time>
      </trkpt>
      <trkpt lat="50.76628" lon="5.40772">
        <ele>100.6</ele>
        <time>2022-10-04T10:08:36Z</time>
      </trkpt>
      <trkpt lat="50.76623" lon="5.40768">
        <ele>101</ele>
        <time>2022-10-04T10:08:37Z</time>
      </trkpt>
      <trkpt lat="50.76618" lon="5.40764">
        <ele>101</ele>
        <time>2022-10-04T10:08:38Z</time>
      </trkpt>
      <trkpt lat="50.76598" lon="5.40747">
        <ele>101.6</ele>
        <time>2022-10-04T10:08:42Z</time>
      </trkpt>
      <trkpt lat="50.76594" lon="5.40742">
        <ele>102</ele>
        <time>2022-10-04T10:08:43Z</time>
      </trkpt>
      <trkpt lat="50.76558" lon="5.40715">
        <ele>103.8</ele>
        <time>2022-10-04T10:08:50Z</time>
      </trkpt>
      <trkpt lat="50.76546" lon="5.40708">
        <ele>103.8</ele>
        <time>2022-10-04T10:08:52Z</time>
      </trkpt>
      <trkpt lat="50.7654" lon="5.40704">
        <ele>103.8</ele>
        <time>2022-10-04T10:08:53Z</time>
      </trkpt>
      <trkpt lat="50.76533" lon="5.40701">
        <ele>103.8</ele>
        <time>2022-10-04T10:08:54Z</time>
      </trkpt>
      <trkpt lat="50.76519" lon="5.40695">
        <ele>104</ele>
        <time>2022-10-04T10:08:56Z</time>
      </trkpt>
      <trkpt lat="50.76503" lon="5.40689">
        <ele>104</ele>
        <time>2022-10-04T10:08:58Z</time>
      </trkpt>
      <trkpt lat="50.76495" lon="5.40686">
        <ele>103.8</ele>
        <time>2022-10-04T10:08:59Z</time>
      </trkpt>
      <trkpt lat="50.76478" lon="5.40682">
        <ele>103.6</ele>
        <time>2022-10-04T10:09:01Z</time>
      </trkpt>
      <trkpt lat="50.76469" lon="5.40681">
        <ele>103.2</ele>
        <time>2022-10-04T10:09:02Z</time>
      </trkpt>
      <trkpt lat="50.7646" lon="5.40681">
        <ele>103</ele>
        <time>2022-10-04T10:09:03Z</time>
      </trkpt>
      <trkpt lat="50.76442" lon="5.40682">
        <ele>102</ele>
        <time>2022-10-04T10:09:05Z</time>
      </trkpt>
      <trkpt lat="50.76433" lon="5.40683">
        <ele>101.8</ele>
        <time>2022-10-04T10:09:06Z</time>
      </trkpt>
      <trkpt lat="50.76424" lon="5.40685">
        <ele>101.2</ele>
        <time>2022-10-04T10:09:07Z</time>
      </trkpt>
      <trkpt lat="50.76389" lon="5.40686">
        <ele>99.6</ele>
        <time>2022-10-04T10:09:11Z</time>
      </trkpt>
      <trkpt lat="50.7638" lon="5.40685">
        <ele>99</ele>
        <time>2022-10-04T10:09:12Z</time>
      </trkpt>
      <trkpt lat="50.76371" lon="5.40682">
        <ele>98.6</ele>
        <time>2022-10-04T10:09:13Z</time>
      </trkpt>
      <trkpt lat="50.76336" lon="5.40665">
        <ele>98.2</ele>
        <time>2022-10-04T10:09:17Z</time>
      </trkpt>
      <trkpt lat="50.76305" lon="5.4064">
        <ele>98</ele>
        <time>2022-10-04T10:09:21Z</time>
      </trkpt>
      <trkpt lat="50.76291" lon="5.40625">
        <ele>97.6</ele>
        <time>2022-10-04T10:09:23Z</time>
      </trkpt>
      <trkpt lat="50.76279" lon="5.40608">
        <ele>97.6</ele>
        <time>2022-10-04T10:09:25Z</time>
      </trkpt>
      <trkpt lat="50.76273" lon="5.40599">
        <ele>97.6</ele>
        <time>2022-10-04T10:09:26Z</time>
      </trkpt>
      <trkpt lat="50.76263" lon="5.40578">
        <ele>97.6</ele>
        <time>2022-10-04T10:09:28Z</time>
      </trkpt>
      <trkpt lat="50.76253" lon="5.40557">
        <ele>97.2</ele>
        <time>2022-10-04T10:09:30Z</time>
      </trkpt>
      <trkpt lat="50.76236" lon="5.40527">
        <ele>96.8</ele>
        <time>2022-10-04T10:09:33Z</time>
      </trkpt>
      <trkpt lat="50.7623" lon="5.40519">
        <ele>96.6</ele>
        <time>2022-10-04T10:09:34Z</time>
      </trkpt>
      <trkpt lat="50.76223" lon="5.40511">
        <ele>96.6</ele>
        <time>2022-10-04T10:09:35Z</time>
      </trkpt>
      <trkpt lat="50.76217" lon="5.40504">
        <ele>96.4</ele>
        <time>2022-10-04T10:09:36Z</time>
      </trkpt>
      <trkpt lat="50.76202" lon="5.40495">
        <ele>96.4</ele>
        <time>2022-10-04T10:09:38Z</time>
      </trkpt>
      <trkpt lat="50.76171" lon="5.40481">
        <ele>96</ele>
        <time>2022-10-04T10:09:42Z</time>
      </trkpt>
      <trkpt lat="50.76157" lon="5.40475">
        <ele>96.2</ele>
        <time>2022-10-04T10:09:44Z</time>
      </trkpt>
      <trkpt lat="50.76142" lon="5.40468">
        <ele>96</ele>
        <time>2022-10-04T10:09:46Z</time>
      </trkpt>
      <trkpt lat="50.76106" lon="5.40451">
        <ele>96</ele>
        <time>2022-10-04T10:09:51Z</time>
      </trkpt>
      <trkpt lat="50.76092" lon="5.40445">
        <ele>96</ele>
        <time>2022-10-04T10:09:53Z</time>
      </trkpt>
      <trkpt lat="50.76085" lon="5.40442">
        <ele>96.2</ele>
        <time>2022-10-04T10:09:54Z</time>
      </trkpt>
      <trkpt lat="50.76078" lon="5.40438">
        <ele>96.2</ele>
        <time>2022-10-04T10:09:55Z</time>
      </trkpt>
      <trkpt lat="50.76066" lon="5.40433">
        <ele>96.4</ele>
        <time>2022-10-04T10:09:57Z</time>
      </trkpt>
      <trkpt lat="50.7606" lon="5.4043">
        <ele>96.6</ele>
        <time>2022-10-04T10:09:58Z</time>
      </trkpt>
      <trkpt lat="50.76043" lon="5.40422">
        <ele>96.8</ele>
        <time>2022-10-04T10:10:01Z</time>
      </trkpt>
      <trkpt lat="50.76027" lon="5.40415">
        <ele>97</ele>
        <time>2022-10-04T10:10:04Z</time>
      </trkpt>
      <trkpt lat="50.76011" lon="5.40407">
        <ele>97.4</ele>
        <time>2022-10-04T10:10:07Z</time>
      </trkpt>
      <trkpt lat="50.75996" lon="5.404">
        <ele>98.4</ele>
        <time>2022-10-04T10:10:10Z</time>
      </trkpt>
      <trkpt lat="50.7596" lon="5.40383">
        <ele>101.4</ele>
        <time>2022-10-04T10:10:17Z</time>
      </trkpt>
      <trkpt lat="50.7594" lon="5.40374">
        <ele>102.8</ele>
        <time>2022-10-04T10:10:21Z</time>
      </trkpt>
      <trkpt lat="50.75921" lon="5.40364">
        <ele>103.4</ele>
        <time>2022-10-04T10:10:25Z</time>
      </trkpt>
      <trkpt lat="50.75906" lon="5.40358">
        <ele>104.8</ele>
        <time>2022-10-04T10:10:28Z</time>
      </trkpt>
      <trkpt lat="50.75887" lon="5.40349">
        <ele>105.8</ele>
        <time>2022-10-04T10:10:32Z</time>
      </trkpt>
      <trkpt lat="50.75868" lon="5.4034">
        <ele>107</ele>
        <time>2022-10-04T10:10:36Z</time>
      </trkpt>
      <trkpt lat="50.75863" lon="5.40338">
        <ele>107.2</ele>
        <time>2022-10-04T10:10:37Z</time>
      </trkpt>
      <trkpt lat="50.75849" lon="5.40331">
        <ele>107.8</ele>
        <time>2022-10-04T10:10:40Z</time>
      </trkpt>
      <trkpt lat="50.75825" lon="5.40321">
        <ele>109.2</ele>
        <time>2022-10-04T10:10:45Z</time>
      </trkpt>
      <trkpt lat="50.75815" lon="5.40316">
        <ele>110</ele>
        <time>2022-10-04T10:10:47Z</time>
      </trkpt>
      <trkpt lat="50.7581" lon="5.40315">
        <ele>110.2</ele>
        <time>2022-10-04T10:10:48Z</time>
      </trkpt>
      <trkpt lat="50.75791" lon="5.40311">
        <ele>111.6</ele>
        <time>2022-10-04T10:10:52Z</time>
      </trkpt>
      <trkpt lat="50.75781" lon="5.40312">
        <ele>112.2</ele>
        <time>2022-10-04T10:10:54Z</time>
      </trkpt>
      <trkpt lat="50.75762" lon="5.40317">
        <ele>113.2</ele>
        <time>2022-10-04T10:10:58Z</time>
      </trkpt>
      <trkpt lat="50.75747" lon="5.40323">
        <ele>114.4</ele>
        <time>2022-10-04T10:11:01Z</time>
      </trkpt>
      <trkpt lat="50.75743" lon="5.40326">
        <ele>114.4</ele>
        <time>2022-10-04T10:11:02Z</time>
      </trkpt>
      <trkpt lat="50.75733" lon="5.40332">
        <ele>115</ele>
        <time>2022-10-04T10:11:04Z</time>
      </trkpt>
      <trkpt lat="50.75711" lon="5.40354">
        <ele>116</ele>
        <time>2022-10-04T10:11:09Z</time>
      </trkpt>
      <trkpt lat="50.75685" lon="5.40388">
        <ele>117.4</ele>
        <time>2022-10-04T10:11:15Z</time>
      </trkpt>
      <trkpt lat="50.75677" lon="5.404">
        <ele>117.6</ele>
        <time>2022-10-04T10:11:17Z</time>
      </trkpt>
      <trkpt lat="50.75672" lon="5.40406">
        <ele>117.6</ele>
        <time>2022-10-04T10:11:18Z</time>
      </trkpt>
      <trkpt lat="50.75658" lon="5.40424">
        <ele>117.6</ele>
        <time>2022-10-04T10:11:21Z</time>
      </trkpt>
      <trkpt lat="50.75653" lon="5.4043">
        <ele>117.8</ele>
        <time>2022-10-04T10:11:22Z</time>
      </trkpt>
      <trkpt lat="50.75649" lon="5.40437">
        <ele>117.8</ele>
        <time>2022-10-04T10:11:23Z</time>
      </trkpt>
      <trkpt lat="50.75639" lon="5.4045">
        <ele>117.6</ele>
        <time>2022-10-04T10:11:25Z</time>
      </trkpt>
      <trkpt lat="50.75629" lon="5.40463">
        <ele>117.6</ele>
        <time>2022-10-04T10:11:27Z</time>
      </trkpt>
      <trkpt lat="50.7562" lon="5.40476">
        <ele>117.8</ele>
        <time>2022-10-04T10:11:29Z</time>
      </trkpt>
      <trkpt lat="50.7561" lon="5.40489">
        <ele>117.6</ele>
        <time>2022-10-04T10:11:31Z</time>
      </trkpt>
      <trkpt lat="50.75595" lon="5.40509">
        <ele>118</ele>
        <time>2022-10-04T10:11:34Z</time>
      </trkpt>
      <trkpt lat="50.7556" lon="5.40555">
        <ele>119</ele>
        <time>2022-10-04T10:11:41Z</time>
      </trkpt>
      <trkpt lat="50.75515" lon="5.40614">
        <ele>118.8</ele>
        <time>2022-10-04T10:11:50Z</time>
      </trkpt>
      <trkpt lat="50.7551" lon="5.4062">
        <ele>118.8</ele>
        <time>2022-10-04T10:11:51Z</time>
      </trkpt>
      <trkpt lat="50.75495" lon="5.40637">
        <ele>118.6</ele>
        <time>2022-10-04T10:11:54Z</time>
      </trkpt>
      <trkpt lat="50.75474" lon="5.40657">
        <ele>118.2</ele>
        <time>2022-10-04T10:11:58Z</time>
      </trkpt>
      <trkpt lat="50.7546" lon="5.40669">
        <ele>117.8</ele>
        <time>2022-10-04T10:12:01Z</time>
      </trkpt>
      <trkpt lat="50.75456" lon="5.40673">
        <ele>117.8</ele>
        <time>2022-10-04T10:12:02Z</time>
      </trkpt>
      <trkpt lat="50.75452" lon="5.40676">
        <ele>117.6</ele>
        <time>2022-10-04T10:12:03Z</time>
      </trkpt>
      <trkpt lat="50.75448" lon="5.4068">
        <ele>117.4</ele>
        <time>2022-10-04T10:12:04Z</time>
      </trkpt>
      <trkpt lat="50.75444" lon="5.40683">
        <ele>117.4</ele>
        <time>2022-10-04T10:12:05Z</time>
      </trkpt>
      <trkpt lat="50.75439" lon="5.40688">
        <ele>117.2</ele>
        <time>2022-10-04T10:12:06Z</time>
      </trkpt>
      <trkpt lat="50.7543" lon="5.40697">
        <ele>116.6</ele>
        <time>2022-10-04T10:12:08Z</time>
      </trkpt>
      <trkpt lat="50.75418" lon="5.40708">
        <ele>116.4</ele>
        <time>2022-10-04T10:12:10Z</time>
      </trkpt>
      <trkpt lat="50.75404" lon="5.4072">
        <ele>116</ele>
        <time>2022-10-04T10:12:12Z</time>
      </trkpt>
      <trkpt lat="50.75397" lon="5.40726">
        <ele>115.8</ele>
        <time>2022-10-04T10:12:13Z</time>
      </trkpt>
      <trkpt lat="50.75383" lon="5.40739">
        <ele>115.2</ele>
        <time>2022-10-04T10:12:15Z</time>
      </trkpt>
      <trkpt lat="50.75375" lon="5.40746">
        <ele>115</ele>
        <time>2022-10-04T10:12:16Z</time>
      </trkpt>
      <trkpt lat="50.75367" lon="5.40752">
        <ele>114.4</ele>
        <time>2022-10-04T10:12:17Z</time>
      </trkpt>
      <trkpt lat="50.75359" lon="5.40759">
        <ele>114</ele>
        <time>2022-10-04T10:12:18Z</time>
      </trkpt>
      <trkpt lat="50.75333" lon="5.40779">
        <ele>112.8</ele>
        <time>2022-10-04T10:12:21Z</time>
      </trkpt>
      <trkpt lat="50.75325" lon="5.40787">
        <ele>112</ele>
        <time>2022-10-04T10:12:22Z</time>
      </trkpt>
      <trkpt lat="50.75307" lon="5.40802">
        <ele>110.2</ele>
        <time>2022-10-04T10:12:24Z</time>
      </trkpt>
      <trkpt lat="50.75273" lon="5.4083">
        <ele>107.6</ele>
        <time>2022-10-04T10:12:28Z</time>
      </trkpt>
      <trkpt lat="50.75256" lon="5.40845">
        <ele>106.8</ele>
        <time>2022-10-04T10:12:30Z</time>
      </trkpt>
      <trkpt lat="50.75207" lon="5.40886">
        <ele>105</ele>
        <time>2022-10-04T10:12:36Z</time>
      </trkpt>
      <trkpt lat="50.75199" lon="5.40893">
        <ele>104.8</ele>
        <time>2022-10-04T10:12:37Z</time>
      </trkpt>
      <trkpt lat="50.75168" lon="5.40919">
        <ele>104.2</ele>
        <time>2022-10-04T10:12:41Z</time>
      </trkpt>
      <trkpt lat="50.75146" lon="5.40938">
        <ele>104</ele>
        <time>2022-10-04T10:12:44Z</time>
      </trkpt>
      <trkpt lat="50.75124" lon="5.40956">
        <ele>104.2</ele>
        <time>2022-10-04T10:12:47Z</time>
      </trkpt>
      <trkpt lat="50.75117" lon="5.40962">
        <ele>104.2</ele>
        <time>2022-10-04T10:12:48Z</time>
      </trkpt>
      <trkpt lat="50.75089" lon="5.40986">
        <ele>104.4</ele>
        <time>2022-10-04T10:12:52Z</time>
      </trkpt>
      <trkpt lat="50.75083" lon="5.40991">
        <ele>104.8</ele>
        <time>2022-10-04T10:12:53Z</time>
      </trkpt>
      <trkpt lat="50.75058" lon="5.41011">
        <ele>105.8</ele>
        <time>2022-10-04T10:12:57Z</time>
      </trkpt>
      <trkpt lat="50.75041" lon="5.41026">
        <ele>106.4</ele>
        <time>2022-10-04T10:13:00Z</time>
      </trkpt>
      <trkpt lat="50.75029" lon="5.41036">
        <ele>106.4</ele>
        <time>2022-10-04T10:13:02Z</time>
      </trkpt>
      <trkpt lat="50.75017" lon="5.41046">
        <ele>106.8</ele>
        <time>2022-10-04T10:13:04Z</time>
      </trkpt>
      <trkpt lat="50.7501" lon="5.41052">
        <ele>107.2</ele>
        <time>2022-10-04T10:13:05Z</time>
      </trkpt>
      <trkpt lat="50.75004" lon="5.41057">
        <ele>107.4</ele>
        <time>2022-10-04T10:13:06Z</time>
      </trkpt>
      <trkpt lat="50.74992" lon="5.41067">
        <ele>107.6</ele>
        <time>2022-10-04T10:13:08Z</time>
      </trkpt>
      <trkpt lat="50.74968" lon="5.41088">
        <ele>108</ele>
        <time>2022-10-04T10:13:12Z</time>
      </trkpt>
      <trkpt lat="50.74917" lon="5.41131">
        <ele>110.2</ele>
        <time>2022-10-04T10:13:21Z</time>
      </trkpt>
      <trkpt lat="50.74911" lon="5.41134">
        <ele>110.4</ele>
        <time>2022-10-04T10:13:22Z</time>
      </trkpt>
      <trkpt lat="50.74899" lon="5.41139">
        <ele>110.4</ele>
        <time>2022-10-04T10:13:24Z</time>
      </trkpt>
      <trkpt lat="50.74887" lon="5.41142">
        <ele>110.6</ele>
        <time>2022-10-04T10:13:26Z</time>
      </trkpt>
      <trkpt lat="50.74876" lon="5.41144">
        <ele>110.6</ele>
        <time>2022-10-04T10:13:28Z</time>
      </trkpt>
      <trkpt lat="50.74859" lon="5.41148">
        <ele>110.8</ele>
        <time>2022-10-04T10:13:31Z</time>
      </trkpt>
      <trkpt lat="50.74841" lon="5.41151">
        <ele>111.4</ele>
        <time>2022-10-04T10:13:34Z</time>
      </trkpt>
      <trkpt lat="50.74825" lon="5.41155">
        <ele>112.4</ele>
        <time>2022-10-04T10:13:37Z</time>
      </trkpt>
      <trkpt lat="50.74808" lon="5.41158">
        <ele>113.6</ele>
        <time>2022-10-04T10:13:40Z</time>
      </trkpt>
      <trkpt lat="50.7478" lon="5.41165">
        <ele>114.8</ele>
        <time>2022-10-04T10:13:45Z</time>
      </trkpt>
      <trkpt lat="50.74775" lon="5.41166">
        <ele>114.8</ele>
        <time>2022-10-04T10:13:46Z</time>
      </trkpt>
      <trkpt lat="50.74743" lon="5.41177">
        <ele>115.8</ele>
        <time>2022-10-04T10:13:52Z</time>
      </trkpt>
      <trkpt lat="50.74732" lon="5.41181">
        <ele>116.2</ele>
        <time>2022-10-04T10:13:54Z</time>
      </trkpt>
      <trkpt lat="50.74716" lon="5.41189">
        <ele>117.4</ele>
        <time>2022-10-04T10:13:57Z</time>
      </trkpt>
      <trkpt lat="50.74695" lon="5.41201">
        <ele>118.2</ele>
        <time>2022-10-04T10:14:01Z</time>
      </trkpt>
      <trkpt lat="50.7469" lon="5.41204">
        <ele>118.4</ele>
        <time>2022-10-04T10:14:02Z</time>
      </trkpt>
      <trkpt lat="50.74648" lon="5.41232">
        <ele>121</ele>
        <time>2022-10-04T10:14:10Z</time>
      </trkpt>
      <trkpt lat="50.74642" lon="5.41235">
        <ele>121.2</ele>
        <time>2022-10-04T10:14:11Z</time>
      </trkpt>
      <trkpt lat="50.74632" lon="5.41239">
        <ele>121.6</ele>
        <time>2022-10-04T10:14:13Z</time>
      </trkpt>
      <trkpt lat="50.7461" lon="5.41243">
        <ele>122</ele>
        <time>2022-10-04T10:14:17Z</time>
      </trkpt>
      <trkpt lat="50.74599" lon="5.41245">
        <ele>122.2</ele>
        <time>2022-10-04T10:14:19Z</time>
      </trkpt>
      <trkpt lat="50.74561" lon="5.41261">
        <ele>124.4</ele>
        <time>2022-10-04T10:14:26Z</time>
      </trkpt>
      <trkpt lat="50.74536" lon="5.41281">
        <ele>125.4</ele>
        <time>2022-10-04T10:14:31Z</time>
      </trkpt>
      <trkpt lat="50.74525" lon="5.41291">
        <ele>125.6</ele>
        <time>2022-10-04T10:14:33Z</time>
      </trkpt>
      <trkpt lat="50.74489" lon="5.41312">
        <ele>125.8</ele>
        <time>2022-10-04T10:14:39Z</time>
      </trkpt>
      <trkpt lat="50.7447" lon="5.41315">
        <ele>125.8</ele>
        <time>2022-10-04T10:14:42Z</time>
      </trkpt>
      <trkpt lat="50.74463" lon="5.41316">
        <ele>125.6</ele>
        <time>2022-10-04T10:14:43Z</time>
      </trkpt>
      <trkpt lat="50.74443" lon="5.41317">
        <ele>125.2</ele>
        <time>2022-10-04T10:14:46Z</time>
      </trkpt>
      <trkpt lat="50.74422" lon="5.41318">
        <ele>125</ele>
        <time>2022-10-04T10:14:49Z</time>
      </trkpt>
      <trkpt lat="50.74384" lon="5.41319">
        <ele>123.6</ele>
        <time>2022-10-04T10:14:54Z</time>
      </trkpt>
      <trkpt lat="50.74369" lon="5.4132">
        <ele>123</ele>
        <time>2022-10-04T10:14:56Z</time>
      </trkpt>
      <trkpt lat="50.74347" lon="5.41319">
        <ele>122.8</ele>
        <time>2022-10-04T10:14:59Z</time>
      </trkpt>
      <trkpt lat="50.7434" lon="5.41317">
        <ele>122.4</ele>
        <time>2022-10-04T10:15:00Z</time>
      </trkpt>
      <trkpt lat="50.74333" lon="5.41313">
        <ele>122.2</ele>
        <time>2022-10-04T10:15:01Z</time>
      </trkpt>
      <trkpt lat="50.74327" lon="5.41307">
        <ele>122.2</ele>
        <time>2022-10-04T10:15:02Z</time>
      </trkpt>
      <trkpt lat="50.74321" lon="5.41301">
        <ele>122</ele>
        <time>2022-10-04T10:15:03Z</time>
      </trkpt>
      <trkpt lat="50.74296" lon="5.41257">
        <ele>121.6</ele>
        <time>2022-10-04T10:15:08Z</time>
      </trkpt>
      <trkpt lat="50.74282" lon="5.41228">
        <ele>121.4</ele>
        <time>2022-10-04T10:15:11Z</time>
      </trkpt>
      <trkpt lat="50.74268" lon="5.412">
        <ele>121</ele>
        <time>2022-10-04T10:15:14Z</time>
      </trkpt>
      <trkpt lat="50.74255" lon="5.41174">
        <ele>121</ele>
        <time>2022-10-04T10:15:17Z</time>
      </trkpt>
      <trkpt lat="50.74248" lon="5.41158">
        <ele>120.6</ele>
        <time>2022-10-04T10:15:19Z</time>
      </trkpt>
      <trkpt lat="50.74244" lon="5.41145">
        <ele>120.8</ele>
        <time>2022-10-04T10:15:21Z</time>
      </trkpt>
      <trkpt lat="50.74237" lon="5.41134">
        <ele>120.6</ele>
        <time>2022-10-04T10:15:25Z</time>
      </trkpt>
      <trkpt lat="50.74227" lon="5.41139">
        <ele>120.6</ele>
        <time>2022-10-04T10:15:28Z</time>
      </trkpt>
      <trkpt lat="50.74223" lon="5.41144">
        <ele>120.4</ele>
        <time>2022-10-04T10:15:29Z</time>
      </trkpt>
      <trkpt lat="50.7421" lon="5.41163">
        <ele>120.2</ele>
        <time>2022-10-04T10:15:32Z</time>
      </trkpt>
      <trkpt lat="50.74199" lon="5.41178">
        <ele>119.8</ele>
        <time>2022-10-04T10:15:34Z</time>
      </trkpt>
      <trkpt lat="50.74193" lon="5.41186">
        <ele>119.8</ele>
        <time>2022-10-04T10:15:35Z</time>
      </trkpt>
      <trkpt lat="50.74188" lon="5.41194">
        <ele>119.4</ele>
        <time>2022-10-04T10:15:36Z</time>
      </trkpt>
      <trkpt lat="50.74176" lon="5.41211">
        <ele>119</ele>
        <time>2022-10-04T10:15:38Z</time>
      </trkpt>
      <trkpt lat="50.74158" lon="5.41238">
        <ele>118.2</ele>
        <time>2022-10-04T10:15:41Z</time>
      </trkpt>
      <trkpt lat="50.74151" lon="5.41248">
        <ele>117.6</ele>
        <time>2022-10-04T10:15:42Z</time>
      </trkpt>
      <trkpt lat="50.74132" lon="5.41278">
        <ele>116.2</ele>
        <time>2022-10-04T10:15:45Z</time>
      </trkpt>
      <trkpt lat="50.74114" lon="5.4131">
        <ele>115.4</ele>
        <time>2022-10-04T10:15:48Z</time>
      </trkpt>
      <trkpt lat="50.74073" lon="5.41372">
        <ele>113</ele>
        <time>2022-10-04T10:15:54Z</time>
      </trkpt>
      <trkpt lat="50.74066" lon="5.41381">
        <ele>113</ele>
        <time>2022-10-04T10:15:55Z</time>
      </trkpt>
      <trkpt lat="50.74059" lon="5.4139">
        <ele>112.4</ele>
        <time>2022-10-04T10:15:56Z</time>
      </trkpt>
      <trkpt lat="50.7403" lon="5.41425">
        <ele>110.8</ele>
        <time>2022-10-04T10:16:00Z</time>
      </trkpt>
      <trkpt lat="50.74006" lon="5.41451">
        <ele>110.4</ele>
        <time>2022-10-04T10:16:03Z</time>
      </trkpt>
      <trkpt lat="50.7399" lon="5.41467">
        <ele>108.8</ele>
        <time>2022-10-04T10:16:05Z</time>
      </trkpt>
      <trkpt lat="50.73981" lon="5.41474">
        <ele>108.2</ele>
        <time>2022-10-04T10:16:06Z</time>
      </trkpt>
      <trkpt lat="50.73972" lon="5.41479">
        <ele>107.6</ele>
        <time>2022-10-04T10:16:07Z</time>
      </trkpt>
      <trkpt lat="50.73963" lon="5.41483">
        <ele>107.4</ele>
        <time>2022-10-04T10:16:08Z</time>
      </trkpt>
      <trkpt lat="50.73944" lon="5.41489">
        <ele>105.8</ele>
        <time>2022-10-04T10:16:10Z</time>
      </trkpt>
      <trkpt lat="50.73934" lon="5.4149">
        <ele>105.4</ele>
        <time>2022-10-04T10:16:11Z</time>
      </trkpt>
      <trkpt lat="50.73915" lon="5.41493">
        <ele>104.4</ele>
        <time>2022-10-04T10:16:13Z</time>
      </trkpt>
      <trkpt lat="50.73886" lon="5.41494">
        <ele>103</ele>
        <time>2022-10-04T10:16:16Z</time>
      </trkpt>
      <trkpt lat="50.73868" lon="5.41494">
        <ele>102.2</ele>
        <time>2022-10-04T10:16:18Z</time>
      </trkpt>
      <trkpt lat="50.73849" lon="5.41496">
        <ele>101.8</ele>
        <time>2022-10-04T10:16:20Z</time>
      </trkpt>
      <trkpt lat="50.73832" lon="5.415">
        <ele>100.8</ele>
        <time>2022-10-04T10:16:22Z</time>
      </trkpt>
      <trkpt lat="50.73824" lon="5.41502">
        <ele>100.2</ele>
        <time>2022-10-04T10:16:23Z</time>
      </trkpt>
      <trkpt lat="50.73773" lon="5.41517">
        <ele>99</ele>
        <time>2022-10-04T10:16:30Z</time>
      </trkpt>
      <trkpt lat="50.73766" lon="5.41517">
        <ele>98.8</ele>
        <time>2022-10-04T10:16:31Z</time>
      </trkpt>
      <trkpt lat="50.73744" lon="5.4151">
        <ele>99</ele>
        <time>2022-10-04T10:16:34Z</time>
      </trkpt>
      <trkpt lat="50.73729" lon="5.41504">
        <ele>99</ele>
        <time>2022-10-04T10:16:36Z</time>
      </trkpt>
      <trkpt lat="50.73706" lon="5.41494">
        <ele>99.2</ele>
        <time>2022-10-04T10:16:39Z</time>
      </trkpt>
      <trkpt lat="50.73699" lon="5.41491">
        <ele>99.2</ele>
        <time>2022-10-04T10:16:40Z</time>
      </trkpt>
      <trkpt lat="50.73684" lon="5.41485">
        <ele>99.2</ele>
        <time>2022-10-04T10:16:42Z</time>
      </trkpt>
      <trkpt lat="50.73648" lon="5.41474">
        <ele>100</ele>
        <time>2022-10-04T10:16:47Z</time>
      </trkpt>
      <trkpt lat="50.73626" lon="5.41468">
        <ele>100.4</ele>
        <time>2022-10-04T10:16:50Z</time>
      </trkpt>
      <trkpt lat="50.73605" lon="5.41462">
        <ele>100.8</ele>
        <time>2022-10-04T10:16:53Z</time>
      </trkpt>
      <trkpt lat="50.73591" lon="5.41459">
        <ele>101</ele>
        <time>2022-10-04T10:16:55Z</time>
      </trkpt>
      <trkpt lat="50.73566" lon="5.41458">
        <ele>101.4</ele>
        <time>2022-10-04T10:16:59Z</time>
      </trkpt>
      <trkpt lat="50.7356" lon="5.4146">
        <ele>101.6</ele>
        <time>2022-10-04T10:17:00Z</time>
      </trkpt>
      <trkpt lat="50.73549" lon="5.41466">
        <ele>101.8</ele>
        <time>2022-10-04T10:17:02Z</time>
      </trkpt>
      <trkpt lat="50.73543" lon="5.41469">
        <ele>102</ele>
        <time>2022-10-04T10:17:03Z</time>
      </trkpt>
      <trkpt lat="50.73538" lon="5.41473">
        <ele>102.2</ele>
        <time>2022-10-04T10:17:04Z</time>
      </trkpt>
      <trkpt lat="50.73533" lon="5.41477">
        <ele>102.4</ele>
        <time>2022-10-04T10:17:05Z</time>
      </trkpt>
      <trkpt lat="50.7351" lon="5.41498">
        <ele>103.2</ele>
        <time>2022-10-04T10:17:10Z</time>
      </trkpt>
      <trkpt lat="50.73506" lon="5.41502">
        <ele>103.8</ele>
        <time>2022-10-04T10:17:11Z</time>
      </trkpt>
      <trkpt lat="50.73497" lon="5.41511">
        <ele>104.4</ele>
        <time>2022-10-04T10:17:13Z</time>
      </trkpt>
      <trkpt lat="50.73493" lon="5.41515">
        <ele>104.6</ele>
        <time>2022-10-04T10:17:14Z</time>
      </trkpt>
      <trkpt lat="50.73489" lon="5.41519">
        <ele>105</ele>
        <time>2022-10-04T10:17:15Z</time>
      </trkpt>
      <trkpt lat="50.73481" lon="5.41528">
        <ele>105.2</ele>
        <time>2022-10-04T10:17:17Z</time>
      </trkpt>
      <trkpt lat="50.73477" lon="5.41532">
        <ele>105.6</ele>
        <time>2022-10-04T10:17:18Z</time>
      </trkpt>
      <trkpt lat="50.73465" lon="5.41546">
        <ele>106.6</ele>
        <time>2022-10-04T10:17:21Z</time>
      </trkpt>
      <trkpt lat="50.73453" lon="5.4156">
        <ele>107.8</ele>
        <time>2022-10-04T10:17:24Z</time>
      </trkpt>
      <trkpt lat="50.73444" lon="5.41569">
        <ele>108.8</ele>
        <time>2022-10-04T10:17:26Z</time>
      </trkpt>
      <trkpt lat="50.73423" lon="5.41591">
        <ele>110.6</ele>
        <time>2022-10-04T10:17:31Z</time>
      </trkpt>
      <trkpt lat="50.73405" lon="5.41606">
        <ele>112</ele>
        <time>2022-10-04T10:17:35Z</time>
      </trkpt>
      <trkpt lat="50.734" lon="5.41611">
        <ele>112.2</ele>
        <time>2022-10-04T10:17:36Z</time>
      </trkpt>
      <trkpt lat="50.73378" lon="5.41631">
        <ele>113.2</ele>
        <time>2022-10-04T10:17:41Z</time>
      </trkpt>
      <trkpt lat="50.7337" lon="5.4164">
        <ele>113.4</ele>
        <time>2022-10-04T10:17:43Z</time>
      </trkpt>
      <trkpt lat="50.73348" lon="5.41666">
        <ele>114.6</ele>
        <time>2022-10-04T10:17:48Z</time>
      </trkpt>
      <trkpt lat="50.73335" lon="5.41684">
        <ele>115.4</ele>
        <time>2022-10-04T10:17:51Z</time>
      </trkpt>
      <trkpt lat="50.73305" lon="5.41725">
        <ele>116.4</ele>
        <time>2022-10-04T10:17:58Z</time>
      </trkpt>
      <trkpt lat="50.73268" lon="5.41764">
        <ele>117.2</ele>
        <time>2022-10-04T10:18:06Z</time>
      </trkpt>
      <trkpt lat="50.73234" lon="5.41805">
        <ele>118.2</ele>
        <time>2022-10-04T10:18:14Z</time>
      </trkpt>
      <trkpt lat="50.73226" lon="5.41817">
        <ele>118.6</ele>
        <time>2022-10-04T10:18:16Z</time>
      </trkpt>
      <trkpt lat="50.73199" lon="5.41851">
        <ele>119.2</ele>
        <time>2022-10-04T10:18:22Z</time>
      </trkpt>
      <trkpt lat="50.73176" lon="5.41876">
        <ele>119.8</ele>
        <time>2022-10-04T10:18:27Z</time>
      </trkpt>
      <trkpt lat="50.73153" lon="5.41901">
        <ele>120.4</ele>
        <time>2022-10-04T10:18:32Z</time>
      </trkpt>
      <trkpt lat="50.73139" lon="5.41915">
        <ele>120.8</ele>
        <time>2022-10-04T10:18:35Z</time>
      </trkpt>
      <trkpt lat="50.73115" lon="5.4194">
        <ele>121.2</ele>
        <time>2022-10-04T10:18:40Z</time>
      </trkpt>
      <trkpt lat="50.73097" lon="5.41961">
        <ele>121.4</ele>
        <time>2022-10-04T10:18:44Z</time>
      </trkpt>
      <trkpt lat="50.73089" lon="5.41972">
        <ele>122</ele>
        <time>2022-10-04T10:18:46Z</time>
      </trkpt>
      <trkpt lat="50.73063" lon="5.42005">
        <ele>122.4</ele>
        <time>2022-10-04T10:18:52Z</time>
      </trkpt>
      <trkpt lat="50.73059" lon="5.4201">
        <ele>122.6</ele>
        <time>2022-10-04T10:18:53Z</time>
      </trkpt>
      <trkpt lat="50.73029" lon="5.42036">
        <ele>123.6</ele>
        <time>2022-10-04T10:19:00Z</time>
      </trkpt>
      <trkpt lat="50.73017" lon="5.42045">
        <ele>124.4</ele>
        <time>2022-10-04T10:19:03Z</time>
      </trkpt>
      <trkpt lat="50.73001" lon="5.42057">
        <ele>125.2</ele>
        <time>2022-10-04T10:19:07Z</time>
      </trkpt>
      <trkpt lat="50.72997" lon="5.42059">
        <ele>125.4</ele>
        <time>2022-10-04T10:19:08Z</time>
      </trkpt>
      <trkpt lat="50.72986" lon="5.42067">
        <ele>125.8</ele>
        <time>2022-10-04T10:19:11Z</time>
      </trkpt>
      <trkpt lat="50.72981" lon="5.42071">
        <ele>127</ele>
        <time>2022-10-04T10:19:13Z</time>
      </trkpt>
      <trkpt lat="50.7298" lon="5.42073">
        <ele>127.2</ele>
        <time>2022-10-04T10:19:14Z</time>
      </trkpt>
      <trkpt lat="50.72971" lon="5.42088">
        <ele>128.2</ele>
        <time>2022-10-04T10:19:18Z</time>
      </trkpt>
      <trkpt lat="50.7295" lon="5.42126">
        <ele>129.8</ele>
        <time>2022-10-04T10:19:25Z</time>
      </trkpt>
      <trkpt lat="50.72932" lon="5.42154">
        <ele>130.4</ele>
        <time>2022-10-04T10:19:30Z</time>
      </trkpt>
      <trkpt lat="50.72925" lon="5.42166">
        <ele>130.6</ele>
        <time>2022-10-04T10:19:32Z</time>
      </trkpt>
      <trkpt lat="50.72921" lon="5.42172">
        <ele>130.6</ele>
        <time>2022-10-04T10:19:33Z</time>
      </trkpt>
      <trkpt lat="50.72899" lon="5.42208">
        <ele>131.4</ele>
        <time>2022-10-04T10:19:39Z</time>
      </trkpt>
      <trkpt lat="50.72891" lon="5.42219">
        <ele>131.4</ele>
        <time>2022-10-04T10:19:41Z</time>
      </trkpt>
      <trkpt lat="50.72883" lon="5.42229">
        <ele>132.2</ele>
        <time>2022-10-04T10:19:43Z</time>
      </trkpt>
      <trkpt lat="50.72864" lon="5.42244">
        <ele>132.8</ele>
        <time>2022-10-04T10:19:47Z</time>
      </trkpt>
      <trkpt lat="50.7284" lon="5.42263">
        <ele>133.8</ele>
        <time>2022-10-04T10:19:52Z</time>
      </trkpt>
      <trkpt lat="50.72821" lon="5.42278">
        <ele>134.8</ele>
        <time>2022-10-04T10:19:56Z</time>
      </trkpt>
      <trkpt lat="50.72811" lon="5.42286">
        <ele>134.8</ele>
        <time>2022-10-04T10:19:58Z</time>
      </trkpt>
      <trkpt lat="50.7278" lon="5.42313">
        <ele>134.8</ele>
        <time>2022-10-04T10:20:04Z</time>
      </trkpt>
      <trkpt lat="50.7277" lon="5.42324">
        <ele>134.8</ele>
        <time>2022-10-04T10:20:06Z</time>
      </trkpt>
      <trkpt lat="50.72761" lon="5.42337">
        <ele>134.6</ele>
        <time>2022-10-04T10:20:08Z</time>
      </trkpt>
      <trkpt lat="50.72757" lon="5.42345">
        <ele>134.4</ele>
        <time>2022-10-04T10:20:09Z</time>
      </trkpt>
      <trkpt lat="50.72749" lon="5.42361">
        <ele>134.2</ele>
        <time>2022-10-04T10:20:11Z</time>
      </trkpt>
      <trkpt lat="50.72744" lon="5.4237">
        <ele>134.2</ele>
        <time>2022-10-04T10:20:12Z</time>
      </trkpt>
      <trkpt lat="50.72734" lon="5.4239">
        <ele>133.2</ele>
        <time>2022-10-04T10:20:14Z</time>
      </trkpt>
      <trkpt lat="50.7273" lon="5.424">
        <ele>132.8</ele>
        <time>2022-10-04T10:20:15Z</time>
      </trkpt>
      <trkpt lat="50.72716" lon="5.42434">
        <ele>132.2</ele>
        <time>2022-10-04T10:20:18Z</time>
      </trkpt>
      <trkpt lat="50.72708" lon="5.42458">
        <ele>132</ele>
        <time>2022-10-04T10:20:20Z</time>
      </trkpt>
      <trkpt lat="50.72701" lon="5.42482">
        <ele>131.6</ele>
        <time>2022-10-04T10:20:22Z</time>
      </trkpt>
      <trkpt lat="50.72679" lon="5.4255">
        <ele>130</ele>
        <time>2022-10-04T10:20:28Z</time>
      </trkpt>
      <trkpt lat="50.72675" lon="5.4256">
        <ele>129.8</ele>
        <time>2022-10-04T10:20:29Z</time>
      </trkpt>
      <trkpt lat="50.72653" lon="5.42606">
        <ele>129.6</ele>
        <time>2022-10-04T10:20:34Z</time>
      </trkpt>
      <trkpt lat="50.72627" lon="5.42658">
        <ele>129.8</ele>
        <time>2022-10-04T10:20:40Z</time>
      </trkpt>
      <trkpt lat="50.7262" lon="5.42676">
        <ele>130</ele>
        <time>2022-10-04T10:20:42Z</time>
      </trkpt>
      <trkpt lat="50.72617" lon="5.42696">
        <ele>130</ele>
        <time>2022-10-04T10:20:44Z</time>
      </trkpt>
      <trkpt lat="50.72616" lon="5.42717">
        <ele>130</ele>
        <time>2022-10-04T10:20:46Z</time>
      </trkpt>
      <trkpt lat="50.72616" lon="5.42747">
        <ele>130.4</ele>
        <time>2022-10-04T10:20:49Z</time>
      </trkpt>
      <trkpt lat="50.72616" lon="5.42756">
        <ele>131</ele>
        <time>2022-10-04T10:20:50Z</time>
      </trkpt>
      <trkpt lat="50.72617" lon="5.42764">
        <ele>131.2</ele>
        <time>2022-10-04T10:20:51Z</time>
      </trkpt>
      <trkpt lat="50.72619" lon="5.42772">
        <ele>131.4</ele>
        <time>2022-10-04T10:20:52Z</time>
      </trkpt>
      <trkpt lat="50.72621" lon="5.4278">
        <ele>131.6</ele>
        <time>2022-10-04T10:20:53Z</time>
      </trkpt>
      <trkpt lat="50.72641" lon="5.42828">
        <ele>134.2</ele>
        <time>2022-10-04T10:20:59Z</time>
      </trkpt>
      <trkpt lat="50.72664" lon="5.42879">
        <ele>135.4</ele>
        <time>2022-10-04T10:21:05Z</time>
      </trkpt>
      <trkpt lat="50.72684" lon="5.42906">
        <ele>135.8</ele>
        <time>2022-10-04T10:21:09Z</time>
      </trkpt>
      <trkpt lat="50.72701" lon="5.42923">
        <ele>136</ele>
        <time>2022-10-04T10:21:12Z</time>
      </trkpt>
      <trkpt lat="50.72737" lon="5.42956">
        <ele>136.2</ele>
        <time>2022-10-04T10:21:18Z</time>
      </trkpt>
      <trkpt lat="50.72748" lon="5.42968">
        <ele>136.4</ele>
        <time>2022-10-04T10:21:20Z</time>
      </trkpt>
      <trkpt lat="50.72753" lon="5.42975">
        <ele>136.4</ele>
        <time>2022-10-04T10:21:21Z</time>
      </trkpt>
      <trkpt lat="50.7276" lon="5.42992">
        <ele>136.2</ele>
        <time>2022-10-04T10:21:23Z</time>
      </trkpt>
      <trkpt lat="50.72761" lon="5.43034">
        <ele>136.4</ele>
        <time>2022-10-04T10:21:27Z</time>
      </trkpt>
      <trkpt lat="50.72762" lon="5.43045">
        <ele>136.4</ele>
        <time>2022-10-04T10:21:28Z</time>
      </trkpt>
      <trkpt lat="50.72761" lon="5.43118">
        <ele>135.8</ele>
        <time>2022-10-04T10:21:34Z</time>
      </trkpt>
      <trkpt lat="50.72762" lon="5.43144">
        <ele>135.2</ele>
        <time>2022-10-04T10:21:36Z</time>
      </trkpt>
      <trkpt lat="50.72765" lon="5.43171">
        <ele>134.8</ele>
        <time>2022-10-04T10:21:38Z</time>
      </trkpt>
      <trkpt lat="50.72767" lon="5.43184">
        <ele>134.4</ele>
        <time>2022-10-04T10:21:39Z</time>
      </trkpt>
      <trkpt lat="50.72769" lon="5.43198">
        <ele>134.4</ele>
        <time>2022-10-04T10:21:40Z</time>
      </trkpt>
      <trkpt lat="50.72771" lon="5.43211">
        <ele>134.2</ele>
        <time>2022-10-04T10:21:41Z</time>
      </trkpt>
      <trkpt lat="50.72773" lon="5.43225">
        <ele>134</ele>
        <time>2022-10-04T10:21:42Z</time>
      </trkpt>
      <trkpt lat="50.72777" lon="5.4327">
        <ele>133.8</ele>
        <time>2022-10-04T10:21:45Z</time>
      </trkpt>
      <trkpt lat="50.72778" lon="5.433">
        <ele>133.6</ele>
        <time>2022-10-04T10:21:47Z</time>
      </trkpt>
      <trkpt lat="50.72777" lon="5.43332">
        <ele>132.4</ele>
        <time>2022-10-04T10:21:49Z</time>
      </trkpt>
      <trkpt lat="50.72777" lon="5.43363">
        <ele>131.2</ele>
        <time>2022-10-04T10:21:51Z</time>
      </trkpt>
      <trkpt lat="50.72777" lon="5.43378">
        <ele>130.8</ele>
        <time>2022-10-04T10:21:52Z</time>
      </trkpt>
      <trkpt lat="50.72776" lon="5.43394">
        <ele>130.6</ele>
        <time>2022-10-04T10:21:53Z</time>
      </trkpt>
      <trkpt lat="50.72773" lon="5.43426">
        <ele>129</ele>
        <time>2022-10-04T10:21:55Z</time>
      </trkpt>
      <trkpt lat="50.72771" lon="5.43442">
        <ele>128.2</ele>
        <time>2022-10-04T10:21:56Z</time>
      </trkpt>
      <trkpt lat="50.72766" lon="5.43473">
        <ele>126.6</ele>
        <time>2022-10-04T10:21:58Z</time>
      </trkpt>
      <trkpt lat="50.72759" lon="5.43519">
        <ele>125</ele>
        <time>2022-10-04T10:22:01Z</time>
      </trkpt>
      <trkpt lat="50.72757" lon="5.43534">
        <ele>124.4</ele>
        <time>2022-10-04T10:22:02Z</time>
      </trkpt>
      <trkpt lat="50.72753" lon="5.43565">
        <ele>123.4</ele>
        <time>2022-10-04T10:22:04Z</time>
      </trkpt>
      <trkpt lat="50.72751" lon="5.4358">
        <ele>122.8</ele>
        <time>2022-10-04T10:22:05Z</time>
      </trkpt>
      <trkpt lat="50.72748" lon="5.43611">
        <ele>122</ele>
        <time>2022-10-04T10:22:07Z</time>
      </trkpt>
      <trkpt lat="50.72742" lon="5.43657">
        <ele>121.4</ele>
        <time>2022-10-04T10:22:10Z</time>
      </trkpt>
      <trkpt lat="50.72737" lon="5.43688">
        <ele>120.6</ele>
        <time>2022-10-04T10:22:12Z</time>
      </trkpt>
      <trkpt lat="50.72734" lon="5.43703">
        <ele>120.2</ele>
        <time>2022-10-04T10:22:13Z</time>
      </trkpt>
      <trkpt lat="50.72725" lon="5.43748">
        <ele>119.4</ele>
        <time>2022-10-04T10:22:16Z</time>
      </trkpt>
      <trkpt lat="50.72717" lon="5.43776">
        <ele>118.8</ele>
        <time>2022-10-04T10:22:18Z</time>
      </trkpt>
      <trkpt lat="50.72697" lon="5.43843">
        <ele>118</ele>
        <time>2022-10-04T10:22:23Z</time>
      </trkpt>
      <trkpt lat="50.72692" lon="5.43855">
        <ele>117.8</ele>
        <time>2022-10-04T10:22:24Z</time>
      </trkpt>
      <trkpt lat="50.72688" lon="5.43868">
        <ele>117.6</ele>
        <time>2022-10-04T10:22:25Z</time>
      </trkpt>
      <trkpt lat="50.7267" lon="5.43915">
        <ele>117.6</ele>
        <time>2022-10-04T10:22:29Z</time>
      </trkpt>
      <trkpt lat="50.7266" lon="5.43937">
        <ele>117.8</ele>
        <time>2022-10-04T10:22:31Z</time>
      </trkpt>
      <trkpt lat="50.72648" lon="5.43968">
        <ele>118</ele>
        <time>2022-10-04T10:22:34Z</time>
      </trkpt>
      <trkpt lat="50.72636" lon="5.43996">
        <ele>118</ele>
        <time>2022-10-04T10:22:37Z</time>
      </trkpt>
      <trkpt lat="50.72631" lon="5.44004">
        <ele>118.2</ele>
        <time>2022-10-04T10:22:38Z</time>
      </trkpt>
      <trkpt lat="50.72615" lon="5.44025">
        <ele>119</ele>
        <time>2022-10-04T10:22:41Z</time>
      </trkpt>
      <trkpt lat="50.72605" lon="5.44038">
        <ele>119.2</ele>
        <time>2022-10-04T10:22:43Z</time>
      </trkpt>
      <trkpt lat="50.72595" lon="5.44051">
        <ele>120.6</ele>
        <time>2022-10-04T10:22:45Z</time>
      </trkpt>
      <trkpt lat="50.72585" lon="5.44064">
        <ele>121.6</ele>
        <time>2022-10-04T10:22:47Z</time>
      </trkpt>
      <trkpt lat="50.72581" lon="5.4407">
        <ele>122</ele>
        <time>2022-10-04T10:22:48Z</time>
      </trkpt>
      <trkpt lat="50.72548" lon="5.44114">
        <ele>124.4</ele>
        <time>2022-10-04T10:22:55Z</time>
      </trkpt>
      <trkpt lat="50.72543" lon="5.4412">
        <ele>124.8</ele>
        <time>2022-10-04T10:22:56Z</time>
      </trkpt>
      <trkpt lat="50.72532" lon="5.4414">
        <ele>125.8</ele>
        <time>2022-10-04T10:22:59Z</time>
      </trkpt>
      <trkpt lat="50.72525" lon="5.44153">
        <ele>126</ele>
        <time>2022-10-04T10:23:01Z</time>
      </trkpt>
      <trkpt lat="50.72506" lon="5.44204">
        <ele>127</ele>
        <time>2022-10-04T10:23:07Z</time>
      </trkpt>
      <trkpt lat="50.72503" lon="5.44213">
        <ele>127.4</ele>
        <time>2022-10-04T10:23:08Z</time>
      </trkpt>
      <trkpt lat="50.72486" lon="5.44276">
        <ele>128.4</ele>
        <time>2022-10-04T10:23:15Z</time>
      </trkpt>
      <trkpt lat="50.72484" lon="5.44285">
        <ele>128.4</ele>
        <time>2022-10-04T10:23:16Z</time>
      </trkpt>
      <trkpt lat="50.72479" lon="5.44303">
        <ele>129</ele>
        <time>2022-10-04T10:23:18Z</time>
      </trkpt>
      <trkpt lat="50.72473" lon="5.4432">
        <ele>129.2</ele>
        <time>2022-10-04T10:23:20Z</time>
      </trkpt>
      <trkpt lat="50.72471" lon="5.44329">
        <ele>129.4</ele>
        <time>2022-10-04T10:23:21Z</time>
      </trkpt>
      <trkpt lat="50.72463" lon="5.44354">
        <ele>130</ele>
        <time>2022-10-04T10:23:24Z</time>
      </trkpt>
      <trkpt lat="50.72449" lon="5.44407">
        <ele>131.8</ele>
        <time>2022-10-04T10:23:30Z</time>
      </trkpt>
      <trkpt lat="50.72444" lon="5.44434">
        <ele>132.6</ele>
        <time>2022-10-04T10:23:33Z</time>
      </trkpt>
      <trkpt lat="50.72437" lon="5.44469">
        <ele>133.6</ele>
        <time>2022-10-04T10:23:37Z</time>
      </trkpt>
      <trkpt lat="50.72426" lon="5.44501">
        <ele>134.2</ele>
        <time>2022-10-04T10:23:41Z</time>
      </trkpt>
      <trkpt lat="50.7242" lon="5.44516">
        <ele>134.4</ele>
        <time>2022-10-04T10:23:43Z</time>
      </trkpt>
      <trkpt lat="50.7241" lon="5.44535">
        <ele>134.6</ele>
        <time>2022-10-04T10:23:46Z</time>
      </trkpt>
      <trkpt lat="50.72395" lon="5.44557">
        <ele>135.4</ele>
        <time>2022-10-04T10:23:50Z</time>
      </trkpt>
      <trkpt lat="50.72362" lon="5.44593">
        <ele>136.8</ele>
        <time>2022-10-04T10:23:57Z</time>
      </trkpt>
      <trkpt lat="50.72343" lon="5.44613">
        <ele>137.4</ele>
        <time>2022-10-04T10:24:01Z</time>
      </trkpt>
      <trkpt lat="50.72338" lon="5.44618">
        <ele>137.4</ele>
        <time>2022-10-04T10:24:02Z</time>
      </trkpt>
      <trkpt lat="50.72315" lon="5.44643">
        <ele>137.8</ele>
        <time>2022-10-04T10:24:07Z</time>
      </trkpt>
      <trkpt lat="50.72301" lon="5.44659">
        <ele>138</ele>
        <time>2022-10-04T10:24:10Z</time>
      </trkpt>
      <trkpt lat="50.72284" lon="5.44681">
        <ele>138.2</ele>
        <time>2022-10-04T10:24:14Z</time>
      </trkpt>
      <trkpt lat="50.72271" lon="5.44697">
        <ele>138.4</ele>
        <time>2022-10-04T10:24:17Z</time>
      </trkpt>
      <trkpt lat="50.72253" lon="5.44721">
        <ele>139.4</ele>
        <time>2022-10-04T10:24:21Z</time>
      </trkpt>
      <trkpt lat="50.72233" lon="5.44758">
        <ele>140.6</ele>
        <time>2022-10-04T10:24:26Z</time>
      </trkpt>
      <trkpt lat="50.72225" lon="5.44775">
        <ele>141.2</ele>
        <time>2022-10-04T10:24:28Z</time>
      </trkpt>
      <trkpt lat="50.7221" lon="5.44809">
        <ele>141.6</ele>
        <time>2022-10-04T10:24:32Z</time>
      </trkpt>
      <trkpt lat="50.72206" lon="5.44817">
        <ele>141.8</ele>
        <time>2022-10-04T10:24:33Z</time>
      </trkpt>
      <trkpt lat="50.72174" lon="5.4487">
        <ele>142</ele>
        <time>2022-10-04T10:24:40Z</time>
      </trkpt>
      <trkpt lat="50.72169" lon="5.44876">
        <ele>142</ele>
        <time>2022-10-04T10:24:41Z</time>
      </trkpt>
      <trkpt lat="50.72153" lon="5.44896">
        <ele>142</ele>
        <time>2022-10-04T10:24:44Z</time>
      </trkpt>
      <trkpt lat="50.72123" lon="5.44936">
        <ele>142</ele>
        <time>2022-10-04T10:24:50Z</time>
      </trkpt>
      <trkpt lat="50.72118" lon="5.44942">
        <ele>141.8</ele>
        <time>2022-10-04T10:24:51Z</time>
      </trkpt>
      <trkpt lat="50.72079" lon="5.44994">
        <ele>142.2</ele>
        <time>2022-10-04T10:24:59Z</time>
      </trkpt>
      <trkpt lat="50.72069" lon="5.45006">
        <ele>142.2</ele>
        <time>2022-10-04T10:25:01Z</time>
      </trkpt>
      <trkpt lat="50.72038" lon="5.45058">
        <ele>143</ele>
        <time>2022-10-04T10:25:08Z</time>
      </trkpt>
      <trkpt lat="50.7203" lon="5.45075">
        <ele>143.2</ele>
        <time>2022-10-04T10:25:10Z</time>
      </trkpt>
      <trkpt lat="50.72026" lon="5.45084">
        <ele>143.2</ele>
        <time>2022-10-04T10:25:11Z</time>
      </trkpt>
      <trkpt lat="50.72009" lon="5.45118">
        <ele>144</ele>
        <time>2022-10-04T10:25:15Z</time>
      </trkpt>
      <trkpt lat="50.71986" lon="5.45169">
        <ele>144.2</ele>
        <time>2022-10-04T10:25:21Z</time>
      </trkpt>
      <trkpt lat="50.71982" lon="5.45177">
        <ele>144.4</ele>
        <time>2022-10-04T10:25:22Z</time>
      </trkpt>
      <trkpt lat="50.7197" lon="5.45204">
        <ele>144.2</ele>
        <time>2022-10-04T10:25:25Z</time>
      </trkpt>
      <trkpt lat="50.71951" lon="5.45246">
        <ele>144.4</ele>
        <time>2022-10-04T10:25:30Z</time>
      </trkpt>
      <trkpt lat="50.71925" lon="5.45304">
        <ele>145</ele>
        <time>2022-10-04T10:25:37Z</time>
      </trkpt>
      <trkpt lat="50.71909" lon="5.45331">
        <ele>145.4</ele>
        <time>2022-10-04T10:25:41Z</time>
      </trkpt>
      <trkpt lat="50.71903" lon="5.45344">
        <ele>145.6</ele>
        <time>2022-10-04T10:25:43Z</time>
      </trkpt>
      <trkpt lat="50.71902" lon="5.45351">
        <ele>145.8</ele>
        <time>2022-10-04T10:25:44Z</time>
      </trkpt>
      <trkpt lat="50.71902" lon="5.45359">
        <ele>145.8</ele>
        <time>2022-10-04T10:25:45Z</time>
      </trkpt>
      <trkpt lat="50.71904" lon="5.45367">
        <ele>146</ele>
        <time>2022-10-04T10:25:46Z</time>
      </trkpt>
      <trkpt lat="50.71906" lon="5.45375">
        <ele>146.4</ele>
        <time>2022-10-04T10:25:47Z</time>
      </trkpt>
      <trkpt lat="50.71912" lon="5.45389">
        <ele>146.8</ele>
        <time>2022-10-04T10:25:49Z</time>
      </trkpt>
      <trkpt lat="50.71916" lon="5.45397">
        <ele>147.2</ele>
        <time>2022-10-04T10:25:50Z</time>
      </trkpt>
      <trkpt lat="50.71941" lon="5.45445">
        <ele>148.8</ele>
        <time>2022-10-04T10:25:56Z</time>
      </trkpt>
      <trkpt lat="50.7195" lon="5.45462">
        <ele>149.2</ele>
        <time>2022-10-04T10:25:58Z</time>
      </trkpt>
      <trkpt lat="50.71986" lon="5.45533">
        <ele>149.8</ele>
        <time>2022-10-04T10:26:06Z</time>
      </trkpt>
      <trkpt lat="50.71996" lon="5.45551">
        <ele>149.8</ele>
        <time>2022-10-04T10:26:08Z</time>
      </trkpt>
      <trkpt lat="50.72006" lon="5.4557">
        <ele>149.8</ele>
        <time>2022-10-04T10:26:10Z</time>
      </trkpt>
      <trkpt lat="50.72016" lon="5.45589">
        <ele>149.8</ele>
        <time>2022-10-04T10:26:12Z</time>
      </trkpt>
      <trkpt lat="50.72041" lon="5.45636">
        <ele>149.8</ele>
        <time>2022-10-04T10:26:17Z</time>
      </trkpt>
      <trkpt lat="50.72046" lon="5.45645">
        <ele>149.6</ele>
        <time>2022-10-04T10:26:18Z</time>
      </trkpt>
      <trkpt lat="50.72082" lon="5.45715">
        <ele>148.8</ele>
        <time>2022-10-04T10:26:25Z</time>
      </trkpt>
      <trkpt lat="50.72115" lon="5.45778">
        <ele>148.4</ele>
        <time>2022-10-04T10:26:31Z</time>
      </trkpt>
      <trkpt lat="50.72121" lon="5.45789">
        <ele>148.4</ele>
        <time>2022-10-04T10:26:32Z</time>
      </trkpt>
      <trkpt lat="50.72132" lon="5.45811">
        <ele>148.2</ele>
        <time>2022-10-04T10:26:34Z</time>
      </trkpt>
      <trkpt lat="50.72155" lon="5.45855">
        <ele>147.8</ele>
        <time>2022-10-04T10:26:38Z</time>
      </trkpt>
      <trkpt lat="50.72193" lon="5.45928">
        <ele>147</ele>
        <time>2022-10-04T10:26:45Z</time>
      </trkpt>
      <trkpt lat="50.72204" lon="5.4595">
        <ele>146.6</ele>
        <time>2022-10-04T10:26:47Z</time>
      </trkpt>
      <trkpt lat="50.7221" lon="5.45961">
        <ele>146.6</ele>
        <time>2022-10-04T10:26:48Z</time>
      </trkpt>
      <trkpt lat="50.72221" lon="5.45983">
        <ele>146.2</ele>
        <time>2022-10-04T10:26:50Z</time>
      </trkpt>
      <trkpt lat="50.72233" lon="5.46005">
        <ele>146</ele>
        <time>2022-10-04T10:26:52Z</time>
      </trkpt>
      <trkpt lat="50.72239" lon="5.46016">
        <ele>146</ele>
        <time>2022-10-04T10:26:53Z</time>
      </trkpt>
      <trkpt lat="50.7225" lon="5.46037">
        <ele>145.8</ele>
        <time>2022-10-04T10:26:55Z</time>
      </trkpt>
      <trkpt lat="50.72278" lon="5.4609">
        <ele>145.2</ele>
        <time>2022-10-04T10:27:00Z</time>
      </trkpt>
      <trkpt lat="50.72283" lon="5.461">
        <ele>145</ele>
        <time>2022-10-04T10:27:01Z</time>
      </trkpt>
      <trkpt lat="50.72299" lon="5.46131">
        <ele>145</ele>
        <time>2022-10-04T10:27:04Z</time>
      </trkpt>
      <trkpt lat="50.72316" lon="5.46163">
        <ele>144.6</ele>
        <time>2022-10-04T10:27:07Z</time>
      </trkpt>
      <trkpt lat="50.72327" lon="5.46185">
        <ele>144.2</ele>
        <time>2022-10-04T10:27:09Z</time>
      </trkpt>
      <trkpt lat="50.72339" lon="5.46207">
        <ele>144</ele>
        <time>2022-10-04T10:27:11Z</time>
      </trkpt>
      <trkpt lat="50.72351" lon="5.46231">
        <ele>143.6</ele>
        <time>2022-10-04T10:27:13Z</time>
      </trkpt>
      <trkpt lat="50.7237" lon="5.46268">
        <ele>143</ele>
        <time>2022-10-04T10:27:16Z</time>
      </trkpt>
      <trkpt lat="50.72383" lon="5.46293">
        <ele>142.6</ele>
        <time>2022-10-04T10:27:18Z</time>
      </trkpt>
      <trkpt lat="50.72397" lon="5.4632">
        <ele>142</ele>
        <time>2022-10-04T10:27:20Z</time>
      </trkpt>
      <trkpt lat="50.72408" lon="5.46349">
        <ele>140.2</ele>
        <time>2022-10-04T10:27:22Z</time>
      </trkpt>
      <trkpt lat="50.72412" lon="5.46364">
        <ele>139.6</ele>
        <time>2022-10-04T10:27:23Z</time>
      </trkpt>
      <trkpt lat="50.72418" lon="5.46394">
        <ele>138.6</ele>
        <time>2022-10-04T10:27:25Z</time>
      </trkpt>
      <trkpt lat="50.72419" lon="5.46409">
        <ele>138</ele>
        <time>2022-10-04T10:27:26Z</time>
      </trkpt>
      <trkpt lat="50.7242" lon="5.46423">
        <ele>137.8</ele>
        <time>2022-10-04T10:27:27Z</time>
      </trkpt>
      <trkpt lat="50.72421" lon="5.46436">
        <ele>137.4</ele>
        <time>2022-10-04T10:27:28Z</time>
      </trkpt>
      <trkpt lat="50.7242" lon="5.46449">
        <ele>137.4</ele>
        <time>2022-10-04T10:27:29Z</time>
      </trkpt>
      <trkpt lat="50.72418" lon="5.46459">
        <ele>137.4</ele>
        <time>2022-10-04T10:27:30Z</time>
      </trkpt>
      <trkpt lat="50.72414" lon="5.46467">
        <ele>137.4</ele>
        <time>2022-10-04T10:27:31Z</time>
      </trkpt>
      <trkpt lat="50.72408" lon="5.46472">
        <ele>137.4</ele>
        <time>2022-10-04T10:27:32Z</time>
      </trkpt>
      <trkpt lat="50.72402" lon="5.46474">
        <ele>137.2</ele>
        <time>2022-10-04T10:27:33Z</time>
      </trkpt>
      <trkpt lat="50.72387" lon="5.46476">
        <ele>137.2</ele>
        <time>2022-10-04T10:27:35Z</time>
      </trkpt>
      <trkpt lat="50.72372" lon="5.46478">
        <ele>137.6</ele>
        <time>2022-10-04T10:27:37Z</time>
      </trkpt>
      <trkpt lat="50.72349" lon="5.46479">
        <ele>138.6</ele>
        <time>2022-10-04T10:27:40Z</time>
      </trkpt>
      <trkpt lat="50.72333" lon="5.46476">
        <ele>138.6</ele>
        <time>2022-10-04T10:27:42Z</time>
      </trkpt>
      <trkpt lat="50.72317" lon="5.46471">
        <ele>138.8</ele>
        <time>2022-10-04T10:27:44Z</time>
      </trkpt>
      <trkpt lat="50.72309" lon="5.46467">
        <ele>138.8</ele>
        <time>2022-10-04T10:27:45Z</time>
      </trkpt>
      <trkpt lat="50.72294" lon="5.46458">
        <ele>138.6</ele>
        <time>2022-10-04T10:27:47Z</time>
      </trkpt>
      <trkpt lat="50.72261" lon="5.46452">
        <ele>138.4</ele>
        <time>2022-10-04T10:27:51Z</time>
      </trkpt>
      <trkpt lat="50.72246" lon="5.46454">
        <ele>138.2</ele>
        <time>2022-10-04T10:27:53Z</time>
      </trkpt>
      <trkpt lat="50.72231" lon="5.46455">
        <ele>138.2</ele>
        <time>2022-10-04T10:27:55Z</time>
      </trkpt>
      <trkpt lat="50.7221" lon="5.46457">
        <ele>138.2</ele>
        <time>2022-10-04T10:27:58Z</time>
      </trkpt>
      <trkpt lat="50.72181" lon="5.46456">
        <ele>138</ele>
        <time>2022-10-04T10:28:02Z</time>
      </trkpt>
      <trkpt lat="50.72161" lon="5.46456">
        <ele>138.2</ele>
        <time>2022-10-04T10:28:05Z</time>
      </trkpt>
      <trkpt lat="50.72143" lon="5.46456">
        <ele>138.4</ele>
        <time>2022-10-04T10:28:08Z</time>
      </trkpt>
      <trkpt lat="50.72137" lon="5.46455">
        <ele>138.6</ele>
        <time>2022-10-04T10:28:09Z</time>
      </trkpt>
      <trkpt lat="50.72131" lon="5.46455">
        <ele>138.4</ele>
        <time>2022-10-04T10:28:10Z</time>
      </trkpt>
      <trkpt lat="50.72125" lon="5.46456">
        <ele>138.6</ele>
        <time>2022-10-04T10:28:11Z</time>
      </trkpt>
      <trkpt lat="50.7212" lon="5.46455">
        <ele>138.6</ele>
        <time>2022-10-04T10:28:12Z</time>
      </trkpt>
      <trkpt lat="50.7209" lon="5.46449">
        <ele>138.8</ele>
        <time>2022-10-04T10:28:17Z</time>
      </trkpt>
      <trkpt lat="50.72084" lon="5.46448">
        <ele>139</ele>
        <time>2022-10-04T10:28:18Z</time>
      </trkpt>
      <trkpt lat="50.72077" lon="5.46448">
        <ele>139.4</ele>
        <time>2022-10-04T10:28:19Z</time>
      </trkpt>
      <trkpt lat="50.72058" lon="5.46451">
        <ele>139.4</ele>
        <time>2022-10-04T10:28:22Z</time>
      </trkpt>
      <trkpt lat="50.72051" lon="5.46453">
        <ele>139.4</ele>
        <time>2022-10-04T10:28:23Z</time>
      </trkpt>
      <trkpt lat="50.7202" lon="5.46461">
        <ele>139.4</ele>
        <time>2022-10-04T10:28:28Z</time>
      </trkpt>
      <trkpt lat="50.71994" lon="5.46463">
        <ele>139.8</ele>
        <time>2022-10-04T10:28:32Z</time>
      </trkpt>
      <trkpt lat="50.71957" lon="5.46467">
        <ele>140.2</ele>
        <time>2022-10-04T10:28:38Z</time>
      </trkpt>
      <trkpt lat="50.71951" lon="5.46469">
        <ele>140</ele>
        <time>2022-10-04T10:28:39Z</time>
      </trkpt>
      <trkpt lat="50.7194" lon="5.46475">
        <ele>140.2</ele>
        <time>2022-10-04T10:28:41Z</time>
      </trkpt>
      <trkpt lat="50.71924" lon="5.46484">
        <ele>140.4</ele>
        <time>2022-10-04T10:28:44Z</time>
      </trkpt>
      <trkpt lat="50.71914" lon="5.46491">
        <ele>140.8</ele>
        <time>2022-10-04T10:28:46Z</time>
      </trkpt>
      <trkpt lat="50.71899" lon="5.46499">
        <ele>141.6</ele>
        <time>2022-10-04T10:28:49Z</time>
      </trkpt>
      <trkpt lat="50.71878" lon="5.46509">
        <ele>143.2</ele>
        <time>2022-10-04T10:28:53Z</time>
      </trkpt>
      <trkpt lat="50.71862" lon="5.46516">
        <ele>144.2</ele>
        <time>2022-10-04T10:28:56Z</time>
      </trkpt>
      <trkpt lat="50.7184" lon="5.46523">
        <ele>144.6</ele>
        <time>2022-10-04T10:29:00Z</time>
      </trkpt>
      <trkpt lat="50.71829" lon="5.46524">
        <ele>145.2</ele>
        <time>2022-10-04T10:29:02Z</time>
      </trkpt>
      <trkpt lat="50.71818" lon="5.46523">
        <ele>146</ele>
        <time>2022-10-04T10:29:04Z</time>
      </trkpt>
      <trkpt lat="50.71813" lon="5.46522">
        <ele>146.4</ele>
        <time>2022-10-04T10:29:05Z</time>
      </trkpt>
      <trkpt lat="50.71797" lon="5.46517">
        <ele>146.8</ele>
        <time>2022-10-04T10:29:08Z</time>
      </trkpt>
      <trkpt lat="50.71775" lon="5.46509">
        <ele>147.4</ele>
        <time>2022-10-04T10:29:12Z</time>
      </trkpt>
      <trkpt lat="50.71765" lon="5.46504">
        <ele>148</ele>
        <time>2022-10-04T10:29:14Z</time>
      </trkpt>
      <trkpt lat="50.71759" lon="5.46501">
        <ele>148.4</ele>
        <time>2022-10-04T10:29:15Z</time>
      </trkpt>
      <trkpt lat="50.71734" lon="5.46482">
        <ele>150</ele>
        <time>2022-10-04T10:29:20Z</time>
      </trkpt>
      <trkpt lat="50.71728" lon="5.4648">
        <ele>150.4</ele>
        <time>2022-10-04T10:29:21Z</time>
      </trkpt>
      <trkpt lat="50.71712" lon="5.46477">
        <ele>151</ele>
        <time>2022-10-04T10:29:24Z</time>
      </trkpt>
      <trkpt lat="50.71696" lon="5.46477">
        <ele>151.2</ele>
        <time>2022-10-04T10:29:27Z</time>
      </trkpt>
      <trkpt lat="50.71669" lon="5.46479">
        <ele>152</ele>
        <time>2022-10-04T10:29:32Z</time>
      </trkpt>
      <trkpt lat="50.71657" lon="5.4648">
        <ele>152</ele>
        <time>2022-10-04T10:29:34Z</time>
      </trkpt>
      <trkpt lat="50.71614" lon="5.46481">
        <ele>153.2</ele>
        <time>2022-10-04T10:29:41Z</time>
      </trkpt>
      <trkpt lat="50.716" lon="5.46482">
        <ele>153.2</ele>
        <time>2022-10-04T10:29:43Z</time>
      </trkpt>
      <trkpt lat="50.71586" lon="5.46483">
        <ele>153.2</ele>
        <time>2022-10-04T10:29:45Z</time>
      </trkpt>
      <trkpt lat="50.71572" lon="5.46483">
        <ele>153.2</ele>
        <time>2022-10-04T10:29:47Z</time>
      </trkpt>
      <trkpt lat="50.71565" lon="5.46482">
        <ele>153.2</ele>
        <time>2022-10-04T10:29:48Z</time>
      </trkpt>
      <trkpt lat="50.71551" lon="5.46479">
        <ele>153.4</ele>
        <time>2022-10-04T10:29:50Z</time>
      </trkpt>
      <trkpt lat="50.7153" lon="5.46473">
        <ele>152.8</ele>
        <time>2022-10-04T10:29:53Z</time>
      </trkpt>
      <trkpt lat="50.71489" lon="5.46465">
        <ele>151.8</ele>
        <time>2022-10-04T10:29:59Z</time>
      </trkpt>
      <trkpt lat="50.71483" lon="5.46467">
        <ele>151.4</ele>
        <time>2022-10-04T10:30:00Z</time>
      </trkpt>
      <trkpt lat="50.71476" lon="5.46471">
        <ele>151.2</ele>
        <time>2022-10-04T10:30:01Z</time>
      </trkpt>
      <trkpt lat="50.71471" lon="5.46477">
        <ele>150.8</ele>
        <time>2022-10-04T10:30:02Z</time>
      </trkpt>
      <trkpt lat="50.71455" lon="5.46499">
        <ele>150.4</ele>
        <time>2022-10-04T10:30:05Z</time>
      </trkpt>
      <trkpt lat="50.71447" lon="5.46513">
        <ele>150.2</ele>
        <time>2022-10-04T10:30:07Z</time>
      </trkpt>
      <trkpt lat="50.71434" lon="5.46536">
        <ele>149.2</ele>
        <time>2022-10-04T10:30:11Z</time>
      </trkpt>
      <trkpt lat="50.71429" lon="5.46536">
        <ele>149.2</ele>
        <time>2022-10-04T10:30:12Z</time>
      </trkpt>
      <trkpt lat="50.71421" lon="5.46529">
        <ele>149</ele>
        <time>2022-10-04T10:30:14Z</time>
      </trkpt>
      <trkpt lat="50.71417" lon="5.46525">
        <ele>148.8</ele>
        <time>2022-10-04T10:30:15Z</time>
      </trkpt>
      <trkpt lat="50.71412" lon="5.4652">
        <ele>149</ele>
        <time>2022-10-04T10:30:16Z</time>
      </trkpt>
      <trkpt lat="50.71389" lon="5.46499">
        <ele>148.8</ele>
        <time>2022-10-04T10:30:20Z</time>
      </trkpt>
      <trkpt lat="50.71377" lon="5.46487">
        <ele>148.8</ele>
        <time>2022-10-04T10:30:22Z</time>
      </trkpt>
      <trkpt lat="50.71365" lon="5.46475">
        <ele>148.4</ele>
        <time>2022-10-04T10:30:24Z</time>
      </trkpt>
      <trkpt lat="50.71354" lon="5.46463">
        <ele>147.6</ele>
        <time>2022-10-04T10:30:26Z</time>
      </trkpt>
      <trkpt lat="50.71327" lon="5.46432">
        <ele>146.2</ele>
        <time>2022-10-04T10:30:31Z</time>
      </trkpt>
      <trkpt lat="50.71321" lon="5.46425">
        <ele>145.6</ele>
        <time>2022-10-04T10:30:32Z</time>
      </trkpt>
      <trkpt lat="50.71315" lon="5.46417">
        <ele>145.4</ele>
        <time>2022-10-04T10:30:33Z</time>
      </trkpt>
      <trkpt lat="50.71304" lon="5.46403">
        <ele>145</ele>
        <time>2022-10-04T10:30:35Z</time>
      </trkpt>
      <trkpt lat="50.71293" lon="5.46387">
        <ele>144.6</ele>
        <time>2022-10-04T10:30:37Z</time>
      </trkpt>
      <trkpt lat="50.71281" lon="5.46372">
        <ele>144.4</ele>
        <time>2022-10-04T10:30:39Z</time>
      </trkpt>
      <trkpt lat="50.71275" lon="5.46365">
        <ele>144.2</ele>
        <time>2022-10-04T10:30:40Z</time>
      </trkpt>
      <trkpt lat="50.71231" lon="5.46315">
        <ele>141.8</ele>
        <time>2022-10-04T10:30:47Z</time>
      </trkpt>
      <trkpt lat="50.71191" lon="5.46266">
        <ele>141.2</ele>
        <time>2022-10-04T10:30:53Z</time>
      </trkpt>
      <trkpt lat="50.71185" lon="5.46257">
        <ele>141</ele>
        <time>2022-10-04T10:30:54Z</time>
      </trkpt>
      <trkpt lat="50.71171" lon="5.4624">
        <ele>141</ele>
        <time>2022-10-04T10:30:56Z</time>
      </trkpt>
      <trkpt lat="50.71158" lon="5.46224">
        <ele>140.6</ele>
        <time>2022-10-04T10:30:58Z</time>
      </trkpt>
      <trkpt lat="50.71151" lon="5.46215">
        <ele>140.8</ele>
        <time>2022-10-04T10:30:59Z</time>
      </trkpt>
      <trkpt lat="50.71141" lon="5.46195">
        <ele>140.6</ele>
        <time>2022-10-04T10:31:01Z</time>
      </trkpt>
      <trkpt lat="50.71132" lon="5.46175">
        <ele>140</ele>
        <time>2022-10-04T10:31:03Z</time>
      </trkpt>
      <trkpt lat="50.71128" lon="5.46164">
        <ele>139.6</ele>
        <time>2022-10-04T10:31:04Z</time>
      </trkpt>
      <trkpt lat="50.71111" lon="5.46124">
        <ele>139.2</ele>
        <time>2022-10-04T10:31:08Z</time>
      </trkpt>
      <trkpt lat="50.71099" lon="5.46095">
        <ele>139</ele>
        <time>2022-10-04T10:31:11Z</time>
      </trkpt>
      <trkpt lat="50.71087" lon="5.46067">
        <ele>139</ele>
        <time>2022-10-04T10:31:14Z</time>
      </trkpt>
      <trkpt lat="50.71073" lon="5.46028">
        <ele>138.8</ele>
        <time>2022-10-04T10:31:18Z</time>
      </trkpt>
      <trkpt lat="50.71069" lon="5.46019">
        <ele>139</ele>
        <time>2022-10-04T10:31:19Z</time>
      </trkpt>
      <trkpt lat="50.71065" lon="5.4601">
        <ele>139</ele>
        <time>2022-10-04T10:31:20Z</time>
      </trkpt>
      <trkpt lat="50.71049" lon="5.45973">
        <ele>139.2</ele>
        <time>2022-10-04T10:31:24Z</time>
      </trkpt>
      <trkpt lat="50.71045" lon="5.45964">
        <ele>139.2</ele>
        <time>2022-10-04T10:31:25Z</time>
      </trkpt>
      <trkpt lat="50.71042" lon="5.45955">
        <ele>139.4</ele>
        <time>2022-10-04T10:31:26Z</time>
      </trkpt>
      <trkpt lat="50.71033" lon="5.45929">
        <ele>140.2</ele>
        <time>2022-10-04T10:31:29Z</time>
      </trkpt>
      <trkpt lat="50.71028" lon="5.45912">
        <ele>140.6</ele>
        <time>2022-10-04T10:31:31Z</time>
      </trkpt>
      <trkpt lat="50.71022" lon="5.45886">
        <ele>141.4</ele>
        <time>2022-10-04T10:31:34Z</time>
      </trkpt>
      <trkpt lat="50.71015" lon="5.45859">
        <ele>141.8</ele>
        <time>2022-10-04T10:31:37Z</time>
      </trkpt>
      <trkpt lat="50.71008" lon="5.45833">
        <ele>142.6</ele>
        <time>2022-10-04T10:31:40Z</time>
      </trkpt>
      <trkpt lat="50.70993" lon="5.45791">
        <ele>144.4</ele>
        <time>2022-10-04T10:31:45Z</time>
      </trkpt>
      <trkpt lat="50.70973" lon="5.45757">
        <ele>145.4</ele>
        <time>2022-10-04T10:31:50Z</time>
      </trkpt>
      <trkpt lat="50.70957" lon="5.45739">
        <ele>145.8</ele>
        <time>2022-10-04T10:31:53Z</time>
      </trkpt>
      <trkpt lat="50.70947" lon="5.45728">
        <ele>146.4</ele>
        <time>2022-10-04T10:31:55Z</time>
      </trkpt>
      <trkpt lat="50.70937" lon="5.45716">
        <ele>146.8</ele>
        <time>2022-10-04T10:31:57Z</time>
      </trkpt>
      <trkpt lat="50.70888" lon="5.45662">
        <ele>147.2</ele>
        <time>2022-10-04T10:32:06Z</time>
      </trkpt>
      <trkpt lat="50.70853" lon="5.45631">
        <ele>147</ele>
        <time>2022-10-04T10:32:12Z</time>
      </trkpt>
      <trkpt lat="50.7084" lon="5.45622">
        <ele>147.2</ele>
        <time>2022-10-04T10:32:14Z</time>
      </trkpt>
      <trkpt lat="50.70787" lon="5.45583">
        <ele>145.4</ele>
        <time>2022-10-04T10:32:22Z</time>
      </trkpt>
      <trkpt lat="50.70781" lon="5.45578">
        <ele>145.4</ele>
        <time>2022-10-04T10:32:23Z</time>
      </trkpt>
      <trkpt lat="50.70754" lon="5.45559">
        <ele>144.6</ele>
        <time>2022-10-04T10:32:27Z</time>
      </trkpt>
      <trkpt lat="50.70726" lon="5.45538">
        <ele>144.6</ele>
        <time>2022-10-04T10:32:31Z</time>
      </trkpt>
      <trkpt lat="50.70705" lon="5.45522">
        <ele>144</ele>
        <time>2022-10-04T10:32:34Z</time>
      </trkpt>
      <trkpt lat="50.7069" lon="5.45512">
        <ele>143.8</ele>
        <time>2022-10-04T10:32:36Z</time>
      </trkpt>
      <trkpt lat="50.70675" lon="5.45505">
        <ele>143.4</ele>
        <time>2022-10-04T10:32:38Z</time>
      </trkpt>
      <trkpt lat="50.70667" lon="5.45501">
        <ele>143.4</ele>
        <time>2022-10-04T10:32:39Z</time>
      </trkpt>
      <trkpt lat="50.70652" lon="5.45495">
        <ele>143.4</ele>
        <time>2022-10-04T10:32:41Z</time>
      </trkpt>
      <trkpt lat="50.70607" lon="5.4548">
        <ele>143</ele>
        <time>2022-10-04T10:32:47Z</time>
      </trkpt>
      <trkpt lat="50.70586" lon="5.4547">
        <ele>142.8</ele>
        <time>2022-10-04T10:32:50Z</time>
      </trkpt>
      <trkpt lat="50.70573" lon="5.45459">
        <ele>142.8</ele>
        <time>2022-10-04T10:32:52Z</time>
      </trkpt>
      <trkpt lat="50.70568" lon="5.45452">
        <ele>142.6</ele>
        <time>2022-10-04T10:32:53Z</time>
      </trkpt>
      <trkpt lat="50.70558" lon="5.45436">
        <ele>142.8</ele>
        <time>2022-10-04T10:32:55Z</time>
      </trkpt>
      <trkpt lat="50.70554" lon="5.45427">
        <ele>142.8</ele>
        <time>2022-10-04T10:32:56Z</time>
      </trkpt>
      <trkpt lat="50.70549" lon="5.45418">
        <ele>142.8</ele>
        <time>2022-10-04T10:32:57Z</time>
      </trkpt>
      <trkpt lat="50.70545" lon="5.45408">
        <ele>142.8</ele>
        <time>2022-10-04T10:32:58Z</time>
      </trkpt>
      <trkpt lat="50.70541" lon="5.45399">
        <ele>143</ele>
        <time>2022-10-04T10:32:59Z</time>
      </trkpt>
      <trkpt lat="50.70536" lon="5.45389">
        <ele>143</ele>
        <time>2022-10-04T10:33:00Z</time>
      </trkpt>
      <trkpt lat="50.70532" lon="5.4538">
        <ele>142.8</ele>
        <time>2022-10-04T10:33:01Z</time>
      </trkpt>
      <trkpt lat="50.70524" lon="5.45361">
        <ele>143</ele>
        <time>2022-10-04T10:33:03Z</time>
      </trkpt>
      <trkpt lat="50.7052" lon="5.45351">
        <ele>143</ele>
        <time>2022-10-04T10:33:04Z</time>
      </trkpt>
      <trkpt lat="50.70494" lon="5.45295">
        <ele>143.2</ele>
        <time>2022-10-04T10:33:10Z</time>
      </trkpt>
      <trkpt lat="50.70489" lon="5.45286">
        <ele>143.4</ele>
        <time>2022-10-04T10:33:11Z</time>
      </trkpt>
      <trkpt lat="50.70485" lon="5.45277">
        <ele>143.6</ele>
        <time>2022-10-04T10:33:12Z</time>
      </trkpt>
      <trkpt lat="50.70449" lon="5.4521">
        <ele>144.4</ele>
        <time>2022-10-04T10:33:20Z</time>
      </trkpt>
      <trkpt lat="50.70444" lon="5.45202">
        <ele>144.6</ele>
        <time>2022-10-04T10:33:21Z</time>
      </trkpt>
      <trkpt lat="50.7044" lon="5.45194">
        <ele>144.8</ele>
        <time>2022-10-04T10:33:22Z</time>
      </trkpt>
      <trkpt lat="50.70412" lon="5.45148">
        <ele>145.4</ele>
        <time>2022-10-04T10:33:28Z</time>
      </trkpt>
      <trkpt lat="50.70399" lon="5.45126">
        <ele>146.2</ele>
        <time>2022-10-04T10:33:31Z</time>
      </trkpt>
      <trkpt lat="50.70391" lon="5.45111">
        <ele>146.6</ele>
        <time>2022-10-04T10:33:33Z</time>
      </trkpt>
      <trkpt lat="50.70383" lon="5.45098">
        <ele>146.6</ele>
        <time>2022-10-04T10:33:35Z</time>
      </trkpt>
      <trkpt lat="50.70372" lon="5.45077">
        <ele>147.2</ele>
        <time>2022-10-04T10:33:38Z</time>
      </trkpt>
      <trkpt lat="50.70364" lon="5.45064">
        <ele>147.6</ele>
        <time>2022-10-04T10:33:40Z</time>
      </trkpt>
      <trkpt lat="50.7036" lon="5.45058">
        <ele>148</ele>
        <time>2022-10-04T10:33:41Z</time>
      </trkpt>
      <trkpt lat="50.70354" lon="5.45044">
        <ele>148.4</ele>
        <time>2022-10-04T10:33:43Z</time>
      </trkpt>
      <trkpt lat="50.70351" lon="5.45036">
        <ele>148.6</ele>
        <time>2022-10-04T10:33:44Z</time>
      </trkpt>
      <trkpt lat="50.70347" lon="5.4502">
        <ele>149.6</ele>
        <time>2022-10-04T10:33:46Z</time>
      </trkpt>
      <trkpt lat="50.70342" lon="5.44994">
        <ele>151.4</ele>
        <time>2022-10-04T10:33:49Z</time>
      </trkpt>
      <trkpt lat="50.70339" lon="5.44986">
        <ele>151.6</ele>
        <time>2022-10-04T10:33:50Z</time>
      </trkpt>
      <trkpt lat="50.70325" lon="5.44955">
        <ele>151.8</ele>
        <time>2022-10-04T10:33:54Z</time>
      </trkpt>
      <trkpt lat="50.70318" lon="5.44939">
        <ele>151.8</ele>
        <time>2022-10-04T10:33:56Z</time>
      </trkpt>
      <trkpt lat="50.7031" lon="5.44924">
        <ele>151.8</ele>
        <time>2022-10-04T10:33:58Z</time>
      </trkpt>
      <trkpt lat="50.70298" lon="5.44899">
        <ele>151.8</ele>
        <time>2022-10-04T10:34:01Z</time>
      </trkpt>
      <trkpt lat="50.70291" lon="5.44879">
        <ele>151.8</ele>
        <time>2022-10-04T10:34:03Z</time>
      </trkpt>
      <trkpt lat="50.70279" lon="5.44837">
        <ele>151.6</ele>
        <time>2022-10-04T10:34:07Z</time>
      </trkpt>
      <trkpt lat="50.70276" lon="5.44826">
        <ele>151.6</ele>
        <time>2022-10-04T10:34:08Z</time>
      </trkpt>
      <trkpt lat="50.70269" lon="5.44805">
        <ele>151.4</ele>
        <time>2022-10-04T10:34:10Z</time>
      </trkpt>
      <trkpt lat="50.70265" lon="5.44795">
        <ele>151.2</ele>
        <time>2022-10-04T10:34:11Z</time>
      </trkpt>
      <trkpt lat="50.70238" lon="5.44717">
        <ele>149.2</ele>
        <time>2022-10-04T10:34:19Z</time>
      </trkpt>
      <trkpt lat="50.70234" lon="5.44707">
        <ele>149</ele>
        <time>2022-10-04T10:34:20Z</time>
      </trkpt>
      <trkpt lat="50.70224" lon="5.44682">
        <ele>148.6</ele>
        <time>2022-10-04T10:34:23Z</time>
      </trkpt>
      <trkpt lat="50.7022" lon="5.44676">
        <ele>148.6</ele>
        <time>2022-10-04T10:34:24Z</time>
      </trkpt>
      <trkpt lat="50.70217" lon="5.44671">
        <ele>148.6</ele>
        <time>2022-10-04T10:34:25Z</time>
      </trkpt>
      <trkpt lat="50.70207" lon="5.44669">
        <ele>148.4</ele>
        <time>2022-10-04T10:34:27Z</time>
      </trkpt>
      <trkpt lat="50.70193" lon="5.44672">
        <ele>148</ele>
        <time>2022-10-04T10:34:30Z</time>
      </trkpt>
      <trkpt lat="50.7019" lon="5.44669">
        <ele>147.6</ele>
        <time>2022-10-04T10:34:31Z</time>
      </trkpt>
      <trkpt lat="50.70189" lon="5.44663">
        <ele>147.4</ele>
        <time>2022-10-04T10:34:32Z</time>
      </trkpt>
      <trkpt lat="50.70189" lon="5.44647">
        <ele>147.4</ele>
        <time>2022-10-04T10:34:34Z</time>
      </trkpt>
      <trkpt lat="50.7019" lon="5.44587">
        <ele>146.8</ele>
        <time>2022-10-04T10:34:40Z</time>
      </trkpt>
      <trkpt lat="50.70191" lon="5.44564">
        <ele>146.8</ele>
        <time>2022-10-04T10:34:42Z</time>
      </trkpt>
      <trkpt lat="50.70193" lon="5.44541">
        <ele>146.6</ele>
        <time>2022-10-04T10:34:44Z</time>
      </trkpt>
      <trkpt lat="50.70194" lon="5.44503">
        <ele>146.2</ele>
        <time>2022-10-04T10:34:47Z</time>
      </trkpt>
      <trkpt lat="50.70194" lon="5.44491">
        <ele>146.2</ele>
        <time>2022-10-04T10:34:48Z</time>
      </trkpt>
      <trkpt lat="50.7019" lon="5.4444">
        <ele>145.8</ele>
        <time>2022-10-04T10:34:52Z</time>
      </trkpt>
      <trkpt lat="50.70179" lon="5.44376">
        <ele>144.8</ele>
        <time>2022-10-04T10:34:57Z</time>
      </trkpt>
      <trkpt lat="50.7017" lon="5.44323">
        <ele>143.4</ele>
        <time>2022-10-04T10:35:01Z</time>
      </trkpt>
      <trkpt lat="50.70161" lon="5.44269">
        <ele>142.8</ele>
        <time>2022-10-04T10:35:05Z</time>
      </trkpt>
      <trkpt lat="50.70152" lon="5.44216">
        <ele>142.4</ele>
        <time>2022-10-04T10:35:09Z</time>
      </trkpt>
      <trkpt lat="50.7015" lon="5.44202">
        <ele>142.2</ele>
        <time>2022-10-04T10:35:10Z</time>
      </trkpt>
      <trkpt lat="50.70148" lon="5.44188">
        <ele>142</ele>
        <time>2022-10-04T10:35:11Z</time>
      </trkpt>
      <trkpt lat="50.70146" lon="5.44121">
        <ele>141.2</ele>
        <time>2022-10-04T10:35:16Z</time>
      </trkpt>
      <trkpt lat="50.70151" lon="5.44063">
        <ele>140.8</ele>
        <time>2022-10-04T10:35:21Z</time>
      </trkpt>
      <trkpt lat="50.70154" lon="5.44027">
        <ele>141</ele>
        <time>2022-10-04T10:35:25Z</time>
      </trkpt>
      <trkpt lat="50.70153" lon="5.44019">
        <ele>141</ele>
        <time>2022-10-04T10:35:26Z</time>
      </trkpt>
      <trkpt lat="50.70151" lon="5.44012">
        <ele>140.8</ele>
        <time>2022-10-04T10:35:27Z</time>
      </trkpt>
      <trkpt lat="50.70146" lon="5.44006">
        <ele>141</ele>
        <time>2022-10-04T10:35:28Z</time>
      </trkpt>
      <trkpt lat="50.70141" lon="5.44002">
        <ele>140.8</ele>
        <time>2022-10-04T10:35:29Z</time>
      </trkpt>
      <trkpt lat="50.70109" lon="5.4399">
        <ele>141.2</ele>
        <time>2022-10-04T10:35:34Z</time>
      </trkpt>
      <trkpt lat="50.70066" lon="5.43978">
        <ele>141.2</ele>
        <time>2022-10-04T10:35:40Z</time>
      </trkpt>
      <trkpt lat="50.70034" lon="5.43973">
        <ele>141.2</ele>
        <time>2022-10-04T10:35:45Z</time>
      </trkpt>
      <trkpt lat="50.70014" lon="5.43971">
        <ele>141.2</ele>
        <time>2022-10-04T10:35:48Z</time>
      </trkpt>
      <trkpt lat="50.69995" lon="5.43969">
        <ele>141.2</ele>
        <time>2022-10-04T10:35:51Z</time>
      </trkpt>
      <trkpt lat="50.69982" lon="5.43968">
        <ele>141.6</ele>
        <time>2022-10-04T10:35:53Z</time>
      </trkpt>
      <trkpt lat="50.69963" lon="5.43967">
        <ele>142.8</ele>
        <time>2022-10-04T10:35:56Z</time>
      </trkpt>
      <trkpt lat="50.69918" lon="5.43961">
        <ele>143.8</ele>
        <time>2022-10-04T10:36:03Z</time>
      </trkpt>
      <trkpt lat="50.69905" lon="5.4396">
        <ele>144</ele>
        <time>2022-10-04T10:36:05Z</time>
      </trkpt>
      <trkpt lat="50.69867" lon="5.43955">
        <ele>144.8</ele>
        <time>2022-10-04T10:36:11Z</time>
      </trkpt>
      <trkpt lat="50.69849" lon="5.4395">
        <ele>145</ele>
        <time>2022-10-04T10:36:14Z</time>
      </trkpt>
      <trkpt lat="50.69819" lon="5.43942">
        <ele>145.6</ele>
        <time>2022-10-04T10:36:19Z</time>
      </trkpt>
      <trkpt lat="50.69797" lon="5.43931">
        <ele>146</ele>
        <time>2022-10-04T10:36:23Z</time>
      </trkpt>
      <trkpt lat="50.69774" lon="5.43921">
        <ele>146.8</ele>
        <time>2022-10-04T10:36:27Z</time>
      </trkpt>
      <trkpt lat="50.6975" lon="5.4391">
        <ele>147.2</ele>
        <time>2022-10-04T10:36:31Z</time>
      </trkpt>
      <trkpt lat="50.69722" lon="5.43898">
        <ele>148</ele>
        <time>2022-10-04T10:36:36Z</time>
      </trkpt>
      <trkpt lat="50.69694" lon="5.43884">
        <ele>149.2</ele>
        <time>2022-10-04T10:36:41Z</time>
      </trkpt>
      <trkpt lat="50.69671" lon="5.43873">
        <ele>149.4</ele>
        <time>2022-10-04T10:36:45Z</time>
      </trkpt>
      <trkpt lat="50.69654" lon="5.43865">
        <ele>150</ele>
        <time>2022-10-04T10:36:48Z</time>
      </trkpt>
      <trkpt lat="50.69631" lon="5.43854">
        <ele>150.8</ele>
        <time>2022-10-04T10:36:52Z</time>
      </trkpt>
      <trkpt lat="50.69626" lon="5.43851">
        <ele>150.8</ele>
        <time>2022-10-04T10:36:53Z</time>
      </trkpt>
      <trkpt lat="50.69585" lon="5.43832">
        <ele>151.6</ele>
        <time>2022-10-04T10:37:00Z</time>
      </trkpt>
      <trkpt lat="50.69537" lon="5.43811">
        <ele>152</ele>
        <time>2022-10-04T10:37:08Z</time>
      </trkpt>
      <trkpt lat="50.6953" lon="5.43809">
        <ele>152.2</ele>
        <time>2022-10-04T10:37:09Z</time>
      </trkpt>
      <trkpt lat="50.69524" lon="5.43808">
        <ele>152.2</ele>
        <time>2022-10-04T10:37:10Z</time>
      </trkpt>
      <trkpt lat="50.69503" lon="5.43807">
        <ele>152</ele>
        <time>2022-10-04T10:37:13Z</time>
      </trkpt>
      <trkpt lat="50.69481" lon="5.43811">
        <ele>152.2</ele>
        <time>2022-10-04T10:37:16Z</time>
      </trkpt>
      <trkpt lat="50.6946" lon="5.43817">
        <ele>152.2</ele>
        <time>2022-10-04T10:37:19Z</time>
      </trkpt>
      <trkpt lat="50.69446" lon="5.43821">
        <ele>152</ele>
        <time>2022-10-04T10:37:21Z</time>
      </trkpt>
      <trkpt lat="50.69432" lon="5.43825">
        <ele>151.6</ele>
        <time>2022-10-04T10:37:23Z</time>
      </trkpt>
      <trkpt lat="50.6941" lon="5.4383">
        <ele>151.4</ele>
        <time>2022-10-04T10:37:26Z</time>
      </trkpt>
      <trkpt lat="50.69388" lon="5.43834">
        <ele>151.2</ele>
        <time>2022-10-04T10:37:29Z</time>
      </trkpt>
      <trkpt lat="50.69368" lon="5.43837">
        <ele>150.6</ele>
        <time>2022-10-04T10:37:32Z</time>
      </trkpt>
      <trkpt lat="50.69343" lon="5.4384">
        <ele>150.6</ele>
        <time>2022-10-04T10:37:36Z</time>
      </trkpt>
      <trkpt lat="50.69321" lon="5.43838">
        <ele>150.8</ele>
        <time>2022-10-04T10:37:40Z</time>
      </trkpt>
      <trkpt lat="50.69304" lon="5.4383">
        <ele>150.8</ele>
        <time>2022-10-04T10:37:45Z</time>
      </trkpt>
      <trkpt lat="50.69301" lon="5.43829">
        <ele>151</ele>
        <time>2022-10-04T10:37:46Z</time>
      </trkpt>
      <trkpt lat="50.69299" lon="5.43828">
        <ele>151</ele>
        <time>2022-10-04T10:37:47Z</time>
      </trkpt>
      <trkpt lat="50.69292" lon="5.43826">
        <ele>150.8</ele>
        <time>2022-10-04T10:37:49Z</time>
      </trkpt>
      <trkpt lat="50.69288" lon="5.43824">
        <ele>150.8</ele>
        <time>2022-10-04T10:37:50Z</time>
      </trkpt>
      <trkpt lat="50.69283" lon="5.43822">
        <ele>150.8</ele>
        <time>2022-10-04T10:37:51Z</time>
      </trkpt>
      <trkpt lat="50.69272" lon="5.43816">
        <ele>150.8</ele>
        <time>2022-10-04T10:37:53Z</time>
      </trkpt>
      <trkpt lat="50.69254" lon="5.43806">
        <ele>150.8</ele>
        <time>2022-10-04T10:37:56Z</time>
      </trkpt>
      <trkpt lat="50.692" lon="5.43775">
        <ele>150.4</ele>
        <time>2022-10-04T10:38:04Z</time>
      </trkpt>
      <trkpt lat="50.69165" lon="5.43756">
        <ele>150.2</ele>
        <time>2022-10-04T10:38:09Z</time>
      </trkpt>
      <trkpt lat="50.69145" lon="5.43744">
        <ele>150.4</ele>
        <time>2022-10-04T10:38:12Z</time>
      </trkpt>
      <trkpt lat="50.69113" lon="5.43726">
        <ele>150.6</ele>
        <time>2022-10-04T10:38:17Z</time>
      </trkpt>
      <trkpt lat="50.69074" lon="5.43706">
        <ele>150.8</ele>
        <time>2022-10-04T10:38:23Z</time>
      </trkpt>
      <trkpt lat="50.69036" lon="5.43688">
        <ele>151.6</ele>
        <time>2022-10-04T10:38:29Z</time>
      </trkpt>
      <trkpt lat="50.69023" lon="5.43683">
        <ele>152</ele>
        <time>2022-10-04T10:38:31Z</time>
      </trkpt>
      <trkpt lat="50.68984" lon="5.43671">
        <ele>152.6</ele>
        <time>2022-10-04T10:38:37Z</time>
      </trkpt>
      <trkpt lat="50.68958" lon="5.43664">
        <ele>153.4</ele>
        <time>2022-10-04T10:38:41Z</time>
      </trkpt>
      <trkpt lat="50.68946" lon="5.43662">
        <ele>153.6</ele>
        <time>2022-10-04T10:38:43Z</time>
      </trkpt>
      <trkpt lat="50.68901" lon="5.43651">
        <ele>154.6</ele>
        <time>2022-10-04T10:38:50Z</time>
      </trkpt>
      <trkpt lat="50.68881" lon="5.43647">
        <ele>155.2</ele>
        <time>2022-10-04T10:38:53Z</time>
      </trkpt>
      <trkpt lat="50.68848" lon="5.43639">
        <ele>155.8</ele>
        <time>2022-10-04T10:38:58Z</time>
      </trkpt>
      <trkpt lat="50.6879" lon="5.43626">
        <ele>156</ele>
        <time>2022-10-04T10:39:07Z</time>
      </trkpt>
      <trkpt lat="50.6877" lon="5.43621">
        <ele>156.2</ele>
        <time>2022-10-04T10:39:10Z</time>
      </trkpt>
      <trkpt lat="50.68749" lon="5.43617">
        <ele>156</ele>
        <time>2022-10-04T10:39:13Z</time>
      </trkpt>
      <trkpt lat="50.68742" lon="5.43615">
        <ele>156</ele>
        <time>2022-10-04T10:39:14Z</time>
      </trkpt>
      <trkpt lat="50.68686" lon="5.43603">
        <ele>155.6</ele>
        <time>2022-10-04T10:39:22Z</time>
      </trkpt>
      <trkpt lat="50.68658" lon="5.43596">
        <ele>155.6</ele>
        <time>2022-10-04T10:39:26Z</time>
      </trkpt>
      <trkpt lat="50.68622" lon="5.43588">
        <ele>155.4</ele>
        <time>2022-10-04T10:39:31Z</time>
      </trkpt>
      <trkpt lat="50.68607" lon="5.43584">
        <ele>155.2</ele>
        <time>2022-10-04T10:39:33Z</time>
      </trkpt>
      <trkpt lat="50.686" lon="5.43582">
        <ele>155.4</ele>
        <time>2022-10-04T10:39:34Z</time>
      </trkpt>
      <trkpt lat="50.68571" lon="5.43576">
        <ele>155.4</ele>
        <time>2022-10-04T10:39:38Z</time>
      </trkpt>
      <trkpt lat="50.68564" lon="5.43575">
        <ele>155.4</ele>
        <time>2022-10-04T10:39:39Z</time>
      </trkpt>
      <trkpt lat="50.68543" lon="5.43569">
        <ele>155.4</ele>
        <time>2022-10-04T10:39:42Z</time>
      </trkpt>
      <trkpt lat="50.68495" lon="5.43558">
        <ele>155</ele>
        <time>2022-10-04T10:39:49Z</time>
      </trkpt>
      <trkpt lat="50.68468" lon="5.43552">
        <ele>155.2</ele>
        <time>2022-10-04T10:39:53Z</time>
      </trkpt>
      <trkpt lat="50.68461" lon="5.4355">
        <ele>155.2</ele>
        <time>2022-10-04T10:39:54Z</time>
      </trkpt>
      <trkpt lat="50.68433" lon="5.43543">
        <ele>155.2</ele>
        <time>2022-10-04T10:39:58Z</time>
      </trkpt>
      <trkpt lat="50.6841" lon="5.43536">
        <ele>155.4</ele>
        <time>2022-10-04T10:40:01Z</time>
      </trkpt>
      <trkpt lat="50.68402" lon="5.43533">
        <ele>155.4</ele>
        <time>2022-10-04T10:40:02Z</time>
      </trkpt>
      <trkpt lat="50.68394" lon="5.4353">
        <ele>155.6</ele>
        <time>2022-10-04T10:40:03Z</time>
      </trkpt>
      <trkpt lat="50.68378" lon="5.43524">
        <ele>155.6</ele>
        <time>2022-10-04T10:40:05Z</time>
      </trkpt>
      <trkpt lat="50.68345" lon="5.4351">
        <ele>155.6</ele>
        <time>2022-10-04T10:40:09Z</time>
      </trkpt>
      <trkpt lat="50.68311" lon="5.43494">
        <ele>154.8</ele>
        <time>2022-10-04T10:40:13Z</time>
      </trkpt>
      <trkpt lat="50.68293" lon="5.43489">
        <ele>153.6</ele>
        <time>2022-10-04T10:40:15Z</time>
      </trkpt>
      <trkpt lat="50.68262" lon="5.43474">
        <ele>152.6</ele>
        <time>2022-10-04T10:40:19Z</time>
      </trkpt>
      <trkpt lat="50.68256" lon="5.43467">
        <ele>152.6</ele>
        <time>2022-10-04T10:40:20Z</time>
      </trkpt>
      <trkpt lat="50.6822" lon="5.43442">
        <ele>152.6</ele>
        <time>2022-10-04T10:40:26Z</time>
      </trkpt>
      <trkpt lat="50.6821" lon="5.43434">
        <ele>152.6</ele>
        <time>2022-10-04T10:40:28Z</time>
      </trkpt>
      <trkpt lat="50.68199" lon="5.43438">
        <ele>152.6</ele>
        <time>2022-10-04T10:40:30Z</time>
      </trkpt>
      <trkpt lat="50.68194" lon="5.43444">
        <ele>152.6</ele>
        <time>2022-10-04T10:40:31Z</time>
      </trkpt>
      <trkpt lat="50.6819" lon="5.43451">
        <ele>152.6</ele>
        <time>2022-10-04T10:40:32Z</time>
      </trkpt>
      <trkpt lat="50.68181" lon="5.43466">
        <ele>152.6</ele>
        <time>2022-10-04T10:40:34Z</time>
      </trkpt>
      <trkpt lat="50.68177" lon="5.43474">
        <ele>152.8</ele>
        <time>2022-10-04T10:40:35Z</time>
      </trkpt>
      <trkpt lat="50.68168" lon="5.43488">
        <ele>153</ele>
        <time>2022-10-04T10:40:37Z</time>
      </trkpt>
      <trkpt lat="50.68158" lon="5.43503">
        <ele>153.2</ele>
        <time>2022-10-04T10:40:39Z</time>
      </trkpt>
      <trkpt lat="50.6813" lon="5.43544">
        <ele>153.8</ele>
        <time>2022-10-04T10:40:45Z</time>
      </trkpt>
      <trkpt lat="50.68126" lon="5.43551">
        <ele>154.4</ele>
        <time>2022-10-04T10:40:46Z</time>
      </trkpt>
      <trkpt lat="50.68102" lon="5.43597">
        <ele>155.6</ele>
        <time>2022-10-04T10:40:52Z</time>
      </trkpt>
      <trkpt lat="50.68088" lon="5.43632">
        <ele>156.2</ele>
        <time>2022-10-04T10:40:56Z</time>
      </trkpt>
      <trkpt lat="50.6808" lon="5.43649">
        <ele>156.2</ele>
        <time>2022-10-04T10:40:58Z</time>
      </trkpt>
      <trkpt lat="50.68064" lon="5.43679">
        <ele>156.8</ele>
        <time>2022-10-04T10:41:02Z</time>
      </trkpt>
      <trkpt lat="50.68055" lon="5.43691">
        <ele>156.8</ele>
        <time>2022-10-04T10:41:04Z</time>
      </trkpt>
      <trkpt lat="50.68044" lon="5.437">
        <ele>157.6</ele>
        <time>2022-10-04T10:41:06Z</time>
      </trkpt>
      <trkpt lat="50.68039" lon="5.43704">
        <ele>158</ele>
        <time>2022-10-04T10:41:07Z</time>
      </trkpt>
      <trkpt lat="50.68034" lon="5.43707">
        <ele>158.6</ele>
        <time>2022-10-04T10:41:08Z</time>
      </trkpt>
      <trkpt lat="50.68029" lon="5.43712">
        <ele>159</ele>
        <time>2022-10-04T10:41:09Z</time>
      </trkpt>
      <trkpt lat="50.68023" lon="5.43716">
        <ele>159.4</ele>
        <time>2022-10-04T10:41:10Z</time>
      </trkpt>
      <trkpt lat="50.68013" lon="5.43724">
        <ele>159.6</ele>
        <time>2022-10-04T10:41:12Z</time>
      </trkpt>
      <trkpt lat="50.68002" lon="5.43732">
        <ele>159.8</ele>
        <time>2022-10-04T10:41:14Z</time>
      </trkpt>
      <trkpt lat="50.67989" lon="5.43737">
        <ele>160.4</ele>
        <time>2022-10-04T10:41:16Z</time>
      </trkpt>
      <trkpt lat="50.67983" lon="5.43737">
        <ele>160.6</ele>
        <time>2022-10-04T10:41:17Z</time>
      </trkpt>
      <trkpt lat="50.67977" lon="5.43736">
        <ele>161</ele>
        <time>2022-10-04T10:41:18Z</time>
      </trkpt>
      <trkpt lat="50.67972" lon="5.43733">
        <ele>161</ele>
        <time>2022-10-04T10:41:19Z</time>
      </trkpt>
      <trkpt lat="50.67961" lon="5.43727">
        <ele>161.2</ele>
        <time>2022-10-04T10:41:21Z</time>
      </trkpt>
      <trkpt lat="50.67955" lon="5.43723">
        <ele>161.4</ele>
        <time>2022-10-04T10:41:22Z</time>
      </trkpt>
      <trkpt lat="50.6795" lon="5.43719">
        <ele>161.4</ele>
        <time>2022-10-04T10:41:23Z</time>
      </trkpt>
      <trkpt lat="50.6794" lon="5.43714">
        <ele>161.8</ele>
        <time>2022-10-04T10:41:25Z</time>
      </trkpt>
      <trkpt lat="50.67934" lon="5.43712">
        <ele>161.8</ele>
        <time>2022-10-04T10:41:26Z</time>
      </trkpt>
      <trkpt lat="50.67929" lon="5.43713">
        <ele>161.8</ele>
        <time>2022-10-04T10:41:27Z</time>
      </trkpt>
      <trkpt lat="50.67918" lon="5.43722">
        <ele>161.8</ele>
        <time>2022-10-04T10:41:29Z</time>
      </trkpt>
      <trkpt lat="50.67909" lon="5.43735">
        <ele>162</ele>
        <time>2022-10-04T10:41:31Z</time>
      </trkpt>
      <trkpt lat="50.67895" lon="5.43759">
        <ele>161.8</ele>
        <time>2022-10-04T10:41:34Z</time>
      </trkpt>
      <trkpt lat="50.67886" lon="5.43774">
        <ele>162</ele>
        <time>2022-10-04T10:41:36Z</time>
      </trkpt>
      <trkpt lat="50.67881" lon="5.43782">
        <ele>162.2</ele>
        <time>2022-10-04T10:41:37Z</time>
      </trkpt>
      <trkpt lat="50.67875" lon="5.43789">
        <ele>162</ele>
        <time>2022-10-04T10:41:38Z</time>
      </trkpt>
      <trkpt lat="50.67869" lon="5.43795">
        <ele>162</ele>
        <time>2022-10-04T10:41:39Z</time>
      </trkpt>
      <trkpt lat="50.67856" lon="5.43805">
        <ele>162</ele>
        <time>2022-10-04T10:41:41Z</time>
      </trkpt>
      <trkpt lat="50.67849" lon="5.43807">
        <ele>162.2</ele>
        <time>2022-10-04T10:41:42Z</time>
      </trkpt>
      <trkpt lat="50.67842" lon="5.43809">
        <ele>162.2</ele>
        <time>2022-10-04T10:41:43Z</time>
      </trkpt>
      <trkpt lat="50.67829" lon="5.43808">
        <ele>162</ele>
        <time>2022-10-04T10:41:45Z</time>
      </trkpt>
      <trkpt lat="50.67822" lon="5.43806">
        <ele>162.2</ele>
        <time>2022-10-04T10:41:46Z</time>
      </trkpt>
      <trkpt lat="50.67816" lon="5.43802">
        <ele>162.2</ele>
        <time>2022-10-04T10:41:47Z</time>
      </trkpt>
      <trkpt lat="50.67792" lon="5.43784">
        <ele>162</ele>
        <time>2022-10-04T10:41:51Z</time>
      </trkpt>
      <trkpt lat="50.6778" lon="5.43773">
        <ele>162</ele>
        <time>2022-10-04T10:41:53Z</time>
      </trkpt>
      <trkpt lat="50.67761" lon="5.43757">
        <ele>162</ele>
        <time>2022-10-04T10:41:56Z</time>
      </trkpt>
      <trkpt lat="50.6773" lon="5.43728">
        <ele>162.4</ele>
        <time>2022-10-04T10:42:01Z</time>
      </trkpt>
      <trkpt lat="50.67723" lon="5.43723">
        <ele>162.2</ele>
        <time>2022-10-04T10:42:02Z</time>
      </trkpt>
      <trkpt lat="50.6771" lon="5.43711">
        <ele>162.4</ele>
        <time>2022-10-04T10:42:04Z</time>
      </trkpt>
      <trkpt lat="50.67704" lon="5.43705">
        <ele>162.4</ele>
        <time>2022-10-04T10:42:05Z</time>
      </trkpt>
      <trkpt lat="50.67661" lon="5.43666">
        <ele>161.8</ele>
        <time>2022-10-04T10:42:12Z</time>
      </trkpt>
      <trkpt lat="50.67655" lon="5.4366">
        <ele>162</ele>
        <time>2022-10-04T10:42:13Z</time>
      </trkpt>
      <trkpt lat="50.67638" lon="5.43645">
        <ele>161.8</ele>
        <time>2022-10-04T10:42:16Z</time>
      </trkpt>
      <trkpt lat="50.67621" lon="5.43629">
        <ele>161.4</ele>
        <time>2022-10-04T10:42:19Z</time>
      </trkpt>
      <trkpt lat="50.67601" lon="5.4361">
        <ele>161.4</ele>
        <time>2022-10-04T10:42:23Z</time>
      </trkpt>
      <trkpt lat="50.67596" lon="5.43607">
        <ele>161.2</ele>
        <time>2022-10-04T10:42:24Z</time>
      </trkpt>
      <trkpt lat="50.67591" lon="5.43606">
        <ele>161.2</ele>
        <time>2022-10-04T10:42:25Z</time>
      </trkpt>
      <trkpt lat="50.67576" lon="5.43604">
        <ele>161.2</ele>
        <time>2022-10-04T10:42:28Z</time>
      </trkpt>
      <trkpt lat="50.67558" lon="5.43599">
        <ele>160.8</ele>
        <time>2022-10-04T10:42:31Z</time>
      </trkpt>
      <trkpt lat="50.67538" lon="5.43593">
        <ele>160.8</ele>
        <time>2022-10-04T10:42:34Z</time>
      </trkpt>
      <trkpt lat="50.67531" lon="5.43591">
        <ele>161</ele>
        <time>2022-10-04T10:42:35Z</time>
      </trkpt>
      <trkpt lat="50.6749" lon="5.4358">
        <ele>160.8</ele>
        <time>2022-10-04T10:42:41Z</time>
      </trkpt>
      <trkpt lat="50.67445" lon="5.43562">
        <ele>161.2</ele>
        <time>2022-10-04T10:42:48Z</time>
      </trkpt>
      <trkpt lat="50.67398" lon="5.43545">
        <ele>162.2</ele>
        <time>2022-10-04T10:42:56Z</time>
      </trkpt>
      <trkpt lat="50.67392" lon="5.43543">
        <ele>162.2</ele>
        <time>2022-10-04T10:42:57Z</time>
      </trkpt>
      <trkpt lat="50.67381" lon="5.4354">
        <ele>162.4</ele>
        <time>2022-10-04T10:42:59Z</time>
      </trkpt>
      <trkpt lat="50.67353" lon="5.43532">
        <ele>162.8</ele>
        <time>2022-10-04T10:43:04Z</time>
      </trkpt>
      <trkpt lat="50.67348" lon="5.4353">
        <ele>162.8</ele>
        <time>2022-10-04T10:43:05Z</time>
      </trkpt>
      <trkpt lat="50.67312" lon="5.43518">
        <ele>163.6</ele>
        <time>2022-10-04T10:43:11Z</time>
      </trkpt>
      <trkpt lat="50.67275" lon="5.43512">
        <ele>163.8</ele>
        <time>2022-10-04T10:43:16Z</time>
      </trkpt>
      <trkpt lat="50.67236" lon="5.43504">
        <ele>163.8</ele>
        <time>2022-10-04T10:43:21Z</time>
      </trkpt>
      <trkpt lat="50.67221" lon="5.435">
        <ele>163.2</ele>
        <time>2022-10-04T10:43:23Z</time>
      </trkpt>
      <trkpt lat="50.67206" lon="5.43495">
        <ele>163.2</ele>
        <time>2022-10-04T10:43:25Z</time>
      </trkpt>
      <trkpt lat="50.67176" lon="5.43485">
        <ele>162.8</ele>
        <time>2022-10-04T10:43:29Z</time>
      </trkpt>
      <trkpt lat="50.67154" lon="5.43474">
        <ele>161.8</ele>
        <time>2022-10-04T10:43:32Z</time>
      </trkpt>
      <trkpt lat="50.67108" lon="5.43439">
        <ele>160.8</ele>
        <time>2022-10-04T10:43:39Z</time>
      </trkpt>
      <trkpt lat="50.67056" lon="5.43399">
        <ele>160.6</ele>
        <time>2022-10-04T10:43:47Z</time>
      </trkpt>
      <trkpt lat="50.67044" lon="5.43389">
        <ele>160.6</ele>
        <time>2022-10-04T10:43:49Z</time>
      </trkpt>
      <trkpt lat="50.66993" lon="5.43353">
        <ele>160.6</ele>
        <time>2022-10-04T10:43:57Z</time>
      </trkpt>
      <trkpt lat="50.66979" lon="5.43345">
        <ele>160.6</ele>
        <time>2022-10-04T10:43:59Z</time>
      </trkpt>
      <trkpt lat="50.66966" lon="5.43338">
        <ele>160.8</ele>
        <time>2022-10-04T10:44:01Z</time>
      </trkpt>
      <trkpt lat="50.66919" lon="5.43318">
        <ele>161.2</ele>
        <time>2022-10-04T10:44:08Z</time>
      </trkpt>
      <trkpt lat="50.66871" lon="5.43314">
        <ele>161.4</ele>
        <time>2022-10-04T10:44:15Z</time>
      </trkpt>
      <trkpt lat="50.66864" lon="5.43314">
        <ele>161.6</ele>
        <time>2022-10-04T10:44:16Z</time>
      </trkpt>
      <trkpt lat="50.6685" lon="5.43315">
        <ele>161.6</ele>
        <time>2022-10-04T10:44:18Z</time>
      </trkpt>
      <trkpt lat="50.66826" lon="5.43315">
        <ele>162</ele>
        <time>2022-10-04T10:44:22Z</time>
      </trkpt>
      <trkpt lat="50.66809" lon="5.43314">
        <ele>162</ele>
        <time>2022-10-04T10:44:25Z</time>
      </trkpt>
      <trkpt lat="50.66792" lon="5.4331">
        <ele>163</ele>
        <time>2022-10-04T10:44:28Z</time>
      </trkpt>
      <trkpt lat="50.66787" lon="5.43308">
        <ele>163.4</ele>
        <time>2022-10-04T10:44:29Z</time>
      </trkpt>
      <trkpt lat="50.66776" lon="5.43304">
        <ele>164.2</ele>
        <time>2022-10-04T10:44:31Z</time>
      </trkpt>
      <trkpt lat="50.66755" lon="5.43294">
        <ele>165.8</ele>
        <time>2022-10-04T10:44:35Z</time>
      </trkpt>
      <trkpt lat="50.66739" lon="5.43287">
        <ele>167</ele>
        <time>2022-10-04T10:44:38Z</time>
      </trkpt>
      <trkpt lat="50.66734" lon="5.43285">
        <ele>167.4</ele>
        <time>2022-10-04T10:44:39Z</time>
      </trkpt>
      <trkpt lat="50.66707" lon="5.43273">
        <ele>169.4</ele>
        <time>2022-10-04T10:44:44Z</time>
      </trkpt>
      <trkpt lat="50.66701" lon="5.43271">
        <ele>169.8</ele>
        <time>2022-10-04T10:44:45Z</time>
      </trkpt>
      <trkpt lat="50.66691" lon="5.43266">
        <ele>170.4</ele>
        <time>2022-10-04T10:44:47Z</time>
      </trkpt>
      <trkpt lat="50.66656" lon="5.4325">
        <ele>171.6</ele>
        <time>2022-10-04T10:44:53Z</time>
      </trkpt>
      <trkpt lat="50.66637" lon="5.43242">
        <ele>171.8</ele>
        <time>2022-10-04T10:44:56Z</time>
      </trkpt>
      <trkpt lat="50.6661" lon="5.43229">
        <ele>171.6</ele>
        <time>2022-10-04T10:45:00Z</time>
      </trkpt>
      <trkpt lat="50.66603" lon="5.43226">
        <ele>171.8</ele>
        <time>2022-10-04T10:45:01Z</time>
      </trkpt>
      <trkpt lat="50.66589" lon="5.43219">
        <ele>171.8</ele>
        <time>2022-10-04T10:45:03Z</time>
      </trkpt>
      <trkpt lat="50.66573" lon="5.43212">
        <ele>171.4</ele>
        <time>2022-10-04T10:45:05Z</time>
      </trkpt>
      <trkpt lat="50.66565" lon="5.43208">
        <ele>171.2</ele>
        <time>2022-10-04T10:45:06Z</time>
      </trkpt>
      <trkpt lat="50.66556" lon="5.43205">
        <ele>171</ele>
        <time>2022-10-04T10:45:07Z</time>
      </trkpt>
      <trkpt lat="50.66548" lon="5.43201">
        <ele>170.8</ele>
        <time>2022-10-04T10:45:08Z</time>
      </trkpt>
      <trkpt lat="50.6653" lon="5.43193">
        <ele>170</ele>
        <time>2022-10-04T10:45:10Z</time>
      </trkpt>
      <trkpt lat="50.66513" lon="5.43185">
        <ele>169.4</ele>
        <time>2022-10-04T10:45:12Z</time>
      </trkpt>
      <trkpt lat="50.66498" lon="5.43178">
        <ele>168</ele>
        <time>2022-10-04T10:45:14Z</time>
      </trkpt>
      <trkpt lat="50.66469" lon="5.43165">
        <ele>166</ele>
        <time>2022-10-04T10:45:18Z</time>
      </trkpt>
      <trkpt lat="50.66448" lon="5.43155">
        <ele>165.4</ele>
        <time>2022-10-04T10:45:21Z</time>
      </trkpt>
      <trkpt lat="50.66425" lon="5.43144">
        <ele>165</ele>
        <time>2022-10-04T10:45:24Z</time>
      </trkpt>
      <trkpt lat="50.66394" lon="5.43133">
        <ele>164.6</ele>
        <time>2022-10-04T10:45:28Z</time>
      </trkpt>
      <trkpt lat="50.66355" lon="5.43124">
        <ele>164</ele>
        <time>2022-10-04T10:45:33Z</time>
      </trkpt>
      <trkpt lat="50.66341" lon="5.43123">
        <ele>163.8</ele>
        <time>2022-10-04T10:45:35Z</time>
      </trkpt>
      <trkpt lat="50.66334" lon="5.43123">
        <ele>163.8</ele>
        <time>2022-10-04T10:45:36Z</time>
      </trkpt>
      <trkpt lat="50.66299" lon="5.43131">
        <ele>163.8</ele>
        <time>2022-10-04T10:45:41Z</time>
      </trkpt>
      <trkpt lat="50.66292" lon="5.43133">
        <ele>163.8</ele>
        <time>2022-10-04T10:45:42Z</time>
      </trkpt>
      <trkpt lat="50.66253" lon="5.43152">
        <ele>163.8</ele>
        <time>2022-10-04T10:45:48Z</time>
      </trkpt>
      <trkpt lat="50.66235" lon="5.43162">
        <ele>164.2</ele>
        <time>2022-10-04T10:45:51Z</time>
      </trkpt>
      <trkpt lat="50.66201" lon="5.43169">
        <ele>164.8</ele>
        <time>2022-10-04T10:45:56Z</time>
      </trkpt>
      <trkpt lat="50.66165" lon="5.43164">
        <ele>165.2</ele>
        <time>2022-10-04T10:46:01Z</time>
      </trkpt>
      <trkpt lat="50.66151" lon="5.4316">
        <ele>165.2</ele>
        <time>2022-10-04T10:46:03Z</time>
      </trkpt>
      <trkpt lat="50.66129" lon="5.43154">
        <ele>165.2</ele>
        <time>2022-10-04T10:46:06Z</time>
      </trkpt>
      <trkpt lat="50.66071" lon="5.43134">
        <ele>164.2</ele>
        <time>2022-10-04T10:46:14Z</time>
      </trkpt>
      <trkpt lat="50.66037" lon="5.43121">
        <ele>163.8</ele>
        <time>2022-10-04T10:46:19Z</time>
      </trkpt>
      <trkpt lat="50.6603" lon="5.43118">
        <ele>163.8</ele>
        <time>2022-10-04T10:46:20Z</time>
      </trkpt>
      <trkpt lat="50.66003" lon="5.43109">
        <ele>164.2</ele>
        <time>2022-10-04T10:46:24Z</time>
      </trkpt>
      <trkpt lat="50.65997" lon="5.43109">
        <ele>164.2</ele>
        <time>2022-10-04T10:46:25Z</time>
      </trkpt>
      <trkpt lat="50.65974" lon="5.43112">
        <ele>164.2</ele>
        <time>2022-10-04T10:46:29Z</time>
      </trkpt>
      <trkpt lat="50.65968" lon="5.43113">
        <ele>164.6</ele>
        <time>2022-10-04T10:46:30Z</time>
      </trkpt>
      <trkpt lat="50.65962" lon="5.43113">
        <ele>164.6</ele>
        <time>2022-10-04T10:46:31Z</time>
      </trkpt>
      <trkpt lat="50.6595" lon="5.4311">
        <ele>165</ele>
        <time>2022-10-04T10:46:33Z</time>
      </trkpt>
      <trkpt lat="50.65925" lon="5.431">
        <ele>165.4</ele>
        <time>2022-10-04T10:46:37Z</time>
      </trkpt>
      <trkpt lat="50.6589" lon="5.43084">
        <ele>167.4</ele>
        <time>2022-10-04T10:46:43Z</time>
      </trkpt>
      <trkpt lat="50.65878" lon="5.43079">
        <ele>167.4</ele>
        <time>2022-10-04T10:46:45Z</time>
      </trkpt>
      <trkpt lat="50.65855" lon="5.43069">
        <ele>168</ele>
        <time>2022-10-04T10:46:49Z</time>
      </trkpt>
      <trkpt lat="50.65845" lon="5.43065">
        <ele>168</ele>
        <time>2022-10-04T10:46:51Z</time>
      </trkpt>
      <trkpt lat="50.65816" lon="5.43054">
        <ele>168.8</ele>
        <time>2022-10-04T10:46:56Z</time>
      </trkpt>
      <trkpt lat="50.65809" lon="5.43052">
        <ele>168.6</ele>
        <time>2022-10-04T10:46:57Z</time>
      </trkpt>
      <trkpt lat="50.65774" lon="5.4304">
        <ele>168.8</ele>
        <time>2022-10-04T10:47:02Z</time>
      </trkpt>
      <trkpt lat="50.65716" lon="5.43019">
        <ele>167.8</ele>
        <time>2022-10-04T10:47:10Z</time>
      </trkpt>
      <trkpt lat="50.65687" lon="5.4301">
        <ele>167.8</ele>
        <time>2022-10-04T10:47:14Z</time>
      </trkpt>
      <trkpt lat="50.65647" lon="5.42994">
        <ele>167.8</ele>
        <time>2022-10-04T10:47:20Z</time>
      </trkpt>
      <trkpt lat="50.65597" lon="5.42965">
        <ele>167.8</ele>
        <time>2022-10-04T10:47:28Z</time>
      </trkpt>
      <trkpt lat="50.65591" lon="5.42961">
        <ele>167.8</ele>
        <time>2022-10-04T10:47:29Z</time>
      </trkpt>
      <trkpt lat="50.65545" lon="5.42937">
        <ele>167.8</ele>
        <time>2022-10-04T10:47:36Z</time>
      </trkpt>
      <trkpt lat="50.65504" lon="5.42917">
        <ele>168.2</ele>
        <time>2022-10-04T10:47:43Z</time>
      </trkpt>
      <trkpt lat="50.65494" lon="5.42913">
        <ele>168.2</ele>
        <time>2022-10-04T10:47:45Z</time>
      </trkpt>
      <trkpt lat="50.65485" lon="5.4291">
        <ele>168.4</ele>
        <time>2022-10-04T10:47:48Z</time>
      </trkpt>
      <trkpt lat="50.65484" lon="5.42909">
        <ele>168.4</ele>
        <time>2022-10-04T10:47:49Z</time>
      </trkpt>
      <trkpt lat="50.65474" lon="5.42905">
        <ele>169.2</ele>
        <time>2022-10-04T10:47:53Z</time>
      </trkpt>
      <trkpt lat="50.65471" lon="5.42903">
        <ele>169.2</ele>
        <time>2022-10-04T10:47:54Z</time>
      </trkpt>
      <trkpt lat="50.65454" lon="5.42896">
        <ele>169.4</ele>
        <time>2022-10-04T10:47:57Z</time>
      </trkpt>
      <trkpt lat="50.65448" lon="5.42894">
        <ele>169.4</ele>
        <time>2022-10-04T10:47:58Z</time>
      </trkpt>
      <trkpt lat="50.6542" lon="5.42893">
        <ele>169.4</ele>
        <time>2022-10-04T10:48:02Z</time>
      </trkpt>
      <trkpt lat="50.65392" lon="5.42896">
        <ele>169.2</ele>
        <time>2022-10-04T10:48:06Z</time>
      </trkpt>
      <trkpt lat="50.65363" lon="5.429">
        <ele>169</ele>
        <time>2022-10-04T10:48:10Z</time>
      </trkpt>
      <trkpt lat="50.6532" lon="5.42895">
        <ele>169</ele>
        <time>2022-10-04T10:48:16Z</time>
      </trkpt>
      <trkpt lat="50.65294" lon="5.42887">
        <ele>168.8</ele>
        <time>2022-10-04T10:48:20Z</time>
      </trkpt>
      <trkpt lat="50.65281" lon="5.42886">
        <ele>168.8</ele>
        <time>2022-10-04T10:48:22Z</time>
      </trkpt>
      <trkpt lat="50.65275" lon="5.42885">
        <ele>168.8</ele>
        <time>2022-10-04T10:48:23Z</time>
      </trkpt>
      <trkpt lat="50.65256" lon="5.42886">
        <ele>168.8</ele>
        <time>2022-10-04T10:48:26Z</time>
      </trkpt>
      <trkpt lat="50.65229" lon="5.42888">
        <ele>168.6</ele>
        <time>2022-10-04T10:48:30Z</time>
      </trkpt>
      <trkpt lat="50.65189" lon="5.42884">
        <ele>168.6</ele>
        <time>2022-10-04T10:48:36Z</time>
      </trkpt>
      <trkpt lat="50.65144" lon="5.42871">
        <ele>168.6</ele>
        <time>2022-10-04T10:48:43Z</time>
      </trkpt>
      <trkpt lat="50.65131" lon="5.42868">
        <ele>169</ele>
        <time>2022-10-04T10:48:45Z</time>
      </trkpt>
      <trkpt lat="50.65098" lon="5.42859">
        <ele>169.2</ele>
        <time>2022-10-04T10:48:50Z</time>
      </trkpt>
      <trkpt lat="50.65072" lon="5.42847">
        <ele>169.4</ele>
        <time>2022-10-04T10:48:54Z</time>
      </trkpt>
      <trkpt lat="50.6506" lon="5.42839">
        <ele>169.6</ele>
        <time>2022-10-04T10:48:56Z</time>
      </trkpt>
      <trkpt lat="50.65047" lon="5.42831">
        <ele>169.4</ele>
        <time>2022-10-04T10:48:58Z</time>
      </trkpt>
      <trkpt lat="50.65029" lon="5.42819">
        <ele>169.4</ele>
        <time>2022-10-04T10:49:01Z</time>
      </trkpt>
      <trkpt lat="50.6501" lon="5.42808">
        <ele>169.4</ele>
        <time>2022-10-04T10:49:04Z</time>
      </trkpt>
      <trkpt lat="50.64986" lon="5.42795">
        <ele>169.2</ele>
        <time>2022-10-04T10:49:08Z</time>
      </trkpt>
      <trkpt lat="50.6498" lon="5.42794">
        <ele>169.4</ele>
        <time>2022-10-04T10:49:09Z</time>
      </trkpt>
      <trkpt lat="50.64974" lon="5.42793">
        <ele>169.4</ele>
        <time>2022-10-04T10:49:10Z</time>
      </trkpt>
      <trkpt lat="50.64942" lon="5.42797">
        <ele>169.4</ele>
        <time>2022-10-04T10:49:15Z</time>
      </trkpt>
      <trkpt lat="50.64928" lon="5.42799">
        <ele>169.6</ele>
        <time>2022-10-04T10:49:17Z</time>
      </trkpt>
      <trkpt lat="50.64882" lon="5.42799">
        <ele>170.4</ele>
        <time>2022-10-04T10:49:24Z</time>
      </trkpt>
      <trkpt lat="50.64824" lon="5.42789">
        <ele>170.8</ele>
        <time>2022-10-04T10:49:33Z</time>
      </trkpt>
      <trkpt lat="50.64818" lon="5.42787">
        <ele>170.8</ele>
        <time>2022-10-04T10:49:34Z</time>
      </trkpt>
      <trkpt lat="50.64805" lon="5.42784">
        <ele>170.8</ele>
        <time>2022-10-04T10:49:36Z</time>
      </trkpt>
      <trkpt lat="50.64786" lon="5.42777">
        <ele>171</ele>
        <time>2022-10-04T10:49:39Z</time>
      </trkpt>
      <trkpt lat="50.64767" lon="5.42768">
        <ele>171.4</ele>
        <time>2022-10-04T10:49:42Z</time>
      </trkpt>
      <trkpt lat="50.64727" lon="5.42733">
        <ele>172.4</ele>
        <time>2022-10-04T10:49:49Z</time>
      </trkpt>
      <trkpt lat="50.64705" lon="5.42709">
        <ele>172.8</ele>
        <time>2022-10-04T10:49:54Z</time>
      </trkpt>
      <trkpt lat="50.647" lon="5.42707">
        <ele>172.8</ele>
        <time>2022-10-04T10:49:55Z</time>
      </trkpt>
      <trkpt lat="50.64695" lon="5.42708">
        <ele>173</ele>
        <time>2022-10-04T10:49:56Z</time>
      </trkpt>
      <trkpt lat="50.64685" lon="5.42718">
        <ele>173</ele>
        <time>2022-10-04T10:49:58Z</time>
      </trkpt>
      <trkpt lat="50.64666" lon="5.42743">
        <ele>173.4</ele>
        <time>2022-10-04T10:50:02Z</time>
      </trkpt>
      <trkpt lat="50.6466" lon="5.42748">
        <ele>173.4</ele>
        <time>2022-10-04T10:50:03Z</time>
      </trkpt>
      <trkpt lat="50.64653" lon="5.4275">
        <ele>173.4</ele>
        <time>2022-10-04T10:50:04Z</time>
      </trkpt>
      <trkpt lat="50.64641" lon="5.42745">
        <ele>173.4</ele>
        <time>2022-10-04T10:50:06Z</time>
      </trkpt>
      <trkpt lat="50.64636" lon="5.42739">
        <ele>173.6</ele>
        <time>2022-10-04T10:50:07Z</time>
      </trkpt>
      <trkpt lat="50.64625" lon="5.42726">
        <ele>173.6</ele>
        <time>2022-10-04T10:50:09Z</time>
      </trkpt>
      <trkpt lat="50.64619" lon="5.42719">
        <ele>173.8</ele>
        <time>2022-10-04T10:50:10Z</time>
      </trkpt>
      <trkpt lat="50.64589" lon="5.42676">
        <ele>173.8</ele>
        <time>2022-10-04T10:50:16Z</time>
      </trkpt>
      <trkpt lat="50.64579" lon="5.42664">
        <ele>173.8</ele>
        <time>2022-10-04T10:50:18Z</time>
      </trkpt>
      <trkpt lat="50.64553" lon="5.42636">
        <ele>174</ele>
        <time>2022-10-04T10:50:23Z</time>
      </trkpt>
      <trkpt lat="50.64536" lon="5.42621">
        <ele>174.4</ele>
        <time>2022-10-04T10:50:26Z</time>
      </trkpt>
      <trkpt lat="50.64514" lon="5.42603">
        <ele>175.4</ele>
        <time>2022-10-04T10:50:30Z</time>
      </trkpt>
      <trkpt lat="50.64467" lon="5.42573">
        <ele>176.2</ele>
        <time>2022-10-04T10:50:38Z</time>
      </trkpt>
      <trkpt lat="50.64451" lon="5.42562">
        <ele>176.6</ele>
        <time>2022-10-04T10:50:41Z</time>
      </trkpt>
      <trkpt lat="50.64428" lon="5.42551">
        <ele>177</ele>
        <time>2022-10-04T10:50:45Z</time>
      </trkpt>
      <trkpt lat="50.64398" lon="5.42546">
        <ele>177.2</ele>
        <time>2022-10-04T10:50:50Z</time>
      </trkpt>
      <trkpt lat="50.64385" lon="5.42547">
        <ele>177.4</ele>
        <time>2022-10-04T10:50:52Z</time>
      </trkpt>
      <trkpt lat="50.64373" lon="5.42546">
        <ele>177.8</ele>
        <time>2022-10-04T10:50:54Z</time>
      </trkpt>
      <trkpt lat="50.64361" lon="5.42541">
        <ele>178</ele>
        <time>2022-10-04T10:50:56Z</time>
      </trkpt>
      <trkpt lat="50.64355" lon="5.42537">
        <ele>178.2</ele>
        <time>2022-10-04T10:50:57Z</time>
      </trkpt>
      <trkpt lat="50.64344" lon="5.42528">
        <ele>178.6</ele>
        <time>2022-10-04T10:50:59Z</time>
      </trkpt>
      <trkpt lat="50.64335" lon="5.42515">
        <ele>179</ele>
        <time>2022-10-04T10:51:01Z</time>
      </trkpt>
      <trkpt lat="50.64331" lon="5.42509">
        <ele>179</ele>
        <time>2022-10-04T10:51:02Z</time>
      </trkpt>
      <trkpt lat="50.64293" lon="5.42453">
        <ele>179.8</ele>
        <time>2022-10-04T10:51:11Z</time>
      </trkpt>
      <trkpt lat="50.64284" lon="5.4245">
        <ele>179.8</ele>
        <time>2022-10-04T10:51:13Z</time>
      </trkpt>
      <trkpt lat="50.6428" lon="5.42453">
        <ele>180</ele>
        <time>2022-10-04T10:51:14Z</time>
      </trkpt>
      <trkpt lat="50.64276" lon="5.42457">
        <ele>180.2</ele>
        <time>2022-10-04T10:51:15Z</time>
      </trkpt>
      <trkpt lat="50.64265" lon="5.42475">
        <ele>180.2</ele>
        <time>2022-10-04T10:51:18Z</time>
      </trkpt>
      <trkpt lat="50.64228" lon="5.42524">
        <ele>181</ele>
        <time>2022-10-04T10:51:26Z</time>
      </trkpt>
      <trkpt lat="50.64215" lon="5.42544">
        <ele>181.6</ele>
        <time>2022-10-04T10:51:29Z</time>
      </trkpt>
      <trkpt lat="50.64195" lon="5.4257">
        <ele>181.6</ele>
        <time>2022-10-04T10:51:33Z</time>
      </trkpt>
      <trkpt lat="50.6419" lon="5.42577">
        <ele>181.6</ele>
        <time>2022-10-04T10:51:34Z</time>
      </trkpt>
      <trkpt lat="50.64167" lon="5.42608">
        <ele>182.4</ele>
        <time>2022-10-04T10:51:39Z</time>
      </trkpt>
      <trkpt lat="50.64158" lon="5.4262">
        <ele>183</ele>
        <time>2022-10-04T10:51:41Z</time>
      </trkpt>
      <trkpt lat="50.64149" lon="5.42632">
        <ele>183</ele>
        <time>2022-10-04T10:51:43Z</time>
      </trkpt>
      <trkpt lat="50.64133" lon="5.42657">
        <ele>184</ele>
        <time>2022-10-04T10:51:47Z</time>
      </trkpt>
      <trkpt lat="50.64129" lon="5.42662">
        <ele>184.2</ele>
        <time>2022-10-04T10:51:48Z</time>
      </trkpt>
      <trkpt lat="50.64121" lon="5.42672">
        <ele>184.6</ele>
        <time>2022-10-04T10:51:50Z</time>
      </trkpt>
      <trkpt lat="50.64113" lon="5.42681">
        <ele>184.8</ele>
        <time>2022-10-04T10:51:52Z</time>
      </trkpt>
      <trkpt lat="50.64086" lon="5.42708">
        <ele>187</ele>
        <time>2022-10-04T10:51:58Z</time>
      </trkpt>
      <trkpt lat="50.64064" lon="5.42733">
        <ele>187.4</ele>
        <time>2022-10-04T10:52:03Z</time>
      </trkpt>
      <trkpt lat="50.64055" lon="5.42743">
        <ele>187.6</ele>
        <time>2022-10-04T10:52:05Z</time>
      </trkpt>
      <trkpt lat="50.64046" lon="5.42753">
        <ele>187.8</ele>
        <time>2022-10-04T10:52:07Z</time>
      </trkpt>
      <trkpt lat="50.64027" lon="5.42781">
        <ele>188.6</ele>
        <time>2022-10-04T10:52:12Z</time>
      </trkpt>
      <trkpt lat="50.64016" lon="5.42798">
        <ele>189.4</ele>
        <time>2022-10-04T10:52:15Z</time>
      </trkpt>
      <trkpt lat="50.64013" lon="5.42805">
        <ele>189.6</ele>
        <time>2022-10-04T10:52:16Z</time>
      </trkpt>
      <trkpt lat="50.64002" lon="5.42823">
        <ele>189.8</ele>
        <time>2022-10-04T10:52:19Z</time>
      </trkpt>
      <trkpt lat="50.63998" lon="5.42828">
        <ele>190</ele>
        <time>2022-10-04T10:52:20Z</time>
      </trkpt>
      <trkpt lat="50.63987" lon="5.42832">
        <ele>190</ele>
        <time>2022-10-04T10:52:22Z</time>
      </trkpt>
      <trkpt lat="50.63976" lon="5.42831">
        <ele>190.2</ele>
        <time>2022-10-04T10:52:24Z</time>
      </trkpt>
      <trkpt lat="50.63966" lon="5.42825">
        <ele>190.4</ele>
        <time>2022-10-04T10:52:26Z</time>
      </trkpt>
      <trkpt lat="50.63943" lon="5.42796">
        <ele>191.2</ele>
        <time>2022-10-04T10:52:31Z</time>
      </trkpt>
      <trkpt lat="50.63913" lon="5.4275">
        <ele>191.6</ele>
        <time>2022-10-04T10:52:38Z</time>
      </trkpt>
      <trkpt lat="50.63892" lon="5.42716">
        <ele>192.6</ele>
        <time>2022-10-04T10:52:43Z</time>
      </trkpt>
      <trkpt lat="50.63888" lon="5.42709">
        <ele>192.6</ele>
        <time>2022-10-04T10:52:44Z</time>
      </trkpt>
      <trkpt lat="50.63859" lon="5.42662">
        <ele>194</ele>
        <time>2022-10-04T10:52:51Z</time>
      </trkpt>
      <trkpt lat="50.63855" lon="5.42656">
        <ele>194.4</ele>
        <time>2022-10-04T10:52:52Z</time>
      </trkpt>
      <trkpt lat="50.63813" lon="5.4259">
        <ele>195.6</ele>
        <time>2022-10-04T10:53:02Z</time>
      </trkpt>
      <trkpt lat="50.63783" lon="5.42555">
        <ele>195.8</ele>
        <time>2022-10-04T10:53:08Z</time>
      </trkpt>
      <trkpt lat="50.6376" lon="5.42537">
        <ele>195.8</ele>
        <time>2022-10-04T10:53:12Z</time>
      </trkpt>
      <trkpt lat="50.63748" lon="5.42529">
        <ele>195.6</ele>
        <time>2022-10-04T10:53:14Z</time>
      </trkpt>
      <trkpt lat="50.63741" lon="5.42526">
        <ele>195.8</ele>
        <time>2022-10-04T10:53:15Z</time>
      </trkpt>
      <trkpt lat="50.63735" lon="5.42522">
        <ele>195.6</ele>
        <time>2022-10-04T10:53:16Z</time>
      </trkpt>
      <trkpt lat="50.63715" lon="5.42507">
        <ele>195.4</ele>
        <time>2022-10-04T10:53:19Z</time>
      </trkpt>
      <trkpt lat="50.63708" lon="5.42501">
        <ele>195.2</ele>
        <time>2022-10-04T10:53:20Z</time>
      </trkpt>
      <trkpt lat="50.63702" lon="5.42493">
        <ele>195</ele>
        <time>2022-10-04T10:53:21Z</time>
      </trkpt>
      <trkpt lat="50.6369" lon="5.42476">
        <ele>194.2</ele>
        <time>2022-10-04T10:53:23Z</time>
      </trkpt>
      <trkpt lat="50.63683" lon="5.4247">
        <ele>193.8</ele>
        <time>2022-10-04T10:53:24Z</time>
      </trkpt>
      <trkpt lat="50.63675" lon="5.42468">
        <ele>193.2</ele>
        <time>2022-10-04T10:53:25Z</time>
      </trkpt>
      <trkpt lat="50.63658" lon="5.42469">
        <ele>192.8</ele>
        <time>2022-10-04T10:53:27Z</time>
      </trkpt>
      <trkpt lat="50.63649" lon="5.42468">
        <ele>192.6</ele>
        <time>2022-10-04T10:53:28Z</time>
      </trkpt>
      <trkpt lat="50.63631" lon="5.42461">
        <ele>191.8</ele>
        <time>2022-10-04T10:53:30Z</time>
      </trkpt>
      <trkpt lat="50.63589" lon="5.42441">
        <ele>190.6</ele>
        <time>2022-10-04T10:53:35Z</time>
      </trkpt>
      <trkpt lat="50.63573" lon="5.42433">
        <ele>190.2</ele>
        <time>2022-10-04T10:53:37Z</time>
      </trkpt>
      <trkpt lat="50.63566" lon="5.42429">
        <ele>190</ele>
        <time>2022-10-04T10:53:38Z</time>
      </trkpt>
      <trkpt lat="50.63543" lon="5.42418">
        <ele>189.6</ele>
        <time>2022-10-04T10:53:41Z</time>
      </trkpt>
      <trkpt lat="50.63506" lon="5.42398">
        <ele>189.6</ele>
        <time>2022-10-04T10:53:46Z</time>
      </trkpt>
      <trkpt lat="50.63467" lon="5.42379">
        <ele>189.4</ele>
        <time>2022-10-04T10:53:51Z</time>
      </trkpt>
      <trkpt lat="50.6343" lon="5.42359">
        <ele>189.2</ele>
        <time>2022-10-04T10:53:56Z</time>
      </trkpt>
      <trkpt lat="50.63422" lon="5.42355">
        <ele>189.2</ele>
        <time>2022-10-04T10:53:57Z</time>
      </trkpt>
      <trkpt lat="50.63365" lon="5.42325">
        <ele>188.6</ele>
        <time>2022-10-04T10:54:04Z</time>
      </trkpt>
      <trkpt lat="50.63356" lon="5.42321">
        <ele>188.2</ele>
        <time>2022-10-04T10:54:05Z</time>
      </trkpt>
      <trkpt lat="50.63347" lon="5.42316">
        <ele>187.4</ele>
        <time>2022-10-04T10:54:06Z</time>
      </trkpt>
      <trkpt lat="50.63329" lon="5.42306">
        <ele>186.8</ele>
        <time>2022-10-04T10:54:08Z</time>
      </trkpt>
      <trkpt lat="50.63309" lon="5.42296">
        <ele>186.2</ele>
        <time>2022-10-04T10:54:10Z</time>
      </trkpt>
      <trkpt lat="50.63252" lon="5.42266">
        <ele>184.8</ele>
        <time>2022-10-04T10:54:16Z</time>
      </trkpt>
      <trkpt lat="50.63242" lon="5.42261">
        <ele>184.6</ele>
        <time>2022-10-04T10:54:17Z</time>
      </trkpt>
      <trkpt lat="50.63224" lon="5.42252">
        <ele>183.8</ele>
        <time>2022-10-04T10:54:19Z</time>
      </trkpt>
      <trkpt lat="50.63205" lon="5.42242">
        <ele>182.8</ele>
        <time>2022-10-04T10:54:21Z</time>
      </trkpt>
      <trkpt lat="50.63179" lon="5.42227">
        <ele>182.2</ele>
        <time>2022-10-04T10:54:24Z</time>
      </trkpt>
      <trkpt lat="50.63161" lon="5.42217">
        <ele>181.6</ele>
        <time>2022-10-04T10:54:26Z</time>
      </trkpt>
      <trkpt lat="50.63144" lon="5.42207">
        <ele>180.8</ele>
        <time>2022-10-04T10:54:28Z</time>
      </trkpt>
      <trkpt lat="50.6309" lon="5.42174">
        <ele>180.2</ele>
        <time>2022-10-04T10:54:35Z</time>
      </trkpt>
      <trkpt lat="50.63076" lon="5.42164">
        <ele>180.2</ele>
        <time>2022-10-04T10:54:37Z</time>
      </trkpt>
      <trkpt lat="50.63062" lon="5.42155">
        <ele>180.2</ele>
        <time>2022-10-04T10:54:39Z</time>
      </trkpt>
      <trkpt lat="50.63035" lon="5.42136">
        <ele>180.4</ele>
        <time>2022-10-04T10:54:43Z</time>
      </trkpt>
      <trkpt lat="50.63001" lon="5.4211">
        <ele>180.8</ele>
        <time>2022-10-04T10:54:48Z</time>
      </trkpt>
      <trkpt lat="50.62987" lon="5.42101">
        <ele>181.2</ele>
        <time>2022-10-04T10:54:50Z</time>
      </trkpt>
      <trkpt lat="50.62949" lon="5.42085">
        <ele>181.8</ele>
        <time>2022-10-04T10:54:55Z</time>
      </trkpt>
      <trkpt lat="50.62899" lon="5.42068">
        <ele>182.2</ele>
        <time>2022-10-04T10:55:02Z</time>
      </trkpt>
      <trkpt lat="50.62877" lon="5.4206">
        <ele>182.4</ele>
        <time>2022-10-04T10:55:05Z</time>
      </trkpt>
      <trkpt lat="50.62862" lon="5.42054">
        <ele>182.6</ele>
        <time>2022-10-04T10:55:07Z</time>
      </trkpt>
      <trkpt lat="50.62847" lon="5.42047">
        <ele>183</ele>
        <time>2022-10-04T10:55:09Z</time>
      </trkpt>
      <trkpt lat="50.62813" lon="5.42016">
        <ele>183.4</ele>
        <time>2022-10-04T10:55:14Z</time>
      </trkpt>
      <trkpt lat="50.62776" lon="5.41977">
        <ele>183.6</ele>
        <time>2022-10-04T10:55:20Z</time>
      </trkpt>
      <trkpt lat="50.62747" lon="5.41943">
        <ele>183.4</ele>
        <time>2022-10-04T10:55:25Z</time>
      </trkpt>
      <trkpt lat="50.62741" lon="5.41934">
        <ele>183.6</ele>
        <time>2022-10-04T10:55:26Z</time>
      </trkpt>
      <trkpt lat="50.62737" lon="5.41925">
        <ele>183.4</ele>
        <time>2022-10-04T10:55:27Z</time>
      </trkpt>
      <trkpt lat="50.62732" lon="5.41916">
        <ele>183.4</ele>
        <time>2022-10-04T10:55:28Z</time>
      </trkpt>
      <trkpt lat="50.62719" lon="5.41907">
        <ele>183.4</ele>
        <time>2022-10-04T10:55:30Z</time>
      </trkpt>
      <trkpt lat="50.62706" lon="5.41912">
        <ele>183.2</ele>
        <time>2022-10-04T10:55:32Z</time>
      </trkpt>
      <trkpt lat="50.62699" lon="5.41916">
        <ele>183.4</ele>
        <time>2022-10-04T10:55:33Z</time>
      </trkpt>
      <trkpt lat="50.62684" lon="5.41922">
        <ele>182.8</ele>
        <time>2022-10-04T10:55:35Z</time>
      </trkpt>
      <trkpt lat="50.62668" lon="5.41925">
        <ele>182.6</ele>
        <time>2022-10-04T10:55:37Z</time>
      </trkpt>
      <trkpt lat="50.62628" lon="5.41936">
        <ele>182</ele>
        <time>2022-10-04T10:55:42Z</time>
      </trkpt>
      <trkpt lat="50.62621" lon="5.41939">
        <ele>182</ele>
        <time>2022-10-04T10:55:43Z</time>
      </trkpt>
      <trkpt lat="50.62586" lon="5.41963">
        <ele>182.2</ele>
        <time>2022-10-04T10:55:48Z</time>
      </trkpt>
      <trkpt lat="50.62553" lon="5.41998">
        <ele>182.8</ele>
        <time>2022-10-04T10:55:53Z</time>
      </trkpt>
      <trkpt lat="50.62518" lon="5.42049">
        <ele>183.4</ele>
        <time>2022-10-04T10:55:59Z</time>
      </trkpt>
      <trkpt lat="50.62502" lon="5.42075">
        <ele>183.6</ele>
        <time>2022-10-04T10:56:02Z</time>
      </trkpt>
      <trkpt lat="50.62479" lon="5.4211">
        <ele>183.8</ele>
        <time>2022-10-04T10:56:06Z</time>
      </trkpt>
      <trkpt lat="50.62468" lon="5.42127">
        <ele>184</ele>
        <time>2022-10-04T10:56:08Z</time>
      </trkpt>
      <trkpt lat="50.6244" lon="5.42169">
        <ele>184.6</ele>
        <time>2022-10-04T10:56:13Z</time>
      </trkpt>
      <trkpt lat="50.62419" lon="5.42205">
        <ele>184.8</ele>
        <time>2022-10-04T10:56:17Z</time>
      </trkpt>
      <trkpt lat="50.62396" lon="5.42266">
        <ele>185.4</ele>
        <time>2022-10-04T10:56:23Z</time>
      </trkpt>
      <trkpt lat="50.62393" lon="5.42277">
        <ele>185.6</ele>
        <time>2022-10-04T10:56:24Z</time>
      </trkpt>
      <trkpt lat="50.62376" lon="5.42336">
        <ele>186</ele>
        <time>2022-10-04T10:56:30Z</time>
      </trkpt>
      <trkpt lat="50.62367" lon="5.42349">
        <ele>186.4</ele>
        <time>2022-10-04T10:56:32Z</time>
      </trkpt>
      <trkpt lat="50.62362" lon="5.42354">
        <ele>186.4</ele>
        <time>2022-10-04T10:56:33Z</time>
      </trkpt>
      <trkpt lat="50.62357" lon="5.4236">
        <ele>186.6</ele>
        <time>2022-10-04T10:56:34Z</time>
      </trkpt>
      <trkpt lat="50.62351" lon="5.42375">
        <ele>186.6</ele>
        <time>2022-10-04T10:56:36Z</time>
      </trkpt>
      <trkpt lat="50.62349" lon="5.42404">
        <ele>187</ele>
        <time>2022-10-04T10:56:39Z</time>
      </trkpt>
      <trkpt lat="50.62347" lon="5.42414">
        <ele>187.2</ele>
        <time>2022-10-04T10:56:40Z</time>
      </trkpt>
      <trkpt lat="50.62344" lon="5.42423">
        <ele>187.2</ele>
        <time>2022-10-04T10:56:41Z</time>
      </trkpt>
      <trkpt lat="50.62323" lon="5.42483">
        <ele>187.6</ele>
        <time>2022-10-04T10:56:48Z</time>
      </trkpt>
      <trkpt lat="50.62319" lon="5.42487">
        <ele>187.6</ele>
        <time>2022-10-04T10:56:49Z</time>
      </trkpt>
      <trkpt lat="50.62309" lon="5.42491">
        <ele>187.8</ele>
        <time>2022-10-04T10:56:51Z</time>
      </trkpt>
      <trkpt lat="50.62298" lon="5.42496">
        <ele>188</ele>
        <time>2022-10-04T10:56:53Z</time>
      </trkpt>
      <trkpt lat="50.62289" lon="5.42507">
        <ele>188.2</ele>
        <time>2022-10-04T10:56:55Z</time>
      </trkpt>
      <trkpt lat="50.62281" lon="5.42525">
        <ele>188.4</ele>
        <time>2022-10-04T10:56:57Z</time>
      </trkpt>
      <trkpt lat="50.62276" lon="5.42534">
        <ele>188.2</ele>
        <time>2022-10-04T10:56:58Z</time>
      </trkpt>
      <trkpt lat="50.62271" lon="5.42541">
        <ele>188.4</ele>
        <time>2022-10-04T10:56:59Z</time>
      </trkpt>
      <trkpt lat="50.62266" lon="5.42546">
        <ele>188.4</ele>
        <time>2022-10-04T10:57:00Z</time>
      </trkpt>
      <trkpt lat="50.62254" lon="5.42554">
        <ele>188.6</ele>
        <time>2022-10-04T10:57:02Z</time>
      </trkpt>
      <trkpt lat="50.62249" lon="5.42556">
        <ele>188.6</ele>
        <time>2022-10-04T10:57:03Z</time>
      </trkpt>
      <trkpt lat="50.62242" lon="5.42556">
        <ele>188.6</ele>
        <time>2022-10-04T10:57:04Z</time>
      </trkpt>
      <trkpt lat="50.62231" lon="5.42554">
        <ele>188.8</ele>
        <time>2022-10-04T10:57:06Z</time>
      </trkpt>
      <trkpt lat="50.62225" lon="5.42553">
        <ele>188.6</ele>
        <time>2022-10-04T10:57:07Z</time>
      </trkpt>
      <trkpt lat="50.6222" lon="5.42552">
        <ele>188.8</ele>
        <time>2022-10-04T10:57:08Z</time>
      </trkpt>
      <trkpt lat="50.62215" lon="5.42552">
        <ele>189</ele>
        <time>2022-10-04T10:57:09Z</time>
      </trkpt>
      <trkpt lat="50.6221" lon="5.42554">
        <ele>189</ele>
        <time>2022-10-04T10:57:10Z</time>
      </trkpt>
      <trkpt lat="50.62206" lon="5.42556">
        <ele>189.2</ele>
        <time>2022-10-04T10:57:11Z</time>
      </trkpt>
      <trkpt lat="50.62202" lon="5.4256">
        <ele>189.6</ele>
        <time>2022-10-04T10:57:12Z</time>
      </trkpt>
      <trkpt lat="50.62198" lon="5.42564">
        <ele>189.8</ele>
        <time>2022-10-04T10:57:13Z</time>
      </trkpt>
      <trkpt lat="50.62196" lon="5.42569">
        <ele>190.4</ele>
        <time>2022-10-04T10:57:14Z</time>
      </trkpt>
      <trkpt lat="50.62193" lon="5.42575">
        <ele>190.6</ele>
        <time>2022-10-04T10:57:15Z</time>
      </trkpt>
      <trkpt lat="50.62186" lon="5.42591">
        <ele>191.8</ele>
        <time>2022-10-04T10:57:18Z</time>
      </trkpt>
      <trkpt lat="50.62174" lon="5.42612">
        <ele>193</ele>
        <time>2022-10-04T10:57:22Z</time>
      </trkpt>
      <trkpt lat="50.62167" lon="5.42621">
        <ele>193.2</ele>
        <time>2022-10-04T10:57:24Z</time>
      </trkpt>
      <trkpt lat="50.62159" lon="5.42626">
        <ele>194.2</ele>
        <time>2022-10-04T10:57:26Z</time>
      </trkpt>
      <trkpt lat="50.62149" lon="5.42628">
        <ele>195</ele>
        <time>2022-10-04T10:57:28Z</time>
      </trkpt>
      <trkpt lat="50.62145" lon="5.42627">
        <ele>195.4</ele>
        <time>2022-10-04T10:57:29Z</time>
      </trkpt>
      <trkpt lat="50.6214" lon="5.42627">
        <ele>195.6</ele>
        <time>2022-10-04T10:57:30Z</time>
      </trkpt>
      <trkpt lat="50.62121" lon="5.42623">
        <ele>196.4</ele>
        <time>2022-10-04T10:57:34Z</time>
      </trkpt>
      <trkpt lat="50.62107" lon="5.4262">
        <ele>197</ele>
        <time>2022-10-04T10:57:37Z</time>
      </trkpt>
      <trkpt lat="50.62103" lon="5.42619">
        <ele>197.4</ele>
        <time>2022-10-04T10:57:38Z</time>
      </trkpt>
      <trkpt lat="50.6207" lon="5.42614">
        <ele>199.2</ele>
        <time>2022-10-04T10:57:45Z</time>
      </trkpt>
      <trkpt lat="50.62065" lon="5.42613">
        <ele>199.2</ele>
        <time>2022-10-04T10:57:46Z</time>
      </trkpt>
      <trkpt lat="50.6204" lon="5.42609">
        <ele>200.8</ele>
        <time>2022-10-04T10:57:51Z</time>
      </trkpt>
      <trkpt lat="50.62035" lon="5.42608">
        <ele>201</ele>
        <time>2022-10-04T10:57:52Z</time>
      </trkpt>
      <trkpt lat="50.6203" lon="5.42607">
        <ele>201</ele>
        <time>2022-10-04T10:57:53Z</time>
      </trkpt>
      <trkpt lat="50.6199" lon="5.42599">
        <ele>201.8</ele>
        <time>2022-10-04T10:58:01Z</time>
      </trkpt>
      <trkpt lat="50.6198" lon="5.42598">
        <ele>201.8</ele>
        <time>2022-10-04T10:58:03Z</time>
      </trkpt>
      <trkpt lat="50.6196" lon="5.42597">
        <ele>202</ele>
        <time>2022-10-04T10:58:07Z</time>
      </trkpt>
      <trkpt lat="50.61954" lon="5.42598">
        <ele>202</ele>
        <time>2022-10-04T10:58:08Z</time>
      </trkpt>
      <trkpt lat="50.61929" lon="5.42603">
        <ele>201.8</ele>
        <time>2022-10-04T10:58:13Z</time>
      </trkpt>
      <trkpt lat="50.61919" lon="5.42603">
        <ele>201.8</ele>
        <time>2022-10-04T10:58:15Z</time>
      </trkpt>
      <trkpt lat="50.619" lon="5.42605">
        <ele>201.8</ele>
        <time>2022-10-04T10:58:19Z</time>
      </trkpt>
      <trkpt lat="50.61884" lon="5.42606">
        <ele>201.8</ele>
        <time>2022-10-04T10:58:22Z</time>
      </trkpt>
      <trkpt lat="50.61873" lon="5.42605">
        <ele>202</ele>
        <time>2022-10-04T10:58:24Z</time>
      </trkpt>
      <trkpt lat="50.61856" lon="5.42601">
        <ele>201.6</ele>
        <time>2022-10-04T10:58:27Z</time>
      </trkpt>
      <trkpt lat="50.61849" lon="5.42599">
        <ele>201.2</ele>
        <time>2022-10-04T10:58:28Z</time>
      </trkpt>
      <trkpt lat="50.61843" lon="5.42598">
        <ele>201</ele>
        <time>2022-10-04T10:58:29Z</time>
      </trkpt>
      <trkpt lat="50.61817" lon="5.42592">
        <ele>200.4</ele>
        <time>2022-10-04T10:58:33Z</time>
      </trkpt>
      <trkpt lat="50.61811" lon="5.42601">
        <ele>199.6</ele>
        <time>2022-10-04T10:58:35Z</time>
      </trkpt>
      <trkpt lat="50.61812" lon="5.42617">
        <ele>198.8</ele>
        <time>2022-10-04T10:58:37Z</time>
      </trkpt>
      <trkpt lat="50.61814" lon="5.42626">
        <ele>198.4</ele>
        <time>2022-10-04T10:58:38Z</time>
      </trkpt>
      <trkpt lat="50.61815" lon="5.42635">
        <ele>197.4</ele>
        <time>2022-10-04T10:58:39Z</time>
      </trkpt>
      <trkpt lat="50.61815" lon="5.42653">
        <ele>196.8</ele>
        <time>2022-10-04T10:58:41Z</time>
      </trkpt>
      <trkpt lat="50.61814" lon="5.42663">
        <ele>196.6</ele>
        <time>2022-10-04T10:58:42Z</time>
      </trkpt>
      <trkpt lat="50.61813" lon="5.42673">
        <ele>196.2</ele>
        <time>2022-10-04T10:58:43Z</time>
      </trkpt>
      <trkpt lat="50.61806" lon="5.42717">
        <ele>195</ele>
        <time>2022-10-04T10:58:47Z</time>
      </trkpt>
      <trkpt lat="50.61804" lon="5.42728">
        <ele>194.8</ele>
        <time>2022-10-04T10:58:48Z</time>
      </trkpt>
      <trkpt lat="50.61799" lon="5.4275">
        <ele>194.4</ele>
        <time>2022-10-04T10:58:50Z</time>
      </trkpt>
      <trkpt lat="50.61797" lon="5.4276">
        <ele>194</ele>
        <time>2022-10-04T10:58:51Z</time>
      </trkpt>
      <trkpt lat="50.6179" lon="5.42779">
        <ele>192.8</ele>
        <time>2022-10-04T10:58:53Z</time>
      </trkpt>
      <trkpt lat="50.61787" lon="5.42787">
        <ele>192.6</ele>
        <time>2022-10-04T10:58:54Z</time>
      </trkpt>
      <trkpt lat="50.6178" lon="5.42804">
        <ele>192.4</ele>
        <time>2022-10-04T10:58:56Z</time>
      </trkpt>
      <trkpt lat="50.61773" lon="5.4282">
        <ele>192.4</ele>
        <time>2022-10-04T10:58:58Z</time>
      </trkpt>
      <trkpt lat="50.6177" lon="5.42828">
        <ele>192.6</ele>
        <time>2022-10-04T10:58:59Z</time>
      </trkpt>
      <trkpt lat="50.61767" lon="5.42836">
        <ele>192.6</ele>
        <time>2022-10-04T10:59:00Z</time>
      </trkpt>
      <trkpt lat="50.61765" lon="5.42845">
        <ele>192.4</ele>
        <time>2022-10-04T10:59:01Z</time>
      </trkpt>
      <trkpt lat="50.61764" lon="5.42863">
        <ele>192.4</ele>
        <time>2022-10-04T10:59:03Z</time>
      </trkpt>
      <trkpt lat="50.61767" lon="5.42881">
        <ele>192.4</ele>
        <time>2022-10-04T10:59:05Z</time>
      </trkpt>
      <trkpt lat="50.6177" lon="5.4289">
        <ele>193</ele>
        <time>2022-10-04T10:59:06Z</time>
      </trkpt>
      <trkpt lat="50.61774" lon="5.42898">
        <ele>193.8</ele>
        <time>2022-10-04T10:59:07Z</time>
      </trkpt>
      <trkpt lat="50.61784" lon="5.42911">
        <ele>195.4</ele>
        <time>2022-10-04T10:59:09Z</time>
      </trkpt>
      <trkpt lat="50.61789" lon="5.42916">
        <ele>195.8</ele>
        <time>2022-10-04T10:59:10Z</time>
      </trkpt>
      <trkpt lat="50.61799" lon="5.42925">
        <ele>196.4</ele>
        <time>2022-10-04T10:59:12Z</time>
      </trkpt>
      <trkpt lat="50.61814" lon="5.42941">
        <ele>197</ele>
        <time>2022-10-04T10:59:15Z</time>
      </trkpt>
      <trkpt lat="50.61834" lon="5.42962">
        <ele>197.6</ele>
        <time>2022-10-04T10:59:19Z</time>
      </trkpt>
      <trkpt lat="50.61849" lon="5.42978">
        <ele>198.2</ele>
        <time>2022-10-04T10:59:22Z</time>
      </trkpt>
      <trkpt lat="50.61863" lon="5.42994">
        <ele>198.4</ele>
        <time>2022-10-04T10:59:25Z</time>
      </trkpt>
      <trkpt lat="50.61871" lon="5.43007">
        <ele>198.6</ele>
        <time>2022-10-04T10:59:27Z</time>
      </trkpt>
      <trkpt lat="50.61876" lon="5.43013">
        <ele>198.8</ele>
        <time>2022-10-04T10:59:28Z</time>
      </trkpt>
      <trkpt lat="50.61916" lon="5.4307">
        <ele>199.2</ele>
        <time>2022-10-04T10:59:36Z</time>
      </trkpt>
      <trkpt lat="50.61925" lon="5.43083">
        <ele>199.2</ele>
        <time>2022-10-04T10:59:38Z</time>
      </trkpt>
      <trkpt lat="50.6193" lon="5.43089">
        <ele>199.2</ele>
        <time>2022-10-04T10:59:39Z</time>
      </trkpt>
      <trkpt lat="50.61935" lon="5.43095">
        <ele>199.2</ele>
        <time>2022-10-04T10:59:40Z</time>
      </trkpt>
      <trkpt lat="50.61939" lon="5.43102">
        <ele>199.2</ele>
        <time>2022-10-04T10:59:41Z</time>
      </trkpt>
      <trkpt lat="50.61943" lon="5.43108">
        <ele>199.2</ele>
        <time>2022-10-04T10:59:42Z</time>
      </trkpt>
      <trkpt lat="50.61947" lon="5.43115">
        <ele>199.2</ele>
        <time>2022-10-04T10:59:43Z</time>
      </trkpt>
      <trkpt lat="50.61956" lon="5.43128">
        <ele>199.2</ele>
        <time>2022-10-04T10:59:45Z</time>
      </trkpt>
      <trkpt lat="50.61975" lon="5.43149">
        <ele>199.6</ele>
        <time>2022-10-04T10:59:49Z</time>
      </trkpt>
      <trkpt lat="50.6198" lon="5.43153">
        <ele>199.6</ele>
        <time>2022-10-04T10:59:50Z</time>
      </trkpt>
      <trkpt lat="50.61997" lon="5.43164">
        <ele>199.8</ele>
        <time>2022-10-04T10:59:53Z</time>
      </trkpt>
      <trkpt lat="50.62002" lon="5.43167">
        <ele>200</ele>
        <time>2022-10-04T10:59:54Z</time>
      </trkpt>
      <trkpt lat="50.6202" lon="5.43175">
        <ele>200</ele>
        <time>2022-10-04T10:59:57Z</time>
      </trkpt>
      <trkpt lat="50.62038" lon="5.43187">
        <ele>199.8</ele>
        <time>2022-10-04T11:00:00Z</time>
      </trkpt>
      <trkpt lat="50.62049" lon="5.43197">
        <ele>200</ele>
        <time>2022-10-04T11:00:02Z</time>
      </trkpt>
      <trkpt lat="50.62054" lon="5.43204">
        <ele>199.8</ele>
        <time>2022-10-04T11:00:03Z</time>
      </trkpt>
      <trkpt lat="50.62091" lon="5.43246">
        <ele>199</ele>
        <time>2022-10-04T11:00:10Z</time>
      </trkpt>
      <trkpt lat="50.62096" lon="5.43251">
        <ele>199</ele>
        <time>2022-10-04T11:00:11Z</time>
      </trkpt>
      <trkpt lat="50.62116" lon="5.43272">
        <ele>199</ele>
        <time>2022-10-04T11:00:15Z</time>
      </trkpt>
      <trkpt lat="50.62141" lon="5.43299">
        <ele>200</ele>
        <time>2022-10-04T11:00:20Z</time>
      </trkpt>
      <trkpt lat="50.62145" lon="5.43305">
        <ele>200.4</ele>
        <time>2022-10-04T11:00:21Z</time>
      </trkpt>
      <trkpt lat="50.62149" lon="5.43313">
        <ele>200.4</ele>
        <time>2022-10-04T11:00:22Z</time>
      </trkpt>
      <trkpt lat="50.62153" lon="5.43321">
        <ele>200.6</ele>
        <time>2022-10-04T11:00:23Z</time>
      </trkpt>
      <trkpt lat="50.62156" lon="5.4333">
        <ele>200.6</ele>
        <time>2022-10-04T11:00:24Z</time>
      </trkpt>
      <trkpt lat="50.62163" lon="5.43349">
        <ele>200.6</ele>
        <time>2022-10-04T11:00:26Z</time>
      </trkpt>
      <trkpt lat="50.62178" lon="5.4339">
        <ele>200.6</ele>
        <time>2022-10-04T11:00:30Z</time>
      </trkpt>
      <trkpt lat="50.62182" lon="5.434">
        <ele>200.6</ele>
        <time>2022-10-04T11:00:31Z</time>
      </trkpt>
      <trkpt lat="50.62203" lon="5.43463">
        <ele>199.4</ele>
        <time>2022-10-04T11:00:37Z</time>
      </trkpt>
      <trkpt lat="50.62205" lon="5.43474">
        <ele>199.4</ele>
        <time>2022-10-04T11:00:38Z</time>
      </trkpt>
      <trkpt lat="50.62209" lon="5.43496">
        <ele>198.6</ele>
        <time>2022-10-04T11:00:40Z</time>
      </trkpt>
      <trkpt lat="50.62219" lon="5.43514">
        <ele>198.2</ele>
        <time>2022-10-04T11:00:42Z</time>
      </trkpt>
      <trkpt lat="50.62225" lon="5.43521">
        <ele>198</ele>
        <time>2022-10-04T11:00:43Z</time>
      </trkpt>
      <trkpt lat="50.62231" lon="5.43529">
        <ele>197.6</ele>
        <time>2022-10-04T11:00:44Z</time>
      </trkpt>
      <trkpt lat="50.62243" lon="5.43557">
        <ele>197</ele>
        <time>2022-10-04T11:00:47Z</time>
      </trkpt>
      <trkpt lat="50.62254" lon="5.43586">
        <ele>196.6</ele>
        <time>2022-10-04T11:00:50Z</time>
      </trkpt>
      <trkpt lat="50.62259" lon="5.43595">
        <ele>196.4</ele>
        <time>2022-10-04T11:00:51Z</time>
      </trkpt>
      <trkpt lat="50.62263" lon="5.43605">
        <ele>196.6</ele>
        <time>2022-10-04T11:00:52Z</time>
      </trkpt>
      <trkpt lat="50.62268" lon="5.43615">
        <ele>196.2</ele>
        <time>2022-10-04T11:00:53Z</time>
      </trkpt>
      <trkpt lat="50.62277" lon="5.43637">
        <ele>196</ele>
        <time>2022-10-04T11:00:55Z</time>
      </trkpt>
      <trkpt lat="50.62286" lon="5.43661">
        <ele>196</ele>
        <time>2022-10-04T11:00:57Z</time>
      </trkpt>
      <trkpt lat="50.62295" lon="5.43686">
        <ele>195.6</ele>
        <time>2022-10-04T11:00:59Z</time>
      </trkpt>
      <trkpt lat="50.62304" lon="5.43711">
        <ele>194.8</ele>
        <time>2022-10-04T11:01:01Z</time>
      </trkpt>
      <trkpt lat="50.62313" lon="5.43736">
        <ele>194</ele>
        <time>2022-10-04T11:01:03Z</time>
      </trkpt>
      <trkpt lat="50.62326" lon="5.43774">
        <ele>191.8</ele>
        <time>2022-10-04T11:01:06Z</time>
      </trkpt>
      <trkpt lat="50.6234" lon="5.43837">
        <ele>190.6</ele>
        <time>2022-10-04T11:01:11Z</time>
      </trkpt>
      <trkpt lat="50.62342" lon="5.43849">
        <ele>190.4</ele>
        <time>2022-10-04T11:01:12Z</time>
      </trkpt>
      <trkpt lat="50.62345" lon="5.43861">
        <ele>190.2</ele>
        <time>2022-10-04T11:01:13Z</time>
      </trkpt>
      <trkpt lat="50.62362" lon="5.43952">
        <ele>190.4</ele>
        <time>2022-10-04T11:01:21Z</time>
      </trkpt>
      <trkpt lat="50.62366" lon="5.43985">
        <ele>190.6</ele>
        <time>2022-10-04T11:01:24Z</time>
      </trkpt>
      <trkpt lat="50.62364" lon="5.44007">
        <ele>191</ele>
        <time>2022-10-04T11:01:26Z</time>
      </trkpt>
      <trkpt lat="50.62362" lon="5.44018">
        <ele>191.2</ele>
        <time>2022-10-04T11:01:27Z</time>
      </trkpt>
      <trkpt lat="50.62358" lon="5.44028">
        <ele>191.4</ele>
        <time>2022-10-04T11:01:28Z</time>
      </trkpt>
      <trkpt lat="50.62353" lon="5.44037">
        <ele>191.4</ele>
        <time>2022-10-04T11:01:29Z</time>
      </trkpt>
      <trkpt lat="50.62343" lon="5.44055">
        <ele>191.6</ele>
        <time>2022-10-04T11:01:31Z</time>
      </trkpt>
      <trkpt lat="50.62323" lon="5.44091">
        <ele>191.8</ele>
        <time>2022-10-04T11:01:35Z</time>
      </trkpt>
      <trkpt lat="50.62314" lon="5.44109">
        <ele>192.2</ele>
        <time>2022-10-04T11:01:37Z</time>
      </trkpt>
      <trkpt lat="50.62311" lon="5.44118">
        <ele>192.2</ele>
        <time>2022-10-04T11:01:38Z</time>
      </trkpt>
      <trkpt lat="50.62305" lon="5.44137">
        <ele>192.2</ele>
        <time>2022-10-04T11:01:40Z</time>
      </trkpt>
      <trkpt lat="50.62303" lon="5.44148">
        <ele>192.2</ele>
        <time>2022-10-04T11:01:41Z</time>
      </trkpt>
      <trkpt lat="50.62302" lon="5.44158">
        <ele>192.2</ele>
        <time>2022-10-04T11:01:42Z</time>
      </trkpt>
      <trkpt lat="50.62303" lon="5.4419">
        <ele>192.2</ele>
        <time>2022-10-04T11:01:45Z</time>
      </trkpt>
      <trkpt lat="50.62306" lon="5.44213">
        <ele>192.4</ele>
        <time>2022-10-04T11:01:47Z</time>
      </trkpt>
      <trkpt lat="50.62314" lon="5.44245">
        <ele>192.2</ele>
        <time>2022-10-04T11:01:50Z</time>
      </trkpt>
      <trkpt lat="50.62322" lon="5.44276">
        <ele>193.2</ele>
        <time>2022-10-04T11:01:53Z</time>
      </trkpt>
      <trkpt lat="50.62328" lon="5.44304">
        <ele>193.8</ele>
        <time>2022-10-04T11:01:56Z</time>
      </trkpt>
      <trkpt lat="50.6233" lon="5.44314">
        <ele>194</ele>
        <time>2022-10-04T11:01:57Z</time>
      </trkpt>
      <trkpt lat="50.62335" lon="5.44343">
        <ele>194.4</ele>
        <time>2022-10-04T11:02:00Z</time>
      </trkpt>
      <trkpt lat="50.62341" lon="5.4439">
        <ele>195.8</ele>
        <time>2022-10-04T11:02:05Z</time>
      </trkpt>
      <trkpt lat="50.62347" lon="5.44456">
        <ele>196.6</ele>
        <time>2022-10-04T11:02:12Z</time>
      </trkpt>
      <trkpt lat="50.6235" lon="5.44485">
        <ele>196.8</ele>
        <time>2022-10-04T11:02:15Z</time>
      </trkpt>
      <trkpt lat="50.6235" lon="5.44495">
        <ele>197</ele>
        <time>2022-10-04T11:02:16Z</time>
      </trkpt>
      <trkpt lat="50.62351" lon="5.44525">
        <ele>197</ele>
        <time>2022-10-04T11:02:19Z</time>
      </trkpt>
      <trkpt lat="50.62349" lon="5.44618">
        <ele>198</ele>
        <time>2022-10-04T11:02:28Z</time>
      </trkpt>
      <trkpt lat="50.62349" lon="5.44628">
        <ele>198.2</ele>
        <time>2022-10-04T11:02:29Z</time>
      </trkpt>
      <trkpt lat="50.62339" lon="5.44719">
        <ele>198.2</ele>
        <time>2022-10-04T11:02:38Z</time>
      </trkpt>
      <trkpt lat="50.62334" lon="5.44761">
        <ele>198</ele>
        <time>2022-10-04T11:02:42Z</time>
      </trkpt>
      <trkpt lat="50.6233" lon="5.44801">
        <ele>197.8</ele>
        <time>2022-10-04T11:02:46Z</time>
      </trkpt>
      <trkpt lat="50.62329" lon="5.4481">
        <ele>198</ele>
        <time>2022-10-04T11:02:47Z</time>
      </trkpt>
      <trkpt lat="50.62325" lon="5.44849">
        <ele>197.4</ele>
        <time>2022-10-04T11:02:51Z</time>
      </trkpt>
      <trkpt lat="50.62324" lon="5.4489">
        <ele>197</ele>
        <time>2022-10-04T11:02:55Z</time>
      </trkpt>
      <trkpt lat="50.62321" lon="5.44933">
        <ele>196.6</ele>
        <time>2022-10-04T11:02:59Z</time>
      </trkpt>
      <trkpt lat="50.6232" lon="5.44966">
        <ele>196.2</ele>
        <time>2022-10-04T11:03:02Z</time>
      </trkpt>
      <trkpt lat="50.62319" lon="5.45045">
        <ele>195.2</ele>
        <time>2022-10-04T11:03:09Z</time>
      </trkpt>
      <trkpt lat="50.62319" lon="5.45056">
        <ele>195</ele>
        <time>2022-10-04T11:03:10Z</time>
      </trkpt>
      <trkpt lat="50.6232" lon="5.45089">
        <ele>194.6</ele>
        <time>2022-10-04T11:03:13Z</time>
      </trkpt>
      <trkpt lat="50.62321" lon="5.45122">
        <ele>194.2</ele>
        <time>2022-10-04T11:03:16Z</time>
      </trkpt>
      <trkpt lat="50.62322" lon="5.45146">
        <ele>194</ele>
        <time>2022-10-04T11:03:18Z</time>
      </trkpt>
      <trkpt lat="50.62324" lon="5.45192">
        <ele>193.6</ele>
        <time>2022-10-04T11:03:22Z</time>
      </trkpt>
      <trkpt lat="50.62325" lon="5.45239">
        <ele>192.8</ele>
        <time>2022-10-04T11:03:26Z</time>
      </trkpt>
      <trkpt lat="50.62325" lon="5.45262">
        <ele>192.6</ele>
        <time>2022-10-04T11:03:28Z</time>
      </trkpt>
      <trkpt lat="50.62326" lon="5.45273">
        <ele>192.6</ele>
        <time>2022-10-04T11:03:29Z</time>
      </trkpt>
      <trkpt lat="50.62328" lon="5.45334">
        <ele>192.2</ele>
        <time>2022-10-04T11:03:34Z</time>
      </trkpt>
      <trkpt lat="50.62328" lon="5.45346">
        <ele>192.2</ele>
        <time>2022-10-04T11:03:35Z</time>
      </trkpt>
      <trkpt lat="50.62329" lon="5.45369">
        <ele>192</ele>
        <time>2022-10-04T11:03:37Z</time>
      </trkpt>
      <trkpt lat="50.6233" lon="5.45427">
        <ele>191.8</ele>
        <time>2022-10-04T11:03:42Z</time>
      </trkpt>
      <trkpt lat="50.6233" lon="5.45439">
        <ele>191.8</ele>
        <time>2022-10-04T11:03:43Z</time>
      </trkpt>
      <trkpt lat="50.62332" lon="5.45528">
        <ele>191.6</ele>
        <time>2022-10-04T11:03:51Z</time>
      </trkpt>
      <trkpt lat="50.62333" lon="5.45562">
        <ele>191.8</ele>
        <time>2022-10-04T11:03:55Z</time>
      </trkpt>
      <trkpt lat="50.62328" lon="5.45571">
        <ele>191.6</ele>
        <time>2022-10-04T11:03:57Z</time>
      </trkpt>
      <trkpt lat="50.62325" lon="5.45571">
        <ele>191.6</ele>
        <time>2022-10-04T11:03:58Z</time>
      </trkpt>
      <trkpt lat="50.62311" lon="5.45557">
        <ele>191.6</ele>
        <time>2022-10-04T11:04:02Z</time>
      </trkpt>
      <trkpt lat="50.62308" lon="5.45551">
        <ele>191.8</ele>
        <time>2022-10-04T11:04:03Z</time>
      </trkpt>
      <trkpt lat="50.62292" lon="5.45526">
        <ele>191.6</ele>
        <time>2022-10-04T11:04:07Z</time>
      </trkpt>
      <trkpt lat="50.6228" lon="5.45502">
        <ele>190.8</ele>
        <time>2022-10-04T11:04:10Z</time>
      </trkpt>
      <trkpt lat="50.62271" lon="5.45485">
        <ele>190.2</ele>
        <time>2022-10-04T11:04:12Z</time>
      </trkpt>
      <trkpt lat="50.62251" lon="5.45451">
        <ele>189.2</ele>
        <time>2022-10-04T11:04:16Z</time>
      </trkpt>
      <trkpt lat="50.62225" lon="5.45409">
        <ele>187</ele>
        <time>2022-10-04T11:04:21Z</time>
      </trkpt>
      <trkpt lat="50.622" lon="5.45366">
        <ele>186.6</ele>
        <time>2022-10-04T11:04:26Z</time>
      </trkpt>
      <trkpt lat="50.62184" lon="5.45339">
        <ele>186.2</ele>
        <time>2022-10-04T11:04:29Z</time>
      </trkpt>
      <trkpt lat="50.62154" lon="5.45286">
        <ele>186</ele>
        <time>2022-10-04T11:04:35Z</time>
      </trkpt>
      <trkpt lat="50.6214" lon="5.45261">
        <ele>185.6</ele>
        <time>2022-10-04T11:04:38Z</time>
      </trkpt>
      <trkpt lat="50.62135" lon="5.45252">
        <ele>185.8</ele>
        <time>2022-10-04T11:04:39Z</time>
      </trkpt>
      <trkpt lat="50.62112" lon="5.45213">
        <ele>185.8</ele>
        <time>2022-10-04T11:04:44Z</time>
      </trkpt>
      <trkpt lat="50.62108" lon="5.45205">
        <ele>185.8</ele>
        <time>2022-10-04T11:04:45Z</time>
      </trkpt>
      <trkpt lat="50.62101" lon="5.45189">
        <ele>186</ele>
        <time>2022-10-04T11:04:47Z</time>
      </trkpt>
      <trkpt lat="50.62088" lon="5.45167">
        <ele>186</ele>
        <time>2022-10-04T11:04:50Z</time>
      </trkpt>
      <trkpt lat="50.62084" lon="5.4516">
        <ele>186.2</ele>
        <time>2022-10-04T11:04:51Z</time>
      </trkpt>
      <trkpt lat="50.6206" lon="5.45117">
        <ele>187</ele>
        <time>2022-10-04T11:04:57Z</time>
      </trkpt>
      <trkpt lat="50.62055" lon="5.4511">
        <ele>187.4</ele>
        <time>2022-10-04T11:04:58Z</time>
      </trkpt>
      <trkpt lat="50.62045" lon="5.45097">
        <ele>188.2</ele>
        <time>2022-10-04T11:05:00Z</time>
      </trkpt>
      <trkpt lat="50.62026" lon="5.45076">
        <ele>189.2</ele>
        <time>2022-10-04T11:05:04Z</time>
      </trkpt>
      <trkpt lat="50.62021" lon="5.45071">
        <ele>189.2</ele>
        <time>2022-10-04T11:05:05Z</time>
      </trkpt>
      <trkpt lat="50.62006" lon="5.45058">
        <ele>189.4</ele>
        <time>2022-10-04T11:05:08Z</time>
      </trkpt>
      <trkpt lat="50.6198" lon="5.45035">
        <ele>189.8</ele>
        <time>2022-10-04T11:05:13Z</time>
      </trkpt>
      <trkpt lat="50.6197" lon="5.45028">
        <ele>190</ele>
        <time>2022-10-04T11:05:15Z</time>
      </trkpt>
      <trkpt lat="50.61945" lon="5.4501">
        <ele>190.8</ele>
        <time>2022-10-04T11:05:20Z</time>
      </trkpt>
      <trkpt lat="50.61921" lon="5.44992">
        <ele>191</ele>
        <time>2022-10-04T11:05:25Z</time>
      </trkpt>
      <trkpt lat="50.61911" lon="5.44984">
        <ele>191.2</ele>
        <time>2022-10-04T11:05:27Z</time>
      </trkpt>
      <trkpt lat="50.61883" lon="5.44962">
        <ele>191.6</ele>
        <time>2022-10-04T11:05:33Z</time>
      </trkpt>
      <trkpt lat="50.61869" lon="5.44951">
        <ele>191.8</ele>
        <time>2022-10-04T11:05:36Z</time>
      </trkpt>
      <trkpt lat="50.61836" lon="5.44926">
        <ele>192.6</ele>
        <time>2022-10-04T11:05:43Z</time>
      </trkpt>
      <trkpt lat="50.61808" lon="5.44905">
        <ele>193.2</ele>
        <time>2022-10-04T11:05:49Z</time>
      </trkpt>
      <trkpt lat="50.61803" lon="5.44902">
        <ele>193.4</ele>
        <time>2022-10-04T11:05:50Z</time>
      </trkpt>
      <trkpt lat="50.61766" lon="5.44873">
        <ele>194.4</ele>
        <time>2022-10-04T11:05:58Z</time>
      </trkpt>
      <trkpt lat="50.61752" lon="5.44862">
        <ele>194.6</ele>
        <time>2022-10-04T11:06:01Z</time>
      </trkpt>
      <trkpt lat="50.61738" lon="5.44852">
        <ele>194.6</ele>
        <time>2022-10-04T11:06:04Z</time>
      </trkpt>
      <trkpt lat="50.61724" lon="5.4484">
        <ele>194.8</ele>
        <time>2022-10-04T11:06:07Z</time>
      </trkpt>
      <trkpt lat="50.61697" lon="5.44814">
        <ele>195.4</ele>
        <time>2022-10-04T11:06:13Z</time>
      </trkpt>
      <trkpt lat="50.6166" lon="5.44768">
        <ele>195.6</ele>
        <time>2022-10-04T11:06:22Z</time>
      </trkpt>
      <trkpt lat="50.61656" lon="5.44762">
        <ele>195.8</ele>
        <time>2022-10-04T11:06:23Z</time>
      </trkpt>
      <trkpt lat="50.61652" lon="5.44756">
        <ele>195.8</ele>
        <time>2022-10-04T11:06:24Z</time>
      </trkpt>
      <trkpt lat="50.6164" lon="5.44738">
        <ele>195.8</ele>
        <time>2022-10-04T11:06:27Z</time>
      </trkpt>
      <trkpt lat="50.6161" lon="5.44686">
        <ele>196.8</ele>
        <time>2022-10-04T11:06:35Z</time>
      </trkpt>
      <trkpt lat="50.61586" lon="5.44639">
        <ele>197.6</ele>
        <time>2022-10-04T11:06:42Z</time>
      </trkpt>
      <trkpt lat="50.61558" lon="5.44584">
        <ele>198</ele>
        <time>2022-10-04T11:06:50Z</time>
      </trkpt>
      <trkpt lat="50.61537" lon="5.44543">
        <ele>198.8</ele>
        <time>2022-10-04T11:06:56Z</time>
      </trkpt>
      <trkpt lat="50.6153" lon="5.44529">
        <ele>198.8</ele>
        <time>2022-10-04T11:06:58Z</time>
      </trkpt>
      <trkpt lat="50.61513" lon="5.44495">
        <ele>198.8</ele>
        <time>2022-10-04T11:07:03Z</time>
      </trkpt>
      <trkpt lat="50.61499" lon="5.44466">
        <ele>199</ele>
        <time>2022-10-04T11:07:07Z</time>
      </trkpt>
      <trkpt lat="50.61485" lon="5.44437">
        <ele>199</ele>
        <time>2022-10-04T11:07:11Z</time>
      </trkpt>
      <trkpt lat="50.61476" lon="5.44413">
        <ele>199</ele>
        <time>2022-10-04T11:07:14Z</time>
      </trkpt>
      <trkpt lat="50.61453" lon="5.44349">
        <ele>199.2</ele>
        <time>2022-10-04T11:07:22Z</time>
      </trkpt>
      <trkpt lat="50.61448" lon="5.44333">
        <ele>199.4</ele>
        <time>2022-10-04T11:07:24Z</time>
      </trkpt>
      <trkpt lat="50.61429" lon="5.44282">
        <ele>199.4</ele>
        <time>2022-10-04T11:07:30Z</time>
      </trkpt>
      <trkpt lat="50.6142" lon="5.44256">
        <ele>199.2</ele>
        <time>2022-10-04T11:07:33Z</time>
      </trkpt>
      <trkpt lat="50.61416" lon="5.44248">
        <ele>199.2</ele>
        <time>2022-10-04T11:07:34Z</time>
      </trkpt>
      <trkpt lat="50.61407" lon="5.44236">
        <ele>199.2</ele>
        <time>2022-10-04T11:07:36Z</time>
      </trkpt>
      <trkpt lat="50.61396" lon="5.44227">
        <ele>199</ele>
        <time>2022-10-04T11:07:38Z</time>
      </trkpt>
      <trkpt lat="50.6138" lon="5.44216">
        <ele>199</ele>
        <time>2022-10-04T11:07:41Z</time>
      </trkpt>
      <trkpt lat="50.61355" lon="5.44199">
        <ele>199</ele>
        <time>2022-10-04T11:07:46Z</time>
      </trkpt>
      <trkpt lat="50.61345" lon="5.44193">
        <ele>199</ele>
        <time>2022-10-04T11:07:48Z</time>
      </trkpt>
      <trkpt lat="50.61317" lon="5.44175">
        <ele>199.4</ele>
        <time>2022-10-04T11:07:53Z</time>
      </trkpt>
      <trkpt lat="50.61299" lon="5.44164">
        <ele>199.4</ele>
        <time>2022-10-04T11:07:56Z</time>
      </trkpt>
      <trkpt lat="50.61287" lon="5.44156">
        <ele>199.2</ele>
        <time>2022-10-04T11:07:58Z</time>
      </trkpt>
      <trkpt lat="50.61256" lon="5.44136">
        <ele>198.8</ele>
        <time>2022-10-04T11:08:03Z</time>
      </trkpt>
      <trkpt lat="50.61243" lon="5.44128">
        <ele>198.2</ele>
        <time>2022-10-04T11:08:05Z</time>
      </trkpt>
      <trkpt lat="50.6123" lon="5.44119">
        <ele>198</ele>
        <time>2022-10-04T11:08:07Z</time>
      </trkpt>
      <trkpt lat="50.6118" lon="5.44086">
        <ele>197</ele>
        <time>2022-10-04T11:08:15Z</time>
      </trkpt>
      <trkpt lat="50.61174" lon="5.44082">
        <ele>196.6</ele>
        <time>2022-10-04T11:08:16Z</time>
      </trkpt>
      <trkpt lat="50.61135" lon="5.44052">
        <ele>196</ele>
        <time>2022-10-04T11:08:22Z</time>
      </trkpt>
      <trkpt lat="50.61084" lon="5.44013">
        <ele>195.6</ele>
        <time>2022-10-04T11:08:30Z</time>
      </trkpt>
      <trkpt lat="50.61078" lon="5.44008">
        <ele>195.6</ele>
        <time>2022-10-04T11:08:31Z</time>
      </trkpt>
      <trkpt lat="50.61028" lon="5.43969">
        <ele>195.2</ele>
        <time>2022-10-04T11:08:39Z</time>
      </trkpt>
      <trkpt lat="50.61016" lon="5.43959">
        <ele>195</ele>
        <time>2022-10-04T11:08:41Z</time>
      </trkpt>
      <trkpt lat="50.60964" lon="5.43921">
        <ele>195</ele>
        <time>2022-10-04T11:08:49Z</time>
      </trkpt>
      <trkpt lat="50.60958" lon="5.43916">
        <ele>194.8</ele>
        <time>2022-10-04T11:08:50Z</time>
      </trkpt>
      <trkpt lat="50.60905" lon="5.43875">
        <ele>195</ele>
        <time>2022-10-04T11:08:58Z</time>
      </trkpt>
      <trkpt lat="50.60898" lon="5.43871">
        <ele>195.2</ele>
        <time>2022-10-04T11:08:59Z</time>
      </trkpt>
      <trkpt lat="50.60855" lon="5.43839">
        <ele>194.8</ele>
        <time>2022-10-04T11:09:06Z</time>
      </trkpt>
      <trkpt lat="50.60805" lon="5.43802">
        <ele>194</ele>
        <time>2022-10-04T11:09:14Z</time>
      </trkpt>
      <trkpt lat="50.60799" lon="5.43798">
        <ele>194</ele>
        <time>2022-10-04T11:09:15Z</time>
      </trkpt>
      <trkpt lat="50.60793" lon="5.43795">
        <ele>194.2</ele>
        <time>2022-10-04T11:09:16Z</time>
      </trkpt>
      <trkpt lat="50.60774" lon="5.43786">
        <ele>194.2</ele>
        <time>2022-10-04T11:09:19Z</time>
      </trkpt>
      <trkpt lat="50.60749" lon="5.43778">
        <ele>194.6</ele>
        <time>2022-10-04T11:09:23Z</time>
      </trkpt>
      <trkpt lat="50.60737" lon="5.4378">
        <ele>195.2</ele>
        <time>2022-10-04T11:09:25Z</time>
      </trkpt>
      <trkpt lat="50.60725" lon="5.43786">
        <ele>195.8</ele>
        <time>2022-10-04T11:09:27Z</time>
      </trkpt>
      <trkpt lat="50.60714" lon="5.43794">
        <ele>196.2</ele>
        <time>2022-10-04T11:09:29Z</time>
      </trkpt>
      <trkpt lat="50.60682" lon="5.43822">
        <ele>196.6</ele>
        <time>2022-10-04T11:09:35Z</time>
      </trkpt>
      <trkpt lat="50.60651" lon="5.43848">
        <ele>197.4</ele>
        <time>2022-10-04T11:09:41Z</time>
      </trkpt>
      <trkpt lat="50.60614" lon="5.43878">
        <ele>198</ele>
        <time>2022-10-04T11:09:48Z</time>
      </trkpt>
      <trkpt lat="50.60598" lon="5.4389">
        <ele>198</ele>
        <time>2022-10-04T11:09:51Z</time>
      </trkpt>
      <trkpt lat="50.60567" lon="5.43913">
        <ele>198.2</ele>
        <time>2022-10-04T11:09:57Z</time>
      </trkpt>
      <trkpt lat="50.60547" lon="5.43929">
        <ele>198.6</ele>
        <time>2022-10-04T11:10:01Z</time>
      </trkpt>
      <trkpt lat="50.60533" lon="5.4394">
        <ele>199</ele>
        <time>2022-10-04T11:10:04Z</time>
      </trkpt>
      <trkpt lat="50.60529" lon="5.43943">
        <ele>199</ele>
        <time>2022-10-04T11:10:05Z</time>
      </trkpt>
      <trkpt lat="50.60505" lon="5.43955">
        <ele>199.6</ele>
        <time>2022-10-04T11:10:10Z</time>
      </trkpt>
      <trkpt lat="50.60475" lon="5.4397">
        <ele>200.8</ele>
        <time>2022-10-04T11:10:17Z</time>
      </trkpt>
      <trkpt lat="50.60468" lon="5.43981">
        <ele>201</ele>
        <time>2022-10-04T11:10:20Z</time>
      </trkpt>
      <trkpt lat="50.60469" lon="5.43993">
        <ele>201.2</ele>
        <time>2022-10-04T11:10:22Z</time>
      </trkpt>
      <trkpt lat="50.60471" lon="5.44001">
        <ele>201.2</ele>
        <time>2022-10-04T11:10:23Z</time>
      </trkpt>
      <trkpt lat="50.60475" lon="5.44016">
        <ele>201.4</ele>
        <time>2022-10-04T11:10:25Z</time>
      </trkpt>
      <trkpt lat="50.60478" lon="5.44024">
        <ele>201.2</ele>
        <time>2022-10-04T11:10:26Z</time>
      </trkpt>
      <trkpt lat="50.60482" lon="5.4404">
        <ele>201.2</ele>
        <time>2022-10-04T11:10:28Z</time>
      </trkpt>
      <trkpt lat="50.60481" lon="5.44048">
        <ele>201.2</ele>
        <time>2022-10-04T11:10:29Z</time>
      </trkpt>
      <trkpt lat="50.60479" lon="5.44056">
        <ele>201.2</ele>
        <time>2022-10-04T11:10:30Z</time>
      </trkpt>
      <trkpt lat="50.60475" lon="5.44063">
        <ele>201.4</ele>
        <time>2022-10-04T11:10:31Z</time>
      </trkpt>
      <trkpt lat="50.60471" lon="5.44068">
        <ele>201</ele>
        <time>2022-10-04T11:10:32Z</time>
      </trkpt>
      <trkpt lat="50.60444" lon="5.44089">
        <ele>199.8</ele>
        <time>2022-10-04T11:10:37Z</time>
      </trkpt>
      <trkpt lat="50.60427" lon="5.44104">
        <ele>199.4</ele>
        <time>2022-10-04T11:10:40Z</time>
      </trkpt>
      <trkpt lat="50.60421" lon="5.4411">
        <ele>199.2</ele>
        <time>2022-10-04T11:10:41Z</time>
      </trkpt>
      <trkpt lat="50.60411" lon="5.44123">
        <ele>198.8</ele>
        <time>2022-10-04T11:10:43Z</time>
      </trkpt>
      <trkpt lat="50.60391" lon="5.44151">
        <ele>198.2</ele>
        <time>2022-10-04T11:10:47Z</time>
      </trkpt>
      <trkpt lat="50.60381" lon="5.44164">
        <ele>198</ele>
        <time>2022-10-04T11:10:49Z</time>
      </trkpt>
      <trkpt lat="50.60376" lon="5.44171">
        <ele>197.6</ele>
        <time>2022-10-04T11:10:50Z</time>
      </trkpt>
      <trkpt lat="50.60344" lon="5.44216">
        <ele>197</ele>
        <time>2022-10-04T11:10:56Z</time>
      </trkpt>
      <trkpt lat="50.60338" lon="5.44224">
        <ele>197</ele>
        <time>2022-10-04T11:10:57Z</time>
      </trkpt>
      <trkpt lat="50.60301" lon="5.44277">
        <ele>195.8</ele>
        <time>2022-10-04T11:11:04Z</time>
      </trkpt>
      <trkpt lat="50.60297" lon="5.44286">
        <ele>195.6</ele>
        <time>2022-10-04T11:11:05Z</time>
      </trkpt>
      <trkpt lat="50.60291" lon="5.44304">
        <ele>195.4</ele>
        <time>2022-10-04T11:11:07Z</time>
      </trkpt>
      <trkpt lat="50.60288" lon="5.44314">
        <ele>195.2</ele>
        <time>2022-10-04T11:11:08Z</time>
      </trkpt>
      <trkpt lat="50.60284" lon="5.44334">
        <ele>195</ele>
        <time>2022-10-04T11:11:10Z</time>
      </trkpt>
      <trkpt lat="50.60277" lon="5.44364">
        <ele>194.6</ele>
        <time>2022-10-04T11:11:13Z</time>
      </trkpt>
      <trkpt lat="50.60275" lon="5.44384">
        <ele>194.4</ele>
        <time>2022-10-04T11:11:15Z</time>
      </trkpt>
      <trkpt lat="50.60277" lon="5.44394">
        <ele>194.4</ele>
        <time>2022-10-04T11:11:16Z</time>
      </trkpt>
      <trkpt lat="50.60283" lon="5.44411">
        <ele>194.4</ele>
        <time>2022-10-04T11:11:18Z</time>
      </trkpt>
      <trkpt lat="50.60301" lon="5.44459">
        <ele>194</ele>
        <time>2022-10-04T11:11:23Z</time>
      </trkpt>
      <trkpt lat="50.60305" lon="5.44469">
        <ele>194</ele>
        <time>2022-10-04T11:11:24Z</time>
      </trkpt>
      <trkpt lat="50.6033" lon="5.44531">
        <ele>193.8</ele>
        <time>2022-10-04T11:11:30Z</time>
      </trkpt>
      <trkpt lat="50.60342" lon="5.44564">
        <ele>193.2</ele>
        <time>2022-10-04T11:11:33Z</time>
      </trkpt>
      <trkpt lat="50.60346" lon="5.44574">
        <ele>193.2</ele>
        <time>2022-10-04T11:11:34Z</time>
      </trkpt>
      <trkpt lat="50.60365" lon="5.44625">
        <ele>192.6</ele>
        <time>2022-10-04T11:11:39Z</time>
      </trkpt>
      <trkpt lat="50.60369" lon="5.44636">
        <ele>192.2</ele>
        <time>2022-10-04T11:11:40Z</time>
      </trkpt>
      <trkpt lat="50.6037" lon="5.44658">
        <ele>191.8</ele>
        <time>2022-10-04T11:11:42Z</time>
      </trkpt>
      <trkpt lat="50.60362" lon="5.44675">
        <ele>191.8</ele>
        <time>2022-10-04T11:11:44Z</time>
      </trkpt>
      <trkpt lat="50.60357" lon="5.44682">
        <ele>191.4</ele>
        <time>2022-10-04T11:11:45Z</time>
      </trkpt>
      <trkpt lat="50.60344" lon="5.44702">
        <ele>191.4</ele>
        <time>2022-10-04T11:11:48Z</time>
      </trkpt>
      <trkpt lat="50.60341" lon="5.44708">
        <ele>191.4</ele>
        <time>2022-10-04T11:11:49Z</time>
      </trkpt>
      <trkpt lat="50.60338" lon="5.44716">
        <ele>191.2</ele>
        <time>2022-10-04T11:11:50Z</time>
      </trkpt>
      <trkpt lat="50.60335" lon="5.44722">
        <ele>191.2</ele>
        <time>2022-10-04T11:11:51Z</time>
      </trkpt>
      <trkpt lat="50.60326" lon="5.44741">
        <ele>191.4</ele>
        <time>2022-10-04T11:11:54Z</time>
      </trkpt>
      <trkpt lat="50.60322" lon="5.44754">
        <ele>192</ele>
        <time>2022-10-04T11:11:56Z</time>
      </trkpt>
      <trkpt lat="50.6032" lon="5.4476">
        <ele>192</ele>
        <time>2022-10-04T11:11:57Z</time>
      </trkpt>
      <trkpt lat="50.60317" lon="5.44774">
        <ele>192.8</ele>
        <time>2022-10-04T11:11:59Z</time>
      </trkpt>
      <trkpt lat="50.60315" lon="5.44782">
        <ele>192.8</ele>
        <time>2022-10-04T11:12:00Z</time>
      </trkpt>
      <trkpt lat="50.60314" lon="5.44789">
        <ele>192.8</ele>
        <time>2022-10-04T11:12:01Z</time>
      </trkpt>
      <trkpt lat="50.60313" lon="5.44797">
        <ele>193</ele>
        <time>2022-10-04T11:12:02Z</time>
      </trkpt>
      <trkpt lat="50.60313" lon="5.44815">
        <ele>192.8</ele>
        <time>2022-10-04T11:12:04Z</time>
      </trkpt>
      <trkpt lat="50.60312" lon="5.44825">
        <ele>192.8</ele>
        <time>2022-10-04T11:12:05Z</time>
      </trkpt>
      <trkpt lat="50.60309" lon="5.44854">
        <ele>192.8</ele>
        <time>2022-10-04T11:12:08Z</time>
      </trkpt>
      <trkpt lat="50.60307" lon="5.44863">
        <ele>192.8</ele>
        <time>2022-10-04T11:12:09Z</time>
      </trkpt>
      <trkpt lat="50.60296" lon="5.449">
        <ele>191.6</ele>
        <time>2022-10-04T11:12:14Z</time>
      </trkpt>
      <trkpt lat="50.60285" lon="5.44908">
        <ele>190</ele>
        <time>2022-10-04T11:12:18Z</time>
      </trkpt>
      <trkpt lat="50.60282" lon="5.4491">
        <ele>189.8</ele>
        <time>2022-10-04T11:12:21Z</time>
        <extensions>
          <visugpx:TrkExtension xmlns:visugpx="https://www.visugpx.com/editgpx/">
            <visugpx:node>1</visugpx:node>
            </visugpx:TrkExtension>
        </extensions>
      </trkpt>
    </trkseg>
  </trk>
</gpx>